<?xml version="1.0" encoding="UTF-8" standalone="no" ?>
<gpx xmlns="http://www.topografix.com/GPX/1/1" xmlns:xsi="http://www.w3.org/2001/XMLSchema-instance" xsi:schemaLocation="http://www.topografix.com/GPX/1/1 http://www.topografix.com/GPX/1/1/gpx.xsd" version="1.1" creator="VisuGPX - https://www.visugpx.com">
  <metadata>
    <name>QArn4SPOnt</name>
    <desc><![CDATA[

]]></desc>
  </metadata>
  <trk>
    <name><![CDATA[QArn4SPOnt_1]]></name>
    <trkseg>
      <trkpt lat="46.14088" lon="4.55674">
        <ele>719.8</ele>
        <time>2020-10-19T10:14:43Z</time>
      </trkpt>
      <trkpt lat="46.14088" lon="4.55674">
        <ele>719.8</ele>
        <time>2020-10-19T10:14:43Z</time>
      </trkpt>
      <trkpt lat="46.14088" lon="4.55674">
        <ele>719.8</ele>
        <time>2020-10-19T10:14:44Z</time>
      </trkpt>
      <trkpt lat="46.14088" lon="4.55671">
        <ele>719.8</ele>
        <time>2020-10-19T10:14:45Z</time>
      </trkpt>
      <trkpt lat="46.14088" lon="4.55671">
        <ele>719.6</ele>
        <time>2020-10-19T10:14:46Z</time>
      </trkpt>
      <trkpt lat="46.14088" lon="4.55666">
        <ele>719.6</ele>
        <time>2020-10-19T10:14:47Z</time>
      </trkpt>
      <trkpt lat="46.14088" lon="4.55663">
        <ele>719.4</ele>
        <time>2020-10-19T10:14:48Z</time>
      </trkpt>
      <trkpt lat="46.14087" lon="4.55661">
        <ele>719.2</ele>
        <time>2020-10-19T10:14:49Z</time>
      </trkpt>
      <trkpt lat="46.14086" lon="4.55657">
        <ele>719.6</ele>
        <time>2020-10-19T10:14:50Z</time>
      </trkpt>
      <trkpt lat="46.14084" lon="4.55654">
        <ele>719.8</ele>
        <time>2020-10-19T10:14:51Z</time>
      </trkpt>
      <trkpt lat="46.14082" lon="4.55651">
        <ele>719.6</ele>
        <time>2020-10-19T10:14:52Z</time>
      </trkpt>
      <trkpt lat="46.1408" lon="4.55649">
        <ele>720</ele>
        <time>2020-10-19T10:14:53Z</time>
      </trkpt>
      <trkpt lat="46.14079" lon="4.55647">
        <ele>719.6</ele>
        <time>2020-10-19T10:14:54Z</time>
      </trkpt>
      <trkpt lat="46.14077" lon="4.55645">
        <ele>719.2</ele>
        <time>2020-10-19T10:14:55Z</time>
      </trkpt>
      <trkpt lat="46.14075" lon="4.55643">
        <ele>719.8</ele>
        <time>2020-10-19T10:14:56Z</time>
      </trkpt>
      <trkpt lat="46.14073" lon="4.55641">
        <ele>719.4</ele>
        <time>2020-10-19T10:14:57Z</time>
      </trkpt>
      <trkpt lat="46.14072" lon="4.55638">
        <ele>719.2</ele>
        <time>2020-10-19T10:14:58Z</time>
      </trkpt>
      <trkpt lat="46.1407" lon="4.55635">
        <ele>719.2</ele>
        <time>2020-10-19T10:14:59Z</time>
      </trkpt>
      <trkpt lat="46.14068" lon="4.55633">
        <ele>719.2</ele>
        <time>2020-10-19T10:15:00Z</time>
      </trkpt>
      <trkpt lat="46.14067" lon="4.5563">
        <ele>719</ele>
        <time>2020-10-19T10:15:01Z</time>
      </trkpt>
      <trkpt lat="46.14066" lon="4.55626">
        <ele>719</ele>
        <time>2020-10-19T10:15:02Z</time>
      </trkpt>
      <trkpt lat="46.14065" lon="4.55623">
        <ele>719.2</ele>
        <time>2020-10-19T10:15:03Z</time>
      </trkpt>
      <trkpt lat="46.14064" lon="4.55621">
        <ele>719</ele>
        <time>2020-10-19T10:15:04Z</time>
      </trkpt>
      <trkpt lat="46.14063" lon="4.55618">
        <ele>718.8</ele>
        <time>2020-10-19T10:15:05Z</time>
      </trkpt>
      <trkpt lat="46.14063" lon="4.55618">
        <ele>718.8</ele>
        <time>2020-10-19T10:15:06Z</time>
      </trkpt>
      <trkpt lat="46.14062" lon="4.55613">
        <ele>718.8</ele>
        <time>2020-10-19T10:15:07Z</time>
      </trkpt>
      <trkpt lat="46.14061" lon="4.5561">
        <ele>718.8</ele>
        <time>2020-10-19T10:15:08Z</time>
      </trkpt>
      <trkpt lat="46.14059" lon="4.55608">
        <ele>719</ele>
        <time>2020-10-19T10:15:09Z</time>
      </trkpt>
      <trkpt lat="46.14059" lon="4.55608">
        <ele>719</ele>
        <time>2020-10-19T10:15:10Z</time>
      </trkpt>
      <trkpt lat="46.14057" lon="4.55605">
        <ele>719</ele>
        <time>2020-10-19T10:15:11Z</time>
      </trkpt>
      <trkpt lat="46.14057" lon="4.55605">
        <ele>719.2</ele>
        <time>2020-10-19T10:15:12Z</time>
      </trkpt>
      <trkpt lat="46.14055" lon="4.55603">
        <ele>719.2</ele>
        <time>2020-10-19T10:15:13Z</time>
      </trkpt>
      <trkpt lat="46.14055" lon="4.55603">
        <ele>719.2</ele>
        <time>2020-10-19T10:15:14Z</time>
      </trkpt>
      <trkpt lat="46.14053" lon="4.55599">
        <ele>719</ele>
        <time>2020-10-19T10:15:15Z</time>
      </trkpt>
      <trkpt lat="46.14053" lon="4.55599">
        <ele>719.2</ele>
        <time>2020-10-19T10:15:16Z</time>
      </trkpt>
      <trkpt lat="46.14052" lon="4.55597">
        <ele>719.2</ele>
        <time>2020-10-19T10:15:17Z</time>
      </trkpt>
      <trkpt lat="46.14052" lon="4.55597">
        <ele>719.4</ele>
        <time>2020-10-19T10:15:18Z</time>
      </trkpt>
      <trkpt lat="46.14052" lon="4.55594">
        <ele>719.4</ele>
        <time>2020-10-19T10:15:19Z</time>
      </trkpt>
      <trkpt lat="46.14052" lon="4.55594">
        <ele>719.4</ele>
        <time>2020-10-19T10:15:20Z</time>
      </trkpt>
      <trkpt lat="46.14052" lon="4.55594">
        <ele>719.4</ele>
        <time>2020-10-19T10:15:21Z</time>
      </trkpt>
      <trkpt lat="46.14053" lon="4.55591">
        <ele>719.6</ele>
        <time>2020-10-19T10:15:22Z</time>
      </trkpt>
      <trkpt lat="46.14053" lon="4.55591">
        <ele>719.6</ele>
        <time>2020-10-19T10:15:23Z</time>
      </trkpt>
      <trkpt lat="46.14053" lon="4.55591">
        <ele>720</ele>
        <time>2020-10-19T10:15:24Z</time>
      </trkpt>
      <trkpt lat="46.14053" lon="4.55591">
        <ele>720.2</ele>
        <time>2020-10-19T10:15:25Z</time>
      </trkpt>
      <trkpt lat="46.14054" lon="4.55589">
        <ele>720.4</ele>
        <time>2020-10-19T10:15:26Z</time>
      </trkpt>
      <trkpt lat="46.14054" lon="4.55589">
        <ele>720.6</ele>
        <time>2020-10-19T10:15:27Z</time>
      </trkpt>
      <trkpt lat="46.14054" lon="4.55589">
        <ele>720.8</ele>
        <time>2020-10-19T10:15:28Z</time>
      </trkpt>
      <trkpt lat="46.14054" lon="4.55586">
        <ele>721.2</ele>
        <time>2020-10-19T10:15:29Z</time>
      </trkpt>
      <trkpt lat="46.14054" lon="4.55586">
        <ele>721.4</ele>
        <time>2020-10-19T10:15:30Z</time>
      </trkpt>
      <trkpt lat="46.14054" lon="4.55586">
        <ele>721.6</ele>
        <time>2020-10-19T10:15:31Z</time>
      </trkpt>
      <trkpt lat="46.14054" lon="4.55586">
        <ele>721.6</ele>
        <time>2020-10-19T10:15:32Z</time>
      </trkpt>
      <trkpt lat="46.14054" lon="4.55586">
        <ele>721.8</ele>
        <time>2020-10-19T10:15:33Z</time>
      </trkpt>
      <trkpt lat="46.14055" lon="4.55583">
        <ele>721.4</ele>
        <time>2020-10-19T10:15:34Z</time>
      </trkpt>
      <trkpt lat="46.14055" lon="4.55583">
        <ele>721</ele>
        <time>2020-10-19T10:15:35Z</time>
      </trkpt>
      <trkpt lat="46.14055" lon="4.55583">
        <ele>721</ele>
        <time>2020-10-19T10:15:36Z</time>
      </trkpt>
      <trkpt lat="46.14055" lon="4.55583">
        <ele>721.2</ele>
        <time>2020-10-19T10:15:37Z</time>
      </trkpt>
      <trkpt lat="46.14057" lon="4.5558">
        <ele>721.4</ele>
        <time>2020-10-19T10:15:38Z</time>
      </trkpt>
      <trkpt lat="46.14057" lon="4.5558">
        <ele>721.6</ele>
        <time>2020-10-19T10:15:39Z</time>
      </trkpt>
      <trkpt lat="46.14057" lon="4.5558">
        <ele>721.4</ele>
        <time>2020-10-19T10:15:40Z</time>
      </trkpt>
      <trkpt lat="46.14058" lon="4.55579">
        <ele>721.2</ele>
        <time>2020-10-19T10:15:41Z</time>
      </trkpt>
      <trkpt lat="46.14058" lon="4.55579">
        <ele>721</ele>
        <time>2020-10-19T10:15:42Z</time>
      </trkpt>
      <trkpt lat="46.1406" lon="4.55576">
        <ele>721</ele>
        <time>2020-10-19T10:15:43Z</time>
      </trkpt>
      <trkpt lat="46.1406" lon="4.55576">
        <ele>721.4</ele>
        <time>2020-10-19T10:15:44Z</time>
      </trkpt>
      <trkpt lat="46.1406" lon="4.55576">
        <ele>721.6</ele>
        <time>2020-10-19T10:15:45Z</time>
      </trkpt>
      <trkpt lat="46.1406" lon="4.55576">
        <ele>721.8</ele>
        <time>2020-10-19T10:15:46Z</time>
      </trkpt>
      <trkpt lat="46.1406" lon="4.55576">
        <ele>721.6</ele>
        <time>2020-10-19T10:15:47Z</time>
      </trkpt>
      <trkpt lat="46.1406" lon="4.55576">
        <ele>721.6</ele>
        <time>2020-10-19T10:15:48Z</time>
      </trkpt>
      <trkpt lat="46.14061" lon="4.55573">
        <ele>721.6</ele>
        <time>2020-10-19T10:15:49Z</time>
      </trkpt>
      <trkpt lat="46.14061" lon="4.55573">
        <ele>721.8</ele>
        <time>2020-10-19T10:15:50Z</time>
      </trkpt>
      <trkpt lat="46.14061" lon="4.55573">
        <ele>721.8</ele>
        <time>2020-10-19T10:15:51Z</time>
      </trkpt>
      <trkpt lat="46.14061" lon="4.55573">
        <ele>722</ele>
        <time>2020-10-19T10:15:52Z</time>
      </trkpt>
      <trkpt lat="46.14061" lon="4.55573">
        <ele>722.2</ele>
        <time>2020-10-19T10:15:53Z</time>
      </trkpt>
      <trkpt lat="46.14061" lon="4.55573">
        <ele>722</ele>
        <time>2020-10-19T10:15:54Z</time>
      </trkpt>
      <trkpt lat="46.14061" lon="4.55573">
        <ele>722</ele>
        <time>2020-10-19T10:15:55Z</time>
      </trkpt>
      <trkpt lat="46.14059" lon="4.55574">
        <ele>722</ele>
        <time>2020-10-19T10:15:56Z</time>
      </trkpt>
      <trkpt lat="46.14057" lon="4.55573">
        <ele>722</ele>
        <time>2020-10-19T10:15:57Z</time>
      </trkpt>
      <trkpt lat="46.14055" lon="4.55573">
        <ele>721.8</ele>
        <time>2020-10-19T10:15:58Z</time>
      </trkpt>
      <trkpt lat="46.14053" lon="4.55572">
        <ele>722</ele>
        <time>2020-10-19T10:15:59Z</time>
      </trkpt>
      <trkpt lat="46.1405" lon="4.55571">
        <ele>721.8</ele>
        <time>2020-10-19T10:16:00Z</time>
      </trkpt>
      <trkpt lat="46.14048" lon="4.5557">
        <ele>721.8</ele>
        <time>2020-10-19T10:16:01Z</time>
      </trkpt>
      <trkpt lat="46.14046" lon="4.55569">
        <ele>722.2</ele>
        <time>2020-10-19T10:16:02Z</time>
      </trkpt>
      <trkpt lat="46.14044" lon="4.55568">
        <ele>722</ele>
        <time>2020-10-19T10:16:03Z</time>
      </trkpt>
      <trkpt lat="46.14042" lon="4.55567">
        <ele>721.6</ele>
        <time>2020-10-19T10:16:04Z</time>
      </trkpt>
      <trkpt lat="46.14041" lon="4.55565">
        <ele>722.2</ele>
        <time>2020-10-19T10:16:05Z</time>
      </trkpt>
      <trkpt lat="46.14039" lon="4.55564">
        <ele>721.8</ele>
        <time>2020-10-19T10:16:06Z</time>
      </trkpt>
      <trkpt lat="46.14037" lon="4.55562">
        <ele>721.8</ele>
        <time>2020-10-19T10:16:07Z</time>
      </trkpt>
      <trkpt lat="46.14036" lon="4.5556">
        <ele>722.2</ele>
        <time>2020-10-19T10:16:08Z</time>
      </trkpt>
      <trkpt lat="46.14035" lon="4.55558">
        <ele>722.6</ele>
        <time>2020-10-19T10:16:09Z</time>
      </trkpt>
      <trkpt lat="46.14035" lon="4.55558">
        <ele>722.8</ele>
        <time>2020-10-19T10:16:10Z</time>
      </trkpt>
      <trkpt lat="46.14033" lon="4.55555">
        <ele>722.8</ele>
        <time>2020-10-19T10:16:11Z</time>
      </trkpt>
      <trkpt lat="46.14033" lon="4.55555">
        <ele>723</ele>
        <time>2020-10-19T10:16:12Z</time>
      </trkpt>
      <trkpt lat="46.14033" lon="4.55555">
        <ele>723.4</ele>
        <time>2020-10-19T10:16:13Z</time>
      </trkpt>
      <trkpt lat="46.14033" lon="4.55555">
        <ele>723.6</ele>
        <time>2020-10-19T10:16:14Z</time>
      </trkpt>
      <trkpt lat="46.14034" lon="4.55552">
        <ele>723.6</ele>
        <time>2020-10-19T10:16:15Z</time>
      </trkpt>
      <trkpt lat="46.14034" lon="4.55552">
        <ele>723.6</ele>
        <time>2020-10-19T10:16:16Z</time>
      </trkpt>
      <trkpt lat="46.14034" lon="4.55552">
        <ele>723.6</ele>
        <time>2020-10-19T10:16:17Z</time>
      </trkpt>
      <trkpt lat="46.14034" lon="4.55552">
        <ele>723.6</ele>
        <time>2020-10-19T10:16:18Z</time>
      </trkpt>
      <trkpt lat="46.14031" lon="4.55549">
        <ele>723.8</ele>
        <time>2020-10-19T10:16:19Z</time>
      </trkpt>
      <trkpt lat="46.1403" lon="4.55547">
        <ele>724</ele>
        <time>2020-10-19T10:16:20Z</time>
      </trkpt>
      <trkpt lat="46.1403" lon="4.55547">
        <ele>724.4</ele>
        <time>2020-10-19T10:16:21Z</time>
      </trkpt>
      <trkpt lat="46.14028" lon="4.55543">
        <ele>724.8</ele>
        <time>2020-10-19T10:16:22Z</time>
      </trkpt>
      <trkpt lat="46.14028" lon="4.55543">
        <ele>725.2</ele>
        <time>2020-10-19T10:16:23Z</time>
      </trkpt>
      <trkpt lat="46.14026" lon="4.5554">
        <ele>725.4</ele>
        <time>2020-10-19T10:16:24Z</time>
      </trkpt>
      <trkpt lat="46.14026" lon="4.5554">
        <ele>725.6</ele>
        <time>2020-10-19T10:16:25Z</time>
      </trkpt>
      <trkpt lat="46.14026" lon="4.55537">
        <ele>726</ele>
        <time>2020-10-19T10:16:26Z</time>
      </trkpt>
      <trkpt lat="46.14026" lon="4.55537">
        <ele>726.4</ele>
        <time>2020-10-19T10:16:27Z</time>
      </trkpt>
      <trkpt lat="46.14024" lon="4.55534">
        <ele>726.6</ele>
        <time>2020-10-19T10:16:28Z</time>
      </trkpt>
      <trkpt lat="46.14024" lon="4.55534">
        <ele>726.8</ele>
        <time>2020-10-19T10:16:29Z</time>
      </trkpt>
      <trkpt lat="46.14022" lon="4.55531">
        <ele>727</ele>
        <time>2020-10-19T10:16:30Z</time>
      </trkpt>
      <trkpt lat="46.14022" lon="4.55531">
        <ele>727.2</ele>
        <time>2020-10-19T10:16:31Z</time>
      </trkpt>
      <trkpt lat="46.14021" lon="4.55527">
        <ele>727.4</ele>
        <time>2020-10-19T10:16:32Z</time>
      </trkpt>
      <trkpt lat="46.14021" lon="4.55527">
        <ele>727.4</ele>
        <time>2020-10-19T10:16:33Z</time>
      </trkpt>
      <trkpt lat="46.14019" lon="4.55523">
        <ele>727.6</ele>
        <time>2020-10-19T10:16:34Z</time>
      </trkpt>
      <trkpt lat="46.14018" lon="4.55521">
        <ele>727.6</ele>
        <time>2020-10-19T10:16:35Z</time>
      </trkpt>
      <trkpt lat="46.14018" lon="4.55521">
        <ele>727.6</ele>
        <time>2020-10-19T10:16:36Z</time>
      </trkpt>
      <trkpt lat="46.14016" lon="4.55518">
        <ele>727.6</ele>
        <time>2020-10-19T10:16:37Z</time>
      </trkpt>
      <trkpt lat="46.14016" lon="4.55518">
        <ele>727.6</ele>
        <time>2020-10-19T10:16:38Z</time>
      </trkpt>
      <trkpt lat="46.14014" lon="4.55514">
        <ele>727.6</ele>
        <time>2020-10-19T10:16:39Z</time>
      </trkpt>
      <trkpt lat="46.14014" lon="4.55514">
        <ele>727.8</ele>
        <time>2020-10-19T10:16:40Z</time>
      </trkpt>
      <trkpt lat="46.14012" lon="4.55513">
        <ele>727.8</ele>
        <time>2020-10-19T10:16:41Z</time>
      </trkpt>
      <trkpt lat="46.14012" lon="4.55513">
        <ele>728</ele>
        <time>2020-10-19T10:16:42Z</time>
      </trkpt>
      <trkpt lat="46.1401" lon="4.55511">
        <ele>728.2</ele>
        <time>2020-10-19T10:16:43Z</time>
      </trkpt>
      <trkpt lat="46.1401" lon="4.55511">
        <ele>728.2</ele>
        <time>2020-10-19T10:16:44Z</time>
      </trkpt>
      <trkpt lat="46.14008" lon="4.55508">
        <ele>728.2</ele>
        <time>2020-10-19T10:16:45Z</time>
      </trkpt>
      <trkpt lat="46.14008" lon="4.55508">
        <ele>728.2</ele>
        <time>2020-10-19T10:16:46Z</time>
      </trkpt>
      <trkpt lat="46.14007" lon="4.55506">
        <ele>728.6</ele>
        <time>2020-10-19T10:16:47Z</time>
      </trkpt>
      <trkpt lat="46.14007" lon="4.55506">
        <ele>728.8</ele>
        <time>2020-10-19T10:16:48Z</time>
      </trkpt>
      <trkpt lat="46.14005" lon="4.55502">
        <ele>728.8</ele>
        <time>2020-10-19T10:16:49Z</time>
      </trkpt>
      <trkpt lat="46.14005" lon="4.55502">
        <ele>729</ele>
        <time>2020-10-19T10:16:50Z</time>
      </trkpt>
      <trkpt lat="46.14004" lon="4.55499">
        <ele>729</ele>
        <time>2020-10-19T10:16:51Z</time>
      </trkpt>
      <trkpt lat="46.14003" lon="4.55496">
        <ele>729</ele>
        <time>2020-10-19T10:16:52Z</time>
      </trkpt>
      <trkpt lat="46.14002" lon="4.55494">
        <ele>729</ele>
        <time>2020-10-19T10:16:53Z</time>
      </trkpt>
      <trkpt lat="46.14002" lon="4.55494">
        <ele>729.2</ele>
        <time>2020-10-19T10:16:54Z</time>
      </trkpt>
      <trkpt lat="46.14" lon="4.5549">
        <ele>729.4</ele>
        <time>2020-10-19T10:16:55Z</time>
      </trkpt>
      <trkpt lat="46.13998" lon="4.55487">
        <ele>729.6</ele>
        <time>2020-10-19T10:16:56Z</time>
      </trkpt>
      <trkpt lat="46.13998" lon="4.55485">
        <ele>730</ele>
        <time>2020-10-19T10:16:57Z</time>
      </trkpt>
      <trkpt lat="46.13997" lon="4.55482">
        <ele>730.4</ele>
        <time>2020-10-19T10:16:58Z</time>
      </trkpt>
      <trkpt lat="46.13996" lon="4.55479">
        <ele>730.6</ele>
        <time>2020-10-19T10:16:59Z</time>
      </trkpt>
      <trkpt lat="46.13996" lon="4.55477">
        <ele>730.6</ele>
        <time>2020-10-19T10:17:00Z</time>
      </trkpt>
      <trkpt lat="46.13996" lon="4.55477">
        <ele>731</ele>
        <time>2020-10-19T10:17:01Z</time>
      </trkpt>
      <trkpt lat="46.13996" lon="4.55472">
        <ele>731.6</ele>
        <time>2020-10-19T10:17:02Z</time>
      </trkpt>
      <trkpt lat="46.13996" lon="4.55468">
        <ele>732</ele>
        <time>2020-10-19T10:17:03Z</time>
      </trkpt>
      <trkpt lat="46.13996" lon="4.55465">
        <ele>732.2</ele>
        <time>2020-10-19T10:17:04Z</time>
      </trkpt>
      <trkpt lat="46.13995" lon="4.55463">
        <ele>732.6</ele>
        <time>2020-10-19T10:17:05Z</time>
      </trkpt>
      <trkpt lat="46.13995" lon="4.55463">
        <ele>732.8</ele>
        <time>2020-10-19T10:17:06Z</time>
      </trkpt>
      <trkpt lat="46.13994" lon="4.55458">
        <ele>733.2</ele>
        <time>2020-10-19T10:17:07Z</time>
      </trkpt>
      <trkpt lat="46.13994" lon="4.55458">
        <ele>733.4</ele>
        <time>2020-10-19T10:17:08Z</time>
      </trkpt>
      <trkpt lat="46.13993" lon="4.55454">
        <ele>733.6</ele>
        <time>2020-10-19T10:17:09Z</time>
      </trkpt>
      <trkpt lat="46.13993" lon="4.55454">
        <ele>733.8</ele>
        <time>2020-10-19T10:17:10Z</time>
      </trkpt>
      <trkpt lat="46.13992" lon="4.5545">
        <ele>734</ele>
        <time>2020-10-19T10:17:11Z</time>
      </trkpt>
      <trkpt lat="46.13992" lon="4.5545">
        <ele>734</ele>
        <time>2020-10-19T10:17:12Z</time>
      </trkpt>
      <trkpt lat="46.13991" lon="4.55447">
        <ele>734</ele>
        <time>2020-10-19T10:17:13Z</time>
      </trkpt>
      <trkpt lat="46.13991" lon="4.55447">
        <ele>734.2</ele>
        <time>2020-10-19T10:17:14Z</time>
      </trkpt>
      <trkpt lat="46.13989" lon="4.55444">
        <ele>734.2</ele>
        <time>2020-10-19T10:17:15Z</time>
      </trkpt>
      <trkpt lat="46.13989" lon="4.55444">
        <ele>734</ele>
        <time>2020-10-19T10:17:16Z</time>
      </trkpt>
      <trkpt lat="46.13988" lon="4.55442">
        <ele>734.2</ele>
        <time>2020-10-19T10:17:17Z</time>
      </trkpt>
      <trkpt lat="46.13988" lon="4.55442">
        <ele>734.2</ele>
        <time>2020-10-19T10:17:18Z</time>
      </trkpt>
      <trkpt lat="46.13986" lon="4.55439">
        <ele>734.6</ele>
        <time>2020-10-19T10:17:19Z</time>
      </trkpt>
      <trkpt lat="46.13986" lon="4.55439">
        <ele>734.8</ele>
        <time>2020-10-19T10:17:20Z</time>
      </trkpt>
      <trkpt lat="46.13985" lon="4.55435">
        <ele>735</ele>
        <time>2020-10-19T10:17:21Z</time>
      </trkpt>
      <trkpt lat="46.13985" lon="4.55435">
        <ele>735</ele>
        <time>2020-10-19T10:17:22Z</time>
      </trkpt>
      <trkpt lat="46.13983" lon="4.55433">
        <ele>735.2</ele>
        <time>2020-10-19T10:17:23Z</time>
      </trkpt>
      <trkpt lat="46.13982" lon="4.5543">
        <ele>735.2</ele>
        <time>2020-10-19T10:17:24Z</time>
      </trkpt>
      <trkpt lat="46.13981" lon="4.55428">
        <ele>735.4</ele>
        <time>2020-10-19T10:17:25Z</time>
      </trkpt>
      <trkpt lat="46.1398" lon="4.55426">
        <ele>735.8</ele>
        <time>2020-10-19T10:17:26Z</time>
      </trkpt>
      <trkpt lat="46.13978" lon="4.55423">
        <ele>735.6</ele>
        <time>2020-10-19T10:17:27Z</time>
      </trkpt>
      <trkpt lat="46.13976" lon="4.5542">
        <ele>736</ele>
        <time>2020-10-19T10:17:28Z</time>
      </trkpt>
      <trkpt lat="46.13975" lon="4.55418">
        <ele>736.2</ele>
        <time>2020-10-19T10:17:29Z</time>
      </trkpt>
      <trkpt lat="46.13973" lon="4.55415">
        <ele>736</ele>
        <time>2020-10-19T10:17:30Z</time>
      </trkpt>
      <trkpt lat="46.13971" lon="4.55412">
        <ele>736.2</ele>
        <time>2020-10-19T10:17:31Z</time>
      </trkpt>
      <trkpt lat="46.1397" lon="4.5541">
        <ele>736.2</ele>
        <time>2020-10-19T10:17:32Z</time>
      </trkpt>
      <trkpt lat="46.13969" lon="4.55407">
        <ele>736</ele>
        <time>2020-10-19T10:17:33Z</time>
      </trkpt>
      <trkpt lat="46.13967" lon="4.55404">
        <ele>736.4</ele>
        <time>2020-10-19T10:17:34Z</time>
      </trkpt>
      <trkpt lat="46.13966" lon="4.55401">
        <ele>736</ele>
        <time>2020-10-19T10:17:35Z</time>
      </trkpt>
      <trkpt lat="46.13964" lon="4.55398">
        <ele>735.8</ele>
        <time>2020-10-19T10:17:36Z</time>
      </trkpt>
      <trkpt lat="46.13962" lon="4.55394">
        <ele>736.6</ele>
        <time>2020-10-19T10:17:37Z</time>
      </trkpt>
      <trkpt lat="46.13961" lon="4.55391">
        <ele>736.6</ele>
        <time>2020-10-19T10:17:38Z</time>
      </trkpt>
      <trkpt lat="46.13959" lon="4.55388">
        <ele>736.4</ele>
        <time>2020-10-19T10:17:39Z</time>
      </trkpt>
      <trkpt lat="46.13957" lon="4.55386">
        <ele>737</ele>
        <time>2020-10-19T10:17:40Z</time>
      </trkpt>
      <trkpt lat="46.13957" lon="4.55386">
        <ele>737</ele>
        <time>2020-10-19T10:17:41Z</time>
      </trkpt>
      <trkpt lat="46.13955" lon="4.55382">
        <ele>737.4</ele>
        <time>2020-10-19T10:17:42Z</time>
      </trkpt>
      <trkpt lat="46.13953" lon="4.5538">
        <ele>737.4</ele>
        <time>2020-10-19T10:17:43Z</time>
      </trkpt>
      <trkpt lat="46.13953" lon="4.5538">
        <ele>737.6</ele>
        <time>2020-10-19T10:17:44Z</time>
      </trkpt>
      <trkpt lat="46.13952" lon="4.55376">
        <ele>737.4</ele>
        <time>2020-10-19T10:17:45Z</time>
      </trkpt>
      <trkpt lat="46.13951" lon="4.55374">
        <ele>737.4</ele>
        <time>2020-10-19T10:17:46Z</time>
      </trkpt>
      <trkpt lat="46.13951" lon="4.55374">
        <ele>737.6</ele>
        <time>2020-10-19T10:17:47Z</time>
      </trkpt>
      <trkpt lat="46.13948" lon="4.5537">
        <ele>737.6</ele>
        <time>2020-10-19T10:17:48Z</time>
      </trkpt>
      <trkpt lat="46.13947" lon="4.55368">
        <ele>737.6</ele>
        <time>2020-10-19T10:17:49Z</time>
      </trkpt>
      <trkpt lat="46.13945" lon="4.55367">
        <ele>737.6</ele>
        <time>2020-10-19T10:17:50Z</time>
      </trkpt>
      <trkpt lat="46.13943" lon="4.55364">
        <ele>737.8</ele>
        <time>2020-10-19T10:17:51Z</time>
      </trkpt>
      <trkpt lat="46.13941" lon="4.55362">
        <ele>738</ele>
        <time>2020-10-19T10:17:52Z</time>
      </trkpt>
      <trkpt lat="46.13939" lon="4.5536">
        <ele>738</ele>
        <time>2020-10-19T10:17:53Z</time>
      </trkpt>
      <trkpt lat="46.13938" lon="4.55357">
        <ele>737.8</ele>
        <time>2020-10-19T10:17:54Z</time>
      </trkpt>
      <trkpt lat="46.13936" lon="4.55355">
        <ele>738</ele>
        <time>2020-10-19T10:17:55Z</time>
      </trkpt>
      <trkpt lat="46.13934" lon="4.55352">
        <ele>738</ele>
        <time>2020-10-19T10:17:56Z</time>
      </trkpt>
      <trkpt lat="46.13933" lon="4.55349">
        <ele>738.2</ele>
        <time>2020-10-19T10:17:57Z</time>
      </trkpt>
      <trkpt lat="46.13931" lon="4.55345">
        <ele>738.4</ele>
        <time>2020-10-19T10:17:58Z</time>
      </trkpt>
      <trkpt lat="46.13929" lon="4.55341">
        <ele>738.4</ele>
        <time>2020-10-19T10:17:59Z</time>
      </trkpt>
      <trkpt lat="46.13927" lon="4.55337">
        <ele>738.6</ele>
        <time>2020-10-19T10:18:00Z</time>
      </trkpt>
      <trkpt lat="46.13925" lon="4.55334">
        <ele>738.8</ele>
        <time>2020-10-19T10:18:01Z</time>
      </trkpt>
      <trkpt lat="46.13923" lon="4.55332">
        <ele>738.8</ele>
        <time>2020-10-19T10:18:02Z</time>
      </trkpt>
      <trkpt lat="46.1392" lon="4.55329">
        <ele>738.4</ele>
        <time>2020-10-19T10:18:03Z</time>
      </trkpt>
      <trkpt lat="46.13918" lon="4.55326">
        <ele>738.2</ele>
        <time>2020-10-19T10:18:04Z</time>
      </trkpt>
      <trkpt lat="46.13916" lon="4.55324">
        <ele>737.6</ele>
        <time>2020-10-19T10:18:05Z</time>
      </trkpt>
      <trkpt lat="46.13913" lon="4.55321">
        <ele>738.2</ele>
        <time>2020-10-19T10:18:06Z</time>
      </trkpt>
      <trkpt lat="46.13911" lon="4.55318">
        <ele>737.8</ele>
        <time>2020-10-19T10:18:07Z</time>
      </trkpt>
      <trkpt lat="46.13909" lon="4.55315">
        <ele>737.8</ele>
        <time>2020-10-19T10:18:08Z</time>
      </trkpt>
      <trkpt lat="46.13908" lon="4.55313">
        <ele>738</ele>
        <time>2020-10-19T10:18:09Z</time>
      </trkpt>
      <trkpt lat="46.13907" lon="4.5531">
        <ele>737.8</ele>
        <time>2020-10-19T10:18:10Z</time>
      </trkpt>
      <trkpt lat="46.13905" lon="4.55308">
        <ele>738</ele>
        <time>2020-10-19T10:18:11Z</time>
      </trkpt>
      <trkpt lat="46.13904" lon="4.55306">
        <ele>738</ele>
        <time>2020-10-19T10:18:12Z</time>
      </trkpt>
      <trkpt lat="46.13903" lon="4.55303">
        <ele>738.2</ele>
        <time>2020-10-19T10:18:13Z</time>
      </trkpt>
      <trkpt lat="46.13902" lon="4.553">
        <ele>738.2</ele>
        <time>2020-10-19T10:18:14Z</time>
      </trkpt>
      <trkpt lat="46.13902" lon="4.553">
        <ele>738.4</ele>
        <time>2020-10-19T10:18:15Z</time>
      </trkpt>
      <trkpt lat="46.13899" lon="4.55297">
        <ele>738.6</ele>
        <time>2020-10-19T10:18:16Z</time>
      </trkpt>
      <trkpt lat="46.13899" lon="4.55297">
        <ele>738.4</ele>
        <time>2020-10-19T10:18:17Z</time>
      </trkpt>
      <trkpt lat="46.13897" lon="4.55295">
        <ele>738.4</ele>
        <time>2020-10-19T10:18:18Z</time>
      </trkpt>
      <trkpt lat="46.13896" lon="4.55293">
        <ele>738.6</ele>
        <time>2020-10-19T10:18:19Z</time>
      </trkpt>
      <trkpt lat="46.13896" lon="4.55293">
        <ele>738.6</ele>
        <time>2020-10-19T10:18:20Z</time>
      </trkpt>
      <trkpt lat="46.13893" lon="4.5529">
        <ele>738.6</ele>
        <time>2020-10-19T10:18:21Z</time>
      </trkpt>
      <trkpt lat="46.13893" lon="4.5529">
        <ele>738.6</ele>
        <time>2020-10-19T10:18:22Z</time>
      </trkpt>
      <trkpt lat="46.1389" lon="4.55287">
        <ele>738.8</ele>
        <time>2020-10-19T10:18:23Z</time>
      </trkpt>
      <trkpt lat="46.1389" lon="4.55287">
        <ele>738.8</ele>
        <time>2020-10-19T10:18:24Z</time>
      </trkpt>
      <trkpt lat="46.13888" lon="4.55285">
        <ele>739</ele>
        <time>2020-10-19T10:18:25Z</time>
      </trkpt>
      <trkpt lat="46.13888" lon="4.55285">
        <ele>739.2</ele>
        <time>2020-10-19T10:18:26Z</time>
      </trkpt>
      <trkpt lat="46.13886" lon="4.55282">
        <ele>739.2</ele>
        <time>2020-10-19T10:18:27Z</time>
      </trkpt>
      <trkpt lat="46.13886" lon="4.55282">
        <ele>739</ele>
        <time>2020-10-19T10:18:28Z</time>
      </trkpt>
      <trkpt lat="46.13885" lon="4.5528">
        <ele>739.2</ele>
        <time>2020-10-19T10:18:29Z</time>
      </trkpt>
      <trkpt lat="46.13885" lon="4.5528">
        <ele>739</ele>
        <time>2020-10-19T10:18:30Z</time>
      </trkpt>
      <trkpt lat="46.13884" lon="4.55278">
        <ele>739.2</ele>
        <time>2020-10-19T10:18:31Z</time>
      </trkpt>
      <trkpt lat="46.13884" lon="4.55278">
        <ele>739.2</ele>
        <time>2020-10-19T10:18:32Z</time>
      </trkpt>
      <trkpt lat="46.13881" lon="4.55275">
        <ele>739.6</ele>
        <time>2020-10-19T10:18:33Z</time>
      </trkpt>
      <trkpt lat="46.1388" lon="4.55273">
        <ele>739.8</ele>
        <time>2020-10-19T10:18:34Z</time>
      </trkpt>
      <trkpt lat="46.13879" lon="4.5527">
        <ele>739.8</ele>
        <time>2020-10-19T10:18:35Z</time>
      </trkpt>
      <trkpt lat="46.13877" lon="4.55268">
        <ele>739.8</ele>
        <time>2020-10-19T10:18:36Z</time>
      </trkpt>
      <trkpt lat="46.13877" lon="4.55268">
        <ele>739.8</ele>
        <time>2020-10-19T10:18:37Z</time>
      </trkpt>
      <trkpt lat="46.13875" lon="4.55266">
        <ele>739.8</ele>
        <time>2020-10-19T10:18:38Z</time>
      </trkpt>
      <trkpt lat="46.13873" lon="4.55265">
        <ele>739.6</ele>
        <time>2020-10-19T10:18:39Z</time>
      </trkpt>
      <trkpt lat="46.13872" lon="4.55263">
        <ele>739.4</ele>
        <time>2020-10-19T10:18:40Z</time>
      </trkpt>
      <trkpt lat="46.13872" lon="4.55263">
        <ele>739.6</ele>
        <time>2020-10-19T10:18:41Z</time>
      </trkpt>
      <trkpt lat="46.13869" lon="4.5526">
        <ele>739.8</ele>
        <time>2020-10-19T10:18:42Z</time>
      </trkpt>
      <trkpt lat="46.13868" lon="4.55258">
        <ele>739.6</ele>
        <time>2020-10-19T10:18:43Z</time>
      </trkpt>
      <trkpt lat="46.13866" lon="4.55257">
        <ele>740</ele>
        <time>2020-10-19T10:18:44Z</time>
      </trkpt>
      <trkpt lat="46.13864" lon="4.55255">
        <ele>739.8</ele>
        <time>2020-10-19T10:18:45Z</time>
      </trkpt>
      <trkpt lat="46.13862" lon="4.55254">
        <ele>739.2</ele>
        <time>2020-10-19T10:18:46Z</time>
      </trkpt>
      <trkpt lat="46.1386" lon="4.55253">
        <ele>739.8</ele>
        <time>2020-10-19T10:18:47Z</time>
      </trkpt>
      <trkpt lat="46.13857" lon="4.55251">
        <ele>739.4</ele>
        <time>2020-10-19T10:18:48Z</time>
      </trkpt>
      <trkpt lat="46.13855" lon="4.5525">
        <ele>739</ele>
        <time>2020-10-19T10:18:49Z</time>
      </trkpt>
      <trkpt lat="46.13853" lon="4.55247">
        <ele>739.4</ele>
        <time>2020-10-19T10:18:50Z</time>
      </trkpt>
      <trkpt lat="46.13851" lon="4.55245">
        <ele>739.4</ele>
        <time>2020-10-19T10:18:51Z</time>
      </trkpt>
      <trkpt lat="46.13849" lon="4.55243">
        <ele>739</ele>
        <time>2020-10-19T10:18:52Z</time>
      </trkpt>
      <trkpt lat="46.13847" lon="4.5524">
        <ele>739.2</ele>
        <time>2020-10-19T10:18:53Z</time>
      </trkpt>
      <trkpt lat="46.13846" lon="4.55238">
        <ele>739.2</ele>
        <time>2020-10-19T10:18:54Z</time>
      </trkpt>
      <trkpt lat="46.13844" lon="4.55236">
        <ele>739.2</ele>
        <time>2020-10-19T10:18:55Z</time>
      </trkpt>
      <trkpt lat="46.13842" lon="4.55233">
        <ele>739.6</ele>
        <time>2020-10-19T10:18:56Z</time>
      </trkpt>
      <trkpt lat="46.13839" lon="4.55231">
        <ele>739.4</ele>
        <time>2020-10-19T10:18:57Z</time>
      </trkpt>
      <trkpt lat="46.13837" lon="4.55229">
        <ele>739.2</ele>
        <time>2020-10-19T10:18:58Z</time>
      </trkpt>
      <trkpt lat="46.13835" lon="4.55227">
        <ele>739.6</ele>
        <time>2020-10-19T10:18:59Z</time>
      </trkpt>
      <trkpt lat="46.13833" lon="4.55225">
        <ele>739.6</ele>
        <time>2020-10-19T10:19:00Z</time>
      </trkpt>
      <trkpt lat="46.13832" lon="4.55223">
        <ele>739.4</ele>
        <time>2020-10-19T10:19:01Z</time>
      </trkpt>
      <trkpt lat="46.1383" lon="4.55221">
        <ele>740</ele>
        <time>2020-10-19T10:19:02Z</time>
      </trkpt>
      <trkpt lat="46.13827" lon="4.5522">
        <ele>739.8</ele>
        <time>2020-10-19T10:19:03Z</time>
      </trkpt>
      <trkpt lat="46.13825" lon="4.55218">
        <ele>739.6</ele>
        <time>2020-10-19T10:19:04Z</time>
      </trkpt>
      <trkpt lat="46.13822" lon="4.55217">
        <ele>739.8</ele>
        <time>2020-10-19T10:19:05Z</time>
      </trkpt>
      <trkpt lat="46.1382" lon="4.55216">
        <ele>739.6</ele>
        <time>2020-10-19T10:19:06Z</time>
      </trkpt>
      <trkpt lat="46.13818" lon="4.55214">
        <ele>739.4</ele>
        <time>2020-10-19T10:19:07Z</time>
      </trkpt>
      <trkpt lat="46.13817" lon="4.55211">
        <ele>739.8</ele>
        <time>2020-10-19T10:19:08Z</time>
      </trkpt>
      <trkpt lat="46.13815" lon="4.55209">
        <ele>739.8</ele>
        <time>2020-10-19T10:19:09Z</time>
      </trkpt>
      <trkpt lat="46.13813" lon="4.55207">
        <ele>739.4</ele>
        <time>2020-10-19T10:19:10Z</time>
      </trkpt>
      <trkpt lat="46.13811" lon="4.55205">
        <ele>740</ele>
        <time>2020-10-19T10:19:11Z</time>
      </trkpt>
      <trkpt lat="46.13809" lon="4.55204">
        <ele>739.8</ele>
        <time>2020-10-19T10:19:12Z</time>
      </trkpt>
      <trkpt lat="46.13807" lon="4.55201">
        <ele>739.8</ele>
        <time>2020-10-19T10:19:13Z</time>
      </trkpt>
      <trkpt lat="46.13805" lon="4.55199">
        <ele>740.4</ele>
        <time>2020-10-19T10:19:14Z</time>
      </trkpt>
      <trkpt lat="46.13803" lon="4.55196">
        <ele>740</ele>
        <time>2020-10-19T10:19:15Z</time>
      </trkpt>
      <trkpt lat="46.13801" lon="4.55195">
        <ele>740</ele>
        <time>2020-10-19T10:19:16Z</time>
      </trkpt>
      <trkpt lat="46.13799" lon="4.55193">
        <ele>740.2</ele>
        <time>2020-10-19T10:19:17Z</time>
      </trkpt>
      <trkpt lat="46.13798" lon="4.55191">
        <ele>740.2</ele>
        <time>2020-10-19T10:19:18Z</time>
      </trkpt>
      <trkpt lat="46.13796" lon="4.5519">
        <ele>740</ele>
        <time>2020-10-19T10:19:19Z</time>
      </trkpt>
      <trkpt lat="46.13794" lon="4.55188">
        <ele>740.2</ele>
        <time>2020-10-19T10:19:20Z</time>
      </trkpt>
      <trkpt lat="46.13793" lon="4.55187">
        <ele>740.6</ele>
        <time>2020-10-19T10:19:21Z</time>
      </trkpt>
      <trkpt lat="46.13791" lon="4.55185">
        <ele>740.2</ele>
        <time>2020-10-19T10:19:22Z</time>
      </trkpt>
      <trkpt lat="46.13789" lon="4.55184">
        <ele>739.8</ele>
        <time>2020-10-19T10:19:23Z</time>
      </trkpt>
      <trkpt lat="46.13786" lon="4.55182">
        <ele>740</ele>
        <time>2020-10-19T10:19:24Z</time>
      </trkpt>
      <trkpt lat="46.13783" lon="4.55181">
        <ele>739.8</ele>
        <time>2020-10-19T10:19:25Z</time>
      </trkpt>
      <trkpt lat="46.1378" lon="4.55179">
        <ele>739.2</ele>
        <time>2020-10-19T10:19:26Z</time>
      </trkpt>
      <trkpt lat="46.13777" lon="4.55177">
        <ele>739.8</ele>
        <time>2020-10-19T10:19:27Z</time>
      </trkpt>
      <trkpt lat="46.13775" lon="4.55176">
        <ele>739.6</ele>
        <time>2020-10-19T10:19:28Z</time>
      </trkpt>
      <trkpt lat="46.13772" lon="4.55175">
        <ele>739.4</ele>
        <time>2020-10-19T10:19:29Z</time>
      </trkpt>
      <trkpt lat="46.13769" lon="4.55173">
        <ele>739.6</ele>
        <time>2020-10-19T10:19:30Z</time>
      </trkpt>
      <trkpt lat="46.13767" lon="4.55171">
        <ele>739.4</ele>
        <time>2020-10-19T10:19:31Z</time>
      </trkpt>
      <trkpt lat="46.13765" lon="4.55169">
        <ele>739</ele>
        <time>2020-10-19T10:19:32Z</time>
      </trkpt>
      <trkpt lat="46.13762" lon="4.55168">
        <ele>739.4</ele>
        <time>2020-10-19T10:19:33Z</time>
      </trkpt>
      <trkpt lat="46.1376" lon="4.55167">
        <ele>739</ele>
        <time>2020-10-19T10:19:34Z</time>
      </trkpt>
      <trkpt lat="46.13758" lon="4.55166">
        <ele>738.6</ele>
        <time>2020-10-19T10:19:35Z</time>
      </trkpt>
      <trkpt lat="46.13756" lon="4.55164">
        <ele>738.8</ele>
        <time>2020-10-19T10:19:36Z</time>
      </trkpt>
      <trkpt lat="46.13753" lon="4.55162">
        <ele>738.6</ele>
        <time>2020-10-19T10:19:37Z</time>
      </trkpt>
      <trkpt lat="46.13752" lon="4.5516">
        <ele>738.2</ele>
        <time>2020-10-19T10:19:38Z</time>
      </trkpt>
      <trkpt lat="46.1375" lon="4.55158">
        <ele>738.6</ele>
        <time>2020-10-19T10:19:39Z</time>
      </trkpt>
      <trkpt lat="46.13748" lon="4.55156">
        <ele>738.4</ele>
        <time>2020-10-19T10:19:40Z</time>
      </trkpt>
      <trkpt lat="46.13746" lon="4.55153">
        <ele>738</ele>
        <time>2020-10-19T10:19:41Z</time>
      </trkpt>
      <trkpt lat="46.13744" lon="4.5515">
        <ele>738.4</ele>
        <time>2020-10-19T10:19:42Z</time>
      </trkpt>
      <trkpt lat="46.13742" lon="4.55147">
        <ele>738.2</ele>
        <time>2020-10-19T10:19:43Z</time>
      </trkpt>
      <trkpt lat="46.1374" lon="4.55143">
        <ele>738</ele>
        <time>2020-10-19T10:19:44Z</time>
      </trkpt>
      <trkpt lat="46.13738" lon="4.5514">
        <ele>738.2</ele>
        <time>2020-10-19T10:19:45Z</time>
      </trkpt>
      <trkpt lat="46.13736" lon="4.55136">
        <ele>738</ele>
        <time>2020-10-19T10:19:46Z</time>
      </trkpt>
      <trkpt lat="46.13735" lon="4.55133">
        <ele>737.8</ele>
        <time>2020-10-19T10:19:47Z</time>
      </trkpt>
      <trkpt lat="46.13734" lon="4.55129">
        <ele>738.2</ele>
        <time>2020-10-19T10:19:48Z</time>
      </trkpt>
      <trkpt lat="46.13733" lon="4.55125">
        <ele>738.2</ele>
        <time>2020-10-19T10:19:49Z</time>
      </trkpt>
      <trkpt lat="46.13732" lon="4.55122">
        <ele>738</ele>
        <time>2020-10-19T10:19:50Z</time>
      </trkpt>
      <trkpt lat="46.1373" lon="4.55119">
        <ele>738.4</ele>
        <time>2020-10-19T10:19:51Z</time>
      </trkpt>
      <trkpt lat="46.13729" lon="4.55116">
        <ele>738.2</ele>
        <time>2020-10-19T10:19:52Z</time>
      </trkpt>
      <trkpt lat="46.13727" lon="4.55113">
        <ele>738.2</ele>
        <time>2020-10-19T10:19:53Z</time>
      </trkpt>
      <trkpt lat="46.13725" lon="4.55111">
        <ele>738.6</ele>
        <time>2020-10-19T10:19:54Z</time>
      </trkpt>
      <trkpt lat="46.13724" lon="4.55109">
        <ele>738.6</ele>
        <time>2020-10-19T10:19:55Z</time>
      </trkpt>
      <trkpt lat="46.13722" lon="4.55106">
        <ele>738.2</ele>
        <time>2020-10-19T10:19:56Z</time>
      </trkpt>
      <trkpt lat="46.1372" lon="4.55103">
        <ele>738.6</ele>
        <time>2020-10-19T10:19:57Z</time>
      </trkpt>
      <trkpt lat="46.13718" lon="4.551">
        <ele>738.6</ele>
        <time>2020-10-19T10:19:58Z</time>
      </trkpt>
      <trkpt lat="46.13717" lon="4.55097">
        <ele>738.4</ele>
        <time>2020-10-19T10:19:59Z</time>
      </trkpt>
      <trkpt lat="46.13714" lon="4.55092">
        <ele>738.4</ele>
        <time>2020-10-19T10:20:00Z</time>
      </trkpt>
      <trkpt lat="46.13713" lon="4.55091">
        <ele>738.8</ele>
        <time>2020-10-19T10:20:01Z</time>
      </trkpt>
      <trkpt lat="46.13712" lon="4.55089">
        <ele>738.6</ele>
        <time>2020-10-19T10:20:02Z</time>
      </trkpt>
      <trkpt lat="46.1371" lon="4.55087">
        <ele>739</ele>
        <time>2020-10-19T10:20:03Z</time>
      </trkpt>
      <trkpt lat="46.13708" lon="4.55085">
        <ele>738.8</ele>
        <time>2020-10-19T10:20:04Z</time>
      </trkpt>
      <trkpt lat="46.13706" lon="4.55082">
        <ele>738.6</ele>
        <time>2020-10-19T10:20:05Z</time>
      </trkpt>
      <trkpt lat="46.13704" lon="4.5508">
        <ele>738.8</ele>
        <time>2020-10-19T10:20:06Z</time>
      </trkpt>
      <trkpt lat="46.13702" lon="4.55078">
        <ele>738.6</ele>
        <time>2020-10-19T10:20:07Z</time>
      </trkpt>
      <trkpt lat="46.137" lon="4.55075">
        <ele>738.2</ele>
        <time>2020-10-19T10:20:08Z</time>
      </trkpt>
      <trkpt lat="46.13698" lon="4.55074">
        <ele>738.6</ele>
        <time>2020-10-19T10:20:09Z</time>
      </trkpt>
      <trkpt lat="46.13696" lon="4.55072">
        <ele>738.4</ele>
        <time>2020-10-19T10:20:10Z</time>
      </trkpt>
      <trkpt lat="46.13694" lon="4.55069">
        <ele>738.4</ele>
        <time>2020-10-19T10:20:11Z</time>
      </trkpt>
      <trkpt lat="46.13694" lon="4.55069">
        <ele>738.4</ele>
        <time>2020-10-19T10:20:12Z</time>
      </trkpt>
      <trkpt lat="46.13692" lon="4.55065">
        <ele>738.6</ele>
        <time>2020-10-19T10:20:13Z</time>
      </trkpt>
      <trkpt lat="46.13691" lon="4.55063">
        <ele>738.6</ele>
        <time>2020-10-19T10:20:14Z</time>
      </trkpt>
      <trkpt lat="46.13691" lon="4.55063">
        <ele>738.6</ele>
        <time>2020-10-19T10:20:15Z</time>
      </trkpt>
      <trkpt lat="46.13689" lon="4.5506">
        <ele>738.8</ele>
        <time>2020-10-19T10:20:16Z</time>
      </trkpt>
      <trkpt lat="46.13689" lon="4.5506">
        <ele>738.8</ele>
        <time>2020-10-19T10:20:17Z</time>
      </trkpt>
      <trkpt lat="46.13687" lon="4.55057">
        <ele>738.8</ele>
        <time>2020-10-19T10:20:18Z</time>
      </trkpt>
      <trkpt lat="46.13685" lon="4.55055">
        <ele>739</ele>
        <time>2020-10-19T10:20:19Z</time>
      </trkpt>
      <trkpt lat="46.13685" lon="4.55055">
        <ele>738.8</ele>
        <time>2020-10-19T10:20:20Z</time>
      </trkpt>
      <trkpt lat="46.13683" lon="4.55052">
        <ele>739</ele>
        <time>2020-10-19T10:20:21Z</time>
      </trkpt>
      <trkpt lat="46.13681" lon="4.55049">
        <ele>738.6</ele>
        <time>2020-10-19T10:20:22Z</time>
      </trkpt>
      <trkpt lat="46.13679" lon="4.55048">
        <ele>738.4</ele>
        <time>2020-10-19T10:20:23Z</time>
      </trkpt>
      <trkpt lat="46.13679" lon="4.55048">
        <ele>738.2</ele>
        <time>2020-10-19T10:20:24Z</time>
      </trkpt>
      <trkpt lat="46.13677" lon="4.55047">
        <ele>738.2</ele>
        <time>2020-10-19T10:20:25Z</time>
      </trkpt>
      <trkpt lat="46.13677" lon="4.55047">
        <ele>738.2</ele>
        <time>2020-10-19T10:20:26Z</time>
      </trkpt>
      <trkpt lat="46.13675" lon="4.55043">
        <ele>738.4</ele>
        <time>2020-10-19T10:20:27Z</time>
      </trkpt>
      <trkpt lat="46.13675" lon="4.55043">
        <ele>738.4</ele>
        <time>2020-10-19T10:20:28Z</time>
      </trkpt>
      <trkpt lat="46.13673" lon="4.5504">
        <ele>738.4</ele>
        <time>2020-10-19T10:20:29Z</time>
      </trkpt>
      <trkpt lat="46.13673" lon="4.5504">
        <ele>738.4</ele>
        <time>2020-10-19T10:20:30Z</time>
      </trkpt>
      <trkpt lat="46.13672" lon="4.55038">
        <ele>738.4</ele>
        <time>2020-10-19T10:20:31Z</time>
      </trkpt>
      <trkpt lat="46.13672" lon="4.55038">
        <ele>738.4</ele>
        <time>2020-10-19T10:20:32Z</time>
      </trkpt>
      <trkpt lat="46.1367" lon="4.55035">
        <ele>738.4</ele>
        <time>2020-10-19T10:20:33Z</time>
      </trkpt>
      <trkpt lat="46.1367" lon="4.55035">
        <ele>738.6</ele>
        <time>2020-10-19T10:20:34Z</time>
      </trkpt>
      <trkpt lat="46.13668" lon="4.55031">
        <ele>738.4</ele>
        <time>2020-10-19T10:20:35Z</time>
      </trkpt>
      <trkpt lat="46.13667" lon="4.55028">
        <ele>738.6</ele>
        <time>2020-10-19T10:20:36Z</time>
      </trkpt>
      <trkpt lat="46.13667" lon="4.55028">
        <ele>739.2</ele>
        <time>2020-10-19T10:20:37Z</time>
      </trkpt>
      <trkpt lat="46.13666" lon="4.55024">
        <ele>739.4</ele>
        <time>2020-10-19T10:20:38Z</time>
      </trkpt>
      <trkpt lat="46.13666" lon="4.55024">
        <ele>739.2</ele>
        <time>2020-10-19T10:20:39Z</time>
      </trkpt>
      <trkpt lat="46.13664" lon="4.55022">
        <ele>739.2</ele>
        <time>2020-10-19T10:20:40Z</time>
      </trkpt>
      <trkpt lat="46.13664" lon="4.55022">
        <ele>739.4</ele>
        <time>2020-10-19T10:20:41Z</time>
      </trkpt>
      <trkpt lat="46.13662" lon="4.55018">
        <ele>739.4</ele>
        <time>2020-10-19T10:20:42Z</time>
      </trkpt>
      <trkpt lat="46.13662" lon="4.55018">
        <ele>739.6</ele>
        <time>2020-10-19T10:20:43Z</time>
      </trkpt>
      <trkpt lat="46.13659" lon="4.55015">
        <ele>739.6</ele>
        <time>2020-10-19T10:20:44Z</time>
      </trkpt>
      <trkpt lat="46.13658" lon="4.55013">
        <ele>739.6</ele>
        <time>2020-10-19T10:20:45Z</time>
      </trkpt>
      <trkpt lat="46.13658" lon="4.55013">
        <ele>739.6</ele>
        <time>2020-10-19T10:20:46Z</time>
      </trkpt>
      <trkpt lat="46.13655" lon="4.55011">
        <ele>739.8</ele>
        <time>2020-10-19T10:20:47Z</time>
      </trkpt>
      <trkpt lat="46.13654" lon="4.55009">
        <ele>739.8</ele>
        <time>2020-10-19T10:20:48Z</time>
      </trkpt>
      <trkpt lat="46.13654" lon="4.55009">
        <ele>739.8</ele>
        <time>2020-10-19T10:20:49Z</time>
      </trkpt>
      <trkpt lat="46.13651" lon="4.55006">
        <ele>740</ele>
        <time>2020-10-19T10:20:50Z</time>
      </trkpt>
      <trkpt lat="46.13651" lon="4.55006">
        <ele>740.2</ele>
        <time>2020-10-19T10:20:51Z</time>
      </trkpt>
      <trkpt lat="46.13649" lon="4.55004">
        <ele>740.2</ele>
        <time>2020-10-19T10:20:52Z</time>
      </trkpt>
      <trkpt lat="46.13649" lon="4.55004">
        <ele>740.4</ele>
        <time>2020-10-19T10:20:53Z</time>
      </trkpt>
      <trkpt lat="46.13647" lon="4.55">
        <ele>740.8</ele>
        <time>2020-10-19T10:20:54Z</time>
      </trkpt>
      <trkpt lat="46.13647" lon="4.55">
        <ele>740.8</ele>
        <time>2020-10-19T10:20:55Z</time>
      </trkpt>
      <trkpt lat="46.13645" lon="4.54997">
        <ele>741</ele>
        <time>2020-10-19T10:20:56Z</time>
      </trkpt>
      <trkpt lat="46.13645" lon="4.54997">
        <ele>741</ele>
        <time>2020-10-19T10:20:57Z</time>
      </trkpt>
      <trkpt lat="46.13643" lon="4.54993">
        <ele>741</ele>
        <time>2020-10-19T10:20:58Z</time>
      </trkpt>
      <trkpt lat="46.13642" lon="4.54991">
        <ele>741.2</ele>
        <time>2020-10-19T10:20:59Z</time>
      </trkpt>
      <trkpt lat="46.13642" lon="4.54991">
        <ele>741</ele>
        <time>2020-10-19T10:21:00Z</time>
      </trkpt>
      <trkpt lat="46.13639" lon="4.54988">
        <ele>741</ele>
        <time>2020-10-19T10:21:01Z</time>
      </trkpt>
      <trkpt lat="46.13639" lon="4.54988">
        <ele>741.2</ele>
        <time>2020-10-19T10:21:02Z</time>
      </trkpt>
      <trkpt lat="46.13638" lon="4.54985">
        <ele>741.2</ele>
        <time>2020-10-19T10:21:03Z</time>
      </trkpt>
      <trkpt lat="46.13638" lon="4.54985">
        <ele>741</ele>
        <time>2020-10-19T10:21:04Z</time>
      </trkpt>
      <trkpt lat="46.13635" lon="4.54983">
        <ele>741.2</ele>
        <time>2020-10-19T10:21:05Z</time>
      </trkpt>
      <trkpt lat="46.13635" lon="4.54983">
        <ele>741.2</ele>
        <time>2020-10-19T10:21:06Z</time>
      </trkpt>
      <trkpt lat="46.13633" lon="4.5498">
        <ele>741.2</ele>
        <time>2020-10-19T10:21:07Z</time>
      </trkpt>
      <trkpt lat="46.13632" lon="4.54977">
        <ele>741.4</ele>
        <time>2020-10-19T10:21:08Z</time>
      </trkpt>
      <trkpt lat="46.13631" lon="4.54974">
        <ele>741.2</ele>
        <time>2020-10-19T10:21:09Z</time>
      </trkpt>
      <trkpt lat="46.1363" lon="4.54971">
        <ele>741.4</ele>
        <time>2020-10-19T10:21:10Z</time>
      </trkpt>
      <trkpt lat="46.13629" lon="4.54968">
        <ele>741.4</ele>
        <time>2020-10-19T10:21:11Z</time>
      </trkpt>
      <trkpt lat="46.13628" lon="4.54966">
        <ele>741.2</ele>
        <time>2020-10-19T10:21:12Z</time>
      </trkpt>
      <trkpt lat="46.13627" lon="4.54963">
        <ele>741.4</ele>
        <time>2020-10-19T10:21:13Z</time>
      </trkpt>
      <trkpt lat="46.13627" lon="4.54963">
        <ele>741.4</ele>
        <time>2020-10-19T10:21:14Z</time>
      </trkpt>
      <trkpt lat="46.13624" lon="4.5496">
        <ele>741.4</ele>
        <time>2020-10-19T10:21:15Z</time>
      </trkpt>
      <trkpt lat="46.13624" lon="4.5496">
        <ele>741.4</ele>
        <time>2020-10-19T10:21:16Z</time>
      </trkpt>
      <trkpt lat="46.13623" lon="4.54955">
        <ele>741.4</ele>
        <time>2020-10-19T10:21:17Z</time>
      </trkpt>
      <trkpt lat="46.13623" lon="4.54955">
        <ele>741.4</ele>
        <time>2020-10-19T10:21:18Z</time>
      </trkpt>
      <trkpt lat="46.13622" lon="4.54951">
        <ele>741.4</ele>
        <time>2020-10-19T10:21:19Z</time>
      </trkpt>
      <trkpt lat="46.13622" lon="4.54951">
        <ele>741.2</ele>
        <time>2020-10-19T10:21:20Z</time>
      </trkpt>
      <trkpt lat="46.13622" lon="4.54947">
        <ele>741.4</ele>
        <time>2020-10-19T10:21:21Z</time>
      </trkpt>
      <trkpt lat="46.13622" lon="4.54947">
        <ele>741.4</ele>
        <time>2020-10-19T10:21:22Z</time>
      </trkpt>
      <trkpt lat="46.13621" lon="4.54944">
        <ele>741.4</ele>
        <time>2020-10-19T10:21:23Z</time>
      </trkpt>
      <trkpt lat="46.13621" lon="4.54944">
        <ele>741.2</ele>
        <time>2020-10-19T10:21:24Z</time>
      </trkpt>
      <trkpt lat="46.13619" lon="4.54941">
        <ele>741</ele>
        <time>2020-10-19T10:21:25Z</time>
      </trkpt>
      <trkpt lat="46.13619" lon="4.54941">
        <ele>741.2</ele>
        <time>2020-10-19T10:21:26Z</time>
      </trkpt>
      <trkpt lat="46.13617" lon="4.54938">
        <ele>741</ele>
        <time>2020-10-19T10:21:27Z</time>
      </trkpt>
      <trkpt lat="46.13617" lon="4.54938">
        <ele>741</ele>
        <time>2020-10-19T10:21:28Z</time>
      </trkpt>
      <trkpt lat="46.13617" lon="4.54938">
        <ele>741</ele>
        <time>2020-10-19T10:21:29Z</time>
      </trkpt>
      <trkpt lat="46.13617" lon="4.54938">
        <ele>740.8</ele>
        <time>2020-10-19T10:21:30Z</time>
      </trkpt>
      <trkpt lat="46.13617" lon="4.54938">
        <ele>740.6</ele>
        <time>2020-10-19T10:21:31Z</time>
      </trkpt>
      <trkpt lat="46.13617" lon="4.54938">
        <ele>740.4</ele>
        <time>2020-10-19T10:21:32Z</time>
      </trkpt>
      <trkpt lat="46.13617" lon="4.54938">
        <ele>740.2</ele>
        <time>2020-10-19T10:21:33Z</time>
      </trkpt>
      <trkpt lat="46.13617" lon="4.54938">
        <ele>739.8</ele>
        <time>2020-10-19T10:21:34Z</time>
      </trkpt>
      <trkpt lat="46.13618" lon="4.54941">
        <ele>739.8</ele>
        <time>2020-10-19T10:21:35Z</time>
      </trkpt>
      <trkpt lat="46.13618" lon="4.54941">
        <ele>739.8</ele>
        <time>2020-10-19T10:21:36Z</time>
      </trkpt>
      <trkpt lat="46.13619" lon="4.54943">
        <ele>739.6</ele>
        <time>2020-10-19T10:21:37Z</time>
      </trkpt>
      <trkpt lat="46.1362" lon="4.54946">
        <ele>740</ele>
        <time>2020-10-19T10:21:38Z</time>
      </trkpt>
      <trkpt lat="46.13621" lon="4.54949">
        <ele>739.8</ele>
        <time>2020-10-19T10:21:39Z</time>
      </trkpt>
      <trkpt lat="46.13622" lon="4.54951">
        <ele>739.6</ele>
        <time>2020-10-19T10:21:40Z</time>
      </trkpt>
      <trkpt lat="46.13623" lon="4.54954">
        <ele>740</ele>
        <time>2020-10-19T10:21:41Z</time>
      </trkpt>
      <trkpt lat="46.13624" lon="4.54956">
        <ele>739.8</ele>
        <time>2020-10-19T10:21:42Z</time>
      </trkpt>
      <trkpt lat="46.13626" lon="4.54959">
        <ele>739.8</ele>
        <time>2020-10-19T10:21:43Z</time>
      </trkpt>
      <trkpt lat="46.13627" lon="4.54961">
        <ele>740</ele>
        <time>2020-10-19T10:21:44Z</time>
      </trkpt>
      <trkpt lat="46.13629" lon="4.54963">
        <ele>740.4</ele>
        <time>2020-10-19T10:21:45Z</time>
      </trkpt>
      <trkpt lat="46.13629" lon="4.54963">
        <ele>740.4</ele>
        <time>2020-10-19T10:21:46Z</time>
      </trkpt>
      <trkpt lat="46.13631" lon="4.54965">
        <ele>740.6</ele>
        <time>2020-10-19T10:21:47Z</time>
      </trkpt>
      <trkpt lat="46.13631" lon="4.54965">
        <ele>740.8</ele>
        <time>2020-10-19T10:21:48Z</time>
      </trkpt>
      <trkpt lat="46.13633" lon="4.54968">
        <ele>740.4</ele>
        <time>2020-10-19T10:21:49Z</time>
      </trkpt>
      <trkpt lat="46.13633" lon="4.54968">
        <ele>740.2</ele>
        <time>2020-10-19T10:21:50Z</time>
      </trkpt>
      <trkpt lat="46.13636" lon="4.5497">
        <ele>740.2</ele>
        <time>2020-10-19T10:21:51Z</time>
      </trkpt>
      <trkpt lat="46.13636" lon="4.5497">
        <ele>739.8</ele>
        <time>2020-10-19T10:21:52Z</time>
      </trkpt>
      <trkpt lat="46.13639" lon="4.54972">
        <ele>739.6</ele>
        <time>2020-10-19T10:21:53Z</time>
      </trkpt>
      <trkpt lat="46.13639" lon="4.54972">
        <ele>739.4</ele>
        <time>2020-10-19T10:21:54Z</time>
      </trkpt>
      <trkpt lat="46.1364" lon="4.54975">
        <ele>739.4</ele>
        <time>2020-10-19T10:21:55Z</time>
      </trkpt>
      <trkpt lat="46.1364" lon="4.54975">
        <ele>739.2</ele>
        <time>2020-10-19T10:21:56Z</time>
      </trkpt>
      <trkpt lat="46.13642" lon="4.54976">
        <ele>739</ele>
        <time>2020-10-19T10:21:57Z</time>
      </trkpt>
      <trkpt lat="46.13642" lon="4.54976">
        <ele>739</ele>
        <time>2020-10-19T10:21:58Z</time>
      </trkpt>
      <trkpt lat="46.13642" lon="4.54976">
        <ele>739</ele>
        <time>2020-10-19T10:21:59Z</time>
      </trkpt>
      <trkpt lat="46.13641" lon="4.54978">
        <ele>738.8</ele>
        <time>2020-10-19T10:22:00Z</time>
      </trkpt>
      <trkpt lat="46.13641" lon="4.54978">
        <ele>739.2</ele>
        <time>2020-10-19T10:22:01Z</time>
      </trkpt>
      <trkpt lat="46.13638" lon="4.54978">
        <ele>739.2</ele>
        <time>2020-10-19T10:22:02Z</time>
      </trkpt>
      <trkpt lat="46.13638" lon="4.54978">
        <ele>739.2</ele>
        <time>2020-10-19T10:22:03Z</time>
      </trkpt>
      <trkpt lat="46.13636" lon="4.54977">
        <ele>739.6</ele>
        <time>2020-10-19T10:22:04Z</time>
      </trkpt>
      <trkpt lat="46.13634" lon="4.54975">
        <ele>739.6</ele>
        <time>2020-10-19T10:22:05Z</time>
      </trkpt>
      <trkpt lat="46.13633" lon="4.54972">
        <ele>739.4</ele>
        <time>2020-10-19T10:22:06Z</time>
      </trkpt>
      <trkpt lat="46.13631" lon="4.5497">
        <ele>739.8</ele>
        <time>2020-10-19T10:22:07Z</time>
      </trkpt>
      <trkpt lat="46.13629" lon="4.54966">
        <ele>739.4</ele>
        <time>2020-10-19T10:22:08Z</time>
      </trkpt>
      <trkpt lat="46.13628" lon="4.54963">
        <ele>739.4</ele>
        <time>2020-10-19T10:22:09Z</time>
      </trkpt>
      <trkpt lat="46.13626" lon="4.5496">
        <ele>739.8</ele>
        <time>2020-10-19T10:22:10Z</time>
      </trkpt>
      <trkpt lat="46.13624" lon="4.54956">
        <ele>739.8</ele>
        <time>2020-10-19T10:22:11Z</time>
      </trkpt>
      <trkpt lat="46.13622" lon="4.54953">
        <ele>739.4</ele>
        <time>2020-10-19T10:22:12Z</time>
      </trkpt>
      <trkpt lat="46.1362" lon="4.5495">
        <ele>739.8</ele>
        <time>2020-10-19T10:22:13Z</time>
      </trkpt>
      <trkpt lat="46.13618" lon="4.54946">
        <ele>739.6</ele>
        <time>2020-10-19T10:22:14Z</time>
      </trkpt>
      <trkpt lat="46.13616" lon="4.54943">
        <ele>739.6</ele>
        <time>2020-10-19T10:22:15Z</time>
      </trkpt>
      <trkpt lat="46.13614" lon="4.5494">
        <ele>739.8</ele>
        <time>2020-10-19T10:22:16Z</time>
      </trkpt>
      <trkpt lat="46.13614" lon="4.5494">
        <ele>739.4</ele>
        <time>2020-10-19T10:22:17Z</time>
      </trkpt>
      <trkpt lat="46.13613" lon="4.54937">
        <ele>739.4</ele>
        <time>2020-10-19T10:22:18Z</time>
      </trkpt>
      <trkpt lat="46.13613" lon="4.54937">
        <ele>739.4</ele>
        <time>2020-10-19T10:22:19Z</time>
      </trkpt>
      <trkpt lat="46.13613" lon="4.54937">
        <ele>739.6</ele>
        <time>2020-10-19T10:22:20Z</time>
      </trkpt>
      <trkpt lat="46.13615" lon="4.54936">
        <ele>739.4</ele>
        <time>2020-10-19T10:22:21Z</time>
      </trkpt>
      <trkpt lat="46.13615" lon="4.54936">
        <ele>739.2</ele>
        <time>2020-10-19T10:22:22Z</time>
      </trkpt>
      <trkpt lat="46.13615" lon="4.54936">
        <ele>739.2</ele>
        <time>2020-10-19T10:22:23Z</time>
      </trkpt>
      <trkpt lat="46.13615" lon="4.54936">
        <ele>738.8</ele>
        <time>2020-10-19T10:22:24Z</time>
      </trkpt>
      <trkpt lat="46.13615" lon="4.54936">
        <ele>738.8</ele>
        <time>2020-10-19T10:22:25Z</time>
      </trkpt>
      <trkpt lat="46.13615" lon="4.54936">
        <ele>738.8</ele>
        <time>2020-10-19T10:22:26Z</time>
      </trkpt>
      <trkpt lat="46.13615" lon="4.54936">
        <ele>739</ele>
        <time>2020-10-19T10:22:27Z</time>
      </trkpt>
      <trkpt lat="46.13615" lon="4.54936">
        <ele>739</ele>
        <time>2020-10-19T10:22:28Z</time>
      </trkpt>
      <trkpt lat="46.13612" lon="4.54934">
        <ele>739</ele>
        <time>2020-10-19T10:22:29Z</time>
      </trkpt>
      <trkpt lat="46.1361" lon="4.54931">
        <ele>739.4</ele>
        <time>2020-10-19T10:22:30Z</time>
      </trkpt>
      <trkpt lat="46.13608" lon="4.54929">
        <ele>739.4</ele>
        <time>2020-10-19T10:22:31Z</time>
      </trkpt>
      <trkpt lat="46.13606" lon="4.54927">
        <ele>739.4</ele>
        <time>2020-10-19T10:22:32Z</time>
      </trkpt>
      <trkpt lat="46.13604" lon="4.54924">
        <ele>739.6</ele>
        <time>2020-10-19T10:22:33Z</time>
      </trkpt>
      <trkpt lat="46.13603" lon="4.54922">
        <ele>739.4</ele>
        <time>2020-10-19T10:22:34Z</time>
      </trkpt>
      <trkpt lat="46.13601" lon="4.54919">
        <ele>739.4</ele>
        <time>2020-10-19T10:22:35Z</time>
      </trkpt>
      <trkpt lat="46.13599" lon="4.54917">
        <ele>739.6</ele>
        <time>2020-10-19T10:22:36Z</time>
      </trkpt>
      <trkpt lat="46.13597" lon="4.54915">
        <ele>739.6</ele>
        <time>2020-10-19T10:22:37Z</time>
      </trkpt>
      <trkpt lat="46.13595" lon="4.54913">
        <ele>739.4</ele>
        <time>2020-10-19T10:22:38Z</time>
      </trkpt>
      <trkpt lat="46.13593" lon="4.54911">
        <ele>739.6</ele>
        <time>2020-10-19T10:22:39Z</time>
      </trkpt>
      <trkpt lat="46.13591" lon="4.54909">
        <ele>739.8</ele>
        <time>2020-10-19T10:22:40Z</time>
      </trkpt>
      <trkpt lat="46.13591" lon="4.54909">
        <ele>739.6</ele>
        <time>2020-10-19T10:22:41Z</time>
      </trkpt>
      <trkpt lat="46.1359" lon="4.54906">
        <ele>739.6</ele>
        <time>2020-10-19T10:22:42Z</time>
      </trkpt>
      <trkpt lat="46.1359" lon="4.54906">
        <ele>739.4</ele>
        <time>2020-10-19T10:22:43Z</time>
      </trkpt>
      <trkpt lat="46.1359" lon="4.54906">
        <ele>739.4</ele>
        <time>2020-10-19T10:22:44Z</time>
      </trkpt>
      <trkpt lat="46.13592" lon="4.54907">
        <ele>739.4</ele>
        <time>2020-10-19T10:22:45Z</time>
      </trkpt>
      <trkpt lat="46.13592" lon="4.54907">
        <ele>739.4</ele>
        <time>2020-10-19T10:22:46Z</time>
      </trkpt>
      <trkpt lat="46.13594" lon="4.54908">
        <ele>739.4</ele>
        <time>2020-10-19T10:22:47Z</time>
      </trkpt>
      <trkpt lat="46.13596" lon="4.5491">
        <ele>739.4</ele>
        <time>2020-10-19T10:22:48Z</time>
      </trkpt>
      <trkpt lat="46.13597" lon="4.54911">
        <ele>739.6</ele>
        <time>2020-10-19T10:22:49Z</time>
      </trkpt>
      <trkpt lat="46.13597" lon="4.54911">
        <ele>739.4</ele>
        <time>2020-10-19T10:22:50Z</time>
      </trkpt>
      <trkpt lat="46.13599" lon="4.54914">
        <ele>739.6</ele>
        <time>2020-10-19T10:22:51Z</time>
      </trkpt>
      <trkpt lat="46.13599" lon="4.54914">
        <ele>739.4</ele>
        <time>2020-10-19T10:22:52Z</time>
      </trkpt>
      <trkpt lat="46.13602" lon="4.54917">
        <ele>739.4</ele>
        <time>2020-10-19T10:22:53Z</time>
      </trkpt>
      <trkpt lat="46.13603" lon="4.54919">
        <ele>739.4</ele>
        <time>2020-10-19T10:22:54Z</time>
      </trkpt>
      <trkpt lat="46.13603" lon="4.54919">
        <ele>739.4</ele>
        <time>2020-10-19T10:22:55Z</time>
      </trkpt>
      <trkpt lat="46.13605" lon="4.54922">
        <ele>739.4</ele>
        <time>2020-10-19T10:22:56Z</time>
      </trkpt>
      <trkpt lat="46.13605" lon="4.54922">
        <ele>739.2</ele>
        <time>2020-10-19T10:22:57Z</time>
      </trkpt>
      <trkpt lat="46.13607" lon="4.54923">
        <ele>739</ele>
        <time>2020-10-19T10:22:58Z</time>
      </trkpt>
      <trkpt lat="46.13607" lon="4.54923">
        <ele>739</ele>
        <time>2020-10-19T10:22:59Z</time>
      </trkpt>
      <trkpt lat="46.13609" lon="4.54927">
        <ele>739</ele>
        <time>2020-10-19T10:23:00Z</time>
      </trkpt>
      <trkpt lat="46.13609" lon="4.54927">
        <ele>739</ele>
        <time>2020-10-19T10:23:01Z</time>
      </trkpt>
      <trkpt lat="46.13611" lon="4.5493">
        <ele>739</ele>
        <time>2020-10-19T10:23:02Z</time>
      </trkpt>
      <trkpt lat="46.13611" lon="4.5493">
        <ele>739.2</ele>
        <time>2020-10-19T10:23:03Z</time>
      </trkpt>
      <trkpt lat="46.13613" lon="4.54933">
        <ele>739.6</ele>
        <time>2020-10-19T10:23:04Z</time>
      </trkpt>
      <trkpt lat="46.13613" lon="4.54933">
        <ele>739.4</ele>
        <time>2020-10-19T10:23:05Z</time>
      </trkpt>
      <trkpt lat="46.13615" lon="4.54936">
        <ele>739.2</ele>
        <time>2020-10-19T10:23:06Z</time>
      </trkpt>
      <trkpt lat="46.13615" lon="4.54936">
        <ele>739</ele>
        <time>2020-10-19T10:23:07Z</time>
      </trkpt>
      <trkpt lat="46.13617" lon="4.54939">
        <ele>739</ele>
        <time>2020-10-19T10:23:08Z</time>
      </trkpt>
      <trkpt lat="46.13617" lon="4.54939">
        <ele>739</ele>
        <time>2020-10-19T10:23:09Z</time>
      </trkpt>
      <trkpt lat="46.13618" lon="4.54941">
        <ele>739</ele>
        <time>2020-10-19T10:23:10Z</time>
      </trkpt>
      <trkpt lat="46.13618" lon="4.54941">
        <ele>739</ele>
        <time>2020-10-19T10:23:11Z</time>
      </trkpt>
      <trkpt lat="46.1362" lon="4.54944">
        <ele>739</ele>
        <time>2020-10-19T10:23:12Z</time>
      </trkpt>
      <trkpt lat="46.1362" lon="4.54944">
        <ele>739</ele>
        <time>2020-10-19T10:23:13Z</time>
      </trkpt>
      <trkpt lat="46.13621" lon="4.54946">
        <ele>738.8</ele>
        <time>2020-10-19T10:23:14Z</time>
      </trkpt>
      <trkpt lat="46.13621" lon="4.54946">
        <ele>738.8</ele>
        <time>2020-10-19T10:23:15Z</time>
      </trkpt>
      <trkpt lat="46.13621" lon="4.54946">
        <ele>738.6</ele>
        <time>2020-10-19T10:23:16Z</time>
      </trkpt>
      <trkpt lat="46.13621" lon="4.54946">
        <ele>738.6</ele>
        <time>2020-10-19T10:23:17Z</time>
      </trkpt>
      <trkpt lat="46.13619" lon="4.54945">
        <ele>738.8</ele>
        <time>2020-10-19T10:23:18Z</time>
      </trkpt>
      <trkpt lat="46.13619" lon="4.54945">
        <ele>739</ele>
        <time>2020-10-19T10:23:19Z</time>
      </trkpt>
      <trkpt lat="46.13617" lon="4.54941">
        <ele>739</ele>
        <time>2020-10-19T10:23:20Z</time>
      </trkpt>
      <trkpt lat="46.13617" lon="4.54941">
        <ele>739.2</ele>
        <time>2020-10-19T10:23:21Z</time>
      </trkpt>
      <trkpt lat="46.13616" lon="4.54938">
        <ele>739.2</ele>
        <time>2020-10-19T10:23:22Z</time>
      </trkpt>
      <trkpt lat="46.13616" lon="4.54938">
        <ele>738.8</ele>
        <time>2020-10-19T10:23:23Z</time>
      </trkpt>
      <trkpt lat="46.13614" lon="4.54935">
        <ele>739</ele>
        <time>2020-10-19T10:23:24Z</time>
      </trkpt>
      <trkpt lat="46.13614" lon="4.54935">
        <ele>739</ele>
        <time>2020-10-19T10:23:25Z</time>
      </trkpt>
      <trkpt lat="46.13612" lon="4.54932">
        <ele>739</ele>
        <time>2020-10-19T10:23:26Z</time>
      </trkpt>
      <trkpt lat="46.13612" lon="4.54932">
        <ele>739</ele>
        <time>2020-10-19T10:23:27Z</time>
      </trkpt>
      <trkpt lat="46.13609" lon="4.5493">
        <ele>739</ele>
        <time>2020-10-19T10:23:28Z</time>
      </trkpt>
      <trkpt lat="46.13609" lon="4.5493">
        <ele>738.6</ele>
        <time>2020-10-19T10:23:29Z</time>
      </trkpt>
      <trkpt lat="46.13607" lon="4.54927">
        <ele>738.6</ele>
        <time>2020-10-19T10:23:30Z</time>
      </trkpt>
      <trkpt lat="46.13607" lon="4.54927">
        <ele>738.4</ele>
        <time>2020-10-19T10:23:31Z</time>
      </trkpt>
      <trkpt lat="46.13605" lon="4.54924">
        <ele>738.6</ele>
        <time>2020-10-19T10:23:32Z</time>
      </trkpt>
      <trkpt lat="46.13605" lon="4.54924">
        <ele>738.4</ele>
        <time>2020-10-19T10:23:33Z</time>
      </trkpt>
      <trkpt lat="46.13603" lon="4.54921">
        <ele>738.4</ele>
        <time>2020-10-19T10:23:34Z</time>
      </trkpt>
      <trkpt lat="46.13603" lon="4.54921">
        <ele>738.4</ele>
        <time>2020-10-19T10:23:35Z</time>
      </trkpt>
      <trkpt lat="46.13601" lon="4.54918">
        <ele>738.6</ele>
        <time>2020-10-19T10:23:36Z</time>
      </trkpt>
      <trkpt lat="46.13601" lon="4.54918">
        <ele>738.6</ele>
        <time>2020-10-19T10:23:37Z</time>
      </trkpt>
      <trkpt lat="46.13599" lon="4.54915">
        <ele>738.6</ele>
        <time>2020-10-19T10:23:38Z</time>
      </trkpt>
      <trkpt lat="46.13599" lon="4.54915">
        <ele>738.8</ele>
        <time>2020-10-19T10:23:39Z</time>
      </trkpt>
      <trkpt lat="46.13596" lon="4.54912">
        <ele>738.8</ele>
        <time>2020-10-19T10:23:40Z</time>
      </trkpt>
      <trkpt lat="46.13595" lon="4.5491">
        <ele>738.8</ele>
        <time>2020-10-19T10:23:41Z</time>
      </trkpt>
      <trkpt lat="46.13593" lon="4.54908">
        <ele>739</ele>
        <time>2020-10-19T10:23:42Z</time>
      </trkpt>
      <trkpt lat="46.13591" lon="4.54906">
        <ele>739</ele>
        <time>2020-10-19T10:23:43Z</time>
      </trkpt>
      <trkpt lat="46.1359" lon="4.54903">
        <ele>739</ele>
        <time>2020-10-19T10:23:44Z</time>
      </trkpt>
      <trkpt lat="46.13589" lon="4.549">
        <ele>739</ele>
        <time>2020-10-19T10:23:45Z</time>
      </trkpt>
      <trkpt lat="46.13587" lon="4.54897">
        <ele>739.2</ele>
        <time>2020-10-19T10:23:46Z</time>
      </trkpt>
      <trkpt lat="46.13586" lon="4.54895">
        <ele>739.2</ele>
        <time>2020-10-19T10:23:47Z</time>
      </trkpt>
      <trkpt lat="46.13585" lon="4.54892">
        <ele>739.4</ele>
        <time>2020-10-19T10:23:48Z</time>
      </trkpt>
      <trkpt lat="46.13585" lon="4.54892">
        <ele>739.4</ele>
        <time>2020-10-19T10:23:49Z</time>
      </trkpt>
      <trkpt lat="46.13583" lon="4.54888">
        <ele>739.6</ele>
        <time>2020-10-19T10:23:50Z</time>
      </trkpt>
      <trkpt lat="46.13581" lon="4.54885">
        <ele>739.8</ele>
        <time>2020-10-19T10:23:51Z</time>
      </trkpt>
      <trkpt lat="46.1358" lon="4.54883">
        <ele>740</ele>
        <time>2020-10-19T10:23:52Z</time>
      </trkpt>
      <trkpt lat="46.1358" lon="4.54883">
        <ele>739.8</ele>
        <time>2020-10-19T10:23:53Z</time>
      </trkpt>
      <trkpt lat="46.13577" lon="4.5488">
        <ele>740.2</ele>
        <time>2020-10-19T10:23:54Z</time>
      </trkpt>
      <trkpt lat="46.13576" lon="4.54879">
        <ele>740.4</ele>
        <time>2020-10-19T10:23:55Z</time>
      </trkpt>
      <trkpt lat="46.13574" lon="4.54877">
        <ele>740.4</ele>
        <time>2020-10-19T10:23:56Z</time>
      </trkpt>
      <trkpt lat="46.13572" lon="4.54875">
        <ele>740.6</ele>
        <time>2020-10-19T10:23:57Z</time>
      </trkpt>
      <trkpt lat="46.13571" lon="4.54873">
        <ele>741</ele>
        <time>2020-10-19T10:23:58Z</time>
      </trkpt>
      <trkpt lat="46.1357" lon="4.5487">
        <ele>741.2</ele>
        <time>2020-10-19T10:23:59Z</time>
      </trkpt>
      <trkpt lat="46.13568" lon="4.54868">
        <ele>741.4</ele>
        <time>2020-10-19T10:24:00Z</time>
      </trkpt>
      <trkpt lat="46.13568" lon="4.54868">
        <ele>741.6</ele>
        <time>2020-10-19T10:24:01Z</time>
      </trkpt>
      <trkpt lat="46.13566" lon="4.54865">
        <ele>741.4</ele>
        <time>2020-10-19T10:24:02Z</time>
      </trkpt>
      <trkpt lat="46.13566" lon="4.54865">
        <ele>741.4</ele>
        <time>2020-10-19T10:24:03Z</time>
      </trkpt>
      <trkpt lat="46.13564" lon="4.54862">
        <ele>741.6</ele>
        <time>2020-10-19T10:24:04Z</time>
      </trkpt>
      <trkpt lat="46.13564" lon="4.54862">
        <ele>741.6</ele>
        <time>2020-10-19T10:24:05Z</time>
      </trkpt>
      <trkpt lat="46.13562" lon="4.5486">
        <ele>741.8</ele>
        <time>2020-10-19T10:24:06Z</time>
      </trkpt>
      <trkpt lat="46.13562" lon="4.5486">
        <ele>742.2</ele>
        <time>2020-10-19T10:24:07Z</time>
      </trkpt>
      <trkpt lat="46.1356" lon="4.54858">
        <ele>742.8</ele>
        <time>2020-10-19T10:24:08Z</time>
      </trkpt>
      <trkpt lat="46.1356" lon="4.54858">
        <ele>743.2</ele>
        <time>2020-10-19T10:24:09Z</time>
      </trkpt>
      <trkpt lat="46.13559" lon="4.54856">
        <ele>743.4</ele>
        <time>2020-10-19T10:24:10Z</time>
      </trkpt>
      <trkpt lat="46.13559" lon="4.54856">
        <ele>743.2</ele>
        <time>2020-10-19T10:24:11Z</time>
      </trkpt>
      <trkpt lat="46.13557" lon="4.54852">
        <ele>743.2</ele>
        <time>2020-10-19T10:24:12Z</time>
      </trkpt>
      <trkpt lat="46.13557" lon="4.54852">
        <ele>743.2</ele>
        <time>2020-10-19T10:24:13Z</time>
      </trkpt>
      <trkpt lat="46.13555" lon="4.54849">
        <ele>743.4</ele>
        <time>2020-10-19T10:24:14Z</time>
      </trkpt>
      <trkpt lat="46.13554" lon="4.54847">
        <ele>743.4</ele>
        <time>2020-10-19T10:24:15Z</time>
      </trkpt>
      <trkpt lat="46.13553" lon="4.54845">
        <ele>743.6</ele>
        <time>2020-10-19T10:24:16Z</time>
      </trkpt>
      <trkpt lat="46.13551" lon="4.54844">
        <ele>743.6</ele>
        <time>2020-10-19T10:24:17Z</time>
      </trkpt>
      <trkpt lat="46.13549" lon="4.54842">
        <ele>743.8</ele>
        <time>2020-10-19T10:24:18Z</time>
      </trkpt>
      <trkpt lat="46.13549" lon="4.54842">
        <ele>744</ele>
        <time>2020-10-19T10:24:19Z</time>
      </trkpt>
      <trkpt lat="46.13547" lon="4.54838">
        <ele>744.2</ele>
        <time>2020-10-19T10:24:20Z</time>
      </trkpt>
      <trkpt lat="46.13547" lon="4.54838">
        <ele>744.4</ele>
        <time>2020-10-19T10:24:21Z</time>
      </trkpt>
      <trkpt lat="46.13544" lon="4.54835">
        <ele>744.8</ele>
        <time>2020-10-19T10:24:22Z</time>
      </trkpt>
      <trkpt lat="46.13544" lon="4.54835">
        <ele>745</ele>
        <time>2020-10-19T10:24:23Z</time>
      </trkpt>
      <trkpt lat="46.13542" lon="4.54832">
        <ele>745</ele>
        <time>2020-10-19T10:24:24Z</time>
      </trkpt>
      <trkpt lat="46.13542" lon="4.54832">
        <ele>745.2</ele>
        <time>2020-10-19T10:24:25Z</time>
      </trkpt>
      <trkpt lat="46.13541" lon="4.54829">
        <ele>745.4</ele>
        <time>2020-10-19T10:24:26Z</time>
      </trkpt>
      <trkpt lat="46.13539" lon="4.54827">
        <ele>745.4</ele>
        <time>2020-10-19T10:24:27Z</time>
      </trkpt>
      <trkpt lat="46.13539" lon="4.54827">
        <ele>745.4</ele>
        <time>2020-10-19T10:24:28Z</time>
      </trkpt>
      <trkpt lat="46.13537" lon="4.54825">
        <ele>745.8</ele>
        <time>2020-10-19T10:24:29Z</time>
      </trkpt>
      <trkpt lat="46.13537" lon="4.54825">
        <ele>746</ele>
        <time>2020-10-19T10:24:30Z</time>
      </trkpt>
      <trkpt lat="46.13534" lon="4.54824">
        <ele>746</ele>
        <time>2020-10-19T10:24:31Z</time>
      </trkpt>
      <trkpt lat="46.13534" lon="4.54824">
        <ele>746.2</ele>
        <time>2020-10-19T10:24:32Z</time>
      </trkpt>
      <trkpt lat="46.13532" lon="4.54821">
        <ele>746.4</ele>
        <time>2020-10-19T10:24:33Z</time>
      </trkpt>
      <trkpt lat="46.13532" lon="4.54821">
        <ele>746.8</ele>
        <time>2020-10-19T10:24:34Z</time>
      </trkpt>
      <trkpt lat="46.13531" lon="4.54819">
        <ele>747</ele>
        <time>2020-10-19T10:24:35Z</time>
      </trkpt>
      <trkpt lat="46.13531" lon="4.54819">
        <ele>747</ele>
        <time>2020-10-19T10:24:36Z</time>
      </trkpt>
      <trkpt lat="46.13531" lon="4.54819">
        <ele>747.2</ele>
        <time>2020-10-19T10:24:37Z</time>
      </trkpt>
      <trkpt lat="46.13529" lon="4.54816">
        <ele>747.6</ele>
        <time>2020-10-19T10:24:38Z</time>
      </trkpt>
      <trkpt lat="46.13529" lon="4.54816">
        <ele>748</ele>
        <time>2020-10-19T10:24:39Z</time>
      </trkpt>
      <trkpt lat="46.13527" lon="4.54814">
        <ele>748.4</ele>
        <time>2020-10-19T10:24:40Z</time>
      </trkpt>
      <trkpt lat="46.13527" lon="4.54814">
        <ele>748.6</ele>
        <time>2020-10-19T10:24:41Z</time>
      </trkpt>
      <trkpt lat="46.13525" lon="4.54811">
        <ele>748.8</ele>
        <time>2020-10-19T10:24:42Z</time>
      </trkpt>
      <trkpt lat="46.13525" lon="4.54808">
        <ele>748.8</ele>
        <time>2020-10-19T10:24:43Z</time>
      </trkpt>
      <trkpt lat="46.13525" lon="4.54808">
        <ele>749.2</ele>
        <time>2020-10-19T10:24:44Z</time>
      </trkpt>
      <trkpt lat="46.13524" lon="4.54805">
        <ele>749.6</ele>
        <time>2020-10-19T10:24:45Z</time>
      </trkpt>
      <trkpt lat="46.13524" lon="4.54805">
        <ele>749.6</ele>
        <time>2020-10-19T10:24:46Z</time>
      </trkpt>
      <trkpt lat="46.13523" lon="4.54801">
        <ele>750</ele>
        <time>2020-10-19T10:24:47Z</time>
      </trkpt>
      <trkpt lat="46.13523" lon="4.54801">
        <ele>750.4</ele>
        <time>2020-10-19T10:24:48Z</time>
      </trkpt>
      <trkpt lat="46.13522" lon="4.54799">
        <ele>750.6</ele>
        <time>2020-10-19T10:24:49Z</time>
      </trkpt>
      <trkpt lat="46.13522" lon="4.54799">
        <ele>750.8</ele>
        <time>2020-10-19T10:24:50Z</time>
      </trkpt>
      <trkpt lat="46.1352" lon="4.54797">
        <ele>750.8</ele>
        <time>2020-10-19T10:24:51Z</time>
      </trkpt>
      <trkpt lat="46.1352" lon="4.54797">
        <ele>751</ele>
        <time>2020-10-19T10:24:52Z</time>
      </trkpt>
      <trkpt lat="46.13518" lon="4.54794">
        <ele>750.8</ele>
        <time>2020-10-19T10:24:53Z</time>
      </trkpt>
      <trkpt lat="46.13518" lon="4.54794">
        <ele>751</ele>
        <time>2020-10-19T10:24:54Z</time>
      </trkpt>
      <trkpt lat="46.13517" lon="4.54791">
        <ele>751</ele>
        <time>2020-10-19T10:24:55Z</time>
      </trkpt>
      <trkpt lat="46.13517" lon="4.54791">
        <ele>751.4</ele>
        <time>2020-10-19T10:24:56Z</time>
      </trkpt>
      <trkpt lat="46.13515" lon="4.54788">
        <ele>751.6</ele>
        <time>2020-10-19T10:24:57Z</time>
      </trkpt>
      <trkpt lat="46.13515" lon="4.54788">
        <ele>752</ele>
        <time>2020-10-19T10:24:58Z</time>
      </trkpt>
      <trkpt lat="46.13514" lon="4.54786">
        <ele>751.8</ele>
        <time>2020-10-19T10:24:59Z</time>
      </trkpt>
      <trkpt lat="46.13514" lon="4.54786">
        <ele>752</ele>
        <time>2020-10-19T10:25:00Z</time>
      </trkpt>
      <trkpt lat="46.13513" lon="4.54783">
        <ele>752.2</ele>
        <time>2020-10-19T10:25:01Z</time>
      </trkpt>
      <trkpt lat="46.13513" lon="4.54783">
        <ele>752.8</ele>
        <time>2020-10-19T10:25:02Z</time>
      </trkpt>
      <trkpt lat="46.13511" lon="4.5478">
        <ele>753.2</ele>
        <time>2020-10-19T10:25:03Z</time>
      </trkpt>
      <trkpt lat="46.13511" lon="4.5478">
        <ele>753.4</ele>
        <time>2020-10-19T10:25:04Z</time>
      </trkpt>
      <trkpt lat="46.13509" lon="4.54778">
        <ele>754</ele>
        <time>2020-10-19T10:25:05Z</time>
      </trkpt>
      <trkpt lat="46.13509" lon="4.54778">
        <ele>754.2</ele>
        <time>2020-10-19T10:25:06Z</time>
      </trkpt>
      <trkpt lat="46.13509" lon="4.54778">
        <ele>754.4</ele>
        <time>2020-10-19T10:25:07Z</time>
      </trkpt>
      <trkpt lat="46.13507" lon="4.54775">
        <ele>754.8</ele>
        <time>2020-10-19T10:25:08Z</time>
      </trkpt>
      <trkpt lat="46.13507" lon="4.54775">
        <ele>755</ele>
        <time>2020-10-19T10:25:09Z</time>
      </trkpt>
      <trkpt lat="46.13504" lon="4.54773">
        <ele>755.2</ele>
        <time>2020-10-19T10:25:10Z</time>
      </trkpt>
      <trkpt lat="46.13504" lon="4.54773">
        <ele>755.4</ele>
        <time>2020-10-19T10:25:11Z</time>
      </trkpt>
      <trkpt lat="46.13502" lon="4.5477">
        <ele>755.6</ele>
        <time>2020-10-19T10:25:12Z</time>
      </trkpt>
      <trkpt lat="46.13502" lon="4.5477">
        <ele>756</ele>
        <time>2020-10-19T10:25:13Z</time>
      </trkpt>
      <trkpt lat="46.13499" lon="4.54767">
        <ele>756.2</ele>
        <time>2020-10-19T10:25:14Z</time>
      </trkpt>
      <trkpt lat="46.13499" lon="4.54767">
        <ele>756.4</ele>
        <time>2020-10-19T10:25:15Z</time>
      </trkpt>
      <trkpt lat="46.13498" lon="4.54764">
        <ele>756.8</ele>
        <time>2020-10-19T10:25:16Z</time>
      </trkpt>
      <trkpt lat="46.13496" lon="4.54761">
        <ele>757</ele>
        <time>2020-10-19T10:25:17Z</time>
      </trkpt>
      <trkpt lat="46.13495" lon="4.54759">
        <ele>757.4</ele>
        <time>2020-10-19T10:25:18Z</time>
      </trkpt>
      <trkpt lat="46.13495" lon="4.54759">
        <ele>757.8</ele>
        <time>2020-10-19T10:25:19Z</time>
      </trkpt>
      <trkpt lat="46.13492" lon="4.54756">
        <ele>757.8</ele>
        <time>2020-10-19T10:25:20Z</time>
      </trkpt>
      <trkpt lat="46.1349" lon="4.54755">
        <ele>758</ele>
        <time>2020-10-19T10:25:21Z</time>
      </trkpt>
      <trkpt lat="46.13489" lon="4.54752">
        <ele>758</ele>
        <time>2020-10-19T10:25:22Z</time>
      </trkpt>
      <trkpt lat="46.13489" lon="4.54752">
        <ele>758.2</ele>
        <time>2020-10-19T10:25:23Z</time>
      </trkpt>
      <trkpt lat="46.13487" lon="4.5475">
        <ele>758.6</ele>
        <time>2020-10-19T10:25:24Z</time>
      </trkpt>
      <trkpt lat="46.13487" lon="4.5475">
        <ele>758.8</ele>
        <time>2020-10-19T10:25:25Z</time>
      </trkpt>
      <trkpt lat="46.13485" lon="4.54747">
        <ele>759.2</ele>
        <time>2020-10-19T10:25:26Z</time>
      </trkpt>
      <trkpt lat="46.13485" lon="4.54747">
        <ele>759.4</ele>
        <time>2020-10-19T10:25:27Z</time>
      </trkpt>
      <trkpt lat="46.13484" lon="4.54744">
        <ele>759.6</ele>
        <time>2020-10-19T10:25:28Z</time>
      </trkpt>
      <trkpt lat="46.13484" lon="4.54744">
        <ele>760</ele>
        <time>2020-10-19T10:25:29Z</time>
      </trkpt>
      <trkpt lat="46.13482" lon="4.54742">
        <ele>760.2</ele>
        <time>2020-10-19T10:25:30Z</time>
      </trkpt>
      <trkpt lat="46.1348" lon="4.5474">
        <ele>760.2</ele>
        <time>2020-10-19T10:25:31Z</time>
      </trkpt>
      <trkpt lat="46.1348" lon="4.5474">
        <ele>760.4</ele>
        <time>2020-10-19T10:25:32Z</time>
      </trkpt>
      <trkpt lat="46.13478" lon="4.54738">
        <ele>760.4</ele>
        <time>2020-10-19T10:25:33Z</time>
      </trkpt>
      <trkpt lat="46.13478" lon="4.54738">
        <ele>760.6</ele>
        <time>2020-10-19T10:25:34Z</time>
      </trkpt>
      <trkpt lat="46.13476" lon="4.54735">
        <ele>760.8</ele>
        <time>2020-10-19T10:25:35Z</time>
      </trkpt>
      <trkpt lat="46.13474" lon="4.54734">
        <ele>761.2</ele>
        <time>2020-10-19T10:25:36Z</time>
      </trkpt>
      <trkpt lat="46.13472" lon="4.54732">
        <ele>761.4</ele>
        <time>2020-10-19T10:25:37Z</time>
      </trkpt>
      <trkpt lat="46.13472" lon="4.54732">
        <ele>761.4</ele>
        <time>2020-10-19T10:25:38Z</time>
      </trkpt>
      <trkpt lat="46.1347" lon="4.54729">
        <ele>761.6</ele>
        <time>2020-10-19T10:25:39Z</time>
      </trkpt>
      <trkpt lat="46.1347" lon="4.54729">
        <ele>761.8</ele>
        <time>2020-10-19T10:25:40Z</time>
      </trkpt>
      <trkpt lat="46.1347" lon="4.54729">
        <ele>762</ele>
        <time>2020-10-19T10:25:41Z</time>
      </trkpt>
      <trkpt lat="46.13468" lon="4.54727">
        <ele>762</ele>
        <time>2020-10-19T10:25:42Z</time>
      </trkpt>
      <trkpt lat="46.13468" lon="4.54727">
        <ele>762.2</ele>
        <time>2020-10-19T10:25:43Z</time>
      </trkpt>
      <trkpt lat="46.13466" lon="4.54724">
        <ele>762</ele>
        <time>2020-10-19T10:25:44Z</time>
      </trkpt>
      <trkpt lat="46.13466" lon="4.54724">
        <ele>762.2</ele>
        <time>2020-10-19T10:25:45Z</time>
      </trkpt>
      <trkpt lat="46.13464" lon="4.54722">
        <ele>762.4</ele>
        <time>2020-10-19T10:25:46Z</time>
      </trkpt>
      <trkpt lat="46.13464" lon="4.54722">
        <ele>762.8</ele>
        <time>2020-10-19T10:25:47Z</time>
      </trkpt>
      <trkpt lat="46.13465" lon="4.54718">
        <ele>763.2</ele>
        <time>2020-10-19T10:25:48Z</time>
      </trkpt>
      <trkpt lat="46.13465" lon="4.54718">
        <ele>763.2</ele>
        <time>2020-10-19T10:25:49Z</time>
      </trkpt>
      <trkpt lat="46.13466" lon="4.54715">
        <ele>763.4</ele>
        <time>2020-10-19T10:25:50Z</time>
      </trkpt>
      <trkpt lat="46.13466" lon="4.54715">
        <ele>763.4</ele>
        <time>2020-10-19T10:25:51Z</time>
      </trkpt>
      <trkpt lat="46.13466" lon="4.54715">
        <ele>763.6</ele>
        <time>2020-10-19T10:25:52Z</time>
      </trkpt>
      <trkpt lat="46.13468" lon="4.54713">
        <ele>763.4</ele>
        <time>2020-10-19T10:25:53Z</time>
      </trkpt>
      <trkpt lat="46.13468" lon="4.54713">
        <ele>763.6</ele>
        <time>2020-10-19T10:25:54Z</time>
      </trkpt>
      <trkpt lat="46.13468" lon="4.54713">
        <ele>763.6</ele>
        <time>2020-10-19T10:25:55Z</time>
      </trkpt>
      <trkpt lat="46.13468" lon="4.54713">
        <ele>763.6</ele>
        <time>2020-10-19T10:25:56Z</time>
      </trkpt>
      <trkpt lat="46.13468" lon="4.54713">
        <ele>763.6</ele>
        <time>2020-10-19T10:25:57Z</time>
      </trkpt>
      <trkpt lat="46.13468" lon="4.54713">
        <ele>763.4</ele>
        <time>2020-10-19T10:25:58Z</time>
      </trkpt>
      <trkpt lat="46.13468" lon="4.54713">
        <ele>763.2</ele>
        <time>2020-10-19T10:25:59Z</time>
      </trkpt>
      <trkpt lat="46.13468" lon="4.54713">
        <ele>763.2</ele>
        <time>2020-10-19T10:26:00Z</time>
      </trkpt>
      <trkpt lat="46.13466" lon="4.54711">
        <ele>763</ele>
        <time>2020-10-19T10:26:01Z</time>
      </trkpt>
      <trkpt lat="46.13466" lon="4.54711">
        <ele>763</ele>
        <time>2020-10-19T10:26:02Z</time>
      </trkpt>
      <trkpt lat="46.13466" lon="4.54711">
        <ele>762.8</ele>
        <time>2020-10-19T10:26:03Z</time>
      </trkpt>
      <trkpt lat="46.13466" lon="4.54711">
        <ele>762.6</ele>
        <time>2020-10-19T10:26:04Z</time>
      </trkpt>
      <trkpt lat="46.13464" lon="4.5471">
        <ele>762.6</ele>
        <time>2020-10-19T10:26:05Z</time>
      </trkpt>
      <trkpt lat="46.13464" lon="4.5471">
        <ele>762.4</ele>
        <time>2020-10-19T10:26:06Z</time>
      </trkpt>
      <trkpt lat="46.13462" lon="4.54711">
        <ele>762.4</ele>
        <time>2020-10-19T10:26:07Z</time>
      </trkpt>
      <trkpt lat="46.13462" lon="4.54711">
        <ele>762.4</ele>
        <time>2020-10-19T10:26:08Z</time>
      </trkpt>
      <trkpt lat="46.13458" lon="4.54711">
        <ele>762.2</ele>
        <time>2020-10-19T10:26:09Z</time>
      </trkpt>
      <trkpt lat="46.13458" lon="4.54711">
        <ele>762.2</ele>
        <time>2020-10-19T10:26:10Z</time>
      </trkpt>
      <trkpt lat="46.13456" lon="4.5471">
        <ele>762</ele>
        <time>2020-10-19T10:26:11Z</time>
      </trkpt>
      <trkpt lat="46.13456" lon="4.5471">
        <ele>761.8</ele>
        <time>2020-10-19T10:26:12Z</time>
      </trkpt>
      <trkpt lat="46.13453" lon="4.54709">
        <ele>761.6</ele>
        <time>2020-10-19T10:26:13Z</time>
      </trkpt>
      <trkpt lat="46.13453" lon="4.54709">
        <ele>761.6</ele>
        <time>2020-10-19T10:26:14Z</time>
      </trkpt>
      <trkpt lat="46.1345" lon="4.54708">
        <ele>761.4</ele>
        <time>2020-10-19T10:26:15Z</time>
      </trkpt>
      <trkpt lat="46.1345" lon="4.54708">
        <ele>761.4</ele>
        <time>2020-10-19T10:26:16Z</time>
      </trkpt>
      <trkpt lat="46.13447" lon="4.54706">
        <ele>761.4</ele>
        <time>2020-10-19T10:26:17Z</time>
      </trkpt>
      <trkpt lat="46.13445" lon="4.54705">
        <ele>761.6</ele>
        <time>2020-10-19T10:26:18Z</time>
      </trkpt>
      <trkpt lat="46.13443" lon="4.54703">
        <ele>761.6</ele>
        <time>2020-10-19T10:26:19Z</time>
      </trkpt>
      <trkpt lat="46.13442" lon="4.54702">
        <ele>761.8</ele>
        <time>2020-10-19T10:26:20Z</time>
      </trkpt>
      <trkpt lat="46.13442" lon="4.54702">
        <ele>761.8</ele>
        <time>2020-10-19T10:26:21Z</time>
      </trkpt>
      <trkpt lat="46.1344" lon="4.54699">
        <ele>761.8</ele>
        <time>2020-10-19T10:26:22Z</time>
      </trkpt>
      <trkpt lat="46.1344" lon="4.54699">
        <ele>761.6</ele>
        <time>2020-10-19T10:26:23Z</time>
      </trkpt>
      <trkpt lat="46.13438" lon="4.54697">
        <ele>761.8</ele>
        <time>2020-10-19T10:26:24Z</time>
      </trkpt>
      <trkpt lat="46.13438" lon="4.54697">
        <ele>761.8</ele>
        <time>2020-10-19T10:26:25Z</time>
      </trkpt>
      <trkpt lat="46.13436" lon="4.54694">
        <ele>761.8</ele>
        <time>2020-10-19T10:26:26Z</time>
      </trkpt>
      <trkpt lat="46.13436" lon="4.54694">
        <ele>762</ele>
        <time>2020-10-19T10:26:27Z</time>
      </trkpt>
      <trkpt lat="46.13433" lon="4.54692">
        <ele>761.8</ele>
        <time>2020-10-19T10:26:28Z</time>
      </trkpt>
      <trkpt lat="46.13433" lon="4.54692">
        <ele>762</ele>
        <time>2020-10-19T10:26:29Z</time>
      </trkpt>
      <trkpt lat="46.13431" lon="4.5469">
        <ele>762.4</ele>
        <time>2020-10-19T10:26:30Z</time>
      </trkpt>
      <trkpt lat="46.13431" lon="4.5469">
        <ele>762.6</ele>
        <time>2020-10-19T10:26:31Z</time>
      </trkpt>
      <trkpt lat="46.13429" lon="4.54688">
        <ele>762.8</ele>
        <time>2020-10-19T10:26:32Z</time>
      </trkpt>
      <trkpt lat="46.13429" lon="4.54688">
        <ele>762.8</ele>
        <time>2020-10-19T10:26:33Z</time>
      </trkpt>
      <trkpt lat="46.13427" lon="4.54686">
        <ele>762.8</ele>
        <time>2020-10-19T10:26:34Z</time>
      </trkpt>
      <trkpt lat="46.13427" lon="4.54686">
        <ele>762.6</ele>
        <time>2020-10-19T10:26:35Z</time>
      </trkpt>
      <trkpt lat="46.13424" lon="4.54684">
        <ele>763.2</ele>
        <time>2020-10-19T10:26:36Z</time>
      </trkpt>
      <trkpt lat="46.13422" lon="4.54682">
        <ele>763.2</ele>
        <time>2020-10-19T10:26:37Z</time>
      </trkpt>
      <trkpt lat="46.13422" lon="4.54682">
        <ele>763.4</ele>
        <time>2020-10-19T10:26:38Z</time>
      </trkpt>
      <trkpt lat="46.1342" lon="4.54682">
        <ele>763.8</ele>
        <time>2020-10-19T10:26:39Z</time>
      </trkpt>
      <trkpt lat="46.1342" lon="4.54682">
        <ele>764</ele>
        <time>2020-10-19T10:26:40Z</time>
      </trkpt>
      <trkpt lat="46.13417" lon="4.5468">
        <ele>764.2</ele>
        <time>2020-10-19T10:26:41Z</time>
      </trkpt>
      <trkpt lat="46.13417" lon="4.5468">
        <ele>764.2</ele>
        <time>2020-10-19T10:26:42Z</time>
      </trkpt>
      <trkpt lat="46.13415" lon="4.54677">
        <ele>764.2</ele>
        <time>2020-10-19T10:26:43Z</time>
      </trkpt>
      <trkpt lat="46.13413" lon="4.54675">
        <ele>764.2</ele>
        <time>2020-10-19T10:26:44Z</time>
      </trkpt>
      <trkpt lat="46.13412" lon="4.54673">
        <ele>764.4</ele>
        <time>2020-10-19T10:26:45Z</time>
      </trkpt>
      <trkpt lat="46.1341" lon="4.54671">
        <ele>764.4</ele>
        <time>2020-10-19T10:26:46Z</time>
      </trkpt>
      <trkpt lat="46.1341" lon="4.54671">
        <ele>764.6</ele>
        <time>2020-10-19T10:26:47Z</time>
      </trkpt>
      <trkpt lat="46.13408" lon="4.54668">
        <ele>764.6</ele>
        <time>2020-10-19T10:26:48Z</time>
      </trkpt>
      <trkpt lat="46.13408" lon="4.54668">
        <ele>764.8</ele>
        <time>2020-10-19T10:26:49Z</time>
      </trkpt>
      <trkpt lat="46.13406" lon="4.54665">
        <ele>765</ele>
        <time>2020-10-19T10:26:50Z</time>
      </trkpt>
      <trkpt lat="46.13406" lon="4.54665">
        <ele>765.2</ele>
        <time>2020-10-19T10:26:51Z</time>
      </trkpt>
      <trkpt lat="46.13404" lon="4.54662">
        <ele>765</ele>
        <time>2020-10-19T10:26:52Z</time>
      </trkpt>
      <trkpt lat="46.13404" lon="4.54662">
        <ele>765</ele>
        <time>2020-10-19T10:26:53Z</time>
      </trkpt>
      <trkpt lat="46.13402" lon="4.54659">
        <ele>765</ele>
        <time>2020-10-19T10:26:54Z</time>
      </trkpt>
      <trkpt lat="46.13402" lon="4.54659">
        <ele>765</ele>
        <time>2020-10-19T10:26:55Z</time>
      </trkpt>
      <trkpt lat="46.134" lon="4.54655">
        <ele>765</ele>
        <time>2020-10-19T10:26:56Z</time>
      </trkpt>
      <trkpt lat="46.134" lon="4.54655">
        <ele>764.8</ele>
        <time>2020-10-19T10:26:57Z</time>
      </trkpt>
      <trkpt lat="46.13398" lon="4.54652">
        <ele>765</ele>
        <time>2020-10-19T10:26:58Z</time>
      </trkpt>
      <trkpt lat="46.13397" lon="4.5465">
        <ele>764.8</ele>
        <time>2020-10-19T10:26:59Z</time>
      </trkpt>
      <trkpt lat="46.13397" lon="4.5465">
        <ele>764.6</ele>
        <time>2020-10-19T10:27:00Z</time>
      </trkpt>
      <trkpt lat="46.13395" lon="4.54647">
        <ele>764.6</ele>
        <time>2020-10-19T10:27:01Z</time>
      </trkpt>
      <trkpt lat="46.13395" lon="4.54647">
        <ele>764.6</ele>
        <time>2020-10-19T10:27:02Z</time>
      </trkpt>
      <trkpt lat="46.13392" lon="4.54643">
        <ele>764.6</ele>
        <time>2020-10-19T10:27:03Z</time>
      </trkpt>
      <trkpt lat="46.13392" lon="4.54643">
        <ele>764.6</ele>
        <time>2020-10-19T10:27:04Z</time>
      </trkpt>
      <trkpt lat="46.1339" lon="4.5464">
        <ele>764.6</ele>
        <time>2020-10-19T10:27:05Z</time>
      </trkpt>
      <trkpt lat="46.1339" lon="4.5464">
        <ele>764.4</ele>
        <time>2020-10-19T10:27:06Z</time>
      </trkpt>
      <trkpt lat="46.13388" lon="4.54636">
        <ele>764.2</ele>
        <time>2020-10-19T10:27:07Z</time>
      </trkpt>
      <trkpt lat="46.13388" lon="4.54636">
        <ele>764.2</ele>
        <time>2020-10-19T10:27:08Z</time>
      </trkpt>
      <trkpt lat="46.13387" lon="4.54631">
        <ele>763.8</ele>
        <time>2020-10-19T10:27:09Z</time>
      </trkpt>
      <trkpt lat="46.13387" lon="4.54631">
        <ele>763.8</ele>
        <time>2020-10-19T10:27:10Z</time>
      </trkpt>
      <trkpt lat="46.13385" lon="4.54628">
        <ele>763.6</ele>
        <time>2020-10-19T10:27:11Z</time>
      </trkpt>
      <trkpt lat="46.13385" lon="4.54628">
        <ele>763.4</ele>
        <time>2020-10-19T10:27:12Z</time>
      </trkpt>
      <trkpt lat="46.13382" lon="4.54625">
        <ele>763.4</ele>
        <time>2020-10-19T10:27:13Z</time>
      </trkpt>
      <trkpt lat="46.13382" lon="4.54625">
        <ele>763.2</ele>
        <time>2020-10-19T10:27:14Z</time>
      </trkpt>
      <trkpt lat="46.1338" lon="4.54621">
        <ele>763.2</ele>
        <time>2020-10-19T10:27:15Z</time>
      </trkpt>
      <trkpt lat="46.1338" lon="4.54621">
        <ele>763.4</ele>
        <time>2020-10-19T10:27:16Z</time>
      </trkpt>
      <trkpt lat="46.13378" lon="4.54618">
        <ele>763.4</ele>
        <time>2020-10-19T10:27:17Z</time>
      </trkpt>
      <trkpt lat="46.13378" lon="4.54618">
        <ele>763.4</ele>
        <time>2020-10-19T10:27:18Z</time>
      </trkpt>
      <trkpt lat="46.13376" lon="4.54615">
        <ele>763.2</ele>
        <time>2020-10-19T10:27:19Z</time>
      </trkpt>
      <trkpt lat="46.13376" lon="4.54615">
        <ele>763.2</ele>
        <time>2020-10-19T10:27:20Z</time>
      </trkpt>
      <trkpt lat="46.13373" lon="4.54612">
        <ele>763</ele>
        <time>2020-10-19T10:27:21Z</time>
      </trkpt>
      <trkpt lat="46.13373" lon="4.54612">
        <ele>762.8</ele>
        <time>2020-10-19T10:27:22Z</time>
      </trkpt>
      <trkpt lat="46.13371" lon="4.5461">
        <ele>762.8</ele>
        <time>2020-10-19T10:27:23Z</time>
      </trkpt>
      <trkpt lat="46.13371" lon="4.5461">
        <ele>762.6</ele>
        <time>2020-10-19T10:27:24Z</time>
      </trkpt>
      <trkpt lat="46.13369" lon="4.54607">
        <ele>762.6</ele>
        <time>2020-10-19T10:27:25Z</time>
      </trkpt>
      <trkpt lat="46.13369" lon="4.54607">
        <ele>762.4</ele>
        <time>2020-10-19T10:27:26Z</time>
      </trkpt>
      <trkpt lat="46.13367" lon="4.54605">
        <ele>762.4</ele>
        <time>2020-10-19T10:27:27Z</time>
      </trkpt>
      <trkpt lat="46.13367" lon="4.54605">
        <ele>762.6</ele>
        <time>2020-10-19T10:27:28Z</time>
      </trkpt>
      <trkpt lat="46.13365" lon="4.54603">
        <ele>762.6</ele>
        <time>2020-10-19T10:27:29Z</time>
      </trkpt>
      <trkpt lat="46.13365" lon="4.54603">
        <ele>762.4</ele>
        <time>2020-10-19T10:27:30Z</time>
      </trkpt>
      <trkpt lat="46.13365" lon="4.54603">
        <ele>762.4</ele>
        <time>2020-10-19T10:27:31Z</time>
      </trkpt>
      <trkpt lat="46.13365" lon="4.54603">
        <ele>762.4</ele>
        <time>2020-10-19T10:27:32Z</time>
      </trkpt>
      <trkpt lat="46.13365" lon="4.54603">
        <ele>762.6</ele>
        <time>2020-10-19T10:27:33Z</time>
      </trkpt>
      <trkpt lat="46.13365" lon="4.54603">
        <ele>762.6</ele>
        <time>2020-10-19T10:27:34Z</time>
      </trkpt>
      <trkpt lat="46.13363" lon="4.54601">
        <ele>763</ele>
        <time>2020-10-19T10:27:35Z</time>
      </trkpt>
      <trkpt lat="46.13363" lon="4.54601">
        <ele>762.8</ele>
        <time>2020-10-19T10:27:36Z</time>
      </trkpt>
      <trkpt lat="46.13361" lon="4.546">
        <ele>762.8</ele>
        <time>2020-10-19T10:27:37Z</time>
      </trkpt>
      <trkpt lat="46.13361" lon="4.546">
        <ele>762.8</ele>
        <time>2020-10-19T10:27:38Z</time>
      </trkpt>
      <trkpt lat="46.1336" lon="4.54597">
        <ele>762.6</ele>
        <time>2020-10-19T10:27:39Z</time>
      </trkpt>
      <trkpt lat="46.1336" lon="4.54597">
        <ele>762.6</ele>
        <time>2020-10-19T10:27:40Z</time>
      </trkpt>
      <trkpt lat="46.13359" lon="4.54594">
        <ele>762.4</ele>
        <time>2020-10-19T10:27:41Z</time>
      </trkpt>
      <trkpt lat="46.13359" lon="4.54594">
        <ele>762.4</ele>
        <time>2020-10-19T10:27:42Z</time>
      </trkpt>
      <trkpt lat="46.13357" lon="4.54591">
        <ele>762.4</ele>
        <time>2020-10-19T10:27:43Z</time>
      </trkpt>
      <trkpt lat="46.13357" lon="4.54591">
        <ele>762.4</ele>
        <time>2020-10-19T10:27:44Z</time>
      </trkpt>
      <trkpt lat="46.13356" lon="4.54588">
        <ele>762.2</ele>
        <time>2020-10-19T10:27:45Z</time>
      </trkpt>
      <trkpt lat="46.13356" lon="4.54588">
        <ele>762.2</ele>
        <time>2020-10-19T10:27:46Z</time>
      </trkpt>
      <trkpt lat="46.13354" lon="4.54586">
        <ele>762.2</ele>
        <time>2020-10-19T10:27:47Z</time>
      </trkpt>
      <trkpt lat="46.13354" lon="4.54586">
        <ele>762.4</ele>
        <time>2020-10-19T10:27:48Z</time>
      </trkpt>
      <trkpt lat="46.13352" lon="4.54583">
        <ele>762.6</ele>
        <time>2020-10-19T10:27:49Z</time>
      </trkpt>
      <trkpt lat="46.13352" lon="4.54583">
        <ele>762.4</ele>
        <time>2020-10-19T10:27:50Z</time>
      </trkpt>
      <trkpt lat="46.1335" lon="4.5458">
        <ele>762.4</ele>
        <time>2020-10-19T10:27:51Z</time>
      </trkpt>
      <trkpt lat="46.1335" lon="4.5458">
        <ele>762.6</ele>
        <time>2020-10-19T10:27:52Z</time>
      </trkpt>
      <trkpt lat="46.13349" lon="4.54577">
        <ele>762.6</ele>
        <time>2020-10-19T10:27:53Z</time>
      </trkpt>
      <trkpt lat="46.13349" lon="4.54577">
        <ele>762.8</ele>
        <time>2020-10-19T10:27:54Z</time>
      </trkpt>
      <trkpt lat="46.13347" lon="4.54575">
        <ele>762.8</ele>
        <time>2020-10-19T10:27:55Z</time>
      </trkpt>
      <trkpt lat="46.13347" lon="4.54575">
        <ele>763</ele>
        <time>2020-10-19T10:27:56Z</time>
      </trkpt>
      <trkpt lat="46.13345" lon="4.54572">
        <ele>763</ele>
        <time>2020-10-19T10:27:57Z</time>
      </trkpt>
      <trkpt lat="46.13345" lon="4.54572">
        <ele>763.2</ele>
        <time>2020-10-19T10:27:58Z</time>
      </trkpt>
      <trkpt lat="46.13343" lon="4.54569">
        <ele>763.2</ele>
        <time>2020-10-19T10:27:59Z</time>
      </trkpt>
      <trkpt lat="46.13343" lon="4.54569">
        <ele>763.4</ele>
        <time>2020-10-19T10:28:00Z</time>
      </trkpt>
      <trkpt lat="46.13341" lon="4.54565">
        <ele>763.6</ele>
        <time>2020-10-19T10:28:01Z</time>
      </trkpt>
      <trkpt lat="46.13341" lon="4.54565">
        <ele>763.6</ele>
        <time>2020-10-19T10:28:02Z</time>
      </trkpt>
      <trkpt lat="46.1334" lon="4.54562">
        <ele>763.8</ele>
        <time>2020-10-19T10:28:03Z</time>
      </trkpt>
      <trkpt lat="46.1334" lon="4.54562">
        <ele>764</ele>
        <time>2020-10-19T10:28:04Z</time>
      </trkpt>
      <trkpt lat="46.13338" lon="4.54559">
        <ele>764.2</ele>
        <time>2020-10-19T10:28:05Z</time>
      </trkpt>
      <trkpt lat="46.13338" lon="4.54559">
        <ele>764.2</ele>
        <time>2020-10-19T10:28:06Z</time>
      </trkpt>
      <trkpt lat="46.13338" lon="4.54559">
        <ele>764.4</ele>
        <time>2020-10-19T10:28:07Z</time>
      </trkpt>
      <trkpt lat="46.13337" lon="4.54557">
        <ele>764.4</ele>
        <time>2020-10-19T10:28:08Z</time>
      </trkpt>
      <trkpt lat="46.13337" lon="4.54557">
        <ele>764.6</ele>
        <time>2020-10-19T10:28:09Z</time>
      </trkpt>
      <trkpt lat="46.13335" lon="4.54555">
        <ele>764.6</ele>
        <time>2020-10-19T10:28:10Z</time>
      </trkpt>
      <trkpt lat="46.13335" lon="4.54555">
        <ele>764.8</ele>
        <time>2020-10-19T10:28:11Z</time>
      </trkpt>
      <trkpt lat="46.13333" lon="4.54552">
        <ele>764.8</ele>
        <time>2020-10-19T10:28:12Z</time>
      </trkpt>
      <trkpt lat="46.13333" lon="4.54552">
        <ele>765</ele>
        <time>2020-10-19T10:28:13Z</time>
      </trkpt>
      <trkpt lat="46.1333" lon="4.54549">
        <ele>765</ele>
        <time>2020-10-19T10:28:14Z</time>
      </trkpt>
      <trkpt lat="46.1333" lon="4.54549">
        <ele>765.2</ele>
        <time>2020-10-19T10:28:15Z</time>
      </trkpt>
      <trkpt lat="46.13328" lon="4.54546">
        <ele>765.2</ele>
        <time>2020-10-19T10:28:16Z</time>
      </trkpt>
      <trkpt lat="46.13328" lon="4.54546">
        <ele>765.6</ele>
        <time>2020-10-19T10:28:17Z</time>
      </trkpt>
      <trkpt lat="46.13327" lon="4.54543">
        <ele>765.6</ele>
        <time>2020-10-19T10:28:18Z</time>
      </trkpt>
      <trkpt lat="46.13327" lon="4.54543">
        <ele>765.6</ele>
        <time>2020-10-19T10:28:19Z</time>
      </trkpt>
      <trkpt lat="46.13326" lon="4.54541">
        <ele>765.8</ele>
        <time>2020-10-19T10:28:20Z</time>
      </trkpt>
      <trkpt lat="46.13326" lon="4.54541">
        <ele>765.8</ele>
        <time>2020-10-19T10:28:21Z</time>
      </trkpt>
      <trkpt lat="46.13326" lon="4.54541">
        <ele>765.8</ele>
        <time>2020-10-19T10:28:22Z</time>
      </trkpt>
      <trkpt lat="46.13326" lon="4.54541">
        <ele>766</ele>
        <time>2020-10-19T10:28:23Z</time>
      </trkpt>
      <trkpt lat="46.13326" lon="4.54541">
        <ele>765.8</ele>
        <time>2020-10-19T10:28:24Z</time>
      </trkpt>
      <trkpt lat="46.13325" lon="4.54538">
        <ele>765.8</ele>
        <time>2020-10-19T10:28:25Z</time>
      </trkpt>
      <trkpt lat="46.13325" lon="4.54538">
        <ele>765.6</ele>
        <time>2020-10-19T10:28:26Z</time>
      </trkpt>
      <trkpt lat="46.13323" lon="4.54536">
        <ele>765.6</ele>
        <time>2020-10-19T10:28:27Z</time>
      </trkpt>
      <trkpt lat="46.13323" lon="4.54536">
        <ele>765.4</ele>
        <time>2020-10-19T10:28:28Z</time>
      </trkpt>
      <trkpt lat="46.13321" lon="4.54533">
        <ele>765.2</ele>
        <time>2020-10-19T10:28:29Z</time>
      </trkpt>
      <trkpt lat="46.13321" lon="4.54533">
        <ele>765.2</ele>
        <time>2020-10-19T10:28:30Z</time>
      </trkpt>
      <trkpt lat="46.1332" lon="4.5453">
        <ele>765.4</ele>
        <time>2020-10-19T10:28:31Z</time>
      </trkpt>
      <trkpt lat="46.1332" lon="4.5453">
        <ele>765.4</ele>
        <time>2020-10-19T10:28:32Z</time>
      </trkpt>
      <trkpt lat="46.13319" lon="4.54528">
        <ele>765.4</ele>
        <time>2020-10-19T10:28:33Z</time>
      </trkpt>
      <trkpt lat="46.13319" lon="4.54528">
        <ele>765.6</ele>
        <time>2020-10-19T10:28:34Z</time>
      </trkpt>
      <trkpt lat="46.13317" lon="4.54524">
        <ele>765.8</ele>
        <time>2020-10-19T10:28:35Z</time>
      </trkpt>
      <trkpt lat="46.13317" lon="4.54524">
        <ele>765.8</ele>
        <time>2020-10-19T10:28:36Z</time>
      </trkpt>
      <trkpt lat="46.13315" lon="4.54521">
        <ele>765.8</ele>
        <time>2020-10-19T10:28:37Z</time>
      </trkpt>
      <trkpt lat="46.13315" lon="4.54521">
        <ele>765.8</ele>
        <time>2020-10-19T10:28:38Z</time>
      </trkpt>
      <trkpt lat="46.13314" lon="4.54517">
        <ele>766</ele>
        <time>2020-10-19T10:28:39Z</time>
      </trkpt>
      <trkpt lat="46.13314" lon="4.54517">
        <ele>766.6</ele>
        <time>2020-10-19T10:28:40Z</time>
      </trkpt>
      <trkpt lat="46.13313" lon="4.54513">
        <ele>767</ele>
        <time>2020-10-19T10:28:41Z</time>
      </trkpt>
      <trkpt lat="46.13313" lon="4.54513">
        <ele>767.4</ele>
        <time>2020-10-19T10:28:42Z</time>
      </trkpt>
      <trkpt lat="46.1331" lon="4.54508">
        <ele>767.6</ele>
        <time>2020-10-19T10:28:43Z</time>
      </trkpt>
      <trkpt lat="46.13309" lon="4.54506">
        <ele>767.8</ele>
        <time>2020-10-19T10:28:44Z</time>
      </trkpt>
      <trkpt lat="46.13308" lon="4.54504">
        <ele>767.8</ele>
        <time>2020-10-19T10:28:45Z</time>
      </trkpt>
      <trkpt lat="46.13308" lon="4.54504">
        <ele>768</ele>
        <time>2020-10-19T10:28:46Z</time>
      </trkpt>
      <trkpt lat="46.13306" lon="4.54501">
        <ele>768.2</ele>
        <time>2020-10-19T10:28:47Z</time>
      </trkpt>
      <trkpt lat="46.13306" lon="4.54501">
        <ele>768.2</ele>
        <time>2020-10-19T10:28:48Z</time>
      </trkpt>
      <trkpt lat="46.13305" lon="4.54497">
        <ele>768.2</ele>
        <time>2020-10-19T10:28:49Z</time>
      </trkpt>
      <trkpt lat="46.13305" lon="4.54497">
        <ele>768.2</ele>
        <time>2020-10-19T10:28:50Z</time>
      </trkpt>
      <trkpt lat="46.13304" lon="4.54494">
        <ele>768.2</ele>
        <time>2020-10-19T10:28:51Z</time>
      </trkpt>
      <trkpt lat="46.13304" lon="4.54494">
        <ele>768.2</ele>
        <time>2020-10-19T10:28:52Z</time>
      </trkpt>
      <trkpt lat="46.13303" lon="4.54492">
        <ele>768.2</ele>
        <time>2020-10-19T10:28:53Z</time>
      </trkpt>
      <trkpt lat="46.13303" lon="4.54492">
        <ele>768.2</ele>
        <time>2020-10-19T10:28:54Z</time>
      </trkpt>
      <trkpt lat="46.13301" lon="4.5449">
        <ele>768.4</ele>
        <time>2020-10-19T10:28:55Z</time>
      </trkpt>
      <trkpt lat="46.13301" lon="4.5449">
        <ele>768.2</ele>
        <time>2020-10-19T10:28:56Z</time>
      </trkpt>
      <trkpt lat="46.133" lon="4.54487">
        <ele>768.2</ele>
        <time>2020-10-19T10:28:57Z</time>
      </trkpt>
      <trkpt lat="46.133" lon="4.54487">
        <ele>768.2</ele>
        <time>2020-10-19T10:28:58Z</time>
      </trkpt>
      <trkpt lat="46.13298" lon="4.54484">
        <ele>768.2</ele>
        <time>2020-10-19T10:28:59Z</time>
      </trkpt>
      <trkpt lat="46.13298" lon="4.54484">
        <ele>768</ele>
        <time>2020-10-19T10:29:00Z</time>
      </trkpt>
      <trkpt lat="46.13296" lon="4.54481">
        <ele>767.8</ele>
        <time>2020-10-19T10:29:01Z</time>
      </trkpt>
      <trkpt lat="46.13296" lon="4.54481">
        <ele>768</ele>
        <time>2020-10-19T10:29:02Z</time>
      </trkpt>
      <trkpt lat="46.13293" lon="4.54477">
        <ele>768.2</ele>
        <time>2020-10-19T10:29:03Z</time>
      </trkpt>
      <trkpt lat="46.13293" lon="4.54477">
        <ele>768.4</ele>
        <time>2020-10-19T10:29:04Z</time>
      </trkpt>
      <trkpt lat="46.13291" lon="4.54473">
        <ele>768.4</ele>
        <time>2020-10-19T10:29:05Z</time>
      </trkpt>
      <trkpt lat="46.13291" lon="4.54473">
        <ele>768.4</ele>
        <time>2020-10-19T10:29:06Z</time>
      </trkpt>
      <trkpt lat="46.13289" lon="4.5447">
        <ele>768.2</ele>
        <time>2020-10-19T10:29:07Z</time>
      </trkpt>
      <trkpt lat="46.13289" lon="4.5447">
        <ele>767.8</ele>
        <time>2020-10-19T10:29:08Z</time>
      </trkpt>
      <trkpt lat="46.13287" lon="4.54468">
        <ele>767.4</ele>
        <time>2020-10-19T10:29:09Z</time>
      </trkpt>
      <trkpt lat="46.13287" lon="4.54468">
        <ele>767.4</ele>
        <time>2020-10-19T10:29:10Z</time>
      </trkpt>
      <trkpt lat="46.13286" lon="4.54466">
        <ele>767.4</ele>
        <time>2020-10-19T10:29:11Z</time>
      </trkpt>
      <trkpt lat="46.13286" lon="4.54466">
        <ele>767</ele>
        <time>2020-10-19T10:29:12Z</time>
      </trkpt>
      <trkpt lat="46.13284" lon="4.54463">
        <ele>767</ele>
        <time>2020-10-19T10:29:13Z</time>
      </trkpt>
      <trkpt lat="46.13284" lon="4.54463">
        <ele>767.2</ele>
        <time>2020-10-19T10:29:14Z</time>
      </trkpt>
      <trkpt lat="46.13281" lon="4.5446">
        <ele>767.4</ele>
        <time>2020-10-19T10:29:15Z</time>
      </trkpt>
      <trkpt lat="46.13281" lon="4.5446">
        <ele>767.6</ele>
        <time>2020-10-19T10:29:16Z</time>
      </trkpt>
      <trkpt lat="46.13278" lon="4.54458">
        <ele>767.8</ele>
        <time>2020-10-19T10:29:17Z</time>
      </trkpt>
      <trkpt lat="46.13278" lon="4.54458">
        <ele>768</ele>
        <time>2020-10-19T10:29:18Z</time>
      </trkpt>
      <trkpt lat="46.13276" lon="4.54455">
        <ele>767.8</ele>
        <time>2020-10-19T10:29:19Z</time>
      </trkpt>
      <trkpt lat="46.13276" lon="4.54455">
        <ele>768</ele>
        <time>2020-10-19T10:29:20Z</time>
      </trkpt>
      <trkpt lat="46.13274" lon="4.54452">
        <ele>768</ele>
        <time>2020-10-19T10:29:21Z</time>
      </trkpt>
      <trkpt lat="46.13274" lon="4.54452">
        <ele>768</ele>
        <time>2020-10-19T10:29:22Z</time>
      </trkpt>
      <trkpt lat="46.13272" lon="4.54449">
        <ele>768.2</ele>
        <time>2020-10-19T10:29:23Z</time>
      </trkpt>
      <trkpt lat="46.1327" lon="4.54447">
        <ele>768.4</ele>
        <time>2020-10-19T10:29:24Z</time>
      </trkpt>
      <trkpt lat="46.1327" lon="4.54447">
        <ele>768.4</ele>
        <time>2020-10-19T10:29:25Z</time>
      </trkpt>
      <trkpt lat="46.13268" lon="4.54444">
        <ele>768.6</ele>
        <time>2020-10-19T10:29:26Z</time>
      </trkpt>
      <trkpt lat="46.13268" lon="4.54444">
        <ele>768.6</ele>
        <time>2020-10-19T10:29:27Z</time>
      </trkpt>
      <trkpt lat="46.13265" lon="4.5444">
        <ele>768.8</ele>
        <time>2020-10-19T10:29:28Z</time>
      </trkpt>
      <trkpt lat="46.13265" lon="4.5444">
        <ele>768.8</ele>
        <time>2020-10-19T10:29:29Z</time>
      </trkpt>
      <trkpt lat="46.13263" lon="4.54437">
        <ele>768.8</ele>
        <time>2020-10-19T10:29:30Z</time>
      </trkpt>
      <trkpt lat="46.13262" lon="4.54435">
        <ele>769</ele>
        <time>2020-10-19T10:29:31Z</time>
      </trkpt>
      <trkpt lat="46.13261" lon="4.54433">
        <ele>769.2</ele>
        <time>2020-10-19T10:29:32Z</time>
      </trkpt>
      <trkpt lat="46.13261" lon="4.54433">
        <ele>769.6</ele>
        <time>2020-10-19T10:29:33Z</time>
      </trkpt>
      <trkpt lat="46.1326" lon="4.5443">
        <ele>769.8</ele>
        <time>2020-10-19T10:29:34Z</time>
      </trkpt>
      <trkpt lat="46.1326" lon="4.5443">
        <ele>770</ele>
        <time>2020-10-19T10:29:35Z</time>
      </trkpt>
      <trkpt lat="46.13259" lon="4.54427">
        <ele>770.2</ele>
        <time>2020-10-19T10:29:36Z</time>
      </trkpt>
      <trkpt lat="46.13259" lon="4.54427">
        <ele>770</ele>
        <time>2020-10-19T10:29:37Z</time>
      </trkpt>
      <trkpt lat="46.13257" lon="4.54424">
        <ele>770</ele>
        <time>2020-10-19T10:29:38Z</time>
      </trkpt>
      <trkpt lat="46.13257" lon="4.54424">
        <ele>769.8</ele>
        <time>2020-10-19T10:29:39Z</time>
      </trkpt>
      <trkpt lat="46.13254" lon="4.54421">
        <ele>769.6</ele>
        <time>2020-10-19T10:29:40Z</time>
      </trkpt>
      <trkpt lat="46.13254" lon="4.54421">
        <ele>769.6</ele>
        <time>2020-10-19T10:29:41Z</time>
      </trkpt>
      <trkpt lat="46.13252" lon="4.54418">
        <ele>769.6</ele>
        <time>2020-10-19T10:29:42Z</time>
      </trkpt>
      <trkpt lat="46.13252" lon="4.54418">
        <ele>769.4</ele>
        <time>2020-10-19T10:29:43Z</time>
      </trkpt>
      <trkpt lat="46.1325" lon="4.54415">
        <ele>769.4</ele>
        <time>2020-10-19T10:29:44Z</time>
      </trkpt>
      <trkpt lat="46.1325" lon="4.54415">
        <ele>769.4</ele>
        <time>2020-10-19T10:29:45Z</time>
      </trkpt>
      <trkpt lat="46.13247" lon="4.54412">
        <ele>769.4</ele>
        <time>2020-10-19T10:29:46Z</time>
      </trkpt>
      <trkpt lat="46.13247" lon="4.54412">
        <ele>769.2</ele>
        <time>2020-10-19T10:29:47Z</time>
      </trkpt>
      <trkpt lat="46.13245" lon="4.54409">
        <ele>769.2</ele>
        <time>2020-10-19T10:29:48Z</time>
      </trkpt>
      <trkpt lat="46.13245" lon="4.54409">
        <ele>769</ele>
        <time>2020-10-19T10:29:49Z</time>
      </trkpt>
      <trkpt lat="46.13243" lon="4.54407">
        <ele>768</ele>
        <time>2020-10-19T10:29:50Z</time>
      </trkpt>
      <trkpt lat="46.13243" lon="4.54407">
        <ele>767.8</ele>
        <time>2020-10-19T10:29:51Z</time>
      </trkpt>
      <trkpt lat="46.1324" lon="4.54405">
        <ele>767.6</ele>
        <time>2020-10-19T10:29:52Z</time>
      </trkpt>
      <trkpt lat="46.1324" lon="4.54405">
        <ele>767.2</ele>
        <time>2020-10-19T10:29:53Z</time>
      </trkpt>
      <trkpt lat="46.13238" lon="4.54403">
        <ele>767</ele>
        <time>2020-10-19T10:29:54Z</time>
      </trkpt>
      <trkpt lat="46.13238" lon="4.54403">
        <ele>767</ele>
        <time>2020-10-19T10:29:55Z</time>
      </trkpt>
      <trkpt lat="46.13236" lon="4.544">
        <ele>766.8</ele>
        <time>2020-10-19T10:29:56Z</time>
      </trkpt>
      <trkpt lat="46.13236" lon="4.544">
        <ele>766.4</ele>
        <time>2020-10-19T10:29:57Z</time>
      </trkpt>
      <trkpt lat="46.13235" lon="4.54398">
        <ele>766.2</ele>
        <time>2020-10-19T10:29:58Z</time>
      </trkpt>
      <trkpt lat="46.13235" lon="4.54398">
        <ele>766</ele>
        <time>2020-10-19T10:29:59Z</time>
      </trkpt>
      <trkpt lat="46.13232" lon="4.54396">
        <ele>765.8</ele>
        <time>2020-10-19T10:30:00Z</time>
      </trkpt>
      <trkpt lat="46.13231" lon="4.54394">
        <ele>765.6</ele>
        <time>2020-10-19T10:30:01Z</time>
      </trkpt>
      <trkpt lat="46.13229" lon="4.54392">
        <ele>765.4</ele>
        <time>2020-10-19T10:30:02Z</time>
      </trkpt>
      <trkpt lat="46.13229" lon="4.54392">
        <ele>765.6</ele>
        <time>2020-10-19T10:30:03Z</time>
      </trkpt>
      <trkpt lat="46.13227" lon="4.54388">
        <ele>765.4</ele>
        <time>2020-10-19T10:30:04Z</time>
      </trkpt>
      <trkpt lat="46.13227" lon="4.54388">
        <ele>765.4</ele>
        <time>2020-10-19T10:30:05Z</time>
      </trkpt>
      <trkpt lat="46.13224" lon="4.54385">
        <ele>765.2</ele>
        <time>2020-10-19T10:30:06Z</time>
      </trkpt>
      <trkpt lat="46.13223" lon="4.54383">
        <ele>765</ele>
        <time>2020-10-19T10:30:07Z</time>
      </trkpt>
      <trkpt lat="46.13223" lon="4.54383">
        <ele>764.6</ele>
        <time>2020-10-19T10:30:08Z</time>
      </trkpt>
      <trkpt lat="46.13221" lon="4.5438">
        <ele>764.6</ele>
        <time>2020-10-19T10:30:09Z</time>
      </trkpt>
      <trkpt lat="46.13221" lon="4.5438">
        <ele>764.6</ele>
        <time>2020-10-19T10:30:10Z</time>
      </trkpt>
      <trkpt lat="46.13219" lon="4.54377">
        <ele>764.4</ele>
        <time>2020-10-19T10:30:11Z</time>
      </trkpt>
      <trkpt lat="46.13219" lon="4.54377">
        <ele>764.4</ele>
        <time>2020-10-19T10:30:12Z</time>
      </trkpt>
      <trkpt lat="46.13216" lon="4.54374">
        <ele>764.2</ele>
        <time>2020-10-19T10:30:13Z</time>
      </trkpt>
      <trkpt lat="46.13216" lon="4.54374">
        <ele>764.2</ele>
        <time>2020-10-19T10:30:14Z</time>
      </trkpt>
      <trkpt lat="46.13213" lon="4.5437">
        <ele>764</ele>
        <time>2020-10-19T10:30:15Z</time>
      </trkpt>
      <trkpt lat="46.13213" lon="4.54368">
        <ele>763.8</ele>
        <time>2020-10-19T10:30:16Z</time>
      </trkpt>
      <trkpt lat="46.13213" lon="4.54368">
        <ele>763.8</ele>
        <time>2020-10-19T10:30:17Z</time>
      </trkpt>
      <trkpt lat="46.13211" lon="4.54364">
        <ele>763.6</ele>
        <time>2020-10-19T10:30:18Z</time>
      </trkpt>
      <trkpt lat="46.13211" lon="4.54364">
        <ele>763.2</ele>
        <time>2020-10-19T10:30:19Z</time>
      </trkpt>
      <trkpt lat="46.13209" lon="4.54361">
        <ele>763</ele>
        <time>2020-10-19T10:30:20Z</time>
      </trkpt>
      <trkpt lat="46.13209" lon="4.54361">
        <ele>763</ele>
        <time>2020-10-19T10:30:21Z</time>
      </trkpt>
      <trkpt lat="46.13207" lon="4.54357">
        <ele>762.8</ele>
        <time>2020-10-19T10:30:22Z</time>
      </trkpt>
      <trkpt lat="46.13206" lon="4.54355">
        <ele>762.8</ele>
        <time>2020-10-19T10:30:23Z</time>
      </trkpt>
      <trkpt lat="46.13204" lon="4.54353">
        <ele>763</ele>
        <time>2020-10-19T10:30:24Z</time>
      </trkpt>
      <trkpt lat="46.13204" lon="4.54353">
        <ele>762.8</ele>
        <time>2020-10-19T10:30:25Z</time>
      </trkpt>
      <trkpt lat="46.13202" lon="4.54349">
        <ele>762.6</ele>
        <time>2020-10-19T10:30:26Z</time>
      </trkpt>
      <trkpt lat="46.13201" lon="4.54347">
        <ele>762.6</ele>
        <time>2020-10-19T10:30:27Z</time>
      </trkpt>
      <trkpt lat="46.13199" lon="4.54344">
        <ele>762.4</ele>
        <time>2020-10-19T10:30:28Z</time>
      </trkpt>
      <trkpt lat="46.13198" lon="4.54342">
        <ele>762.4</ele>
        <time>2020-10-19T10:30:29Z</time>
      </trkpt>
      <trkpt lat="46.13198" lon="4.54342">
        <ele>762.4</ele>
        <time>2020-10-19T10:30:30Z</time>
      </trkpt>
      <trkpt lat="46.13196" lon="4.54339">
        <ele>762.4</ele>
        <time>2020-10-19T10:30:31Z</time>
      </trkpt>
      <trkpt lat="46.13195" lon="4.54337">
        <ele>762.2</ele>
        <time>2020-10-19T10:30:32Z</time>
      </trkpt>
      <trkpt lat="46.13193" lon="4.54334">
        <ele>762.4</ele>
        <time>2020-10-19T10:30:33Z</time>
      </trkpt>
      <trkpt lat="46.13193" lon="4.54334">
        <ele>762.4</ele>
        <time>2020-10-19T10:30:34Z</time>
      </trkpt>
      <trkpt lat="46.13191" lon="4.54331">
        <ele>762.4</ele>
        <time>2020-10-19T10:30:35Z</time>
      </trkpt>
      <trkpt lat="46.13189" lon="4.5433">
        <ele>762.2</ele>
        <time>2020-10-19T10:30:36Z</time>
      </trkpt>
      <trkpt lat="46.13188" lon="4.54329">
        <ele>762</ele>
        <time>2020-10-19T10:30:37Z</time>
      </trkpt>
      <trkpt lat="46.13188" lon="4.54329">
        <ele>761.8</ele>
        <time>2020-10-19T10:30:38Z</time>
      </trkpt>
      <trkpt lat="46.13185" lon="4.54326">
        <ele>761.6</ele>
        <time>2020-10-19T10:30:39Z</time>
      </trkpt>
      <trkpt lat="46.13185" lon="4.54326">
        <ele>761.6</ele>
        <time>2020-10-19T10:30:40Z</time>
      </trkpt>
      <trkpt lat="46.13183" lon="4.54324">
        <ele>761.6</ele>
        <time>2020-10-19T10:30:41Z</time>
      </trkpt>
      <trkpt lat="46.13183" lon="4.54324">
        <ele>761.2</ele>
        <time>2020-10-19T10:30:42Z</time>
      </trkpt>
      <trkpt lat="46.1318" lon="4.54321">
        <ele>761</ele>
        <time>2020-10-19T10:30:43Z</time>
      </trkpt>
      <trkpt lat="46.1318" lon="4.54321">
        <ele>761</ele>
        <time>2020-10-19T10:30:44Z</time>
      </trkpt>
      <trkpt lat="46.13177" lon="4.54319">
        <ele>760.8</ele>
        <time>2020-10-19T10:30:45Z</time>
      </trkpt>
      <trkpt lat="46.13177" lon="4.54319">
        <ele>760.8</ele>
        <time>2020-10-19T10:30:46Z</time>
      </trkpt>
      <trkpt lat="46.13174" lon="4.54315">
        <ele>760.8</ele>
        <time>2020-10-19T10:30:47Z</time>
      </trkpt>
      <trkpt lat="46.13174" lon="4.54315">
        <ele>760.4</ele>
        <time>2020-10-19T10:30:48Z</time>
      </trkpt>
      <trkpt lat="46.13172" lon="4.54312">
        <ele>760.4</ele>
        <time>2020-10-19T10:30:49Z</time>
      </trkpt>
      <trkpt lat="46.13172" lon="4.54312">
        <ele>760.2</ele>
        <time>2020-10-19T10:30:50Z</time>
      </trkpt>
      <trkpt lat="46.1317" lon="4.54309">
        <ele>760.2</ele>
        <time>2020-10-19T10:30:51Z</time>
      </trkpt>
      <trkpt lat="46.13168" lon="4.54307">
        <ele>760.4</ele>
        <time>2020-10-19T10:30:52Z</time>
      </trkpt>
      <trkpt lat="46.13167" lon="4.54305">
        <ele>760.4</ele>
        <time>2020-10-19T10:30:53Z</time>
      </trkpt>
      <trkpt lat="46.13167" lon="4.54305">
        <ele>760.2</ele>
        <time>2020-10-19T10:30:54Z</time>
      </trkpt>
      <trkpt lat="46.13164" lon="4.54301">
        <ele>760.2</ele>
        <time>2020-10-19T10:30:55Z</time>
      </trkpt>
      <trkpt lat="46.13164" lon="4.54301">
        <ele>760.2</ele>
        <time>2020-10-19T10:30:56Z</time>
      </trkpt>
      <trkpt lat="46.13162" lon="4.54298">
        <ele>760.4</ele>
        <time>2020-10-19T10:30:57Z</time>
      </trkpt>
      <trkpt lat="46.13162" lon="4.54298">
        <ele>760.2</ele>
        <time>2020-10-19T10:30:58Z</time>
      </trkpt>
      <trkpt lat="46.13159" lon="4.54295">
        <ele>760.4</ele>
        <time>2020-10-19T10:30:59Z</time>
      </trkpt>
      <trkpt lat="46.13159" lon="4.54295">
        <ele>760.2</ele>
        <time>2020-10-19T10:31:00Z</time>
      </trkpt>
      <trkpt lat="46.13157" lon="4.54293">
        <ele>760</ele>
        <time>2020-10-19T10:31:01Z</time>
      </trkpt>
      <trkpt lat="46.13157" lon="4.54293">
        <ele>759.6</ele>
        <time>2020-10-19T10:31:02Z</time>
      </trkpt>
      <trkpt lat="46.13155" lon="4.54291">
        <ele>759.4</ele>
        <time>2020-10-19T10:31:03Z</time>
      </trkpt>
      <trkpt lat="46.13155" lon="4.54291">
        <ele>759.2</ele>
        <time>2020-10-19T10:31:04Z</time>
      </trkpt>
      <trkpt lat="46.13153" lon="4.54289">
        <ele>758.8</ele>
        <time>2020-10-19T10:31:05Z</time>
      </trkpt>
      <trkpt lat="46.13153" lon="4.54289">
        <ele>758.6</ele>
        <time>2020-10-19T10:31:06Z</time>
      </trkpt>
      <trkpt lat="46.1315" lon="4.54287">
        <ele>758.2</ele>
        <time>2020-10-19T10:31:07Z</time>
      </trkpt>
      <trkpt lat="46.1315" lon="4.54287">
        <ele>758.2</ele>
        <time>2020-10-19T10:31:08Z</time>
      </trkpt>
      <trkpt lat="46.13147" lon="4.54285">
        <ele>758.2</ele>
        <time>2020-10-19T10:31:09Z</time>
      </trkpt>
      <trkpt lat="46.13147" lon="4.54285">
        <ele>758</ele>
        <time>2020-10-19T10:31:10Z</time>
      </trkpt>
      <trkpt lat="46.13144" lon="4.54283">
        <ele>757.8</ele>
        <time>2020-10-19T10:31:11Z</time>
      </trkpt>
      <trkpt lat="46.13144" lon="4.54283">
        <ele>757.6</ele>
        <time>2020-10-19T10:31:12Z</time>
      </trkpt>
      <trkpt lat="46.1314" lon="4.5428">
        <ele>758</ele>
        <time>2020-10-19T10:31:13Z</time>
      </trkpt>
      <trkpt lat="46.1314" lon="4.5428">
        <ele>758</ele>
        <time>2020-10-19T10:31:14Z</time>
      </trkpt>
      <trkpt lat="46.13139" lon="4.54277">
        <ele>757.6</ele>
        <time>2020-10-19T10:31:15Z</time>
      </trkpt>
      <trkpt lat="46.13139" lon="4.54277">
        <ele>757.4</ele>
        <time>2020-10-19T10:31:16Z</time>
      </trkpt>
      <trkpt lat="46.13137" lon="4.54275">
        <ele>757.4</ele>
        <time>2020-10-19T10:31:17Z</time>
      </trkpt>
      <trkpt lat="46.13137" lon="4.54275">
        <ele>757</ele>
        <time>2020-10-19T10:31:18Z</time>
      </trkpt>
      <trkpt lat="46.13135" lon="4.54273">
        <ele>756.6</ele>
        <time>2020-10-19T10:31:19Z</time>
      </trkpt>
      <trkpt lat="46.13134" lon="4.54271">
        <ele>756.4</ele>
        <time>2020-10-19T10:31:20Z</time>
      </trkpt>
      <trkpt lat="46.13132" lon="4.54269">
        <ele>756.2</ele>
        <time>2020-10-19T10:31:21Z</time>
      </trkpt>
      <trkpt lat="46.13131" lon="4.54267">
        <ele>756.2</ele>
        <time>2020-10-19T10:31:22Z</time>
      </trkpt>
      <trkpt lat="46.13129" lon="4.54264">
        <ele>756.4</ele>
        <time>2020-10-19T10:31:23Z</time>
      </trkpt>
      <trkpt lat="46.13127" lon="4.54262">
        <ele>756.6</ele>
        <time>2020-10-19T10:31:24Z</time>
      </trkpt>
      <trkpt lat="46.13127" lon="4.54262">
        <ele>756.6</ele>
        <time>2020-10-19T10:31:25Z</time>
      </trkpt>
      <trkpt lat="46.13124" lon="4.54259">
        <ele>756.4</ele>
        <time>2020-10-19T10:31:26Z</time>
      </trkpt>
      <trkpt lat="46.13124" lon="4.54259">
        <ele>756.2</ele>
        <time>2020-10-19T10:31:27Z</time>
      </trkpt>
      <trkpt lat="46.13122" lon="4.54256">
        <ele>756</ele>
        <time>2020-10-19T10:31:28Z</time>
      </trkpt>
      <trkpt lat="46.13122" lon="4.54256">
        <ele>756</ele>
        <time>2020-10-19T10:31:29Z</time>
      </trkpt>
      <trkpt lat="46.1312" lon="4.54253">
        <ele>755.8</ele>
        <time>2020-10-19T10:31:30Z</time>
      </trkpt>
      <trkpt lat="46.1312" lon="4.54253">
        <ele>755.8</ele>
        <time>2020-10-19T10:31:31Z</time>
      </trkpt>
      <trkpt lat="46.13117" lon="4.5425">
        <ele>755.6</ele>
        <time>2020-10-19T10:31:32Z</time>
      </trkpt>
      <trkpt lat="46.13117" lon="4.5425">
        <ele>755.4</ele>
        <time>2020-10-19T10:31:33Z</time>
      </trkpt>
      <trkpt lat="46.13115" lon="4.54248">
        <ele>755.4</ele>
        <time>2020-10-19T10:31:34Z</time>
      </trkpt>
      <trkpt lat="46.13115" lon="4.54248">
        <ele>755.4</ele>
        <time>2020-10-19T10:31:35Z</time>
      </trkpt>
      <trkpt lat="46.13113" lon="4.54246">
        <ele>755.4</ele>
        <time>2020-10-19T10:31:36Z</time>
      </trkpt>
      <trkpt lat="46.13113" lon="4.54246">
        <ele>755.4</ele>
        <time>2020-10-19T10:31:37Z</time>
      </trkpt>
      <trkpt lat="46.1311" lon="4.54243">
        <ele>755.4</ele>
        <time>2020-10-19T10:31:38Z</time>
      </trkpt>
      <trkpt lat="46.1311" lon="4.54243">
        <ele>755.4</ele>
        <time>2020-10-19T10:31:39Z</time>
      </trkpt>
      <trkpt lat="46.13107" lon="4.5424">
        <ele>755.6</ele>
        <time>2020-10-19T10:31:40Z</time>
      </trkpt>
      <trkpt lat="46.13107" lon="4.5424">
        <ele>755.8</ele>
        <time>2020-10-19T10:31:41Z</time>
      </trkpt>
      <trkpt lat="46.13105" lon="4.54237">
        <ele>755.8</ele>
        <time>2020-10-19T10:31:42Z</time>
      </trkpt>
      <trkpt lat="46.13105" lon="4.54237">
        <ele>755.8</ele>
        <time>2020-10-19T10:31:43Z</time>
      </trkpt>
      <trkpt lat="46.13103" lon="4.54234">
        <ele>755.8</ele>
        <time>2020-10-19T10:31:44Z</time>
      </trkpt>
      <trkpt lat="46.13103" lon="4.54234">
        <ele>755.6</ele>
        <time>2020-10-19T10:31:45Z</time>
      </trkpt>
      <trkpt lat="46.13101" lon="4.54231">
        <ele>755.6</ele>
        <time>2020-10-19T10:31:46Z</time>
      </trkpt>
      <trkpt lat="46.13101" lon="4.54231">
        <ele>755.6</ele>
        <time>2020-10-19T10:31:47Z</time>
      </trkpt>
      <trkpt lat="46.13098" lon="4.54228">
        <ele>755.6</ele>
        <time>2020-10-19T10:31:48Z</time>
      </trkpt>
      <trkpt lat="46.13098" lon="4.54228">
        <ele>755.2</ele>
        <time>2020-10-19T10:31:49Z</time>
      </trkpt>
      <trkpt lat="46.13096" lon="4.54225">
        <ele>755.4</ele>
        <time>2020-10-19T10:31:50Z</time>
      </trkpt>
      <trkpt lat="46.13096" lon="4.54225">
        <ele>755.4</ele>
        <time>2020-10-19T10:31:51Z</time>
      </trkpt>
      <trkpt lat="46.13094" lon="4.54222">
        <ele>755.2</ele>
        <time>2020-10-19T10:31:52Z</time>
      </trkpt>
      <trkpt lat="46.13094" lon="4.54222">
        <ele>755.4</ele>
        <time>2020-10-19T10:31:53Z</time>
      </trkpt>
      <trkpt lat="46.13092" lon="4.5422">
        <ele>755.6</ele>
        <time>2020-10-19T10:31:54Z</time>
      </trkpt>
      <trkpt lat="46.13092" lon="4.5422">
        <ele>756.2</ele>
        <time>2020-10-19T10:31:55Z</time>
      </trkpt>
      <trkpt lat="46.1309" lon="4.54217">
        <ele>756.8</ele>
        <time>2020-10-19T10:31:56Z</time>
      </trkpt>
      <trkpt lat="46.1309" lon="4.54217">
        <ele>757.2</ele>
        <time>2020-10-19T10:31:57Z</time>
      </trkpt>
      <trkpt lat="46.13087" lon="4.54215">
        <ele>757.4</ele>
        <time>2020-10-19T10:31:58Z</time>
      </trkpt>
      <trkpt lat="46.13087" lon="4.54215">
        <ele>757.2</ele>
        <time>2020-10-19T10:31:59Z</time>
      </trkpt>
      <trkpt lat="46.13084" lon="4.54212">
        <ele>757.2</ele>
        <time>2020-10-19T10:32:00Z</time>
      </trkpt>
      <trkpt lat="46.13084" lon="4.54212">
        <ele>757.2</ele>
        <time>2020-10-19T10:32:01Z</time>
      </trkpt>
      <trkpt lat="46.13082" lon="4.54209">
        <ele>757.2</ele>
        <time>2020-10-19T10:32:02Z</time>
      </trkpt>
      <trkpt lat="46.13082" lon="4.54209">
        <ele>757.6</ele>
        <time>2020-10-19T10:32:03Z</time>
      </trkpt>
      <trkpt lat="46.1308" lon="4.54207">
        <ele>757.8</ele>
        <time>2020-10-19T10:32:04Z</time>
      </trkpt>
      <trkpt lat="46.1308" lon="4.54207">
        <ele>757.6</ele>
        <time>2020-10-19T10:32:05Z</time>
      </trkpt>
      <trkpt lat="46.13078" lon="4.54205">
        <ele>757.8</ele>
        <time>2020-10-19T10:32:06Z</time>
      </trkpt>
      <trkpt lat="46.13078" lon="4.54205">
        <ele>757.8</ele>
        <time>2020-10-19T10:32:07Z</time>
      </trkpt>
      <trkpt lat="46.13076" lon="4.54203">
        <ele>758</ele>
        <time>2020-10-19T10:32:08Z</time>
      </trkpt>
      <trkpt lat="46.13076" lon="4.54203">
        <ele>758.2</ele>
        <time>2020-10-19T10:32:09Z</time>
      </trkpt>
      <trkpt lat="46.13073" lon="4.54201">
        <ele>758.2</ele>
        <time>2020-10-19T10:32:10Z</time>
      </trkpt>
      <trkpt lat="46.13073" lon="4.54201">
        <ele>758.2</ele>
        <time>2020-10-19T10:32:11Z</time>
      </trkpt>
      <trkpt lat="46.13071" lon="4.54199">
        <ele>758.4</ele>
        <time>2020-10-19T10:32:12Z</time>
      </trkpt>
      <trkpt lat="46.13071" lon="4.54199">
        <ele>758.6</ele>
        <time>2020-10-19T10:32:13Z</time>
      </trkpt>
      <trkpt lat="46.13068" lon="4.54197">
        <ele>758.8</ele>
        <time>2020-10-19T10:32:14Z</time>
      </trkpt>
      <trkpt lat="46.13068" lon="4.54197">
        <ele>759.2</ele>
        <time>2020-10-19T10:32:15Z</time>
      </trkpt>
      <trkpt lat="46.13065" lon="4.54195">
        <ele>759.8</ele>
        <time>2020-10-19T10:32:16Z</time>
      </trkpt>
      <trkpt lat="46.13065" lon="4.54195">
        <ele>760</ele>
        <time>2020-10-19T10:32:17Z</time>
      </trkpt>
      <trkpt lat="46.13063" lon="4.54194">
        <ele>760.2</ele>
        <time>2020-10-19T10:32:18Z</time>
      </trkpt>
      <trkpt lat="46.13063" lon="4.54194">
        <ele>760.2</ele>
        <time>2020-10-19T10:32:19Z</time>
      </trkpt>
      <trkpt lat="46.1306" lon="4.54193">
        <ele>760.2</ele>
        <time>2020-10-19T10:32:20Z</time>
      </trkpt>
      <trkpt lat="46.1306" lon="4.54193">
        <ele>760.4</ele>
        <time>2020-10-19T10:32:21Z</time>
      </trkpt>
      <trkpt lat="46.13057" lon="4.54193">
        <ele>760.4</ele>
        <time>2020-10-19T10:32:22Z</time>
      </trkpt>
      <trkpt lat="46.13056" lon="4.54192">
        <ele>760.6</ele>
        <time>2020-10-19T10:32:23Z</time>
      </trkpt>
      <trkpt lat="46.13054" lon="4.54192">
        <ele>761</ele>
        <time>2020-10-19T10:32:24Z</time>
      </trkpt>
      <trkpt lat="46.13054" lon="4.54192">
        <ele>761.4</ele>
        <time>2020-10-19T10:32:25Z</time>
      </trkpt>
      <trkpt lat="46.13051" lon="4.54192">
        <ele>761.6</ele>
        <time>2020-10-19T10:32:26Z</time>
      </trkpt>
      <trkpt lat="46.13051" lon="4.54192">
        <ele>761.6</ele>
        <time>2020-10-19T10:32:27Z</time>
      </trkpt>
      <trkpt lat="46.13048" lon="4.54191">
        <ele>761.6</ele>
        <time>2020-10-19T10:32:28Z</time>
      </trkpt>
      <trkpt lat="46.13048" lon="4.54191">
        <ele>761.6</ele>
        <time>2020-10-19T10:32:29Z</time>
      </trkpt>
      <trkpt lat="46.13045" lon="4.5419">
        <ele>761.4</ele>
        <time>2020-10-19T10:32:30Z</time>
      </trkpt>
      <trkpt lat="46.13043" lon="4.54189">
        <ele>761.4</ele>
        <time>2020-10-19T10:32:31Z</time>
      </trkpt>
      <trkpt lat="46.13043" lon="4.54189">
        <ele>761.4</ele>
        <time>2020-10-19T10:32:32Z</time>
      </trkpt>
      <trkpt lat="46.1304" lon="4.54188">
        <ele>761.8</ele>
        <time>2020-10-19T10:32:33Z</time>
      </trkpt>
      <trkpt lat="46.1304" lon="4.54188">
        <ele>762</ele>
        <time>2020-10-19T10:32:34Z</time>
      </trkpt>
      <trkpt lat="46.13037" lon="4.54188">
        <ele>762</ele>
        <time>2020-10-19T10:32:35Z</time>
      </trkpt>
      <trkpt lat="46.13037" lon="4.54188">
        <ele>762.2</ele>
        <time>2020-10-19T10:32:36Z</time>
      </trkpt>
      <trkpt lat="46.13035" lon="4.54188">
        <ele>762.2</ele>
        <time>2020-10-19T10:32:37Z</time>
      </trkpt>
      <trkpt lat="46.13035" lon="4.54188">
        <ele>762.2</ele>
        <time>2020-10-19T10:32:38Z</time>
      </trkpt>
      <trkpt lat="46.13032" lon="4.54187">
        <ele>762.2</ele>
        <time>2020-10-19T10:32:39Z</time>
      </trkpt>
      <trkpt lat="46.13032" lon="4.54187">
        <ele>762.2</ele>
        <time>2020-10-19T10:32:40Z</time>
      </trkpt>
      <trkpt lat="46.1303" lon="4.54188">
        <ele>762.4</ele>
        <time>2020-10-19T10:32:41Z</time>
      </trkpt>
      <trkpt lat="46.1303" lon="4.54188">
        <ele>762.6</ele>
        <time>2020-10-19T10:32:42Z</time>
      </trkpt>
      <trkpt lat="46.13027" lon="4.54187">
        <ele>763</ele>
        <time>2020-10-19T10:32:43Z</time>
      </trkpt>
      <trkpt lat="46.13027" lon="4.54187">
        <ele>763.2</ele>
        <time>2020-10-19T10:32:44Z</time>
      </trkpt>
      <trkpt lat="46.13023" lon="4.54187">
        <ele>763.2</ele>
        <time>2020-10-19T10:32:45Z</time>
      </trkpt>
      <trkpt lat="46.13023" lon="4.54187">
        <ele>763.4</ele>
        <time>2020-10-19T10:32:46Z</time>
      </trkpt>
      <trkpt lat="46.13021" lon="4.54186">
        <ele>763.8</ele>
        <time>2020-10-19T10:32:47Z</time>
      </trkpt>
      <trkpt lat="46.13021" lon="4.54186">
        <ele>763.8</ele>
        <time>2020-10-19T10:32:48Z</time>
      </trkpt>
      <trkpt lat="46.13017" lon="4.54184">
        <ele>763.8</ele>
        <time>2020-10-19T10:32:49Z</time>
      </trkpt>
      <trkpt lat="46.13017" lon="4.54184">
        <ele>763.6</ele>
        <time>2020-10-19T10:32:50Z</time>
      </trkpt>
      <trkpt lat="46.13014" lon="4.54184">
        <ele>763.8</ele>
        <time>2020-10-19T10:32:51Z</time>
      </trkpt>
      <trkpt lat="46.13014" lon="4.54184">
        <ele>763.6</ele>
        <time>2020-10-19T10:32:52Z</time>
      </trkpt>
      <trkpt lat="46.13011" lon="4.54183">
        <ele>763.8</ele>
        <time>2020-10-19T10:32:53Z</time>
      </trkpt>
      <trkpt lat="46.13011" lon="4.54183">
        <ele>764</ele>
        <time>2020-10-19T10:32:54Z</time>
      </trkpt>
      <trkpt lat="46.13007" lon="4.54182">
        <ele>764</ele>
        <time>2020-10-19T10:32:55Z</time>
      </trkpt>
      <trkpt lat="46.13007" lon="4.54182">
        <ele>764</ele>
        <time>2020-10-19T10:32:56Z</time>
      </trkpt>
      <trkpt lat="46.13004" lon="4.54181">
        <ele>764.2</ele>
        <time>2020-10-19T10:32:57Z</time>
      </trkpt>
      <trkpt lat="46.13002" lon="4.5418">
        <ele>764.4</ele>
        <time>2020-10-19T10:32:58Z</time>
      </trkpt>
      <trkpt lat="46.13002" lon="4.5418">
        <ele>764.4</ele>
        <time>2020-10-19T10:32:59Z</time>
      </trkpt>
      <trkpt lat="46.12998" lon="4.5418">
        <ele>764.4</ele>
        <time>2020-10-19T10:33:00Z</time>
      </trkpt>
      <trkpt lat="46.12998" lon="4.5418">
        <ele>764.4</ele>
        <time>2020-10-19T10:33:01Z</time>
      </trkpt>
      <trkpt lat="46.12995" lon="4.54179">
        <ele>764.6</ele>
        <time>2020-10-19T10:33:02Z</time>
      </trkpt>
      <trkpt lat="46.12995" lon="4.54179">
        <ele>764.6</ele>
        <time>2020-10-19T10:33:03Z</time>
      </trkpt>
      <trkpt lat="46.12992" lon="4.54178">
        <ele>764.6</ele>
        <time>2020-10-19T10:33:04Z</time>
      </trkpt>
      <trkpt lat="46.12992" lon="4.54178">
        <ele>764.4</ele>
        <time>2020-10-19T10:33:05Z</time>
      </trkpt>
      <trkpt lat="46.12989" lon="4.54178">
        <ele>764.4</ele>
        <time>2020-10-19T10:33:06Z</time>
      </trkpt>
      <trkpt lat="46.12989" lon="4.54178">
        <ele>764.4</ele>
        <time>2020-10-19T10:33:07Z</time>
      </trkpt>
      <trkpt lat="46.12986" lon="4.54178">
        <ele>764.2</ele>
        <time>2020-10-19T10:33:08Z</time>
      </trkpt>
      <trkpt lat="46.12986" lon="4.54178">
        <ele>764</ele>
        <time>2020-10-19T10:33:09Z</time>
      </trkpt>
      <trkpt lat="46.12983" lon="4.54178">
        <ele>764.2</ele>
        <time>2020-10-19T10:33:10Z</time>
      </trkpt>
      <trkpt lat="46.12983" lon="4.54178">
        <ele>764.2</ele>
        <time>2020-10-19T10:33:11Z</time>
      </trkpt>
      <trkpt lat="46.1298" lon="4.5418">
        <ele>764.2</ele>
        <time>2020-10-19T10:33:12Z</time>
      </trkpt>
      <trkpt lat="46.1298" lon="4.5418">
        <ele>764.2</ele>
        <time>2020-10-19T10:33:13Z</time>
      </trkpt>
      <trkpt lat="46.12977" lon="4.5418">
        <ele>764.2</ele>
        <time>2020-10-19T10:33:14Z</time>
      </trkpt>
      <trkpt lat="46.12977" lon="4.5418">
        <ele>764</ele>
        <time>2020-10-19T10:33:15Z</time>
      </trkpt>
      <trkpt lat="46.12975" lon="4.54181">
        <ele>764</ele>
        <time>2020-10-19T10:33:16Z</time>
      </trkpt>
      <trkpt lat="46.12975" lon="4.54181">
        <ele>764</ele>
        <time>2020-10-19T10:33:17Z</time>
      </trkpt>
      <trkpt lat="46.12972" lon="4.54182">
        <ele>764</ele>
        <time>2020-10-19T10:33:18Z</time>
      </trkpt>
      <trkpt lat="46.12972" lon="4.54182">
        <ele>763.6</ele>
        <time>2020-10-19T10:33:19Z</time>
      </trkpt>
      <trkpt lat="46.12969" lon="4.54182">
        <ele>763.8</ele>
        <time>2020-10-19T10:33:20Z</time>
      </trkpt>
      <trkpt lat="46.12969" lon="4.54182">
        <ele>763.8</ele>
        <time>2020-10-19T10:33:21Z</time>
      </trkpt>
      <trkpt lat="46.12966" lon="4.54183">
        <ele>763.6</ele>
        <time>2020-10-19T10:33:22Z</time>
      </trkpt>
      <trkpt lat="46.12966" lon="4.54183">
        <ele>763.6</ele>
        <time>2020-10-19T10:33:23Z</time>
      </trkpt>
      <trkpt lat="46.12963" lon="4.54183">
        <ele>763.6</ele>
        <time>2020-10-19T10:33:24Z</time>
      </trkpt>
      <trkpt lat="46.12963" lon="4.54183">
        <ele>763.6</ele>
        <time>2020-10-19T10:33:25Z</time>
      </trkpt>
      <trkpt lat="46.1296" lon="4.54185">
        <ele>763.4</ele>
        <time>2020-10-19T10:33:26Z</time>
      </trkpt>
      <trkpt lat="46.1296" lon="4.54185">
        <ele>763</ele>
        <time>2020-10-19T10:33:27Z</time>
      </trkpt>
      <trkpt lat="46.12958" lon="4.54186">
        <ele>762.8</ele>
        <time>2020-10-19T10:33:28Z</time>
      </trkpt>
      <trkpt lat="46.12958" lon="4.54186">
        <ele>762.8</ele>
        <time>2020-10-19T10:33:29Z</time>
      </trkpt>
      <trkpt lat="46.12956" lon="4.54188">
        <ele>762.8</ele>
        <time>2020-10-19T10:33:30Z</time>
      </trkpt>
      <trkpt lat="46.12956" lon="4.54188">
        <ele>762.8</ele>
        <time>2020-10-19T10:33:31Z</time>
      </trkpt>
      <trkpt lat="46.12954" lon="4.5419">
        <ele>762.4</ele>
        <time>2020-10-19T10:33:32Z</time>
      </trkpt>
      <trkpt lat="46.12954" lon="4.5419">
        <ele>762</ele>
        <time>2020-10-19T10:33:33Z</time>
      </trkpt>
      <trkpt lat="46.12951" lon="4.5419">
        <ele>761.8</ele>
        <time>2020-10-19T10:33:34Z</time>
      </trkpt>
      <trkpt lat="46.12951" lon="4.5419">
        <ele>761.8</ele>
        <time>2020-10-19T10:33:35Z</time>
      </trkpt>
      <trkpt lat="46.12948" lon="4.54189">
        <ele>761.8</ele>
        <time>2020-10-19T10:33:36Z</time>
      </trkpt>
      <trkpt lat="46.12948" lon="4.54189">
        <ele>762</ele>
        <time>2020-10-19T10:33:37Z</time>
      </trkpt>
      <trkpt lat="46.12945" lon="4.54186">
        <ele>761.8</ele>
        <time>2020-10-19T10:33:38Z</time>
      </trkpt>
      <trkpt lat="46.12945" lon="4.54186">
        <ele>761.6</ele>
        <time>2020-10-19T10:33:39Z</time>
      </trkpt>
      <trkpt lat="46.12943" lon="4.54183">
        <ele>761.4</ele>
        <time>2020-10-19T10:33:40Z</time>
      </trkpt>
      <trkpt lat="46.12942" lon="4.54181">
        <ele>761.6</ele>
        <time>2020-10-19T10:33:41Z</time>
      </trkpt>
      <trkpt lat="46.12942" lon="4.54181">
        <ele>761.2</ele>
        <time>2020-10-19T10:33:42Z</time>
      </trkpt>
      <trkpt lat="46.1294" lon="4.54179">
        <ele>760.8</ele>
        <time>2020-10-19T10:33:43Z</time>
      </trkpt>
      <trkpt lat="46.1294" lon="4.54179">
        <ele>760.6</ele>
        <time>2020-10-19T10:33:44Z</time>
      </trkpt>
      <trkpt lat="46.12937" lon="4.54178">
        <ele>760.6</ele>
        <time>2020-10-19T10:33:45Z</time>
      </trkpt>
      <trkpt lat="46.12937" lon="4.54178">
        <ele>761</ele>
        <time>2020-10-19T10:33:46Z</time>
      </trkpt>
      <trkpt lat="46.12934" lon="4.54176">
        <ele>760.8</ele>
        <time>2020-10-19T10:33:47Z</time>
      </trkpt>
      <trkpt lat="46.12932" lon="4.54175">
        <ele>760.8</ele>
        <time>2020-10-19T10:33:48Z</time>
      </trkpt>
      <trkpt lat="46.1293" lon="4.54174">
        <ele>760.8</ele>
        <time>2020-10-19T10:33:49Z</time>
      </trkpt>
      <trkpt lat="46.12928" lon="4.54173">
        <ele>761</ele>
        <time>2020-10-19T10:33:50Z</time>
      </trkpt>
      <trkpt lat="46.12925" lon="4.54172">
        <ele>760.6</ele>
        <time>2020-10-19T10:33:51Z</time>
      </trkpt>
      <trkpt lat="46.12923" lon="4.54171">
        <ele>760</ele>
        <time>2020-10-19T10:33:52Z</time>
      </trkpt>
      <trkpt lat="46.12921" lon="4.5417">
        <ele>760</ele>
        <time>2020-10-19T10:33:53Z</time>
      </trkpt>
      <trkpt lat="46.12919" lon="4.54169">
        <ele>759.6</ele>
        <time>2020-10-19T10:33:54Z</time>
      </trkpt>
      <trkpt lat="46.12919" lon="4.54169">
        <ele>759</ele>
        <time>2020-10-19T10:33:55Z</time>
      </trkpt>
      <trkpt lat="46.12916" lon="4.54169">
        <ele>758.6</ele>
        <time>2020-10-19T10:33:56Z</time>
      </trkpt>
      <trkpt lat="46.12916" lon="4.54169">
        <ele>758.6</ele>
        <time>2020-10-19T10:33:57Z</time>
      </trkpt>
      <trkpt lat="46.12914" lon="4.54172">
        <ele>758</ele>
        <time>2020-10-19T10:33:58Z</time>
      </trkpt>
      <trkpt lat="46.12914" lon="4.54172">
        <ele>757.4</ele>
        <time>2020-10-19T10:33:59Z</time>
      </trkpt>
      <trkpt lat="46.12911" lon="4.54174">
        <ele>757.2</ele>
        <time>2020-10-19T10:34:00Z</time>
      </trkpt>
      <trkpt lat="46.12911" lon="4.54174">
        <ele>757</ele>
        <time>2020-10-19T10:34:01Z</time>
      </trkpt>
      <trkpt lat="46.12909" lon="4.54174">
        <ele>756.8</ele>
        <time>2020-10-19T10:34:02Z</time>
      </trkpt>
      <trkpt lat="46.12909" lon="4.54174">
        <ele>756.4</ele>
        <time>2020-10-19T10:34:03Z</time>
      </trkpt>
      <trkpt lat="46.12907" lon="4.54174">
        <ele>756.2</ele>
        <time>2020-10-19T10:34:04Z</time>
      </trkpt>
      <trkpt lat="46.12907" lon="4.54174">
        <ele>755.6</ele>
        <time>2020-10-19T10:34:05Z</time>
      </trkpt>
      <trkpt lat="46.12907" lon="4.54174">
        <ele>755.4</ele>
        <time>2020-10-19T10:34:06Z</time>
      </trkpt>
      <trkpt lat="46.12906" lon="4.54172">
        <ele>755.4</ele>
        <time>2020-10-19T10:34:07Z</time>
      </trkpt>
      <trkpt lat="46.12906" lon="4.54172">
        <ele>755.2</ele>
        <time>2020-10-19T10:34:08Z</time>
      </trkpt>
      <trkpt lat="46.12906" lon="4.54172">
        <ele>755.2</ele>
        <time>2020-10-19T10:34:09Z</time>
      </trkpt>
      <trkpt lat="46.12905" lon="4.54169">
        <ele>755.2</ele>
        <time>2020-10-19T10:34:10Z</time>
      </trkpt>
      <trkpt lat="46.12905" lon="4.54169">
        <ele>755.2</ele>
        <time>2020-10-19T10:34:11Z</time>
      </trkpt>
      <trkpt lat="46.12905" lon="4.54169">
        <ele>755</ele>
        <time>2020-10-19T10:34:12Z</time>
      </trkpt>
      <trkpt lat="46.12905" lon="4.54169">
        <ele>755.2</ele>
        <time>2020-10-19T10:34:13Z</time>
      </trkpt>
      <trkpt lat="46.12905" lon="4.54169">
        <ele>755.4</ele>
        <time>2020-10-19T10:34:14Z</time>
      </trkpt>
      <trkpt lat="46.12905" lon="4.54169">
        <ele>755.4</ele>
        <time>2020-10-19T10:34:15Z</time>
      </trkpt>
      <trkpt lat="46.12905" lon="4.54169">
        <ele>755.6</ele>
        <time>2020-10-19T10:34:16Z</time>
      </trkpt>
      <trkpt lat="46.12905" lon="4.54169">
        <ele>755.6</ele>
        <time>2020-10-19T10:34:17Z</time>
      </trkpt>
      <trkpt lat="46.12905" lon="4.54166">
        <ele>755.4</ele>
        <time>2020-10-19T10:34:18Z</time>
      </trkpt>
      <trkpt lat="46.12905" lon="4.54166">
        <ele>755</ele>
        <time>2020-10-19T10:34:19Z</time>
      </trkpt>
      <trkpt lat="46.12905" lon="4.54166">
        <ele>754.8</ele>
        <time>2020-10-19T10:34:20Z</time>
      </trkpt>
      <trkpt lat="46.12905" lon="4.54166">
        <ele>754.6</ele>
        <time>2020-10-19T10:34:21Z</time>
      </trkpt>
      <trkpt lat="46.12905" lon="4.54166">
        <ele>754.4</ele>
        <time>2020-10-19T10:34:22Z</time>
      </trkpt>
      <trkpt lat="46.12905" lon="4.54166">
        <ele>754.2</ele>
        <time>2020-10-19T10:34:23Z</time>
      </trkpt>
      <trkpt lat="46.12905" lon="4.54166">
        <ele>754.4</ele>
        <time>2020-10-19T10:34:24Z</time>
      </trkpt>
      <trkpt lat="46.12903" lon="4.54165">
        <ele>754.4</ele>
        <time>2020-10-19T10:34:25Z</time>
      </trkpt>
      <trkpt lat="46.12903" lon="4.54165">
        <ele>754</ele>
        <time>2020-10-19T10:34:26Z</time>
      </trkpt>
      <trkpt lat="46.12902" lon="4.54167">
        <ele>753.8</ele>
        <time>2020-10-19T10:34:27Z</time>
      </trkpt>
      <trkpt lat="46.12902" lon="4.54167">
        <ele>753.8</ele>
        <time>2020-10-19T10:34:28Z</time>
      </trkpt>
      <trkpt lat="46.12899" lon="4.54168">
        <ele>753.6</ele>
        <time>2020-10-19T10:34:29Z</time>
      </trkpt>
      <trkpt lat="46.12899" lon="4.54168">
        <ele>753.4</ele>
        <time>2020-10-19T10:34:30Z</time>
      </trkpt>
      <trkpt lat="46.12896" lon="4.5417">
        <ele>753.4</ele>
        <time>2020-10-19T10:34:31Z</time>
      </trkpt>
      <trkpt lat="46.12894" lon="4.5417">
        <ele>753</ele>
        <time>2020-10-19T10:34:32Z</time>
      </trkpt>
      <trkpt lat="46.12894" lon="4.5417">
        <ele>752.6</ele>
        <time>2020-10-19T10:34:33Z</time>
      </trkpt>
      <trkpt lat="46.12892" lon="4.5417">
        <ele>752</ele>
        <time>2020-10-19T10:34:34Z</time>
      </trkpt>
      <trkpt lat="46.12892" lon="4.5417">
        <ele>751.8</ele>
        <time>2020-10-19T10:34:35Z</time>
      </trkpt>
      <trkpt lat="46.12889" lon="4.54171">
        <ele>751.4</ele>
        <time>2020-10-19T10:34:36Z</time>
      </trkpt>
      <trkpt lat="46.12887" lon="4.54172">
        <ele>751</ele>
        <time>2020-10-19T10:34:37Z</time>
      </trkpt>
      <trkpt lat="46.12887" lon="4.54172">
        <ele>750.4</ele>
        <time>2020-10-19T10:34:38Z</time>
      </trkpt>
      <trkpt lat="46.12884" lon="4.54172">
        <ele>750</ele>
        <time>2020-10-19T10:34:39Z</time>
      </trkpt>
      <trkpt lat="46.12882" lon="4.54172">
        <ele>749.6</ele>
        <time>2020-10-19T10:34:40Z</time>
      </trkpt>
      <trkpt lat="46.12879" lon="4.54172">
        <ele>749.4</ele>
        <time>2020-10-19T10:34:41Z</time>
      </trkpt>
      <trkpt lat="46.12877" lon="4.54173">
        <ele>749</ele>
        <time>2020-10-19T10:34:42Z</time>
      </trkpt>
      <trkpt lat="46.12877" lon="4.54173">
        <ele>748.8</ele>
        <time>2020-10-19T10:34:43Z</time>
      </trkpt>
      <trkpt lat="46.12874" lon="4.54174">
        <ele>748.2</ele>
        <time>2020-10-19T10:34:44Z</time>
      </trkpt>
      <trkpt lat="46.12874" lon="4.54174">
        <ele>747.8</ele>
        <time>2020-10-19T10:34:45Z</time>
      </trkpt>
      <trkpt lat="46.12872" lon="4.54176">
        <ele>747.6</ele>
        <time>2020-10-19T10:34:46Z</time>
      </trkpt>
      <trkpt lat="46.12872" lon="4.54176">
        <ele>747.2</ele>
        <time>2020-10-19T10:34:47Z</time>
      </trkpt>
      <trkpt lat="46.12869" lon="4.54176">
        <ele>747</ele>
        <time>2020-10-19T10:34:48Z</time>
      </trkpt>
      <trkpt lat="46.12869" lon="4.54176">
        <ele>746.8</ele>
        <time>2020-10-19T10:34:49Z</time>
      </trkpt>
      <trkpt lat="46.12866" lon="4.54176">
        <ele>746.6</ele>
        <time>2020-10-19T10:34:50Z</time>
      </trkpt>
      <trkpt lat="46.12866" lon="4.54176">
        <ele>746</ele>
        <time>2020-10-19T10:34:51Z</time>
      </trkpt>
      <trkpt lat="46.12864" lon="4.54175">
        <ele>745.6</ele>
        <time>2020-10-19T10:34:52Z</time>
      </trkpt>
      <trkpt lat="46.12864" lon="4.54175">
        <ele>745.6</ele>
        <time>2020-10-19T10:34:53Z</time>
      </trkpt>
      <trkpt lat="46.12861" lon="4.54174">
        <ele>745.2</ele>
        <time>2020-10-19T10:34:54Z</time>
      </trkpt>
      <trkpt lat="46.12859" lon="4.54173">
        <ele>745.2</ele>
        <time>2020-10-19T10:34:55Z</time>
      </trkpt>
      <trkpt lat="46.12857" lon="4.54172">
        <ele>745.2</ele>
        <time>2020-10-19T10:34:56Z</time>
      </trkpt>
      <trkpt lat="46.12855" lon="4.54172">
        <ele>745</ele>
        <time>2020-10-19T10:34:57Z</time>
      </trkpt>
      <trkpt lat="46.12855" lon="4.54172">
        <ele>744.8</ele>
        <time>2020-10-19T10:34:58Z</time>
      </trkpt>
      <trkpt lat="46.12852" lon="4.54172">
        <ele>744.6</ele>
        <time>2020-10-19T10:34:59Z</time>
      </trkpt>
      <trkpt lat="46.12852" lon="4.54172">
        <ele>744.4</ele>
        <time>2020-10-19T10:35:00Z</time>
      </trkpt>
      <trkpt lat="46.12849" lon="4.54172">
        <ele>744.2</ele>
        <time>2020-10-19T10:35:01Z</time>
      </trkpt>
      <trkpt lat="46.12849" lon="4.54172">
        <ele>744</ele>
        <time>2020-10-19T10:35:02Z</time>
      </trkpt>
      <trkpt lat="46.12846" lon="4.5417">
        <ele>744</ele>
        <time>2020-10-19T10:35:03Z</time>
      </trkpt>
      <trkpt lat="46.12846" lon="4.5417">
        <ele>743.8</ele>
        <time>2020-10-19T10:35:04Z</time>
      </trkpt>
      <trkpt lat="46.12843" lon="4.54168">
        <ele>743.6</ele>
        <time>2020-10-19T10:35:05Z</time>
      </trkpt>
      <trkpt lat="46.12843" lon="4.54168">
        <ele>743.4</ele>
        <time>2020-10-19T10:35:06Z</time>
      </trkpt>
      <trkpt lat="46.1284" lon="4.54167">
        <ele>743.2</ele>
        <time>2020-10-19T10:35:07Z</time>
      </trkpt>
      <trkpt lat="46.1284" lon="4.54167">
        <ele>743.2</ele>
        <time>2020-10-19T10:35:08Z</time>
      </trkpt>
      <trkpt lat="46.12838" lon="4.54166">
        <ele>743</ele>
        <time>2020-10-19T10:35:09Z</time>
      </trkpt>
      <trkpt lat="46.12838" lon="4.54166">
        <ele>742.8</ele>
        <time>2020-10-19T10:35:10Z</time>
      </trkpt>
      <trkpt lat="46.12835" lon="4.54165">
        <ele>742.8</ele>
        <time>2020-10-19T10:35:11Z</time>
      </trkpt>
      <trkpt lat="46.12833" lon="4.54164">
        <ele>742.6</ele>
        <time>2020-10-19T10:35:12Z</time>
      </trkpt>
      <trkpt lat="46.12833" lon="4.54164">
        <ele>742.6</ele>
        <time>2020-10-19T10:35:13Z</time>
      </trkpt>
      <trkpt lat="46.1283" lon="4.54162">
        <ele>742.2</ele>
        <time>2020-10-19T10:35:14Z</time>
      </trkpt>
      <trkpt lat="46.1283" lon="4.54162">
        <ele>742</ele>
        <time>2020-10-19T10:35:15Z</time>
      </trkpt>
      <trkpt lat="46.12827" lon="4.54161">
        <ele>742</ele>
        <time>2020-10-19T10:35:16Z</time>
      </trkpt>
      <trkpt lat="46.12827" lon="4.54161">
        <ele>741.6</ele>
        <time>2020-10-19T10:35:17Z</time>
      </trkpt>
      <trkpt lat="46.12824" lon="4.54159">
        <ele>741.4</ele>
        <time>2020-10-19T10:35:18Z</time>
      </trkpt>
      <trkpt lat="46.12822" lon="4.54159">
        <ele>741.2</ele>
        <time>2020-10-19T10:35:19Z</time>
      </trkpt>
      <trkpt lat="46.1282" lon="4.54158">
        <ele>741</ele>
        <time>2020-10-19T10:35:20Z</time>
      </trkpt>
      <trkpt lat="46.12818" lon="4.54157">
        <ele>741.2</ele>
        <time>2020-10-19T10:35:21Z</time>
      </trkpt>
      <trkpt lat="46.12816" lon="4.54156">
        <ele>740.8</ele>
        <time>2020-10-19T10:35:22Z</time>
      </trkpt>
      <trkpt lat="46.12814" lon="4.54156">
        <ele>740.8</ele>
        <time>2020-10-19T10:35:23Z</time>
      </trkpt>
      <trkpt lat="46.12814" lon="4.54156">
        <ele>740.4</ele>
        <time>2020-10-19T10:35:24Z</time>
      </trkpt>
      <trkpt lat="46.12811" lon="4.54155">
        <ele>740.2</ele>
        <time>2020-10-19T10:35:25Z</time>
      </trkpt>
      <trkpt lat="46.12808" lon="4.54154">
        <ele>740.2</ele>
        <time>2020-10-19T10:35:26Z</time>
      </trkpt>
      <trkpt lat="46.12806" lon="4.54153">
        <ele>740</ele>
        <time>2020-10-19T10:35:27Z</time>
      </trkpt>
      <trkpt lat="46.12803" lon="4.54152">
        <ele>739.8</ele>
        <time>2020-10-19T10:35:28Z</time>
      </trkpt>
      <trkpt lat="46.12801" lon="4.54151">
        <ele>739.4</ele>
        <time>2020-10-19T10:35:29Z</time>
      </trkpt>
      <trkpt lat="46.12799" lon="4.54151">
        <ele>739</ele>
        <time>2020-10-19T10:35:30Z</time>
      </trkpt>
      <trkpt lat="46.12797" lon="4.5415">
        <ele>739</ele>
        <time>2020-10-19T10:35:31Z</time>
      </trkpt>
      <trkpt lat="46.12795" lon="4.54149">
        <ele>738.4</ele>
        <time>2020-10-19T10:35:32Z</time>
      </trkpt>
      <trkpt lat="46.12793" lon="4.54149">
        <ele>738.2</ele>
        <time>2020-10-19T10:35:33Z</time>
      </trkpt>
      <trkpt lat="46.12791" lon="4.54148">
        <ele>737.8</ele>
        <time>2020-10-19T10:35:34Z</time>
      </trkpt>
      <trkpt lat="46.12788" lon="4.54146">
        <ele>737.6</ele>
        <time>2020-10-19T10:35:35Z</time>
      </trkpt>
      <trkpt lat="46.12786" lon="4.54145">
        <ele>737.6</ele>
        <time>2020-10-19T10:35:36Z</time>
      </trkpt>
      <trkpt lat="46.12783" lon="4.54144">
        <ele>736.8</ele>
        <time>2020-10-19T10:35:37Z</time>
      </trkpt>
      <trkpt lat="46.1278" lon="4.54142">
        <ele>736.4</ele>
        <time>2020-10-19T10:35:38Z</time>
      </trkpt>
      <trkpt lat="46.12778" lon="4.5414">
        <ele>736.2</ele>
        <time>2020-10-19T10:35:39Z</time>
      </trkpt>
      <trkpt lat="46.12775" lon="4.54138">
        <ele>735.2</ele>
        <time>2020-10-19T10:35:40Z</time>
      </trkpt>
      <trkpt lat="46.12772" lon="4.54137">
        <ele>735</ele>
        <time>2020-10-19T10:35:41Z</time>
      </trkpt>
      <trkpt lat="46.12771" lon="4.54135">
        <ele>734.8</ele>
        <time>2020-10-19T10:35:42Z</time>
      </trkpt>
      <trkpt lat="46.12768" lon="4.54134">
        <ele>734.4</ele>
        <time>2020-10-19T10:35:43Z</time>
      </trkpt>
      <trkpt lat="46.12766" lon="4.54133">
        <ele>734.2</ele>
        <time>2020-10-19T10:35:44Z</time>
      </trkpt>
      <trkpt lat="46.12763" lon="4.54132">
        <ele>733.8</ele>
        <time>2020-10-19T10:35:45Z</time>
      </trkpt>
      <trkpt lat="46.12761" lon="4.54131">
        <ele>733.4</ele>
        <time>2020-10-19T10:35:46Z</time>
      </trkpt>
      <trkpt lat="46.12759" lon="4.5413">
        <ele>732.6</ele>
        <time>2020-10-19T10:35:47Z</time>
      </trkpt>
      <trkpt lat="46.12756" lon="4.5413">
        <ele>732.6</ele>
        <time>2020-10-19T10:35:48Z</time>
      </trkpt>
      <trkpt lat="46.12753" lon="4.54128">
        <ele>732</ele>
        <time>2020-10-19T10:35:49Z</time>
      </trkpt>
      <trkpt lat="46.1275" lon="4.54127">
        <ele>731.2</ele>
        <time>2020-10-19T10:35:50Z</time>
      </trkpt>
      <trkpt lat="46.12746" lon="4.54125">
        <ele>731.4</ele>
        <time>2020-10-19T10:35:51Z</time>
      </trkpt>
      <trkpt lat="46.12743" lon="4.54123">
        <ele>730.8</ele>
        <time>2020-10-19T10:35:52Z</time>
      </trkpt>
      <trkpt lat="46.1274" lon="4.54122">
        <ele>730.2</ele>
        <time>2020-10-19T10:35:53Z</time>
      </trkpt>
      <trkpt lat="46.12738" lon="4.5412">
        <ele>730.2</ele>
        <time>2020-10-19T10:35:54Z</time>
      </trkpt>
      <trkpt lat="46.12735" lon="4.54119">
        <ele>729.6</ele>
        <time>2020-10-19T10:35:55Z</time>
      </trkpt>
      <trkpt lat="46.12732" lon="4.54117">
        <ele>729.2</ele>
        <time>2020-10-19T10:35:56Z</time>
      </trkpt>
      <trkpt lat="46.1273" lon="4.54116">
        <ele>729.2</ele>
        <time>2020-10-19T10:35:57Z</time>
      </trkpt>
      <trkpt lat="46.12728" lon="4.54115">
        <ele>728.6</ele>
        <time>2020-10-19T10:35:58Z</time>
      </trkpt>
      <trkpt lat="46.12726" lon="4.54113">
        <ele>728.2</ele>
        <time>2020-10-19T10:35:59Z</time>
      </trkpt>
      <trkpt lat="46.12724" lon="4.54111">
        <ele>728.2</ele>
        <time>2020-10-19T10:36:00Z</time>
      </trkpt>
      <trkpt lat="46.12722" lon="4.54109">
        <ele>728.4</ele>
        <time>2020-10-19T10:36:01Z</time>
      </trkpt>
      <trkpt lat="46.1272" lon="4.54107">
        <ele>727.8</ele>
        <time>2020-10-19T10:36:02Z</time>
      </trkpt>
      <trkpt lat="46.12718" lon="4.54105">
        <ele>727.4</ele>
        <time>2020-10-19T10:36:03Z</time>
      </trkpt>
      <trkpt lat="46.12715" lon="4.54104">
        <ele>727.2</ele>
        <time>2020-10-19T10:36:04Z</time>
      </trkpt>
      <trkpt lat="46.12713" lon="4.54101">
        <ele>726.8</ele>
        <time>2020-10-19T10:36:05Z</time>
      </trkpt>
      <trkpt lat="46.1271" lon="4.54099">
        <ele>726.2</ele>
        <time>2020-10-19T10:36:06Z</time>
      </trkpt>
      <trkpt lat="46.12708" lon="4.54098">
        <ele>726.4</ele>
        <time>2020-10-19T10:36:07Z</time>
      </trkpt>
      <trkpt lat="46.12705" lon="4.54096">
        <ele>726</ele>
        <time>2020-10-19T10:36:08Z</time>
      </trkpt>
      <trkpt lat="46.12703" lon="4.54095">
        <ele>725.6</ele>
        <time>2020-10-19T10:36:09Z</time>
      </trkpt>
      <trkpt lat="46.12701" lon="4.54093">
        <ele>725.6</ele>
        <time>2020-10-19T10:36:10Z</time>
      </trkpt>
      <trkpt lat="46.12698" lon="4.54092">
        <ele>725.4</ele>
        <time>2020-10-19T10:36:11Z</time>
      </trkpt>
      <trkpt lat="46.12696" lon="4.54089">
        <ele>725</ele>
        <time>2020-10-19T10:36:12Z</time>
      </trkpt>
      <trkpt lat="46.12694" lon="4.54087">
        <ele>725.2</ele>
        <time>2020-10-19T10:36:13Z</time>
      </trkpt>
      <trkpt lat="46.12692" lon="4.54085">
        <ele>725</ele>
        <time>2020-10-19T10:36:14Z</time>
      </trkpt>
      <trkpt lat="46.12689" lon="4.54083">
        <ele>724.8</ele>
        <time>2020-10-19T10:36:15Z</time>
      </trkpt>
      <trkpt lat="46.12687" lon="4.54081">
        <ele>724.6</ele>
        <time>2020-10-19T10:36:16Z</time>
      </trkpt>
      <trkpt lat="46.12684" lon="4.54078">
        <ele>724.8</ele>
        <time>2020-10-19T10:36:17Z</time>
      </trkpt>
      <trkpt lat="46.12682" lon="4.54075">
        <ele>724.4</ele>
        <time>2020-10-19T10:36:18Z</time>
      </trkpt>
      <trkpt lat="46.12679" lon="4.54073">
        <ele>724</ele>
        <time>2020-10-19T10:36:19Z</time>
      </trkpt>
      <trkpt lat="46.12677" lon="4.54071">
        <ele>724.2</ele>
        <time>2020-10-19T10:36:20Z</time>
      </trkpt>
      <trkpt lat="46.12675" lon="4.54069">
        <ele>724</ele>
        <time>2020-10-19T10:36:21Z</time>
      </trkpt>
      <trkpt lat="46.12673" lon="4.54066">
        <ele>723.4</ele>
        <time>2020-10-19T10:36:22Z</time>
      </trkpt>
      <trkpt lat="46.1267" lon="4.54064">
        <ele>723.6</ele>
        <time>2020-10-19T10:36:23Z</time>
      </trkpt>
      <trkpt lat="46.12668" lon="4.54061">
        <ele>723.4</ele>
        <time>2020-10-19T10:36:24Z</time>
      </trkpt>
      <trkpt lat="46.12665" lon="4.5406">
        <ele>723.2</ele>
        <time>2020-10-19T10:36:25Z</time>
      </trkpt>
      <trkpt lat="46.12663" lon="4.54057">
        <ele>723.4</ele>
        <time>2020-10-19T10:36:26Z</time>
      </trkpt>
      <trkpt lat="46.12661" lon="4.54054">
        <ele>723</ele>
        <time>2020-10-19T10:36:27Z</time>
      </trkpt>
      <trkpt lat="46.12659" lon="4.54051">
        <ele>722.6</ele>
        <time>2020-10-19T10:36:28Z</time>
      </trkpt>
      <trkpt lat="46.12657" lon="4.54048">
        <ele>723</ele>
        <time>2020-10-19T10:36:29Z</time>
      </trkpt>
      <trkpt lat="46.12655" lon="4.54046">
        <ele>722.6</ele>
        <time>2020-10-19T10:36:30Z</time>
      </trkpt>
      <trkpt lat="46.12653" lon="4.54044">
        <ele>722.4</ele>
        <time>2020-10-19T10:36:31Z</time>
      </trkpt>
      <trkpt lat="46.12651" lon="4.54041">
        <ele>722.6</ele>
        <time>2020-10-19T10:36:32Z</time>
      </trkpt>
      <trkpt lat="46.12649" lon="4.54039">
        <ele>722.6</ele>
        <time>2020-10-19T10:36:33Z</time>
      </trkpt>
      <trkpt lat="46.12647" lon="4.54036">
        <ele>722</ele>
        <time>2020-10-19T10:36:34Z</time>
      </trkpt>
      <trkpt lat="46.12645" lon="4.54034">
        <ele>722.4</ele>
        <time>2020-10-19T10:36:35Z</time>
      </trkpt>
      <trkpt lat="46.12642" lon="4.54032">
        <ele>722.2</ele>
        <time>2020-10-19T10:36:36Z</time>
      </trkpt>
      <trkpt lat="46.1264" lon="4.54029">
        <ele>721.6</ele>
        <time>2020-10-19T10:36:37Z</time>
      </trkpt>
      <trkpt lat="46.12638" lon="4.54026">
        <ele>721.8</ele>
        <time>2020-10-19T10:36:38Z</time>
      </trkpt>
      <trkpt lat="46.12636" lon="4.54023">
        <ele>721.8</ele>
        <time>2020-10-19T10:36:39Z</time>
      </trkpt>
      <trkpt lat="46.12634" lon="4.5402">
        <ele>721.8</ele>
        <time>2020-10-19T10:36:40Z</time>
      </trkpt>
      <trkpt lat="46.12632" lon="4.54018">
        <ele>721.4</ele>
        <time>2020-10-19T10:36:41Z</time>
      </trkpt>
      <trkpt lat="46.1263" lon="4.54015">
        <ele>721.6</ele>
        <time>2020-10-19T10:36:42Z</time>
      </trkpt>
      <trkpt lat="46.12628" lon="4.54013">
        <ele>721.4</ele>
        <time>2020-10-19T10:36:43Z</time>
      </trkpt>
      <trkpt lat="46.12626" lon="4.5401">
        <ele>721</ele>
        <time>2020-10-19T10:36:44Z</time>
      </trkpt>
      <trkpt lat="46.12624" lon="4.54007">
        <ele>721</ele>
        <time>2020-10-19T10:36:45Z</time>
      </trkpt>
      <trkpt lat="46.12622" lon="4.54004">
        <ele>720.8</ele>
        <time>2020-10-19T10:36:46Z</time>
      </trkpt>
      <trkpt lat="46.1262" lon="4.54001">
        <ele>720.8</ele>
        <time>2020-10-19T10:36:47Z</time>
      </trkpt>
      <trkpt lat="46.12619" lon="4.53999">
        <ele>720.8</ele>
        <time>2020-10-19T10:36:48Z</time>
      </trkpt>
      <trkpt lat="46.12617" lon="4.53996">
        <ele>720.8</ele>
        <time>2020-10-19T10:36:49Z</time>
      </trkpt>
      <trkpt lat="46.12614" lon="4.53993">
        <ele>720.6</ele>
        <time>2020-10-19T10:36:50Z</time>
      </trkpt>
      <trkpt lat="46.12612" lon="4.53991">
        <ele>720.6</ele>
        <time>2020-10-19T10:36:51Z</time>
      </trkpt>
      <trkpt lat="46.1261" lon="4.5399">
        <ele>720.2</ele>
        <time>2020-10-19T10:36:52Z</time>
      </trkpt>
      <trkpt lat="46.12608" lon="4.5399">
        <ele>720.2</ele>
        <time>2020-10-19T10:36:53Z</time>
      </trkpt>
      <trkpt lat="46.12606" lon="4.53989">
        <ele>720.4</ele>
        <time>2020-10-19T10:36:54Z</time>
      </trkpt>
      <trkpt lat="46.12605" lon="4.53987">
        <ele>720.2</ele>
        <time>2020-10-19T10:36:55Z</time>
      </trkpt>
      <trkpt lat="46.12604" lon="4.53984">
        <ele>720</ele>
        <time>2020-10-19T10:36:56Z</time>
      </trkpt>
      <trkpt lat="46.12603" lon="4.5398">
        <ele>720.4</ele>
        <time>2020-10-19T10:36:57Z</time>
      </trkpt>
      <trkpt lat="46.12601" lon="4.53977">
        <ele>720.6</ele>
        <time>2020-10-19T10:36:58Z</time>
      </trkpt>
      <trkpt lat="46.126" lon="4.53973">
        <ele>720.4</ele>
        <time>2020-10-19T10:36:59Z</time>
      </trkpt>
      <trkpt lat="46.12599" lon="4.53969">
        <ele>720.6</ele>
        <time>2020-10-19T10:37:00Z</time>
      </trkpt>
      <trkpt lat="46.12599" lon="4.53965">
        <ele>720.8</ele>
        <time>2020-10-19T10:37:01Z</time>
      </trkpt>
      <trkpt lat="46.12598" lon="4.53962">
        <ele>720.8</ele>
        <time>2020-10-19T10:37:02Z</time>
      </trkpt>
      <trkpt lat="46.12597" lon="4.53959">
        <ele>720.4</ele>
        <time>2020-10-19T10:37:03Z</time>
      </trkpt>
      <trkpt lat="46.12597" lon="4.53955">
        <ele>720.6</ele>
        <time>2020-10-19T10:37:04Z</time>
      </trkpt>
      <trkpt lat="46.12596" lon="4.53952">
        <ele>720.6</ele>
        <time>2020-10-19T10:37:05Z</time>
      </trkpt>
      <trkpt lat="46.12595" lon="4.53949">
        <ele>720.4</ele>
        <time>2020-10-19T10:37:06Z</time>
      </trkpt>
      <trkpt lat="46.12594" lon="4.53945">
        <ele>720.6</ele>
        <time>2020-10-19T10:37:07Z</time>
      </trkpt>
      <trkpt lat="46.12593" lon="4.53942">
        <ele>720.4</ele>
        <time>2020-10-19T10:37:08Z</time>
      </trkpt>
      <trkpt lat="46.12592" lon="4.53939">
        <ele>720</ele>
        <time>2020-10-19T10:37:09Z</time>
      </trkpt>
      <trkpt lat="46.1259" lon="4.53936">
        <ele>720.4</ele>
        <time>2020-10-19T10:37:10Z</time>
      </trkpt>
      <trkpt lat="46.12587" lon="4.53934">
        <ele>720.2</ele>
        <time>2020-10-19T10:37:11Z</time>
      </trkpt>
      <trkpt lat="46.12586" lon="4.53932">
        <ele>720</ele>
        <time>2020-10-19T10:37:12Z</time>
      </trkpt>
      <trkpt lat="46.12584" lon="4.53929">
        <ele>720.4</ele>
        <time>2020-10-19T10:37:13Z</time>
      </trkpt>
      <trkpt lat="46.12582" lon="4.53927">
        <ele>720.4</ele>
        <time>2020-10-19T10:37:14Z</time>
      </trkpt>
      <trkpt lat="46.12581" lon="4.53925">
        <ele>720.2</ele>
        <time>2020-10-19T10:37:15Z</time>
      </trkpt>
      <trkpt lat="46.12581" lon="4.53925">
        <ele>720.2</ele>
        <time>2020-10-19T10:37:16Z</time>
      </trkpt>
      <trkpt lat="46.12579" lon="4.53922">
        <ele>720</ele>
        <time>2020-10-19T10:37:17Z</time>
      </trkpt>
      <trkpt lat="46.12579" lon="4.53922">
        <ele>719.8</ele>
        <time>2020-10-19T10:37:18Z</time>
      </trkpt>
      <trkpt lat="46.12577" lon="4.53918">
        <ele>719.6</ele>
        <time>2020-10-19T10:37:19Z</time>
      </trkpt>
      <trkpt lat="46.12577" lon="4.53918">
        <ele>719.6</ele>
        <time>2020-10-19T10:37:20Z</time>
      </trkpt>
      <trkpt lat="46.12576" lon="4.53914">
        <ele>719.8</ele>
        <time>2020-10-19T10:37:21Z</time>
      </trkpt>
      <trkpt lat="46.12576" lon="4.53914">
        <ele>719.8</ele>
        <time>2020-10-19T10:37:22Z</time>
      </trkpt>
      <trkpt lat="46.12574" lon="4.5391">
        <ele>719.8</ele>
        <time>2020-10-19T10:37:23Z</time>
      </trkpt>
      <trkpt lat="46.12574" lon="4.5391">
        <ele>720</ele>
        <time>2020-10-19T10:37:24Z</time>
      </trkpt>
      <trkpt lat="46.12573" lon="4.53906">
        <ele>720</ele>
        <time>2020-10-19T10:37:25Z</time>
      </trkpt>
      <trkpt lat="46.12573" lon="4.53906">
        <ele>720</ele>
        <time>2020-10-19T10:37:26Z</time>
      </trkpt>
      <trkpt lat="46.12573" lon="4.53906">
        <ele>720</ele>
        <time>2020-10-19T10:37:27Z</time>
      </trkpt>
      <trkpt lat="46.12573" lon="4.53906">
        <ele>719.8</ele>
        <time>2020-10-19T10:37:28Z</time>
      </trkpt>
      <trkpt lat="46.12573" lon="4.53906">
        <ele>719.4</ele>
        <time>2020-10-19T10:37:29Z</time>
      </trkpt>
      <trkpt lat="46.12573" lon="4.53906">
        <ele>719.4</ele>
        <time>2020-10-19T10:37:30Z</time>
      </trkpt>
      <trkpt lat="46.12573" lon="4.53906">
        <ele>719.4</ele>
        <time>2020-10-19T10:37:31Z</time>
      </trkpt>
      <trkpt lat="46.12573" lon="4.53906">
        <ele>719.4</ele>
        <time>2020-10-19T10:37:32Z</time>
      </trkpt>
      <trkpt lat="46.12574" lon="4.53903">
        <ele>719.2</ele>
        <time>2020-10-19T10:37:33Z</time>
      </trkpt>
      <trkpt lat="46.12574" lon="4.53903">
        <ele>719.2</ele>
        <time>2020-10-19T10:37:34Z</time>
      </trkpt>
      <trkpt lat="46.12574" lon="4.53903">
        <ele>719.2</ele>
        <time>2020-10-19T10:37:35Z</time>
      </trkpt>
      <trkpt lat="46.12574" lon="4.53903">
        <ele>719.2</ele>
        <time>2020-10-19T10:37:36Z</time>
      </trkpt>
      <trkpt lat="46.12574" lon="4.53903">
        <ele>719</ele>
        <time>2020-10-19T10:37:37Z</time>
      </trkpt>
      <trkpt lat="46.12574" lon="4.53903">
        <ele>719.2</ele>
        <time>2020-10-19T10:37:38Z</time>
      </trkpt>
      <trkpt lat="46.12574" lon="4.53903">
        <ele>719</ele>
        <time>2020-10-19T10:37:39Z</time>
      </trkpt>
      <trkpt lat="46.12574" lon="4.53903">
        <ele>719</ele>
        <time>2020-10-19T10:37:40Z</time>
      </trkpt>
      <trkpt lat="46.12574" lon="4.53903">
        <ele>719</ele>
        <time>2020-10-19T10:37:41Z</time>
      </trkpt>
      <trkpt lat="46.12574" lon="4.53903">
        <ele>719</ele>
        <time>2020-10-19T10:37:42Z</time>
      </trkpt>
      <trkpt lat="46.12574" lon="4.53903">
        <ele>719</ele>
        <time>2020-10-19T10:37:43Z</time>
      </trkpt>
      <trkpt lat="46.12575" lon="4.53901">
        <ele>719.2</ele>
        <time>2020-10-19T10:37:44Z</time>
      </trkpt>
      <trkpt lat="46.12575" lon="4.53901">
        <ele>719.2</ele>
        <time>2020-10-19T10:37:45Z</time>
      </trkpt>
      <trkpt lat="46.12575" lon="4.53901">
        <ele>719.2</ele>
        <time>2020-10-19T10:37:46Z</time>
      </trkpt>
      <trkpt lat="46.12575" lon="4.53901">
        <ele>719.2</ele>
        <time>2020-10-19T10:37:47Z</time>
      </trkpt>
      <trkpt lat="46.12574" lon="4.53899">
        <ele>719.4</ele>
        <time>2020-10-19T10:37:48Z</time>
      </trkpt>
      <trkpt lat="46.12574" lon="4.53899">
        <ele>719.4</ele>
        <time>2020-10-19T10:37:49Z</time>
      </trkpt>
      <trkpt lat="46.12571" lon="4.53897">
        <ele>719.8</ele>
        <time>2020-10-19T10:37:50Z</time>
      </trkpt>
      <trkpt lat="46.12571" lon="4.53897">
        <ele>719.6</ele>
        <time>2020-10-19T10:37:51Z</time>
      </trkpt>
      <trkpt lat="46.12571" lon="4.53897">
        <ele>719.8</ele>
        <time>2020-10-19T10:37:52Z</time>
      </trkpt>
      <trkpt lat="46.1257" lon="4.53895">
        <ele>719.8</ele>
        <time>2020-10-19T10:37:53Z</time>
      </trkpt>
      <trkpt lat="46.1257" lon="4.53895">
        <ele>719.8</ele>
        <time>2020-10-19T10:37:54Z</time>
      </trkpt>
      <trkpt lat="46.1257" lon="4.53895">
        <ele>720</ele>
        <time>2020-10-19T10:37:55Z</time>
      </trkpt>
      <trkpt lat="46.1257" lon="4.53895">
        <ele>720.2</ele>
        <time>2020-10-19T10:37:56Z</time>
      </trkpt>
      <trkpt lat="46.1257" lon="4.53895">
        <ele>720.4</ele>
        <time>2020-10-19T10:37:57Z</time>
      </trkpt>
      <trkpt lat="46.1257" lon="4.53895">
        <ele>720.4</ele>
        <time>2020-10-19T10:37:58Z</time>
      </trkpt>
      <trkpt lat="46.1257" lon="4.53895">
        <ele>720</ele>
        <time>2020-10-19T10:37:59Z</time>
      </trkpt>
      <trkpt lat="46.1257" lon="4.53895">
        <ele>719.8</ele>
        <time>2020-10-19T10:38:00Z</time>
      </trkpt>
      <trkpt lat="46.1257" lon="4.53895">
        <ele>719.6</ele>
        <time>2020-10-19T10:38:02Z</time>
      </trkpt>
      <trkpt lat="46.1257" lon="4.53895">
        <ele>719.6</ele>
        <time>2020-10-19T10:38:03Z</time>
      </trkpt>
      <trkpt lat="46.1257" lon="4.53895">
        <ele>719.4</ele>
        <time>2020-10-19T10:38:04Z</time>
      </trkpt>
      <trkpt lat="46.1257" lon="4.53895">
        <ele>719.4</ele>
        <time>2020-10-19T10:38:05Z</time>
      </trkpt>
      <trkpt lat="46.1257" lon="4.53895">
        <ele>719.4</ele>
        <time>2020-10-19T10:38:06Z</time>
      </trkpt>
      <trkpt lat="46.1257" lon="4.53895">
        <ele>719.4</ele>
        <time>2020-10-19T10:38:07Z</time>
      </trkpt>
      <trkpt lat="46.1257" lon="4.53895">
        <ele>719.4</ele>
        <time>2020-10-19T10:38:08Z</time>
      </trkpt>
      <trkpt lat="46.1257" lon="4.53895">
        <ele>719.2</ele>
        <time>2020-10-19T10:38:09Z</time>
      </trkpt>
      <trkpt lat="46.12569" lon="4.53893">
        <ele>719.2</ele>
        <time>2020-10-19T10:38:10Z</time>
      </trkpt>
      <trkpt lat="46.12569" lon="4.53893">
        <ele>719.4</ele>
        <time>2020-10-19T10:38:11Z</time>
      </trkpt>
      <trkpt lat="46.12567" lon="4.53892">
        <ele>719.4</ele>
        <time>2020-10-19T10:38:12Z</time>
      </trkpt>
      <trkpt lat="46.12567" lon="4.53892">
        <ele>719.2</ele>
        <time>2020-10-19T10:38:13Z</time>
      </trkpt>
      <trkpt lat="46.12565" lon="4.53891">
        <ele>719</ele>
        <time>2020-10-19T10:38:14Z</time>
      </trkpt>
      <trkpt lat="46.12565" lon="4.53891">
        <ele>719</ele>
        <time>2020-10-19T10:38:15Z</time>
      </trkpt>
      <trkpt lat="46.12563" lon="4.53888">
        <ele>718.8</ele>
        <time>2020-10-19T10:38:16Z</time>
      </trkpt>
      <trkpt lat="46.12563" lon="4.53888">
        <ele>718.6</ele>
        <time>2020-10-19T10:38:17Z</time>
      </trkpt>
      <trkpt lat="46.1256" lon="4.53886">
        <ele>718.6</ele>
        <time>2020-10-19T10:38:18Z</time>
      </trkpt>
      <trkpt lat="46.1256" lon="4.53886">
        <ele>718.4</ele>
        <time>2020-10-19T10:38:19Z</time>
      </trkpt>
      <trkpt lat="46.12557" lon="4.53883">
        <ele>718.6</ele>
        <time>2020-10-19T10:38:20Z</time>
      </trkpt>
      <trkpt lat="46.12556" lon="4.53882">
        <ele>719</ele>
        <time>2020-10-19T10:38:21Z</time>
      </trkpt>
      <trkpt lat="46.12554" lon="4.5388">
        <ele>718.6</ele>
        <time>2020-10-19T10:38:22Z</time>
      </trkpt>
      <trkpt lat="46.12552" lon="4.53878">
        <ele>718.6</ele>
        <time>2020-10-19T10:38:23Z</time>
      </trkpt>
      <trkpt lat="46.1255" lon="4.53876">
        <ele>719</ele>
        <time>2020-10-19T10:38:24Z</time>
      </trkpt>
      <trkpt lat="46.12547" lon="4.53875">
        <ele>719</ele>
        <time>2020-10-19T10:38:25Z</time>
      </trkpt>
      <trkpt lat="46.12544" lon="4.53874">
        <ele>718.8</ele>
        <time>2020-10-19T10:38:26Z</time>
      </trkpt>
      <trkpt lat="46.12542" lon="4.53873">
        <ele>719.8</ele>
        <time>2020-10-19T10:38:27Z</time>
      </trkpt>
      <trkpt lat="46.1254" lon="4.53872">
        <ele>719.6</ele>
        <time>2020-10-19T10:38:28Z</time>
      </trkpt>
      <trkpt lat="46.12537" lon="4.53871">
        <ele>719.4</ele>
        <time>2020-10-19T10:38:29Z</time>
      </trkpt>
      <trkpt lat="46.12535" lon="4.5387">
        <ele>719.8</ele>
        <time>2020-10-19T10:38:30Z</time>
      </trkpt>
      <trkpt lat="46.12532" lon="4.53869">
        <ele>719.6</ele>
        <time>2020-10-19T10:38:31Z</time>
      </trkpt>
      <trkpt lat="46.12529" lon="4.53869">
        <ele>719.4</ele>
        <time>2020-10-19T10:38:32Z</time>
      </trkpt>
      <trkpt lat="46.12526" lon="4.53867">
        <ele>720.2</ele>
        <time>2020-10-19T10:38:33Z</time>
      </trkpt>
      <trkpt lat="46.12524" lon="4.53867">
        <ele>719.8</ele>
        <time>2020-10-19T10:38:34Z</time>
      </trkpt>
      <trkpt lat="46.12522" lon="4.53867">
        <ele>719.6</ele>
        <time>2020-10-19T10:38:35Z</time>
      </trkpt>
      <trkpt lat="46.12522" lon="4.53867">
        <ele>720</ele>
        <time>2020-10-19T10:38:36Z</time>
      </trkpt>
      <trkpt lat="46.1252" lon="4.53868">
        <ele>720</ele>
        <time>2020-10-19T10:38:37Z</time>
      </trkpt>
      <trkpt lat="46.1252" lon="4.53868">
        <ele>720</ele>
        <time>2020-10-19T10:38:38Z</time>
      </trkpt>
      <trkpt lat="46.1252" lon="4.53868">
        <ele>719.8</ele>
        <time>2020-10-19T10:38:39Z</time>
      </trkpt>
      <trkpt lat="46.12518" lon="4.53868">
        <ele>719.6</ele>
        <time>2020-10-19T10:38:40Z</time>
      </trkpt>
      <trkpt lat="46.12518" lon="4.53868">
        <ele>719.2</ele>
        <time>2020-10-19T10:38:41Z</time>
      </trkpt>
      <trkpt lat="46.12518" lon="4.53868">
        <ele>719.6</ele>
        <time>2020-10-19T10:38:42Z</time>
      </trkpt>
      <trkpt lat="46.12518" lon="4.53868">
        <ele>719.6</ele>
        <time>2020-10-19T10:38:43Z</time>
      </trkpt>
      <trkpt lat="46.12516" lon="4.53868">
        <ele>719.8</ele>
        <time>2020-10-19T10:38:44Z</time>
      </trkpt>
      <trkpt lat="46.12516" lon="4.53868">
        <ele>719.8</ele>
        <time>2020-10-19T10:38:45Z</time>
      </trkpt>
      <trkpt lat="46.12514" lon="4.5387">
        <ele>719.6</ele>
        <time>2020-10-19T10:38:46Z</time>
      </trkpt>
      <trkpt lat="46.12514" lon="4.5387">
        <ele>719.6</ele>
        <time>2020-10-19T10:38:47Z</time>
      </trkpt>
      <trkpt lat="46.12514" lon="4.5387">
        <ele>719.6</ele>
        <time>2020-10-19T10:38:48Z</time>
      </trkpt>
      <trkpt lat="46.12514" lon="4.5387">
        <ele>719.6</ele>
        <time>2020-10-19T10:38:49Z</time>
      </trkpt>
      <trkpt lat="46.12514" lon="4.5387">
        <ele>719.8</ele>
        <time>2020-10-19T10:38:50Z</time>
      </trkpt>
      <trkpt lat="46.12514" lon="4.5387">
        <ele>719.6</ele>
        <time>2020-10-19T10:38:51Z</time>
      </trkpt>
      <trkpt lat="46.12514" lon="4.5387">
        <ele>719.6</ele>
        <time>2020-10-19T10:38:52Z</time>
      </trkpt>
      <trkpt lat="46.12511" lon="4.53869">
        <ele>720</ele>
        <time>2020-10-19T10:38:53Z</time>
      </trkpt>
      <trkpt lat="46.12511" lon="4.53869">
        <ele>720</ele>
        <time>2020-10-19T10:38:54Z</time>
      </trkpt>
      <trkpt lat="46.12508" lon="4.53868">
        <ele>720</ele>
        <time>2020-10-19T10:38:55Z</time>
      </trkpt>
      <trkpt lat="46.12508" lon="4.53868">
        <ele>720</ele>
        <time>2020-10-19T10:38:56Z</time>
      </trkpt>
      <trkpt lat="46.12505" lon="4.53866">
        <ele>720</ele>
        <time>2020-10-19T10:38:57Z</time>
      </trkpt>
      <trkpt lat="46.12505" lon="4.53866">
        <ele>719.8</ele>
        <time>2020-10-19T10:38:58Z</time>
      </trkpt>
      <trkpt lat="46.12503" lon="4.53863">
        <ele>719.6</ele>
        <time>2020-10-19T10:38:59Z</time>
      </trkpt>
      <trkpt lat="46.12503" lon="4.53863">
        <ele>719.6</ele>
        <time>2020-10-19T10:39:00Z</time>
      </trkpt>
      <trkpt lat="46.125" lon="4.53863">
        <ele>719.4</ele>
        <time>2020-10-19T10:39:01Z</time>
      </trkpt>
      <trkpt lat="46.125" lon="4.53863">
        <ele>719.4</ele>
        <time>2020-10-19T10:39:02Z</time>
      </trkpt>
      <trkpt lat="46.12497" lon="4.53863">
        <ele>719.4</ele>
        <time>2020-10-19T10:39:03Z</time>
      </trkpt>
      <trkpt lat="46.12497" lon="4.53863">
        <ele>719.2</ele>
        <time>2020-10-19T10:39:04Z</time>
      </trkpt>
      <trkpt lat="46.12494" lon="4.53864">
        <ele>719.2</ele>
        <time>2020-10-19T10:39:05Z</time>
      </trkpt>
      <trkpt lat="46.12494" lon="4.53864">
        <ele>719.4</ele>
        <time>2020-10-19T10:39:06Z</time>
      </trkpt>
      <trkpt lat="46.12494" lon="4.53864">
        <ele>719.4</ele>
        <time>2020-10-19T10:39:07Z</time>
      </trkpt>
      <trkpt lat="46.12493" lon="4.53865">
        <ele>719.6</ele>
        <time>2020-10-19T10:39:08Z</time>
      </trkpt>
      <trkpt lat="46.12493" lon="4.53865">
        <ele>719.4</ele>
        <time>2020-10-19T10:39:09Z</time>
      </trkpt>
      <trkpt lat="46.12493" lon="4.53865">
        <ele>719.4</ele>
        <time>2020-10-19T10:39:10Z</time>
      </trkpt>
      <trkpt lat="46.12493" lon="4.53865">
        <ele>719</ele>
        <time>2020-10-19T10:39:11Z</time>
      </trkpt>
      <trkpt lat="46.12493" lon="4.53865">
        <ele>718.6</ele>
        <time>2020-10-19T10:39:12Z</time>
      </trkpt>
      <trkpt lat="46.12493" lon="4.53865">
        <ele>718.6</ele>
        <time>2020-10-19T10:39:13Z</time>
      </trkpt>
      <trkpt lat="46.12493" lon="4.53865">
        <ele>718.4</ele>
        <time>2020-10-19T10:39:14Z</time>
      </trkpt>
      <trkpt lat="46.12493" lon="4.53865">
        <ele>718.4</ele>
        <time>2020-10-19T10:39:15Z</time>
      </trkpt>
      <trkpt lat="46.12491" lon="4.53868">
        <ele>718.4</ele>
        <time>2020-10-19T10:39:16Z</time>
      </trkpt>
      <trkpt lat="46.12491" lon="4.53868">
        <ele>718.4</ele>
        <time>2020-10-19T10:39:17Z</time>
      </trkpt>
      <trkpt lat="46.12489" lon="4.53871">
        <ele>718.6</ele>
        <time>2020-10-19T10:39:18Z</time>
      </trkpt>
      <trkpt lat="46.12489" lon="4.53871">
        <ele>718.8</ele>
        <time>2020-10-19T10:39:19Z</time>
      </trkpt>
      <trkpt lat="46.12486" lon="4.53874">
        <ele>718.8</ele>
        <time>2020-10-19T10:39:20Z</time>
      </trkpt>
      <trkpt lat="46.12484" lon="4.53875">
        <ele>718.8</ele>
        <time>2020-10-19T10:39:21Z</time>
      </trkpt>
      <trkpt lat="46.12484" lon="4.53875">
        <ele>718.8</ele>
        <time>2020-10-19T10:39:22Z</time>
      </trkpt>
      <trkpt lat="46.12481" lon="4.53877">
        <ele>718.6</ele>
        <time>2020-10-19T10:39:23Z</time>
      </trkpt>
      <trkpt lat="46.12479" lon="4.53879">
        <ele>718.6</ele>
        <time>2020-10-19T10:39:24Z</time>
      </trkpt>
      <trkpt lat="46.12477" lon="4.5388">
        <ele>718.8</ele>
        <time>2020-10-19T10:39:25Z</time>
      </trkpt>
      <trkpt lat="46.12474" lon="4.53882">
        <ele>718.4</ele>
        <time>2020-10-19T10:39:26Z</time>
      </trkpt>
      <trkpt lat="46.12472" lon="4.53883">
        <ele>718.4</ele>
        <time>2020-10-19T10:39:27Z</time>
      </trkpt>
      <trkpt lat="46.1247" lon="4.53885">
        <ele>718.6</ele>
        <time>2020-10-19T10:39:28Z</time>
      </trkpt>
      <trkpt lat="46.12468" lon="4.53887">
        <ele>718.2</ele>
        <time>2020-10-19T10:39:29Z</time>
      </trkpt>
      <trkpt lat="46.12466" lon="4.53889">
        <ele>717.8</ele>
        <time>2020-10-19T10:39:30Z</time>
      </trkpt>
      <trkpt lat="46.12464" lon="4.5389">
        <ele>718</ele>
        <time>2020-10-19T10:39:31Z</time>
      </trkpt>
      <trkpt lat="46.12462" lon="4.53892">
        <ele>717.6</ele>
        <time>2020-10-19T10:39:32Z</time>
      </trkpt>
      <trkpt lat="46.1246" lon="4.53894">
        <ele>717.2</ele>
        <time>2020-10-19T10:39:33Z</time>
      </trkpt>
      <trkpt lat="46.12458" lon="4.53896">
        <ele>717.4</ele>
        <time>2020-10-19T10:39:34Z</time>
      </trkpt>
      <trkpt lat="46.12456" lon="4.53898">
        <ele>717</ele>
        <time>2020-10-19T10:39:35Z</time>
      </trkpt>
      <trkpt lat="46.12454" lon="4.539">
        <ele>716.4</ele>
        <time>2020-10-19T10:39:36Z</time>
      </trkpt>
      <trkpt lat="46.12452" lon="4.53903">
        <ele>716.6</ele>
        <time>2020-10-19T10:39:37Z</time>
      </trkpt>
      <trkpt lat="46.1245" lon="4.53905">
        <ele>716.2</ele>
        <time>2020-10-19T10:39:38Z</time>
      </trkpt>
      <trkpt lat="46.12447" lon="4.53907">
        <ele>715.4</ele>
        <time>2020-10-19T10:39:39Z</time>
      </trkpt>
      <trkpt lat="46.12446" lon="4.5391">
        <ele>715.6</ele>
        <time>2020-10-19T10:39:40Z</time>
      </trkpt>
      <trkpt lat="46.12444" lon="4.53912">
        <ele>715.2</ele>
        <time>2020-10-19T10:39:41Z</time>
      </trkpt>
      <trkpt lat="46.12441" lon="4.53915">
        <ele>714.8</ele>
        <time>2020-10-19T10:39:42Z</time>
      </trkpt>
      <trkpt lat="46.12439" lon="4.53917">
        <ele>714.6</ele>
        <time>2020-10-19T10:39:43Z</time>
      </trkpt>
      <trkpt lat="46.12438" lon="4.5392">
        <ele>714.6</ele>
        <time>2020-10-19T10:39:44Z</time>
      </trkpt>
      <trkpt lat="46.12436" lon="4.53923">
        <ele>713.8</ele>
        <time>2020-10-19T10:39:45Z</time>
      </trkpt>
      <trkpt lat="46.12434" lon="4.53927">
        <ele>714</ele>
        <time>2020-10-19T10:39:46Z</time>
      </trkpt>
      <trkpt lat="46.12433" lon="4.5393">
        <ele>713.6</ele>
        <time>2020-10-19T10:39:47Z</time>
      </trkpt>
      <trkpt lat="46.12431" lon="4.53933">
        <ele>713</ele>
        <time>2020-10-19T10:39:48Z</time>
      </trkpt>
      <trkpt lat="46.1243" lon="4.53936">
        <ele>713</ele>
        <time>2020-10-19T10:39:49Z</time>
      </trkpt>
      <trkpt lat="46.1243" lon="4.53939">
        <ele>712.4</ele>
        <time>2020-10-19T10:39:50Z</time>
      </trkpt>
      <trkpt lat="46.12429" lon="4.53943">
        <ele>711.8</ele>
        <time>2020-10-19T10:39:51Z</time>
      </trkpt>
      <trkpt lat="46.12428" lon="4.53946">
        <ele>711.6</ele>
        <time>2020-10-19T10:39:52Z</time>
      </trkpt>
      <trkpt lat="46.12426" lon="4.53948">
        <ele>711.2</ele>
        <time>2020-10-19T10:39:53Z</time>
      </trkpt>
      <trkpt lat="46.12423" lon="4.5395">
        <ele>710.6</ele>
        <time>2020-10-19T10:39:54Z</time>
      </trkpt>
      <trkpt lat="46.1242" lon="4.53951">
        <ele>710.6</ele>
        <time>2020-10-19T10:39:55Z</time>
      </trkpt>
      <trkpt lat="46.12417" lon="4.53951">
        <ele>710.2</ele>
        <time>2020-10-19T10:39:56Z</time>
      </trkpt>
      <trkpt lat="46.12413" lon="4.53949">
        <ele>709.6</ele>
        <time>2020-10-19T10:39:57Z</time>
      </trkpt>
      <trkpt lat="46.1241" lon="4.53948">
        <ele>709.4</ele>
        <time>2020-10-19T10:39:58Z</time>
      </trkpt>
      <trkpt lat="46.12407" lon="4.53945">
        <ele>709.4</ele>
        <time>2020-10-19T10:39:59Z</time>
      </trkpt>
      <trkpt lat="46.12404" lon="4.53941">
        <ele>709.4</ele>
        <time>2020-10-19T10:40:00Z</time>
      </trkpt>
      <trkpt lat="46.12403" lon="4.53939">
        <ele>709.2</ele>
        <time>2020-10-19T10:40:01Z</time>
      </trkpt>
      <trkpt lat="46.12401" lon="4.53937">
        <ele>708.8</ele>
        <time>2020-10-19T10:40:02Z</time>
      </trkpt>
      <trkpt lat="46.12398" lon="4.53934">
        <ele>708.4</ele>
        <time>2020-10-19T10:40:03Z</time>
      </trkpt>
      <trkpt lat="46.12396" lon="4.53931">
        <ele>708.2</ele>
        <time>2020-10-19T10:40:04Z</time>
      </trkpt>
      <trkpt lat="46.12395" lon="4.53928">
        <ele>708</ele>
        <time>2020-10-19T10:40:05Z</time>
      </trkpt>
      <trkpt lat="46.12393" lon="4.53925">
        <ele>707.8</ele>
        <time>2020-10-19T10:40:06Z</time>
      </trkpt>
      <trkpt lat="46.12391" lon="4.53923">
        <ele>707.8</ele>
        <time>2020-10-19T10:40:07Z</time>
      </trkpt>
      <trkpt lat="46.12389" lon="4.5392">
        <ele>707.6</ele>
        <time>2020-10-19T10:40:08Z</time>
      </trkpt>
      <trkpt lat="46.12387" lon="4.53917">
        <ele>707.6</ele>
        <time>2020-10-19T10:40:09Z</time>
      </trkpt>
      <trkpt lat="46.12385" lon="4.53915">
        <ele>707.4</ele>
        <time>2020-10-19T10:40:10Z</time>
      </trkpt>
      <trkpt lat="46.12383" lon="4.53913">
        <ele>707.4</ele>
        <time>2020-10-19T10:40:11Z</time>
      </trkpt>
      <trkpt lat="46.12381" lon="4.5391">
        <ele>707</ele>
        <time>2020-10-19T10:40:12Z</time>
      </trkpt>
      <trkpt lat="46.12379" lon="4.53908">
        <ele>707.4</ele>
        <time>2020-10-19T10:40:13Z</time>
      </trkpt>
      <trkpt lat="46.12377" lon="4.53907">
        <ele>707</ele>
        <time>2020-10-19T10:40:14Z</time>
      </trkpt>
      <trkpt lat="46.12374" lon="4.53905">
        <ele>706.8</ele>
        <time>2020-10-19T10:40:15Z</time>
      </trkpt>
      <trkpt lat="46.12372" lon="4.53904">
        <ele>707.2</ele>
        <time>2020-10-19T10:40:16Z</time>
      </trkpt>
      <trkpt lat="46.12369" lon="4.53903">
        <ele>706.8</ele>
        <time>2020-10-19T10:40:17Z</time>
      </trkpt>
      <trkpt lat="46.12367" lon="4.53901">
        <ele>706.6</ele>
        <time>2020-10-19T10:40:18Z</time>
      </trkpt>
      <trkpt lat="46.12364" lon="4.53901">
        <ele>707</ele>
        <time>2020-10-19T10:40:19Z</time>
      </trkpt>
      <trkpt lat="46.12362" lon="4.539">
        <ele>706.8</ele>
        <time>2020-10-19T10:40:20Z</time>
      </trkpt>
      <trkpt lat="46.1236" lon="4.539">
        <ele>706.6</ele>
        <time>2020-10-19T10:40:21Z</time>
      </trkpt>
      <trkpt lat="46.12357" lon="4.539">
        <ele>707</ele>
        <time>2020-10-19T10:40:22Z</time>
      </trkpt>
      <trkpt lat="46.12355" lon="4.53899">
        <ele>706.8</ele>
        <time>2020-10-19T10:40:23Z</time>
      </trkpt>
      <trkpt lat="46.12352" lon="4.53899">
        <ele>706.6</ele>
        <time>2020-10-19T10:40:24Z</time>
      </trkpt>
      <trkpt lat="46.1235" lon="4.53898">
        <ele>706.8</ele>
        <time>2020-10-19T10:40:25Z</time>
      </trkpt>
      <trkpt lat="46.12348" lon="4.53898">
        <ele>706.6</ele>
        <time>2020-10-19T10:40:26Z</time>
      </trkpt>
      <trkpt lat="46.12345" lon="4.53897">
        <ele>706.6</ele>
        <time>2020-10-19T10:40:27Z</time>
      </trkpt>
      <trkpt lat="46.12343" lon="4.53897">
        <ele>707.4</ele>
        <time>2020-10-19T10:40:28Z</time>
      </trkpt>
      <trkpt lat="46.12341" lon="4.53898">
        <ele>707</ele>
        <time>2020-10-19T10:40:29Z</time>
      </trkpt>
      <trkpt lat="46.12339" lon="4.53898">
        <ele>706.6</ele>
        <time>2020-10-19T10:40:30Z</time>
      </trkpt>
      <trkpt lat="46.12337" lon="4.53899">
        <ele>707.2</ele>
        <time>2020-10-19T10:40:31Z</time>
      </trkpt>
      <trkpt lat="46.12334" lon="4.539">
        <ele>707</ele>
        <time>2020-10-19T10:40:32Z</time>
      </trkpt>
      <trkpt lat="46.12332" lon="4.53901">
        <ele>706.6</ele>
        <time>2020-10-19T10:40:33Z</time>
      </trkpt>
      <trkpt lat="46.1233" lon="4.53901">
        <ele>707</ele>
        <time>2020-10-19T10:40:34Z</time>
      </trkpt>
      <trkpt lat="46.12328" lon="4.53902">
        <ele>706.8</ele>
        <time>2020-10-19T10:40:35Z</time>
      </trkpt>
      <trkpt lat="46.12326" lon="4.53904">
        <ele>706.4</ele>
        <time>2020-10-19T10:40:36Z</time>
      </trkpt>
      <trkpt lat="46.12324" lon="4.53905">
        <ele>707</ele>
        <time>2020-10-19T10:40:37Z</time>
      </trkpt>
      <trkpt lat="46.12322" lon="4.53906">
        <ele>706.8</ele>
        <time>2020-10-19T10:40:38Z</time>
      </trkpt>
      <trkpt lat="46.12319" lon="4.53908">
        <ele>706.6</ele>
        <time>2020-10-19T10:40:39Z</time>
      </trkpt>
      <trkpt lat="46.12317" lon="4.53909">
        <ele>707</ele>
        <time>2020-10-19T10:40:40Z</time>
      </trkpt>
      <trkpt lat="46.12314" lon="4.53909">
        <ele>707</ele>
        <time>2020-10-19T10:40:41Z</time>
      </trkpt>
      <trkpt lat="46.12312" lon="4.5391">
        <ele>706.6</ele>
        <time>2020-10-19T10:40:42Z</time>
      </trkpt>
      <trkpt lat="46.12309" lon="4.53911">
        <ele>706.8</ele>
        <time>2020-10-19T10:40:43Z</time>
      </trkpt>
      <trkpt lat="46.12307" lon="4.53912">
        <ele>706.6</ele>
        <time>2020-10-19T10:40:44Z</time>
      </trkpt>
      <trkpt lat="46.12305" lon="4.53913">
        <ele>706.6</ele>
        <time>2020-10-19T10:40:45Z</time>
      </trkpt>
      <trkpt lat="46.12303" lon="4.53914">
        <ele>706.8</ele>
        <time>2020-10-19T10:40:46Z</time>
      </trkpt>
      <trkpt lat="46.12301" lon="4.53916">
        <ele>706.8</ele>
        <time>2020-10-19T10:40:47Z</time>
      </trkpt>
      <trkpt lat="46.12298" lon="4.53917">
        <ele>706.2</ele>
        <time>2020-10-19T10:40:48Z</time>
      </trkpt>
      <trkpt lat="46.12295" lon="4.53918">
        <ele>706.6</ele>
        <time>2020-10-19T10:40:49Z</time>
      </trkpt>
      <trkpt lat="46.12292" lon="4.53919">
        <ele>706.8</ele>
        <time>2020-10-19T10:40:50Z</time>
      </trkpt>
      <trkpt lat="46.12289" lon="4.5392">
        <ele>706.4</ele>
        <time>2020-10-19T10:40:51Z</time>
      </trkpt>
      <trkpt lat="46.12286" lon="4.53921">
        <ele>706</ele>
        <time>2020-10-19T10:40:52Z</time>
      </trkpt>
      <trkpt lat="46.12284" lon="4.53922">
        <ele>706.2</ele>
        <time>2020-10-19T10:40:53Z</time>
      </trkpt>
      <trkpt lat="46.12281" lon="4.53922">
        <ele>705.8</ele>
        <time>2020-10-19T10:40:54Z</time>
      </trkpt>
      <trkpt lat="46.12279" lon="4.53923">
        <ele>705.6</ele>
        <time>2020-10-19T10:40:55Z</time>
      </trkpt>
      <trkpt lat="46.12276" lon="4.53924">
        <ele>706</ele>
        <time>2020-10-19T10:40:56Z</time>
      </trkpt>
      <trkpt lat="46.12274" lon="4.53923">
        <ele>705.6</ele>
        <time>2020-10-19T10:40:57Z</time>
      </trkpt>
      <trkpt lat="46.12272" lon="4.53924">
        <ele>705.2</ele>
        <time>2020-10-19T10:40:58Z</time>
      </trkpt>
      <trkpt lat="46.12269" lon="4.53924">
        <ele>705.6</ele>
        <time>2020-10-19T10:40:59Z</time>
      </trkpt>
      <trkpt lat="46.12266" lon="4.53924">
        <ele>705.2</ele>
        <time>2020-10-19T10:41:00Z</time>
      </trkpt>
      <trkpt lat="46.12264" lon="4.53924">
        <ele>704.8</ele>
        <time>2020-10-19T10:41:01Z</time>
      </trkpt>
      <trkpt lat="46.12261" lon="4.53925">
        <ele>705.4</ele>
        <time>2020-10-19T10:41:02Z</time>
      </trkpt>
      <trkpt lat="46.12258" lon="4.53926">
        <ele>705.4</ele>
        <time>2020-10-19T10:41:03Z</time>
      </trkpt>
      <trkpt lat="46.12255" lon="4.53926">
        <ele>705</ele>
        <time>2020-10-19T10:41:04Z</time>
      </trkpt>
      <trkpt lat="46.12251" lon="4.53927">
        <ele>704.8</ele>
        <time>2020-10-19T10:41:05Z</time>
      </trkpt>
      <trkpt lat="46.12248" lon="4.53928">
        <ele>705</ele>
        <time>2020-10-19T10:41:06Z</time>
      </trkpt>
      <trkpt lat="46.12244" lon="4.53929">
        <ele>704.4</ele>
        <time>2020-10-19T10:41:07Z</time>
      </trkpt>
      <trkpt lat="46.12241" lon="4.5393">
        <ele>703.8</ele>
        <time>2020-10-19T10:41:08Z</time>
      </trkpt>
      <trkpt lat="46.12237" lon="4.53932">
        <ele>704.2</ele>
        <time>2020-10-19T10:41:09Z</time>
      </trkpt>
      <trkpt lat="46.12233" lon="4.53932">
        <ele>703.8</ele>
        <time>2020-10-19T10:41:10Z</time>
      </trkpt>
      <trkpt lat="46.12229" lon="4.53934">
        <ele>703.4</ele>
        <time>2020-10-19T10:41:11Z</time>
      </trkpt>
      <trkpt lat="46.12225" lon="4.53935">
        <ele>703.8</ele>
        <time>2020-10-19T10:41:12Z</time>
      </trkpt>
      <trkpt lat="46.12221" lon="4.53935">
        <ele>703.4</ele>
        <time>2020-10-19T10:41:13Z</time>
      </trkpt>
      <trkpt lat="46.12218" lon="4.53935">
        <ele>702.8</ele>
        <time>2020-10-19T10:41:14Z</time>
      </trkpt>
      <trkpt lat="46.12214" lon="4.53934">
        <ele>703</ele>
        <time>2020-10-19T10:41:15Z</time>
      </trkpt>
      <trkpt lat="46.12211" lon="4.53934">
        <ele>702.6</ele>
        <time>2020-10-19T10:41:16Z</time>
      </trkpt>
      <trkpt lat="46.12208" lon="4.53935">
        <ele>702</ele>
        <time>2020-10-19T10:41:17Z</time>
      </trkpt>
      <trkpt lat="46.12204" lon="4.53936">
        <ele>702</ele>
        <time>2020-10-19T10:41:18Z</time>
      </trkpt>
      <trkpt lat="46.12201" lon="4.53936">
        <ele>702</ele>
        <time>2020-10-19T10:41:19Z</time>
      </trkpt>
      <trkpt lat="46.12199" lon="4.53935">
        <ele>701.4</ele>
        <time>2020-10-19T10:41:20Z</time>
      </trkpt>
      <trkpt lat="46.12199" lon="4.53935">
        <ele>701</ele>
        <time>2020-10-19T10:41:21Z</time>
      </trkpt>
      <trkpt lat="46.12196" lon="4.53935">
        <ele>700.8</ele>
        <time>2020-10-19T10:41:22Z</time>
      </trkpt>
      <trkpt lat="46.12196" lon="4.53935">
        <ele>700.4</ele>
        <time>2020-10-19T10:41:23Z</time>
      </trkpt>
      <trkpt lat="46.12196" lon="4.53935">
        <ele>700.2</ele>
        <time>2020-10-19T10:41:24Z</time>
      </trkpt>
      <trkpt lat="46.12196" lon="4.53935">
        <ele>700.2</ele>
        <time>2020-10-19T10:41:25Z</time>
      </trkpt>
      <trkpt lat="46.12194" lon="4.53934">
        <ele>700</ele>
        <time>2020-10-19T10:41:26Z</time>
      </trkpt>
      <trkpt lat="46.12194" lon="4.53934">
        <ele>700.2</ele>
        <time>2020-10-19T10:41:27Z</time>
      </trkpt>
      <trkpt lat="46.12194" lon="4.53934">
        <ele>700.4</ele>
        <time>2020-10-19T10:41:28Z</time>
      </trkpt>
      <trkpt lat="46.12193" lon="4.53931">
        <ele>700.4</ele>
        <time>2020-10-19T10:41:29Z</time>
      </trkpt>
      <trkpt lat="46.12193" lon="4.53931">
        <ele>700.4</ele>
        <time>2020-10-19T10:41:30Z</time>
      </trkpt>
      <trkpt lat="46.12193" lon="4.53931">
        <ele>700.4</ele>
        <time>2020-10-19T10:41:31Z</time>
      </trkpt>
      <trkpt lat="46.12193" lon="4.53931">
        <ele>700.4</ele>
        <time>2020-10-19T10:41:32Z</time>
      </trkpt>
      <trkpt lat="46.12193" lon="4.53931">
        <ele>700.2</ele>
        <time>2020-10-19T10:41:33Z</time>
      </trkpt>
      <trkpt lat="46.12193" lon="4.53931">
        <ele>700.4</ele>
        <time>2020-10-19T10:41:34Z</time>
      </trkpt>
      <trkpt lat="46.12193" lon="4.53931">
        <ele>700.6</ele>
        <time>2020-10-19T10:41:35Z</time>
      </trkpt>
      <trkpt lat="46.12192" lon="4.53929">
        <ele>700.6</ele>
        <time>2020-10-19T10:41:36Z</time>
      </trkpt>
      <trkpt lat="46.12192" lon="4.53929">
        <ele>700.6</ele>
        <time>2020-10-19T10:41:37Z</time>
      </trkpt>
      <trkpt lat="46.12192" lon="4.53929">
        <ele>701</ele>
        <time>2020-10-19T10:41:38Z</time>
      </trkpt>
      <trkpt lat="46.12192" lon="4.53929">
        <ele>701.2</ele>
        <time>2020-10-19T10:41:39Z</time>
      </trkpt>
      <trkpt lat="46.12192" lon="4.53929">
        <ele>701.4</ele>
        <time>2020-10-19T10:41:40Z</time>
      </trkpt>
      <trkpt lat="46.12192" lon="4.53929">
        <ele>701.4</ele>
        <time>2020-10-19T10:41:41Z</time>
      </trkpt>
      <trkpt lat="46.12192" lon="4.53929">
        <ele>701.2</ele>
        <time>2020-10-19T10:41:42Z</time>
      </trkpt>
      <trkpt lat="46.12192" lon="4.53929">
        <ele>701.4</ele>
        <time>2020-10-19T10:41:43Z</time>
      </trkpt>
      <trkpt lat="46.12192" lon="4.53929">
        <ele>701.2</ele>
        <time>2020-10-19T10:41:44Z</time>
      </trkpt>
      <trkpt lat="46.12191" lon="4.53927">
        <ele>700.8</ele>
        <time>2020-10-19T10:41:45Z</time>
      </trkpt>
      <trkpt lat="46.12191" lon="4.53927">
        <ele>700.4</ele>
        <time>2020-10-19T10:41:46Z</time>
      </trkpt>
      <trkpt lat="46.12191" lon="4.53927">
        <ele>700.4</ele>
        <time>2020-10-19T10:41:47Z</time>
      </trkpt>
      <trkpt lat="46.12191" lon="4.53927">
        <ele>700.4</ele>
        <time>2020-10-19T10:41:48Z</time>
      </trkpt>
      <trkpt lat="46.12189" lon="4.53928">
        <ele>700.2</ele>
        <time>2020-10-19T10:41:49Z</time>
      </trkpt>
      <trkpt lat="46.12189" lon="4.53928">
        <ele>700.2</ele>
        <time>2020-10-19T10:41:50Z</time>
      </trkpt>
      <trkpt lat="46.12189" lon="4.53928">
        <ele>700</ele>
        <time>2020-10-19T10:41:51Z</time>
      </trkpt>
      <trkpt lat="46.12186" lon="4.53928">
        <ele>699.8</ele>
        <time>2020-10-19T10:41:52Z</time>
      </trkpt>
      <trkpt lat="46.12185" lon="4.5393">
        <ele>699.4</ele>
        <time>2020-10-19T10:41:53Z</time>
      </trkpt>
      <trkpt lat="46.12182" lon="4.53931">
        <ele>699.4</ele>
        <time>2020-10-19T10:41:54Z</time>
      </trkpt>
      <trkpt lat="46.12179" lon="4.53933">
        <ele>699.4</ele>
        <time>2020-10-19T10:41:55Z</time>
      </trkpt>
      <trkpt lat="46.12176" lon="4.53932">
        <ele>698.8</ele>
        <time>2020-10-19T10:41:56Z</time>
      </trkpt>
      <trkpt lat="46.12174" lon="4.53931">
        <ele>698.4</ele>
        <time>2020-10-19T10:41:57Z</time>
      </trkpt>
      <trkpt lat="46.12172" lon="4.5393">
        <ele>698.2</ele>
        <time>2020-10-19T10:41:58Z</time>
      </trkpt>
      <trkpt lat="46.12172" lon="4.5393">
        <ele>698</ele>
        <time>2020-10-19T10:41:59Z</time>
      </trkpt>
      <trkpt lat="46.12172" lon="4.5393">
        <ele>698.2</ele>
        <time>2020-10-19T10:42:00Z</time>
      </trkpt>
      <trkpt lat="46.12172" lon="4.5393">
        <ele>698</ele>
        <time>2020-10-19T10:42:01Z</time>
      </trkpt>
      <trkpt lat="46.12172" lon="4.5393">
        <ele>698</ele>
        <time>2020-10-19T10:42:02Z</time>
      </trkpt>
      <trkpt lat="46.12172" lon="4.5393">
        <ele>698.2</ele>
        <time>2020-10-19T10:42:03Z</time>
      </trkpt>
      <trkpt lat="46.12174" lon="4.53929">
        <ele>698.2</ele>
        <time>2020-10-19T10:42:04Z</time>
      </trkpt>
      <trkpt lat="46.12174" lon="4.53929">
        <ele>698.4</ele>
        <time>2020-10-19T10:42:05Z</time>
      </trkpt>
      <trkpt lat="46.12176" lon="4.53926">
        <ele>698.4</ele>
        <time>2020-10-19T10:42:06Z</time>
      </trkpt>
      <trkpt lat="46.12176" lon="4.53926">
        <ele>698.6</ele>
        <time>2020-10-19T10:42:07Z</time>
      </trkpt>
      <trkpt lat="46.12178" lon="4.53923">
        <ele>698.8</ele>
        <time>2020-10-19T10:42:08Z</time>
      </trkpt>
      <trkpt lat="46.12178" lon="4.53923">
        <ele>699</ele>
        <time>2020-10-19T10:42:09Z</time>
      </trkpt>
      <trkpt lat="46.1218" lon="4.53922">
        <ele>699</ele>
        <time>2020-10-19T10:42:10Z</time>
      </trkpt>
      <trkpt lat="46.1218" lon="4.53922">
        <ele>699.2</ele>
        <time>2020-10-19T10:42:11Z</time>
      </trkpt>
      <trkpt lat="46.12182" lon="4.5392">
        <ele>699.4</ele>
        <time>2020-10-19T10:42:12Z</time>
      </trkpt>
      <trkpt lat="46.12182" lon="4.5392">
        <ele>699.4</ele>
        <time>2020-10-19T10:42:13Z</time>
      </trkpt>
      <trkpt lat="46.12184" lon="4.53918">
        <ele>699.8</ele>
        <time>2020-10-19T10:42:14Z</time>
      </trkpt>
      <trkpt lat="46.12184" lon="4.53918">
        <ele>700.2</ele>
        <time>2020-10-19T10:42:15Z</time>
      </trkpt>
      <trkpt lat="46.12184" lon="4.53918">
        <ele>700.4</ele>
        <time>2020-10-19T10:42:16Z</time>
      </trkpt>
      <trkpt lat="46.12184" lon="4.53918">
        <ele>700.6</ele>
        <time>2020-10-19T10:42:17Z</time>
      </trkpt>
      <trkpt lat="46.12184" lon="4.53918">
        <ele>701</ele>
        <time>2020-10-19T10:42:18Z</time>
      </trkpt>
      <trkpt lat="46.12184" lon="4.53918">
        <ele>701.2</ele>
        <time>2020-10-19T10:42:19Z</time>
      </trkpt>
      <trkpt lat="46.12184" lon="4.53918">
        <ele>701.2</ele>
        <time>2020-10-19T10:42:20Z</time>
      </trkpt>
      <trkpt lat="46.12184" lon="4.53918">
        <ele>701.4</ele>
        <time>2020-10-19T10:42:21Z</time>
      </trkpt>
      <trkpt lat="46.12184" lon="4.53918">
        <ele>701.2</ele>
        <time>2020-10-19T10:42:22Z</time>
      </trkpt>
      <trkpt lat="46.12181" lon="4.5392">
        <ele>700.8</ele>
        <time>2020-10-19T10:42:23Z</time>
      </trkpt>
      <trkpt lat="46.12178" lon="4.53921">
        <ele>700.2</ele>
        <time>2020-10-19T10:42:24Z</time>
      </trkpt>
      <trkpt lat="46.12176" lon="4.53922">
        <ele>700.4</ele>
        <time>2020-10-19T10:42:25Z</time>
      </trkpt>
      <trkpt lat="46.12174" lon="4.53921">
        <ele>699.8</ele>
        <time>2020-10-19T10:42:26Z</time>
      </trkpt>
      <trkpt lat="46.12174" lon="4.53921">
        <ele>698.6</ele>
        <time>2020-10-19T10:42:27Z</time>
      </trkpt>
      <trkpt lat="46.12171" lon="4.53921">
        <ele>699</ele>
        <time>2020-10-19T10:42:28Z</time>
      </trkpt>
      <trkpt lat="46.12169" lon="4.5392">
        <ele>698.4</ele>
        <time>2020-10-19T10:42:29Z</time>
      </trkpt>
      <trkpt lat="46.12167" lon="4.53921">
        <ele>697.6</ele>
        <time>2020-10-19T10:42:30Z</time>
      </trkpt>
      <trkpt lat="46.12167" lon="4.53921">
        <ele>697.6</ele>
        <time>2020-10-19T10:42:31Z</time>
      </trkpt>
      <trkpt lat="46.12164" lon="4.53922">
        <ele>697.2</ele>
        <time>2020-10-19T10:42:32Z</time>
      </trkpt>
      <trkpt lat="46.12164" lon="4.53922">
        <ele>697</ele>
        <time>2020-10-19T10:42:33Z</time>
      </trkpt>
      <trkpt lat="46.12161" lon="4.53921">
        <ele>696.6</ele>
        <time>2020-10-19T10:42:34Z</time>
      </trkpt>
      <trkpt lat="46.12161" lon="4.53921">
        <ele>696.4</ele>
        <time>2020-10-19T10:42:35Z</time>
      </trkpt>
      <trkpt lat="46.12161" lon="4.53921">
        <ele>696</ele>
        <time>2020-10-19T10:42:36Z</time>
      </trkpt>
      <trkpt lat="46.12161" lon="4.53921">
        <ele>696</ele>
        <time>2020-10-19T10:42:37Z</time>
      </trkpt>
      <trkpt lat="46.12161" lon="4.53921">
        <ele>695.8</ele>
        <time>2020-10-19T10:42:38Z</time>
      </trkpt>
      <trkpt lat="46.12161" lon="4.53921">
        <ele>695.6</ele>
        <time>2020-10-19T10:42:39Z</time>
      </trkpt>
      <trkpt lat="46.12161" lon="4.53921">
        <ele>695.6</ele>
        <time>2020-10-19T10:42:40Z</time>
      </trkpt>
      <trkpt lat="46.12161" lon="4.53921">
        <ele>695.4</ele>
        <time>2020-10-19T10:42:41Z</time>
      </trkpt>
      <trkpt lat="46.12161" lon="4.53921">
        <ele>695.4</ele>
        <time>2020-10-19T10:42:42Z</time>
      </trkpt>
      <trkpt lat="46.12161" lon="4.53921">
        <ele>695.4</ele>
        <time>2020-10-19T10:42:43Z</time>
      </trkpt>
      <trkpt lat="46.12161" lon="4.53921">
        <ele>695.6</ele>
        <time>2020-10-19T10:42:44Z</time>
      </trkpt>
      <trkpt lat="46.12159" lon="4.53921">
        <ele>695.4</ele>
        <time>2020-10-19T10:42:45Z</time>
      </trkpt>
      <trkpt lat="46.12159" lon="4.53921">
        <ele>695.4</ele>
        <time>2020-10-19T10:42:46Z</time>
      </trkpt>
      <trkpt lat="46.12158" lon="4.53917">
        <ele>695.2</ele>
        <time>2020-10-19T10:42:47Z</time>
      </trkpt>
      <trkpt lat="46.12158" lon="4.53914">
        <ele>695.2</ele>
        <time>2020-10-19T10:42:48Z</time>
      </trkpt>
      <trkpt lat="46.12158" lon="4.53914">
        <ele>695.2</ele>
        <time>2020-10-19T10:42:49Z</time>
      </trkpt>
      <trkpt lat="46.12157" lon="4.53911">
        <ele>695.2</ele>
        <time>2020-10-19T10:42:50Z</time>
      </trkpt>
      <trkpt lat="46.12157" lon="4.53911">
        <ele>695.2</ele>
        <time>2020-10-19T10:42:51Z</time>
      </trkpt>
      <trkpt lat="46.12154" lon="4.53909">
        <ele>695.2</ele>
        <time>2020-10-19T10:42:52Z</time>
      </trkpt>
      <trkpt lat="46.12152" lon="4.53908">
        <ele>695</ele>
        <time>2020-10-19T10:42:53Z</time>
      </trkpt>
      <trkpt lat="46.1215" lon="4.53907">
        <ele>695</ele>
        <time>2020-10-19T10:42:54Z</time>
      </trkpt>
      <trkpt lat="46.12148" lon="4.53906">
        <ele>694.8</ele>
        <time>2020-10-19T10:42:55Z</time>
      </trkpt>
      <trkpt lat="46.12148" lon="4.53906">
        <ele>694.8</ele>
        <time>2020-10-19T10:42:56Z</time>
      </trkpt>
      <trkpt lat="46.12146" lon="4.53903">
        <ele>694.8</ele>
        <time>2020-10-19T10:42:57Z</time>
      </trkpt>
      <trkpt lat="46.12144" lon="4.539">
        <ele>694.6</ele>
        <time>2020-10-19T10:42:58Z</time>
      </trkpt>
      <trkpt lat="46.12142" lon="4.53898">
        <ele>694.6</ele>
        <time>2020-10-19T10:42:59Z</time>
      </trkpt>
      <trkpt lat="46.1214" lon="4.53894">
        <ele>694.2</ele>
        <time>2020-10-19T10:43:00Z</time>
      </trkpt>
      <trkpt lat="46.12138" lon="4.53891">
        <ele>694</ele>
        <time>2020-10-19T10:43:01Z</time>
      </trkpt>
      <trkpt lat="46.12136" lon="4.53888">
        <ele>693.8</ele>
        <time>2020-10-19T10:43:02Z</time>
      </trkpt>
      <trkpt lat="46.12134" lon="4.53887">
        <ele>693.4</ele>
        <time>2020-10-19T10:43:03Z</time>
      </trkpt>
      <trkpt lat="46.12132" lon="4.53885">
        <ele>692.8</ele>
        <time>2020-10-19T10:43:04Z</time>
      </trkpt>
      <trkpt lat="46.12131" lon="4.53883">
        <ele>692.8</ele>
        <time>2020-10-19T10:43:05Z</time>
      </trkpt>
      <trkpt lat="46.12129" lon="4.53881">
        <ele>692.4</ele>
        <time>2020-10-19T10:43:06Z</time>
      </trkpt>
      <trkpt lat="46.12128" lon="4.53878">
        <ele>691.8</ele>
        <time>2020-10-19T10:43:07Z</time>
      </trkpt>
      <trkpt lat="46.12126" lon="4.53876">
        <ele>691.8</ele>
        <time>2020-10-19T10:43:08Z</time>
      </trkpt>
      <trkpt lat="46.12125" lon="4.53874">
        <ele>691.6</ele>
        <time>2020-10-19T10:43:09Z</time>
      </trkpt>
      <trkpt lat="46.12124" lon="4.53871">
        <ele>691.2</ele>
        <time>2020-10-19T10:43:10Z</time>
      </trkpt>
      <trkpt lat="46.12122" lon="4.53869">
        <ele>691</ele>
        <time>2020-10-19T10:43:11Z</time>
      </trkpt>
      <trkpt lat="46.12121" lon="4.53866">
        <ele>690.8</ele>
        <time>2020-10-19T10:43:12Z</time>
      </trkpt>
      <trkpt lat="46.12119" lon="4.53863">
        <ele>690</ele>
        <time>2020-10-19T10:43:13Z</time>
      </trkpt>
      <trkpt lat="46.12118" lon="4.53859">
        <ele>689.2</ele>
        <time>2020-10-19T10:43:14Z</time>
      </trkpt>
      <trkpt lat="46.12116" lon="4.53857">
        <ele>689.2</ele>
        <time>2020-10-19T10:43:15Z</time>
      </trkpt>
      <trkpt lat="46.12114" lon="4.53854">
        <ele>688.4</ele>
        <time>2020-10-19T10:43:16Z</time>
      </trkpt>
      <trkpt lat="46.12112" lon="4.5385">
        <ele>687.8</ele>
        <time>2020-10-19T10:43:17Z</time>
      </trkpt>
      <trkpt lat="46.1211" lon="4.53846">
        <ele>687.8</ele>
        <time>2020-10-19T10:43:18Z</time>
      </trkpt>
      <trkpt lat="46.12109" lon="4.53841">
        <ele>687.4</ele>
        <time>2020-10-19T10:43:19Z</time>
      </trkpt>
      <trkpt lat="46.12107" lon="4.53838">
        <ele>686.8</ele>
        <time>2020-10-19T10:43:20Z</time>
      </trkpt>
      <trkpt lat="46.12106" lon="4.53834">
        <ele>686.4</ele>
        <time>2020-10-19T10:43:21Z</time>
      </trkpt>
      <trkpt lat="46.12105" lon="4.5383">
        <ele>686.4</ele>
        <time>2020-10-19T10:43:22Z</time>
      </trkpt>
      <trkpt lat="46.12104" lon="4.53825">
        <ele>686.2</ele>
        <time>2020-10-19T10:43:23Z</time>
      </trkpt>
      <trkpt lat="46.12102" lon="4.53821">
        <ele>686.2</ele>
        <time>2020-10-19T10:43:24Z</time>
      </trkpt>
      <trkpt lat="46.121" lon="4.53818">
        <ele>686.2</ele>
        <time>2020-10-19T10:43:25Z</time>
      </trkpt>
      <trkpt lat="46.12098" lon="4.53814">
        <ele>685.4</ele>
        <time>2020-10-19T10:43:26Z</time>
      </trkpt>
      <trkpt lat="46.12096" lon="4.5381">
        <ele>684.8</ele>
        <time>2020-10-19T10:43:27Z</time>
      </trkpt>
      <trkpt lat="46.12093" lon="4.53806">
        <ele>685</ele>
        <time>2020-10-19T10:43:28Z</time>
      </trkpt>
      <trkpt lat="46.12091" lon="4.53803">
        <ele>684.2</ele>
        <time>2020-10-19T10:43:29Z</time>
      </trkpt>
      <trkpt lat="46.12089" lon="4.538">
        <ele>683.8</ele>
        <time>2020-10-19T10:43:30Z</time>
      </trkpt>
      <trkpt lat="46.12087" lon="4.53797">
        <ele>684</ele>
        <time>2020-10-19T10:43:31Z</time>
      </trkpt>
      <trkpt lat="46.12085" lon="4.53795">
        <ele>683.4</ele>
        <time>2020-10-19T10:43:32Z</time>
      </trkpt>
      <trkpt lat="46.12084" lon="4.53792">
        <ele>683.2</ele>
        <time>2020-10-19T10:43:33Z</time>
      </trkpt>
      <trkpt lat="46.12082" lon="4.5379">
        <ele>683.2</ele>
        <time>2020-10-19T10:43:34Z</time>
      </trkpt>
      <trkpt lat="46.1208" lon="4.53787">
        <ele>683</ele>
        <time>2020-10-19T10:43:35Z</time>
      </trkpt>
      <trkpt lat="46.12078" lon="4.53784">
        <ele>682.6</ele>
        <time>2020-10-19T10:43:36Z</time>
      </trkpt>
      <trkpt lat="46.12076" lon="4.53781">
        <ele>682.6</ele>
        <time>2020-10-19T10:43:37Z</time>
      </trkpt>
      <trkpt lat="46.12074" lon="4.53779">
        <ele>682.8</ele>
        <time>2020-10-19T10:43:38Z</time>
      </trkpt>
      <trkpt lat="46.12072" lon="4.53777">
        <ele>682.4</ele>
        <time>2020-10-19T10:43:39Z</time>
      </trkpt>
      <trkpt lat="46.1207" lon="4.53774">
        <ele>682.4</ele>
        <time>2020-10-19T10:43:40Z</time>
      </trkpt>
      <trkpt lat="46.12068" lon="4.53772">
        <ele>682.4</ele>
        <time>2020-10-19T10:43:41Z</time>
      </trkpt>
      <trkpt lat="46.12067" lon="4.5377">
        <ele>682</ele>
        <time>2020-10-19T10:43:42Z</time>
      </trkpt>
      <trkpt lat="46.12065" lon="4.53768">
        <ele>682</ele>
        <time>2020-10-19T10:43:43Z</time>
      </trkpt>
      <trkpt lat="46.12063" lon="4.53766">
        <ele>682</ele>
        <time>2020-10-19T10:43:44Z</time>
      </trkpt>
      <trkpt lat="46.12061" lon="4.53764">
        <ele>681.8</ele>
        <time>2020-10-19T10:43:45Z</time>
      </trkpt>
      <trkpt lat="46.12059" lon="4.53764">
        <ele>681.4</ele>
        <time>2020-10-19T10:43:46Z</time>
      </trkpt>
      <trkpt lat="46.12057" lon="4.53763">
        <ele>681.8</ele>
        <time>2020-10-19T10:43:47Z</time>
      </trkpt>
      <trkpt lat="46.12055" lon="4.53762">
        <ele>681.4</ele>
        <time>2020-10-19T10:43:48Z</time>
      </trkpt>
      <trkpt lat="46.12053" lon="4.53761">
        <ele>680.8</ele>
        <time>2020-10-19T10:43:49Z</time>
      </trkpt>
      <trkpt lat="46.12051" lon="4.5376">
        <ele>681.2</ele>
        <time>2020-10-19T10:43:50Z</time>
      </trkpt>
      <trkpt lat="46.12049" lon="4.53758">
        <ele>680.8</ele>
        <time>2020-10-19T10:43:51Z</time>
      </trkpt>
      <trkpt lat="46.12047" lon="4.53757">
        <ele>680.2</ele>
        <time>2020-10-19T10:43:52Z</time>
      </trkpt>
      <trkpt lat="46.12044" lon="4.53756">
        <ele>680.6</ele>
        <time>2020-10-19T10:43:53Z</time>
      </trkpt>
      <trkpt lat="46.12042" lon="4.53754">
        <ele>680.4</ele>
        <time>2020-10-19T10:43:54Z</time>
      </trkpt>
      <trkpt lat="46.1204" lon="4.53753">
        <ele>680</ele>
        <time>2020-10-19T10:43:55Z</time>
      </trkpt>
      <trkpt lat="46.12038" lon="4.53752">
        <ele>680.4</ele>
        <time>2020-10-19T10:43:56Z</time>
      </trkpt>
      <trkpt lat="46.12035" lon="4.53751">
        <ele>680.2</ele>
        <time>2020-10-19T10:43:57Z</time>
      </trkpt>
      <trkpt lat="46.12033" lon="4.53751">
        <ele>679.6</ele>
        <time>2020-10-19T10:43:58Z</time>
      </trkpt>
      <trkpt lat="46.12029" lon="4.53751">
        <ele>680</ele>
        <time>2020-10-19T10:43:59Z</time>
      </trkpt>
      <trkpt lat="46.12027" lon="4.5375">
        <ele>679.6</ele>
        <time>2020-10-19T10:44:00Z</time>
      </trkpt>
      <trkpt lat="46.12025" lon="4.5375">
        <ele>679.4</ele>
        <time>2020-10-19T10:44:01Z</time>
      </trkpt>
      <trkpt lat="46.12022" lon="4.53748">
        <ele>679.8</ele>
        <time>2020-10-19T10:44:02Z</time>
      </trkpt>
      <trkpt lat="46.1202" lon="4.53748">
        <ele>679.4</ele>
        <time>2020-10-19T10:44:03Z</time>
      </trkpt>
      <trkpt lat="46.12017" lon="4.53748">
        <ele>679.4</ele>
        <time>2020-10-19T10:44:04Z</time>
      </trkpt>
      <trkpt lat="46.12015" lon="4.53746">
        <ele>679.6</ele>
        <time>2020-10-19T10:44:05Z</time>
      </trkpt>
      <trkpt lat="46.12012" lon="4.53744">
        <ele>679.4</ele>
        <time>2020-10-19T10:44:06Z</time>
      </trkpt>
      <trkpt lat="46.12009" lon="4.53743">
        <ele>679.4</ele>
        <time>2020-10-19T10:44:07Z</time>
      </trkpt>
      <trkpt lat="46.12007" lon="4.53741">
        <ele>679.8</ele>
        <time>2020-10-19T10:44:08Z</time>
      </trkpt>
      <trkpt lat="46.12005" lon="4.5374">
        <ele>679.6</ele>
        <time>2020-10-19T10:44:09Z</time>
      </trkpt>
      <trkpt lat="46.12002" lon="4.53738">
        <ele>679.8</ele>
        <time>2020-10-19T10:44:10Z</time>
      </trkpt>
      <trkpt lat="46.12" lon="4.53737">
        <ele>680.2</ele>
        <time>2020-10-19T10:44:11Z</time>
      </trkpt>
      <trkpt lat="46.11998" lon="4.53736">
        <ele>680.4</ele>
        <time>2020-10-19T10:44:12Z</time>
      </trkpt>
      <trkpt lat="46.11996" lon="4.53736">
        <ele>680.4</ele>
        <time>2020-10-19T10:44:13Z</time>
      </trkpt>
      <trkpt lat="46.11993" lon="4.53736">
        <ele>679.8</ele>
        <time>2020-10-19T10:44:14Z</time>
      </trkpt>
      <trkpt lat="46.1199" lon="4.53734">
        <ele>680.4</ele>
        <time>2020-10-19T10:44:15Z</time>
      </trkpt>
      <trkpt lat="46.11988" lon="4.53734">
        <ele>680.2</ele>
        <time>2020-10-19T10:44:16Z</time>
      </trkpt>
      <trkpt lat="46.11985" lon="4.53732">
        <ele>680</ele>
        <time>2020-10-19T10:44:17Z</time>
      </trkpt>
      <trkpt lat="46.11983" lon="4.53732">
        <ele>680.2</ele>
        <time>2020-10-19T10:44:18Z</time>
      </trkpt>
      <trkpt lat="46.11983" lon="4.53732">
        <ele>680</ele>
        <time>2020-10-19T10:44:19Z</time>
      </trkpt>
      <trkpt lat="46.1198" lon="4.53732">
        <ele>679.6</ele>
        <time>2020-10-19T10:44:20Z</time>
      </trkpt>
      <trkpt lat="46.1198" lon="4.53732">
        <ele>679.4</ele>
        <time>2020-10-19T10:44:21Z</time>
      </trkpt>
      <trkpt lat="46.11978" lon="4.53731">
        <ele>679.2</ele>
        <time>2020-10-19T10:44:22Z</time>
      </trkpt>
      <trkpt lat="46.11978" lon="4.53731">
        <ele>679</ele>
        <time>2020-10-19T10:44:23Z</time>
      </trkpt>
      <trkpt lat="46.11976" lon="4.5373">
        <ele>679</ele>
        <time>2020-10-19T10:44:24Z</time>
      </trkpt>
      <trkpt lat="46.11976" lon="4.5373">
        <ele>678.8</ele>
        <time>2020-10-19T10:44:25Z</time>
      </trkpt>
      <trkpt lat="46.11976" lon="4.5373">
        <ele>678.8</ele>
        <time>2020-10-19T10:44:26Z</time>
      </trkpt>
      <trkpt lat="46.11976" lon="4.5373">
        <ele>679</ele>
        <time>2020-10-19T10:44:27Z</time>
      </trkpt>
      <trkpt lat="46.11976" lon="4.5373">
        <ele>679</ele>
        <time>2020-10-19T10:44:28Z</time>
      </trkpt>
      <trkpt lat="46.11976" lon="4.5373">
        <ele>679</ele>
        <time>2020-10-19T10:44:29Z</time>
      </trkpt>
      <trkpt lat="46.11976" lon="4.5373">
        <ele>679</ele>
        <time>2020-10-19T10:44:30Z</time>
      </trkpt>
      <trkpt lat="46.11976" lon="4.5373">
        <ele>679.2</ele>
        <time>2020-10-19T10:44:31Z</time>
      </trkpt>
      <trkpt lat="46.11976" lon="4.5373">
        <ele>679.4</ele>
        <time>2020-10-19T10:44:32Z</time>
      </trkpt>
      <trkpt lat="46.11976" lon="4.5373">
        <ele>679.4</ele>
        <time>2020-10-19T10:44:33Z</time>
      </trkpt>
      <trkpt lat="46.11976" lon="4.5373">
        <ele>679.4</ele>
        <time>2020-10-19T10:44:34Z</time>
      </trkpt>
      <trkpt lat="46.11976" lon="4.5373">
        <ele>679.4</ele>
        <time>2020-10-19T10:44:35Z</time>
      </trkpt>
      <trkpt lat="46.11976" lon="4.53727">
        <ele>679.4</ele>
        <time>2020-10-19T10:44:36Z</time>
      </trkpt>
      <trkpt lat="46.11976" lon="4.53727">
        <ele>679.4</ele>
        <time>2020-10-19T10:44:37Z</time>
      </trkpt>
      <trkpt lat="46.11976" lon="4.53727">
        <ele>679.2</ele>
        <time>2020-10-19T10:44:38Z</time>
      </trkpt>
      <trkpt lat="46.11976" lon="4.53727">
        <ele>679.2</ele>
        <time>2020-10-19T10:44:39Z</time>
      </trkpt>
      <trkpt lat="46.11976" lon="4.53727">
        <ele>679.4</ele>
        <time>2020-10-19T10:44:40Z</time>
      </trkpt>
      <trkpt lat="46.11976" lon="4.53727">
        <ele>679.2</ele>
        <time>2020-10-19T10:44:41Z</time>
      </trkpt>
      <trkpt lat="46.11976" lon="4.53727">
        <ele>679.2</ele>
        <time>2020-10-19T10:44:42Z</time>
      </trkpt>
      <trkpt lat="46.11976" lon="4.53727">
        <ele>679.2</ele>
        <time>2020-10-19T10:44:43Z</time>
      </trkpt>
      <trkpt lat="46.11976" lon="4.53727">
        <ele>679.2</ele>
        <time>2020-10-19T10:44:44Z</time>
      </trkpt>
      <trkpt lat="46.11976" lon="4.53727">
        <ele>679.2</ele>
        <time>2020-10-19T10:44:45Z</time>
      </trkpt>
      <trkpt lat="46.11976" lon="4.53727">
        <ele>679</ele>
        <time>2020-10-19T10:44:46Z</time>
      </trkpt>
      <trkpt lat="46.11976" lon="4.53727">
        <ele>679</ele>
        <time>2020-10-19T10:44:47Z</time>
      </trkpt>
      <trkpt lat="46.11976" lon="4.53727">
        <ele>679</ele>
        <time>2020-10-19T10:44:48Z</time>
      </trkpt>
      <trkpt lat="46.11976" lon="4.53727">
        <ele>678.8</ele>
        <time>2020-10-19T10:44:49Z</time>
      </trkpt>
      <trkpt lat="46.11976" lon="4.53727">
        <ele>678.8</ele>
        <time>2020-10-19T10:44:50Z</time>
      </trkpt>
      <trkpt lat="46.11976" lon="4.53727">
        <ele>678.4</ele>
        <time>2020-10-19T10:44:51Z</time>
      </trkpt>
      <trkpt lat="46.11976" lon="4.53727">
        <ele>678</ele>
        <time>2020-10-19T10:44:52Z</time>
      </trkpt>
      <trkpt lat="46.11976" lon="4.53727">
        <ele>677.8</ele>
        <time>2020-10-19T10:44:53Z</time>
      </trkpt>
      <trkpt lat="46.11976" lon="4.53727">
        <ele>677.4</ele>
        <time>2020-10-19T10:44:54Z</time>
      </trkpt>
      <trkpt lat="46.11978" lon="4.53725">
        <ele>677.2</ele>
        <time>2020-10-19T10:44:55Z</time>
      </trkpt>
      <trkpt lat="46.11978" lon="4.53725">
        <ele>676.8</ele>
        <time>2020-10-19T10:44:56Z</time>
      </trkpt>
      <trkpt lat="46.11978" lon="4.53725">
        <ele>676.6</ele>
        <time>2020-10-19T10:44:57Z</time>
      </trkpt>
      <trkpt lat="46.11978" lon="4.53725">
        <ele>676.6</ele>
        <time>2020-10-19T10:44:58Z</time>
      </trkpt>
      <trkpt lat="46.11978" lon="4.53725">
        <ele>676.6</ele>
        <time>2020-10-19T10:44:59Z</time>
      </trkpt>
      <trkpt lat="46.11978" lon="4.53725">
        <ele>676.8</ele>
        <time>2020-10-19T10:45:00Z</time>
      </trkpt>
      <trkpt lat="46.11978" lon="4.53725">
        <ele>676.8</ele>
        <time>2020-10-19T10:45:01Z</time>
      </trkpt>
      <trkpt lat="46.1198" lon="4.53726">
        <ele>677.2</ele>
        <time>2020-10-19T10:45:02Z</time>
      </trkpt>
      <trkpt lat="46.1198" lon="4.53726">
        <ele>676.8</ele>
        <time>2020-10-19T10:45:03Z</time>
      </trkpt>
      <trkpt lat="46.1198" lon="4.53726">
        <ele>677</ele>
        <time>2020-10-19T10:45:04Z</time>
      </trkpt>
      <trkpt lat="46.1198" lon="4.53726">
        <ele>676.8</ele>
        <time>2020-10-19T10:45:05Z</time>
      </trkpt>
      <trkpt lat="46.1198" lon="4.53726">
        <ele>676.8</ele>
        <time>2020-10-19T10:45:06Z</time>
      </trkpt>
      <trkpt lat="46.1198" lon="4.53726">
        <ele>676.8</ele>
        <time>2020-10-19T10:45:07Z</time>
      </trkpt>
      <trkpt lat="46.1198" lon="4.53726">
        <ele>677</ele>
        <time>2020-10-19T10:45:08Z</time>
      </trkpt>
      <trkpt lat="46.1198" lon="4.53726">
        <ele>677.2</ele>
        <time>2020-10-19T10:45:09Z</time>
      </trkpt>
      <trkpt lat="46.1198" lon="4.53726">
        <ele>677.2</ele>
        <time>2020-10-19T10:45:10Z</time>
      </trkpt>
      <trkpt lat="46.1198" lon="4.53726">
        <ele>677.4</ele>
        <time>2020-10-19T10:45:11Z</time>
      </trkpt>
      <trkpt lat="46.1198" lon="4.53726">
        <ele>677.4</ele>
        <time>2020-10-19T10:45:12Z</time>
      </trkpt>
      <trkpt lat="46.1198" lon="4.53726">
        <ele>677.2</ele>
        <time>2020-10-19T10:45:13Z</time>
      </trkpt>
      <trkpt lat="46.1198" lon="4.53726">
        <ele>676.8</ele>
        <time>2020-10-19T10:45:14Z</time>
      </trkpt>
      <trkpt lat="46.1198" lon="4.53726">
        <ele>676.6</ele>
        <time>2020-10-19T10:45:15Z</time>
      </trkpt>
      <trkpt lat="46.11978" lon="4.53725">
        <ele>676.4</ele>
        <time>2020-10-19T10:45:16Z</time>
      </trkpt>
      <trkpt lat="46.11978" lon="4.53725">
        <ele>676.4</ele>
        <time>2020-10-19T10:45:17Z</time>
      </trkpt>
      <trkpt lat="46.11975" lon="4.53723">
        <ele>676.6</ele>
        <time>2020-10-19T10:45:18Z</time>
      </trkpt>
      <trkpt lat="46.11975" lon="4.53723">
        <ele>676.8</ele>
        <time>2020-10-19T10:45:19Z</time>
      </trkpt>
      <trkpt lat="46.11972" lon="4.53722">
        <ele>677</ele>
        <time>2020-10-19T10:45:20Z</time>
      </trkpt>
      <trkpt lat="46.11972" lon="4.53722">
        <ele>677</ele>
        <time>2020-10-19T10:45:21Z</time>
      </trkpt>
      <trkpt lat="46.11969" lon="4.5372">
        <ele>676.8</ele>
        <time>2020-10-19T10:45:22Z</time>
      </trkpt>
      <trkpt lat="46.11969" lon="4.5372">
        <ele>676.8</ele>
        <time>2020-10-19T10:45:23Z</time>
      </trkpt>
      <trkpt lat="46.11966" lon="4.53719">
        <ele>676.6</ele>
        <time>2020-10-19T10:45:24Z</time>
      </trkpt>
      <trkpt lat="46.11966" lon="4.53719">
        <ele>676.4</ele>
        <time>2020-10-19T10:45:25Z</time>
      </trkpt>
      <trkpt lat="46.11963" lon="4.53719">
        <ele>676.2</ele>
        <time>2020-10-19T10:45:26Z</time>
      </trkpt>
      <trkpt lat="46.11963" lon="4.53719">
        <ele>675.6</ele>
        <time>2020-10-19T10:45:27Z</time>
      </trkpt>
      <trkpt lat="46.11961" lon="4.53719">
        <ele>675</ele>
        <time>2020-10-19T10:45:28Z</time>
      </trkpt>
      <trkpt lat="46.11961" lon="4.53719">
        <ele>674.6</ele>
        <time>2020-10-19T10:45:29Z</time>
      </trkpt>
      <trkpt lat="46.11958" lon="4.53719">
        <ele>674.2</ele>
        <time>2020-10-19T10:45:30Z</time>
      </trkpt>
      <trkpt lat="46.11958" lon="4.53719">
        <ele>674.2</ele>
        <time>2020-10-19T10:45:31Z</time>
      </trkpt>
      <trkpt lat="46.11958" lon="4.53719">
        <ele>674.2</ele>
        <time>2020-10-19T10:45:32Z</time>
      </trkpt>
      <trkpt lat="46.11958" lon="4.53719">
        <ele>674.2</ele>
        <time>2020-10-19T10:45:33Z</time>
      </trkpt>
      <trkpt lat="46.11958" lon="4.53719">
        <ele>674.2</ele>
        <time>2020-10-19T10:45:34Z</time>
      </trkpt>
      <trkpt lat="46.11958" lon="4.53719">
        <ele>674.2</ele>
        <time>2020-10-19T10:45:35Z</time>
      </trkpt>
      <trkpt lat="46.11958" lon="4.53719">
        <ele>674.4</ele>
        <time>2020-10-19T10:45:36Z</time>
      </trkpt>
      <trkpt lat="46.11955" lon="4.53718">
        <ele>674.2</ele>
        <time>2020-10-19T10:45:37Z</time>
      </trkpt>
      <trkpt lat="46.11955" lon="4.53718">
        <ele>674.2</ele>
        <time>2020-10-19T10:45:38Z</time>
      </trkpt>
      <trkpt lat="46.11952" lon="4.53718">
        <ele>674.2</ele>
        <time>2020-10-19T10:45:39Z</time>
      </trkpt>
      <trkpt lat="46.1195" lon="4.53718">
        <ele>674</ele>
        <time>2020-10-19T10:45:40Z</time>
      </trkpt>
      <trkpt lat="46.11948" lon="4.53718">
        <ele>673.4</ele>
        <time>2020-10-19T10:45:41Z</time>
      </trkpt>
      <trkpt lat="46.11945" lon="4.53717">
        <ele>673.2</ele>
        <time>2020-10-19T10:45:42Z</time>
      </trkpt>
      <trkpt lat="46.11942" lon="4.53716">
        <ele>673</ele>
        <time>2020-10-19T10:45:43Z</time>
      </trkpt>
      <trkpt lat="46.11939" lon="4.53714">
        <ele>672.4</ele>
        <time>2020-10-19T10:45:44Z</time>
      </trkpt>
      <trkpt lat="46.11937" lon="4.53712">
        <ele>672</ele>
        <time>2020-10-19T10:45:45Z</time>
      </trkpt>
      <trkpt lat="46.11935" lon="4.5371">
        <ele>671.8</ele>
        <time>2020-10-19T10:45:46Z</time>
      </trkpt>
      <trkpt lat="46.11932" lon="4.53708">
        <ele>671.2</ele>
        <time>2020-10-19T10:45:47Z</time>
      </trkpt>
      <trkpt lat="46.1193" lon="4.53705">
        <ele>670.8</ele>
        <time>2020-10-19T10:45:48Z</time>
      </trkpt>
      <trkpt lat="46.11928" lon="4.53702">
        <ele>670.6</ele>
        <time>2020-10-19T10:45:49Z</time>
      </trkpt>
      <trkpt lat="46.11926" lon="4.537">
        <ele>670.2</ele>
        <time>2020-10-19T10:45:50Z</time>
      </trkpt>
      <trkpt lat="46.11924" lon="4.53698">
        <ele>669.6</ele>
        <time>2020-10-19T10:45:51Z</time>
      </trkpt>
      <trkpt lat="46.11922" lon="4.53695">
        <ele>670</ele>
        <time>2020-10-19T10:45:52Z</time>
      </trkpt>
      <trkpt lat="46.1192" lon="4.53693">
        <ele>669.6</ele>
        <time>2020-10-19T10:45:53Z</time>
      </trkpt>
      <trkpt lat="46.11919" lon="4.53691">
        <ele>669.2</ele>
        <time>2020-10-19T10:45:54Z</time>
      </trkpt>
      <trkpt lat="46.11917" lon="4.53689">
        <ele>669.2</ele>
        <time>2020-10-19T10:45:55Z</time>
      </trkpt>
      <trkpt lat="46.11916" lon="4.53687">
        <ele>668.6</ele>
        <time>2020-10-19T10:45:56Z</time>
      </trkpt>
      <trkpt lat="46.11915" lon="4.53685">
        <ele>668.4</ele>
        <time>2020-10-19T10:45:57Z</time>
      </trkpt>
      <trkpt lat="46.11915" lon="4.53685">
        <ele>668.2</ele>
        <time>2020-10-19T10:45:58Z</time>
      </trkpt>
      <trkpt lat="46.11912" lon="4.53683">
        <ele>668</ele>
        <time>2020-10-19T10:45:59Z</time>
      </trkpt>
      <trkpt lat="46.11912" lon="4.53683">
        <ele>667.6</ele>
        <time>2020-10-19T10:46:00Z</time>
      </trkpt>
      <trkpt lat="46.1191" lon="4.53682">
        <ele>667.6</ele>
        <time>2020-10-19T10:46:01Z</time>
      </trkpt>
      <trkpt lat="46.1191" lon="4.53682">
        <ele>667.4</ele>
        <time>2020-10-19T10:46:02Z</time>
      </trkpt>
      <trkpt lat="46.1191" lon="4.53682">
        <ele>667.2</ele>
        <time>2020-10-19T10:46:03Z</time>
      </trkpt>
      <trkpt lat="46.11908" lon="4.53684">
        <ele>667</ele>
        <time>2020-10-19T10:46:04Z</time>
      </trkpt>
      <trkpt lat="46.11908" lon="4.53684">
        <ele>667</ele>
        <time>2020-10-19T10:46:05Z</time>
      </trkpt>
      <trkpt lat="46.11906" lon="4.53683">
        <ele>667</ele>
        <time>2020-10-19T10:46:06Z</time>
      </trkpt>
      <trkpt lat="46.11906" lon="4.53683">
        <ele>666.8</ele>
        <time>2020-10-19T10:46:07Z</time>
      </trkpt>
      <trkpt lat="46.11906" lon="4.53683">
        <ele>666.6</ele>
        <time>2020-10-19T10:46:08Z</time>
      </trkpt>
      <trkpt lat="46.11904" lon="4.53682">
        <ele>666.4</ele>
        <time>2020-10-19T10:46:09Z</time>
      </trkpt>
      <trkpt lat="46.11904" lon="4.53682">
        <ele>666.4</ele>
        <time>2020-10-19T10:46:10Z</time>
      </trkpt>
      <trkpt lat="46.11904" lon="4.53682">
        <ele>666.2</ele>
        <time>2020-10-19T10:46:11Z</time>
      </trkpt>
      <trkpt lat="46.11904" lon="4.53677">
        <ele>666</ele>
        <time>2020-10-19T10:46:12Z</time>
      </trkpt>
      <trkpt lat="46.11904" lon="4.53677">
        <ele>666.2</ele>
        <time>2020-10-19T10:46:13Z</time>
      </trkpt>
      <trkpt lat="46.11906" lon="4.53674">
        <ele>666.2</ele>
        <time>2020-10-19T10:46:14Z</time>
      </trkpt>
      <trkpt lat="46.11906" lon="4.53674">
        <ele>666.2</ele>
        <time>2020-10-19T10:46:15Z</time>
      </trkpt>
      <trkpt lat="46.11907" lon="4.5367">
        <ele>666.2</ele>
        <time>2020-10-19T10:46:16Z</time>
      </trkpt>
      <trkpt lat="46.11907" lon="4.5367">
        <ele>666.2</ele>
        <time>2020-10-19T10:46:17Z</time>
      </trkpt>
      <trkpt lat="46.11907" lon="4.53667">
        <ele>666.2</ele>
        <time>2020-10-19T10:46:18Z</time>
      </trkpt>
      <trkpt lat="46.11907" lon="4.53667">
        <ele>666.2</ele>
        <time>2020-10-19T10:46:19Z</time>
      </trkpt>
      <trkpt lat="46.11906" lon="4.53663">
        <ele>666.4</ele>
        <time>2020-10-19T10:46:20Z</time>
      </trkpt>
      <trkpt lat="46.11906" lon="4.53663">
        <ele>666.2</ele>
        <time>2020-10-19T10:46:21Z</time>
      </trkpt>
      <trkpt lat="46.11904" lon="4.53661">
        <ele>666.4</ele>
        <time>2020-10-19T10:46:22Z</time>
      </trkpt>
      <trkpt lat="46.11904" lon="4.53661">
        <ele>666.4</ele>
        <time>2020-10-19T10:46:23Z</time>
      </trkpt>
      <trkpt lat="46.11904" lon="4.53661">
        <ele>666.4</ele>
        <time>2020-10-19T10:46:24Z</time>
      </trkpt>
      <trkpt lat="46.11904" lon="4.53661">
        <ele>666.4</ele>
        <time>2020-10-19T10:46:25Z</time>
      </trkpt>
      <trkpt lat="46.11904" lon="4.53661">
        <ele>666.4</ele>
        <time>2020-10-19T10:46:26Z</time>
      </trkpt>
      <trkpt lat="46.11905" lon="4.53657">
        <ele>666.4</ele>
        <time>2020-10-19T10:46:27Z</time>
      </trkpt>
      <trkpt lat="46.11905" lon="4.53657">
        <ele>666.4</ele>
        <time>2020-10-19T10:46:28Z</time>
      </trkpt>
      <trkpt lat="46.11907" lon="4.53656">
        <ele>666.4</ele>
        <time>2020-10-19T10:46:29Z</time>
      </trkpt>
      <trkpt lat="46.11907" lon="4.53656">
        <ele>666.4</ele>
        <time>2020-10-19T10:46:30Z</time>
      </trkpt>
      <trkpt lat="46.11907" lon="4.53656">
        <ele>666.4</ele>
        <time>2020-10-19T10:46:31Z</time>
      </trkpt>
      <trkpt lat="46.11907" lon="4.53656">
        <ele>666.4</ele>
        <time>2020-10-19T10:46:32Z</time>
      </trkpt>
      <trkpt lat="46.11907" lon="4.53656">
        <ele>666.4</ele>
        <time>2020-10-19T10:46:33Z</time>
      </trkpt>
      <trkpt lat="46.11907" lon="4.53656">
        <ele>666.4</ele>
        <time>2020-10-19T10:46:34Z</time>
      </trkpt>
      <trkpt lat="46.11907" lon="4.5366">
        <ele>666.2</ele>
        <time>2020-10-19T10:46:35Z</time>
      </trkpt>
      <trkpt lat="46.11907" lon="4.5366">
        <ele>666.2</ele>
        <time>2020-10-19T10:46:36Z</time>
      </trkpt>
      <trkpt lat="46.11909" lon="4.53664">
        <ele>666.2</ele>
        <time>2020-10-19T10:46:37Z</time>
      </trkpt>
      <trkpt lat="46.11909" lon="4.53664">
        <ele>665.8</ele>
        <time>2020-10-19T10:46:38Z</time>
      </trkpt>
      <trkpt lat="46.1191" lon="4.53669">
        <ele>665.8</ele>
        <time>2020-10-19T10:46:39Z</time>
      </trkpt>
      <trkpt lat="46.11911" lon="4.53671">
        <ele>665.6</ele>
        <time>2020-10-19T10:46:40Z</time>
      </trkpt>
      <trkpt lat="46.11911" lon="4.53671">
        <ele>665.4</ele>
        <time>2020-10-19T10:46:41Z</time>
      </trkpt>
      <trkpt lat="46.11913" lon="4.53676">
        <ele>665.2</ele>
        <time>2020-10-19T10:46:42Z</time>
      </trkpt>
      <trkpt lat="46.11913" lon="4.53676">
        <ele>665</ele>
        <time>2020-10-19T10:46:43Z</time>
      </trkpt>
      <trkpt lat="46.11914" lon="4.5368">
        <ele>665</ele>
        <time>2020-10-19T10:46:44Z</time>
      </trkpt>
      <trkpt lat="46.11914" lon="4.5368">
        <ele>665</ele>
        <time>2020-10-19T10:46:45Z</time>
      </trkpt>
      <trkpt lat="46.11914" lon="4.53685">
        <ele>665</ele>
        <time>2020-10-19T10:46:46Z</time>
      </trkpt>
      <trkpt lat="46.11915" lon="4.53688">
        <ele>664.6</ele>
        <time>2020-10-19T10:46:47Z</time>
      </trkpt>
      <trkpt lat="46.11916" lon="4.53692">
        <ele>664.4</ele>
        <time>2020-10-19T10:46:48Z</time>
      </trkpt>
      <trkpt lat="46.11917" lon="4.53695">
        <ele>664.6</ele>
        <time>2020-10-19T10:46:49Z</time>
      </trkpt>
      <trkpt lat="46.11917" lon="4.53699">
        <ele>664.2</ele>
        <time>2020-10-19T10:46:50Z</time>
      </trkpt>
      <trkpt lat="46.11918" lon="4.53703">
        <ele>663.8</ele>
        <time>2020-10-19T10:46:51Z</time>
      </trkpt>
      <trkpt lat="46.11919" lon="4.53706">
        <ele>664</ele>
        <time>2020-10-19T10:46:52Z</time>
      </trkpt>
      <trkpt lat="46.1192" lon="4.5371">
        <ele>663.4</ele>
        <time>2020-10-19T10:46:53Z</time>
      </trkpt>
      <trkpt lat="46.11921" lon="4.53713">
        <ele>662.8</ele>
        <time>2020-10-19T10:46:54Z</time>
      </trkpt>
      <trkpt lat="46.11923" lon="4.53716">
        <ele>663.2</ele>
        <time>2020-10-19T10:46:55Z</time>
      </trkpt>
      <trkpt lat="46.11924" lon="4.53719">
        <ele>662.6</ele>
        <time>2020-10-19T10:46:56Z</time>
      </trkpt>
      <trkpt lat="46.11925" lon="4.53722">
        <ele>662.2</ele>
        <time>2020-10-19T10:46:57Z</time>
      </trkpt>
      <trkpt lat="46.11927" lon="4.53726">
        <ele>662.4</ele>
        <time>2020-10-19T10:46:58Z</time>
      </trkpt>
      <trkpt lat="46.11929" lon="4.53729">
        <ele>662</ele>
        <time>2020-10-19T10:46:59Z</time>
      </trkpt>
      <trkpt lat="46.11931" lon="4.53731">
        <ele>661.4</ele>
        <time>2020-10-19T10:47:00Z</time>
      </trkpt>
      <trkpt lat="46.11933" lon="4.53733">
        <ele>661.6</ele>
        <time>2020-10-19T10:47:01Z</time>
      </trkpt>
      <trkpt lat="46.11936" lon="4.53736">
        <ele>661</ele>
        <time>2020-10-19T10:47:02Z</time>
      </trkpt>
      <trkpt lat="46.11938" lon="4.53738">
        <ele>661</ele>
        <time>2020-10-19T10:47:03Z</time>
      </trkpt>
      <trkpt lat="46.11941" lon="4.5374">
        <ele>661</ele>
        <time>2020-10-19T10:47:04Z</time>
      </trkpt>
      <trkpt lat="46.11943" lon="4.53742">
        <ele>661.4</ele>
        <time>2020-10-19T10:47:05Z</time>
      </trkpt>
      <trkpt lat="46.11945" lon="4.53744">
        <ele>661</ele>
        <time>2020-10-19T10:47:06Z</time>
      </trkpt>
      <trkpt lat="46.11947" lon="4.53746">
        <ele>660.8</ele>
        <time>2020-10-19T10:47:07Z</time>
      </trkpt>
      <trkpt lat="46.11947" lon="4.53746">
        <ele>660.6</ele>
        <time>2020-10-19T10:47:08Z</time>
      </trkpt>
      <trkpt lat="46.11949" lon="4.53748">
        <ele>660.4</ele>
        <time>2020-10-19T10:47:09Z</time>
      </trkpt>
      <trkpt lat="46.11949" lon="4.53748">
        <ele>660.4</ele>
        <time>2020-10-19T10:47:10Z</time>
      </trkpt>
      <trkpt lat="46.11949" lon="4.53748">
        <ele>660.2</ele>
        <time>2020-10-19T10:47:11Z</time>
      </trkpt>
      <trkpt lat="46.11949" lon="4.53748">
        <ele>660.2</ele>
        <time>2020-10-19T10:47:12Z</time>
      </trkpt>
      <trkpt lat="46.11949" lon="4.53748">
        <ele>659.8</ele>
        <time>2020-10-19T10:47:13Z</time>
      </trkpt>
      <trkpt lat="46.11949" lon="4.53748">
        <ele>659.8</ele>
        <time>2020-10-19T10:47:14Z</time>
      </trkpt>
      <trkpt lat="46.11949" lon="4.53748">
        <ele>659.6</ele>
        <time>2020-10-19T10:47:15Z</time>
      </trkpt>
      <trkpt lat="46.11949" lon="4.53748">
        <ele>659.6</ele>
        <time>2020-10-19T10:47:16Z</time>
      </trkpt>
      <trkpt lat="46.11952" lon="4.53751">
        <ele>659.6</ele>
        <time>2020-10-19T10:47:17Z</time>
      </trkpt>
      <trkpt lat="46.11953" lon="4.53752">
        <ele>659.6</ele>
        <time>2020-10-19T10:47:18Z</time>
      </trkpt>
      <trkpt lat="46.11955" lon="4.53754">
        <ele>659.8</ele>
        <time>2020-10-19T10:47:19Z</time>
      </trkpt>
      <trkpt lat="46.11957" lon="4.53755">
        <ele>659.8</ele>
        <time>2020-10-19T10:47:20Z</time>
      </trkpt>
      <trkpt lat="46.11959" lon="4.53758">
        <ele>659.6</ele>
        <time>2020-10-19T10:47:21Z</time>
      </trkpt>
      <trkpt lat="46.11961" lon="4.5376">
        <ele>659.6</ele>
        <time>2020-10-19T10:47:22Z</time>
      </trkpt>
      <trkpt lat="46.11964" lon="4.53763">
        <ele>659.2</ele>
        <time>2020-10-19T10:47:23Z</time>
      </trkpt>
      <trkpt lat="46.11966" lon="4.53766">
        <ele>658.8</ele>
        <time>2020-10-19T10:47:24Z</time>
      </trkpt>
      <trkpt lat="46.11969" lon="4.53769">
        <ele>658.6</ele>
        <time>2020-10-19T10:47:25Z</time>
      </trkpt>
      <trkpt lat="46.11971" lon="4.53772">
        <ele>658.6</ele>
        <time>2020-10-19T10:47:26Z</time>
      </trkpt>
      <trkpt lat="46.11974" lon="4.53775">
        <ele>658.2</ele>
        <time>2020-10-19T10:47:27Z</time>
      </trkpt>
      <trkpt lat="46.11976" lon="4.53778">
        <ele>658</ele>
        <time>2020-10-19T10:47:28Z</time>
      </trkpt>
      <trkpt lat="46.11979" lon="4.53781">
        <ele>657.8</ele>
        <time>2020-10-19T10:47:29Z</time>
      </trkpt>
      <trkpt lat="46.11981" lon="4.53784">
        <ele>657.6</ele>
        <time>2020-10-19T10:47:30Z</time>
      </trkpt>
      <trkpt lat="46.11982" lon="4.53787">
        <ele>657.2</ele>
        <time>2020-10-19T10:47:31Z</time>
      </trkpt>
      <trkpt lat="46.11984" lon="4.5379">
        <ele>656.4</ele>
        <time>2020-10-19T10:47:32Z</time>
      </trkpt>
      <trkpt lat="46.11986" lon="4.53793">
        <ele>656.6</ele>
        <time>2020-10-19T10:47:33Z</time>
      </trkpt>
      <trkpt lat="46.11988" lon="4.53796">
        <ele>656.2</ele>
        <time>2020-10-19T10:47:34Z</time>
      </trkpt>
      <trkpt lat="46.11989" lon="4.53798">
        <ele>656.2</ele>
        <time>2020-10-19T10:47:35Z</time>
      </trkpt>
      <trkpt lat="46.11989" lon="4.53798">
        <ele>656.2</ele>
        <time>2020-10-19T10:47:36Z</time>
      </trkpt>
      <trkpt lat="46.11992" lon="4.53801">
        <ele>656.2</ele>
        <time>2020-10-19T10:47:37Z</time>
      </trkpt>
      <trkpt lat="46.11992" lon="4.53801">
        <ele>656</ele>
        <time>2020-10-19T10:47:38Z</time>
      </trkpt>
      <trkpt lat="46.11994" lon="4.53804">
        <ele>656</ele>
        <time>2020-10-19T10:47:39Z</time>
      </trkpt>
      <trkpt lat="46.11994" lon="4.53804">
        <ele>656</ele>
        <time>2020-10-19T10:47:40Z</time>
      </trkpt>
      <trkpt lat="46.11996" lon="4.53807">
        <ele>656</ele>
        <time>2020-10-19T10:47:41Z</time>
      </trkpt>
      <trkpt lat="46.11996" lon="4.53807">
        <ele>656</ele>
        <time>2020-10-19T10:47:42Z</time>
      </trkpt>
      <trkpt lat="46.11997" lon="4.53811">
        <ele>656</ele>
        <time>2020-10-19T10:47:43Z</time>
      </trkpt>
      <trkpt lat="46.11997" lon="4.53811">
        <ele>655.8</ele>
        <time>2020-10-19T10:47:44Z</time>
      </trkpt>
      <trkpt lat="46.11999" lon="4.53815">
        <ele>655.8</ele>
        <time>2020-10-19T10:47:45Z</time>
      </trkpt>
      <trkpt lat="46.11999" lon="4.53815">
        <ele>655.6</ele>
        <time>2020-10-19T10:47:46Z</time>
      </trkpt>
      <trkpt lat="46.12001" lon="4.53819">
        <ele>655.6</ele>
        <time>2020-10-19T10:47:47Z</time>
      </trkpt>
      <trkpt lat="46.12001" lon="4.53819">
        <ele>655.4</ele>
        <time>2020-10-19T10:47:48Z</time>
      </trkpt>
      <trkpt lat="46.12003" lon="4.53822">
        <ele>655.4</ele>
        <time>2020-10-19T10:47:49Z</time>
      </trkpt>
      <trkpt lat="46.12003" lon="4.53822">
        <ele>655.2</ele>
        <time>2020-10-19T10:47:50Z</time>
      </trkpt>
      <trkpt lat="46.12003" lon="4.53822">
        <ele>655.2</ele>
        <time>2020-10-19T10:47:51Z</time>
      </trkpt>
      <trkpt lat="46.12003" lon="4.53822">
        <ele>655.2</ele>
        <time>2020-10-19T10:47:52Z</time>
      </trkpt>
      <trkpt lat="46.12003" lon="4.53822">
        <ele>655.2</ele>
        <time>2020-10-19T10:47:53Z</time>
      </trkpt>
      <trkpt lat="46.12003" lon="4.53822">
        <ele>655</ele>
        <time>2020-10-19T10:47:54Z</time>
      </trkpt>
      <trkpt lat="46.12005" lon="4.5382">
        <ele>655.2</ele>
        <time>2020-10-19T10:47:55Z</time>
      </trkpt>
      <trkpt lat="46.12005" lon="4.5382">
        <ele>655</ele>
        <time>2020-10-19T10:47:56Z</time>
      </trkpt>
      <trkpt lat="46.12005" lon="4.5382">
        <ele>655</ele>
        <time>2020-10-19T10:47:57Z</time>
      </trkpt>
      <trkpt lat="46.12005" lon="4.5382">
        <ele>655</ele>
        <time>2020-10-19T10:47:58Z</time>
      </trkpt>
      <trkpt lat="46.12005" lon="4.5382">
        <ele>655</ele>
        <time>2020-10-19T10:47:59Z</time>
      </trkpt>
      <trkpt lat="46.12005" lon="4.5382">
        <ele>655</ele>
        <time>2020-10-19T10:48:00Z</time>
      </trkpt>
      <trkpt lat="46.12003" lon="4.53818">
        <ele>655</ele>
        <time>2020-10-19T10:48:01Z</time>
      </trkpt>
      <trkpt lat="46.12003" lon="4.53818">
        <ele>655</ele>
        <time>2020-10-19T10:48:02Z</time>
      </trkpt>
      <trkpt lat="46.12003" lon="4.53818">
        <ele>655.2</ele>
        <time>2020-10-19T10:48:03Z</time>
      </trkpt>
      <trkpt lat="46.12003" lon="4.53818">
        <ele>655.2</ele>
        <time>2020-10-19T10:48:04Z</time>
      </trkpt>
      <trkpt lat="46.12003" lon="4.53818">
        <ele>655.2</ele>
        <time>2020-10-19T10:48:05Z</time>
      </trkpt>
      <trkpt lat="46.12003" lon="4.53818">
        <ele>655.4</ele>
        <time>2020-10-19T10:48:06Z</time>
      </trkpt>
      <trkpt lat="46.12003" lon="4.53818">
        <ele>655.4</ele>
        <time>2020-10-19T10:48:07Z</time>
      </trkpt>
      <trkpt lat="46.12003" lon="4.53818">
        <ele>655.4</ele>
        <time>2020-10-19T10:48:08Z</time>
      </trkpt>
      <trkpt lat="46.12003" lon="4.53818">
        <ele>655.4</ele>
        <time>2020-10-19T10:48:09Z</time>
      </trkpt>
      <trkpt lat="46.12003" lon="4.53818">
        <ele>655.6</ele>
        <time>2020-10-19T10:48:10Z</time>
      </trkpt>
      <trkpt lat="46.12003" lon="4.53818">
        <ele>655.6</ele>
        <time>2020-10-19T10:48:11Z</time>
      </trkpt>
      <trkpt lat="46.12003" lon="4.53818">
        <ele>655.6</ele>
        <time>2020-10-19T10:48:12Z</time>
      </trkpt>
      <trkpt lat="46.12005" lon="4.53819">
        <ele>655.8</ele>
        <time>2020-10-19T10:48:13Z</time>
      </trkpt>
      <trkpt lat="46.12005" lon="4.53819">
        <ele>655.8</ele>
        <time>2020-10-19T10:48:14Z</time>
      </trkpt>
      <trkpt lat="46.12005" lon="4.53819">
        <ele>655.8</ele>
        <time>2020-10-19T10:48:15Z</time>
      </trkpt>
      <trkpt lat="46.12005" lon="4.53819">
        <ele>656</ele>
        <time>2020-10-19T10:48:16Z</time>
      </trkpt>
      <trkpt lat="46.12005" lon="4.53819">
        <ele>655.8</ele>
        <time>2020-10-19T10:48:17Z</time>
      </trkpt>
      <trkpt lat="46.12005" lon="4.53819">
        <ele>655.8</ele>
        <time>2020-10-19T10:48:18Z</time>
      </trkpt>
      <trkpt lat="46.12005" lon="4.53819">
        <ele>655.8</ele>
        <time>2020-10-19T10:48:19Z</time>
      </trkpt>
      <trkpt lat="46.12004" lon="4.53822">
        <ele>655.8</ele>
        <time>2020-10-19T10:48:20Z</time>
      </trkpt>
      <trkpt lat="46.12004" lon="4.53822">
        <ele>655.8</ele>
        <time>2020-10-19T10:48:21Z</time>
      </trkpt>
      <trkpt lat="46.12004" lon="4.53822">
        <ele>656</ele>
        <time>2020-10-19T10:48:22Z</time>
      </trkpt>
      <trkpt lat="46.12004" lon="4.53822">
        <ele>656</ele>
        <time>2020-10-19T10:48:23Z</time>
      </trkpt>
      <trkpt lat="46.12004" lon="4.53822">
        <ele>655.8</ele>
        <time>2020-10-19T10:48:24Z</time>
      </trkpt>
      <trkpt lat="46.12004" lon="4.53822">
        <ele>655.8</ele>
        <time>2020-10-19T10:48:25Z</time>
      </trkpt>
      <trkpt lat="46.12004" lon="4.53822">
        <ele>656</ele>
        <time>2020-10-19T10:48:26Z</time>
      </trkpt>
      <trkpt lat="46.12004" lon="4.53822">
        <ele>656</ele>
        <time>2020-10-19T10:48:27Z</time>
      </trkpt>
      <trkpt lat="46.12004" lon="4.53822">
        <ele>656</ele>
        <time>2020-10-19T10:48:28Z</time>
      </trkpt>
      <trkpt lat="46.12004" lon="4.53822">
        <ele>656</ele>
        <time>2020-10-19T10:48:29Z</time>
      </trkpt>
      <trkpt lat="46.12004" lon="4.53822">
        <ele>656</ele>
        <time>2020-10-19T10:48:30Z</time>
      </trkpt>
      <trkpt lat="46.12004" lon="4.53822">
        <ele>656.2</ele>
        <time>2020-10-19T10:48:31Z</time>
      </trkpt>
      <trkpt lat="46.12004" lon="4.53822">
        <ele>656.4</ele>
        <time>2020-10-19T10:48:32Z</time>
      </trkpt>
      <trkpt lat="46.12004" lon="4.53822">
        <ele>656.4</ele>
        <time>2020-10-19T10:48:33Z</time>
      </trkpt>
      <trkpt lat="46.12004" lon="4.53822">
        <ele>656.6</ele>
        <time>2020-10-19T10:48:34Z</time>
      </trkpt>
      <trkpt lat="46.12004" lon="4.53822">
        <ele>656.6</ele>
        <time>2020-10-19T10:48:35Z</time>
      </trkpt>
      <trkpt lat="46.12004" lon="4.53822">
        <ele>656.6</ele>
        <time>2020-10-19T10:48:36Z</time>
      </trkpt>
      <trkpt lat="46.12004" lon="4.53822">
        <ele>656.4</ele>
        <time>2020-10-19T10:48:37Z</time>
      </trkpt>
      <trkpt lat="46.12004" lon="4.53822">
        <ele>656.6</ele>
        <time>2020-10-19T10:48:38Z</time>
      </trkpt>
      <trkpt lat="46.12004" lon="4.53822">
        <ele>656.4</ele>
        <time>2020-10-19T10:48:39Z</time>
      </trkpt>
      <trkpt lat="46.12004" lon="4.53822">
        <ele>656.4</ele>
        <time>2020-10-19T10:48:40Z</time>
      </trkpt>
      <trkpt lat="46.12004" lon="4.53822">
        <ele>656.2</ele>
        <time>2020-10-19T10:48:41Z</time>
      </trkpt>
      <trkpt lat="46.12004" lon="4.53822">
        <ele>656.4</ele>
        <time>2020-10-19T10:48:42Z</time>
      </trkpt>
      <trkpt lat="46.12004" lon="4.53825">
        <ele>656.4</ele>
        <time>2020-10-19T10:48:43Z</time>
      </trkpt>
      <trkpt lat="46.12004" lon="4.53825">
        <ele>656.4</ele>
        <time>2020-10-19T10:48:44Z</time>
      </trkpt>
      <trkpt lat="46.12004" lon="4.53825">
        <ele>656.4</ele>
        <time>2020-10-19T10:48:45Z</time>
      </trkpt>
      <trkpt lat="46.12003" lon="4.53828">
        <ele>656.4</ele>
        <time>2020-10-19T10:48:46Z</time>
      </trkpt>
      <trkpt lat="46.12003" lon="4.53828">
        <ele>656.6</ele>
        <time>2020-10-19T10:48:47Z</time>
      </trkpt>
      <trkpt lat="46.12003" lon="4.53828">
        <ele>656.6</ele>
        <time>2020-10-19T10:48:48Z</time>
      </trkpt>
      <trkpt lat="46.12003" lon="4.53828">
        <ele>656.6</ele>
        <time>2020-10-19T10:48:49Z</time>
      </trkpt>
      <trkpt lat="46.12005" lon="4.5383">
        <ele>656.6</ele>
        <time>2020-10-19T10:48:50Z</time>
      </trkpt>
      <trkpt lat="46.12005" lon="4.5383">
        <ele>656.6</ele>
        <time>2020-10-19T10:48:51Z</time>
      </trkpt>
      <trkpt lat="46.12005" lon="4.5383">
        <ele>656.6</ele>
        <time>2020-10-19T10:48:52Z</time>
      </trkpt>
      <trkpt lat="46.12005" lon="4.5383">
        <ele>656.8</ele>
        <time>2020-10-19T10:48:53Z</time>
      </trkpt>
      <trkpt lat="46.12005" lon="4.5383">
        <ele>656.8</ele>
        <time>2020-10-19T10:48:54Z</time>
      </trkpt>
      <trkpt lat="46.12005" lon="4.5383">
        <ele>657</ele>
        <time>2020-10-19T10:48:55Z</time>
      </trkpt>
      <trkpt lat="46.12005" lon="4.5383">
        <ele>657</ele>
        <time>2020-10-19T10:48:56Z</time>
      </trkpt>
      <trkpt lat="46.12005" lon="4.5383">
        <ele>657</ele>
        <time>2020-10-19T10:48:57Z</time>
      </trkpt>
      <trkpt lat="46.12005" lon="4.5383">
        <ele>657.2</ele>
        <time>2020-10-19T10:48:58Z</time>
      </trkpt>
      <trkpt lat="46.12005" lon="4.5383">
        <ele>657.4</ele>
        <time>2020-10-19T10:48:59Z</time>
      </trkpt>
      <trkpt lat="46.12005" lon="4.53834">
        <ele>657.2</ele>
        <time>2020-10-19T10:49:00Z</time>
      </trkpt>
      <trkpt lat="46.12005" lon="4.53834">
        <ele>657.2</ele>
        <time>2020-10-19T10:49:01Z</time>
      </trkpt>
      <trkpt lat="46.12004" lon="4.53837">
        <ele>657</ele>
        <time>2020-10-19T10:49:02Z</time>
      </trkpt>
      <trkpt lat="46.12004" lon="4.53837">
        <ele>657</ele>
        <time>2020-10-19T10:49:03Z</time>
      </trkpt>
      <trkpt lat="46.12004" lon="4.53841">
        <ele>656.8</ele>
        <time>2020-10-19T10:49:04Z</time>
      </trkpt>
      <trkpt lat="46.12004" lon="4.53841">
        <ele>656.6</ele>
        <time>2020-10-19T10:49:05Z</time>
      </trkpt>
      <trkpt lat="46.12004" lon="4.53844">
        <ele>656.2</ele>
        <time>2020-10-19T10:49:06Z</time>
      </trkpt>
      <trkpt lat="46.12004" lon="4.53844">
        <ele>656</ele>
        <time>2020-10-19T10:49:07Z</time>
      </trkpt>
      <trkpt lat="46.12004" lon="4.53847">
        <ele>655.6</ele>
        <time>2020-10-19T10:49:08Z</time>
      </trkpt>
      <trkpt lat="46.12004" lon="4.53847">
        <ele>655.6</ele>
        <time>2020-10-19T10:49:09Z</time>
      </trkpt>
      <trkpt lat="46.12004" lon="4.53851">
        <ele>655.4</ele>
        <time>2020-10-19T10:49:10Z</time>
      </trkpt>
      <trkpt lat="46.12004" lon="4.53851">
        <ele>655.4</ele>
        <time>2020-10-19T10:49:11Z</time>
      </trkpt>
      <trkpt lat="46.12004" lon="4.53854">
        <ele>655.4</ele>
        <time>2020-10-19T10:49:12Z</time>
      </trkpt>
      <trkpt lat="46.12004" lon="4.53854">
        <ele>655.4</ele>
        <time>2020-10-19T10:49:13Z</time>
      </trkpt>
      <trkpt lat="46.12004" lon="4.53857">
        <ele>655.4</ele>
        <time>2020-10-19T10:49:14Z</time>
      </trkpt>
      <trkpt lat="46.12004" lon="4.53857">
        <ele>655.4</ele>
        <time>2020-10-19T10:49:15Z</time>
      </trkpt>
      <trkpt lat="46.12004" lon="4.53861">
        <ele>655.2</ele>
        <time>2020-10-19T10:49:16Z</time>
      </trkpt>
      <trkpt lat="46.12004" lon="4.53861">
        <ele>655.2</ele>
        <time>2020-10-19T10:49:17Z</time>
      </trkpt>
      <trkpt lat="46.12004" lon="4.53865">
        <ele>655</ele>
        <time>2020-10-19T10:49:18Z</time>
      </trkpt>
      <trkpt lat="46.12005" lon="4.53867">
        <ele>655</ele>
        <time>2020-10-19T10:49:19Z</time>
      </trkpt>
      <trkpt lat="46.12005" lon="4.53867">
        <ele>655</ele>
        <time>2020-10-19T10:49:20Z</time>
      </trkpt>
      <trkpt lat="46.12006" lon="4.53871">
        <ele>655.2</ele>
        <time>2020-10-19T10:49:21Z</time>
      </trkpt>
      <trkpt lat="46.12006" lon="4.53871">
        <ele>655</ele>
        <time>2020-10-19T10:49:22Z</time>
      </trkpt>
      <trkpt lat="46.12006" lon="4.53875">
        <ele>655.2</ele>
        <time>2020-10-19T10:49:23Z</time>
      </trkpt>
      <trkpt lat="46.12006" lon="4.53875">
        <ele>655.4</ele>
        <time>2020-10-19T10:49:24Z</time>
      </trkpt>
      <trkpt lat="46.12005" lon="4.5388">
        <ele>655.2</ele>
        <time>2020-10-19T10:49:25Z</time>
      </trkpt>
      <trkpt lat="46.12005" lon="4.5388">
        <ele>654.8</ele>
        <time>2020-10-19T10:49:26Z</time>
      </trkpt>
      <trkpt lat="46.12005" lon="4.53883">
        <ele>654.8</ele>
        <time>2020-10-19T10:49:27Z</time>
      </trkpt>
      <trkpt lat="46.12005" lon="4.53883">
        <ele>654.6</ele>
        <time>2020-10-19T10:49:28Z</time>
      </trkpt>
      <trkpt lat="46.12005" lon="4.53886">
        <ele>654.8</ele>
        <time>2020-10-19T10:49:29Z</time>
      </trkpt>
      <trkpt lat="46.12005" lon="4.53886">
        <ele>654.8</ele>
        <time>2020-10-19T10:49:30Z</time>
      </trkpt>
      <trkpt lat="46.12005" lon="4.53886">
        <ele>654.6</ele>
        <time>2020-10-19T10:49:31Z</time>
      </trkpt>
      <trkpt lat="46.12004" lon="4.53889">
        <ele>654.6</ele>
        <time>2020-10-19T10:49:32Z</time>
      </trkpt>
      <trkpt lat="46.12004" lon="4.53889">
        <ele>654.6</ele>
        <time>2020-10-19T10:49:33Z</time>
      </trkpt>
      <trkpt lat="46.12003" lon="4.53892">
        <ele>654.6</ele>
        <time>2020-10-19T10:49:34Z</time>
      </trkpt>
      <trkpt lat="46.12003" lon="4.53892">
        <ele>654.6</ele>
        <time>2020-10-19T10:49:35Z</time>
      </trkpt>
      <trkpt lat="46.12003" lon="4.53892">
        <ele>654.8</ele>
        <time>2020-10-19T10:49:36Z</time>
      </trkpt>
      <trkpt lat="46.12003" lon="4.53892">
        <ele>654.8</ele>
        <time>2020-10-19T10:49:37Z</time>
      </trkpt>
      <trkpt lat="46.12003" lon="4.53892">
        <ele>654.8</ele>
        <time>2020-10-19T10:49:38Z</time>
      </trkpt>
      <trkpt lat="46.12003" lon="4.53892">
        <ele>655</ele>
        <time>2020-10-19T10:49:39Z</time>
      </trkpt>
      <trkpt lat="46.12003" lon="4.53892">
        <ele>655</ele>
        <time>2020-10-19T10:49:40Z</time>
      </trkpt>
      <trkpt lat="46.12003" lon="4.53892">
        <ele>655</ele>
        <time>2020-10-19T10:49:41Z</time>
      </trkpt>
      <trkpt lat="46.12003" lon="4.53896">
        <ele>655</ele>
        <time>2020-10-19T10:49:42Z</time>
      </trkpt>
      <trkpt lat="46.12003" lon="4.53896">
        <ele>654.8</ele>
        <time>2020-10-19T10:49:43Z</time>
      </trkpt>
      <trkpt lat="46.12002" lon="4.539">
        <ele>655</ele>
        <time>2020-10-19T10:49:44Z</time>
      </trkpt>
      <trkpt lat="46.12002" lon="4.539">
        <ele>655</ele>
        <time>2020-10-19T10:49:45Z</time>
      </trkpt>
      <trkpt lat="46.12001" lon="4.53904">
        <ele>655</ele>
        <time>2020-10-19T10:49:46Z</time>
      </trkpt>
      <trkpt lat="46.12001" lon="4.53904">
        <ele>655</ele>
        <time>2020-10-19T10:49:47Z</time>
      </trkpt>
      <trkpt lat="46.11999" lon="4.53908">
        <ele>655</ele>
        <time>2020-10-19T10:49:48Z</time>
      </trkpt>
      <trkpt lat="46.11998" lon="4.53911">
        <ele>655</ele>
        <time>2020-10-19T10:49:49Z</time>
      </trkpt>
      <trkpt lat="46.11997" lon="4.53914">
        <ele>654.8</ele>
        <time>2020-10-19T10:49:50Z</time>
      </trkpt>
      <trkpt lat="46.11995" lon="4.53917">
        <ele>655</ele>
        <time>2020-10-19T10:49:51Z</time>
      </trkpt>
      <trkpt lat="46.11994" lon="4.53921">
        <ele>654.8</ele>
        <time>2020-10-19T10:49:52Z</time>
      </trkpt>
      <trkpt lat="46.11993" lon="4.53924">
        <ele>654.4</ele>
        <time>2020-10-19T10:49:53Z</time>
      </trkpt>
      <trkpt lat="46.11992" lon="4.53927">
        <ele>654.6</ele>
        <time>2020-10-19T10:49:54Z</time>
      </trkpt>
      <trkpt lat="46.11991" lon="4.53931">
        <ele>654.4</ele>
        <time>2020-10-19T10:49:55Z</time>
      </trkpt>
      <trkpt lat="46.11989" lon="4.53935">
        <ele>654.2</ele>
        <time>2020-10-19T10:49:56Z</time>
      </trkpt>
      <trkpt lat="46.11988" lon="4.53938">
        <ele>654.2</ele>
        <time>2020-10-19T10:49:57Z</time>
      </trkpt>
      <trkpt lat="46.11987" lon="4.5394">
        <ele>653.8</ele>
        <time>2020-10-19T10:49:58Z</time>
      </trkpt>
      <trkpt lat="46.11986" lon="4.53943">
        <ele>653.6</ele>
        <time>2020-10-19T10:49:59Z</time>
      </trkpt>
      <trkpt lat="46.11984" lon="4.53948">
        <ele>653.6</ele>
        <time>2020-10-19T10:50:00Z</time>
      </trkpt>
      <trkpt lat="46.11984" lon="4.53949">
        <ele>653.6</ele>
        <time>2020-10-19T10:50:01Z</time>
      </trkpt>
      <trkpt lat="46.11982" lon="4.53952">
        <ele>653.2</ele>
        <time>2020-10-19T10:50:02Z</time>
      </trkpt>
      <trkpt lat="46.1198" lon="4.53955">
        <ele>653.4</ele>
        <time>2020-10-19T10:50:03Z</time>
      </trkpt>
      <trkpt lat="46.11978" lon="4.53958">
        <ele>653.4</ele>
        <time>2020-10-19T10:50:04Z</time>
      </trkpt>
      <trkpt lat="46.11977" lon="4.53961">
        <ele>653.2</ele>
        <time>2020-10-19T10:50:05Z</time>
      </trkpt>
      <trkpt lat="46.11976" lon="4.53964">
        <ele>653</ele>
        <time>2020-10-19T10:50:06Z</time>
      </trkpt>
      <trkpt lat="46.11974" lon="4.53966">
        <ele>653</ele>
        <time>2020-10-19T10:50:07Z</time>
      </trkpt>
      <trkpt lat="46.11973" lon="4.5397">
        <ele>652.8</ele>
        <time>2020-10-19T10:50:08Z</time>
      </trkpt>
      <trkpt lat="46.11971" lon="4.53973">
        <ele>652.4</ele>
        <time>2020-10-19T10:50:09Z</time>
      </trkpt>
      <trkpt lat="46.1197" lon="4.53977">
        <ele>652.6</ele>
        <time>2020-10-19T10:50:10Z</time>
      </trkpt>
      <trkpt lat="46.11969" lon="4.5398">
        <ele>652.4</ele>
        <time>2020-10-19T10:50:11Z</time>
      </trkpt>
      <trkpt lat="46.11968" lon="4.53984">
        <ele>652</ele>
        <time>2020-10-19T10:50:12Z</time>
      </trkpt>
      <trkpt lat="46.11966" lon="4.53987">
        <ele>652.2</ele>
        <time>2020-10-19T10:50:13Z</time>
      </trkpt>
      <trkpt lat="46.11965" lon="4.53991">
        <ele>652</ele>
        <time>2020-10-19T10:50:14Z</time>
      </trkpt>
      <trkpt lat="46.11964" lon="4.53995">
        <ele>651.6</ele>
        <time>2020-10-19T10:50:15Z</time>
      </trkpt>
      <trkpt lat="46.11963" lon="4.53998">
        <ele>652</ele>
        <time>2020-10-19T10:50:16Z</time>
      </trkpt>
      <trkpt lat="46.11962" lon="4.54002">
        <ele>651.6</ele>
        <time>2020-10-19T10:50:17Z</time>
      </trkpt>
      <trkpt lat="46.11962" lon="4.54005">
        <ele>651.2</ele>
        <time>2020-10-19T10:50:18Z</time>
      </trkpt>
      <trkpt lat="46.11961" lon="4.54008">
        <ele>651.2</ele>
        <time>2020-10-19T10:50:19Z</time>
      </trkpt>
      <trkpt lat="46.1196" lon="4.54011">
        <ele>651.2</ele>
        <time>2020-10-19T10:50:20Z</time>
      </trkpt>
      <trkpt lat="46.1196" lon="4.54014">
        <ele>650.8</ele>
        <time>2020-10-19T10:50:21Z</time>
      </trkpt>
      <trkpt lat="46.11959" lon="4.54017">
        <ele>650.4</ele>
        <time>2020-10-19T10:50:22Z</time>
      </trkpt>
      <trkpt lat="46.11958" lon="4.54021">
        <ele>650.6</ele>
        <time>2020-10-19T10:50:23Z</time>
      </trkpt>
      <trkpt lat="46.11957" lon="4.54025">
        <ele>650</ele>
        <time>2020-10-19T10:50:24Z</time>
      </trkpt>
      <trkpt lat="46.11956" lon="4.54029">
        <ele>649.6</ele>
        <time>2020-10-19T10:50:25Z</time>
      </trkpt>
      <trkpt lat="46.11956" lon="4.54032">
        <ele>649.6</ele>
        <time>2020-10-19T10:50:26Z</time>
      </trkpt>
      <trkpt lat="46.11955" lon="4.54036">
        <ele>649.2</ele>
        <time>2020-10-19T10:50:27Z</time>
      </trkpt>
      <trkpt lat="46.11955" lon="4.5404">
        <ele>648.8</ele>
        <time>2020-10-19T10:50:28Z</time>
      </trkpt>
      <trkpt lat="46.11954" lon="4.54043">
        <ele>648.8</ele>
        <time>2020-10-19T10:50:29Z</time>
      </trkpt>
      <trkpt lat="46.11954" lon="4.54045">
        <ele>648.8</ele>
        <time>2020-10-19T10:50:30Z</time>
      </trkpt>
      <trkpt lat="46.11954" lon="4.54047">
        <ele>648.2</ele>
        <time>2020-10-19T10:50:31Z</time>
      </trkpt>
      <trkpt lat="46.11953" lon="4.54049">
        <ele>648</ele>
        <time>2020-10-19T10:50:32Z</time>
      </trkpt>
      <trkpt lat="46.11953" lon="4.5405">
        <ele>647.8</ele>
        <time>2020-10-19T10:50:33Z</time>
      </trkpt>
      <trkpt lat="46.11951" lon="4.54058">
        <ele>647.2</ele>
        <time>2020-10-19T10:50:34Z</time>
      </trkpt>
      <trkpt lat="46.11951" lon="4.54064">
        <ele>647</ele>
        <time>2020-10-19T10:50:35Z</time>
      </trkpt>
      <trkpt lat="46.1195" lon="4.54068">
        <ele>646.8</ele>
        <time>2020-10-19T10:50:36Z</time>
      </trkpt>
      <trkpt lat="46.1195" lon="4.54072">
        <ele>646.4</ele>
        <time>2020-10-19T10:50:37Z</time>
      </trkpt>
      <trkpt lat="46.1195" lon="4.54076">
        <ele>645.8</ele>
        <time>2020-10-19T10:50:38Z</time>
      </trkpt>
      <trkpt lat="46.1195" lon="4.54079">
        <ele>646</ele>
        <time>2020-10-19T10:50:39Z</time>
      </trkpt>
      <trkpt lat="46.1195" lon="4.54082">
        <ele>645.6</ele>
        <time>2020-10-19T10:50:40Z</time>
      </trkpt>
      <trkpt lat="46.1195" lon="4.54085">
        <ele>645.2</ele>
        <time>2020-10-19T10:50:41Z</time>
      </trkpt>
      <trkpt lat="46.1195" lon="4.54088">
        <ele>645</ele>
        <time>2020-10-19T10:50:42Z</time>
      </trkpt>
      <trkpt lat="46.1195" lon="4.54091">
        <ele>645</ele>
        <time>2020-10-19T10:50:43Z</time>
      </trkpt>
      <trkpt lat="46.11951" lon="4.54094">
        <ele>644.4</ele>
        <time>2020-10-19T10:50:44Z</time>
      </trkpt>
      <trkpt lat="46.11951" lon="4.54098">
        <ele>644.4</ele>
        <time>2020-10-19T10:50:45Z</time>
      </trkpt>
      <trkpt lat="46.11952" lon="4.54101">
        <ele>644</ele>
        <time>2020-10-19T10:50:46Z</time>
      </trkpt>
      <trkpt lat="46.11952" lon="4.54104">
        <ele>643.4</ele>
        <time>2020-10-19T10:50:47Z</time>
      </trkpt>
      <trkpt lat="46.11953" lon="4.54108">
        <ele>643.2</ele>
        <time>2020-10-19T10:50:48Z</time>
      </trkpt>
      <trkpt lat="46.11953" lon="4.54111">
        <ele>643.2</ele>
        <time>2020-10-19T10:50:49Z</time>
      </trkpt>
      <trkpt lat="46.11953" lon="4.54115">
        <ele>642.6</ele>
        <time>2020-10-19T10:50:50Z</time>
      </trkpt>
      <trkpt lat="46.11953" lon="4.54119">
        <ele>642</ele>
        <time>2020-10-19T10:50:51Z</time>
      </trkpt>
      <trkpt lat="46.11954" lon="4.54123">
        <ele>642</ele>
        <time>2020-10-19T10:50:52Z</time>
      </trkpt>
      <trkpt lat="46.11954" lon="4.54126">
        <ele>641.6</ele>
        <time>2020-10-19T10:50:53Z</time>
      </trkpt>
      <trkpt lat="46.11955" lon="4.5413">
        <ele>640.8</ele>
        <time>2020-10-19T10:50:54Z</time>
      </trkpt>
      <trkpt lat="46.11955" lon="4.54133">
        <ele>641</ele>
        <time>2020-10-19T10:50:55Z</time>
      </trkpt>
      <trkpt lat="46.11956" lon="4.54136">
        <ele>640.8</ele>
        <time>2020-10-19T10:50:56Z</time>
      </trkpt>
      <trkpt lat="46.11956" lon="4.5414">
        <ele>640.2</ele>
        <time>2020-10-19T10:50:57Z</time>
      </trkpt>
      <trkpt lat="46.11957" lon="4.54143">
        <ele>640</ele>
        <time>2020-10-19T10:50:58Z</time>
      </trkpt>
      <trkpt lat="46.11957" lon="4.54147">
        <ele>639.8</ele>
        <time>2020-10-19T10:50:59Z</time>
      </trkpt>
      <trkpt lat="46.11958" lon="4.54149">
        <ele>639.2</ele>
        <time>2020-10-19T10:51:00Z</time>
      </trkpt>
      <trkpt lat="46.11958" lon="4.54152">
        <ele>639</ele>
        <time>2020-10-19T10:51:01Z</time>
      </trkpt>
      <trkpt lat="46.11959" lon="4.54156">
        <ele>638.4</ele>
        <time>2020-10-19T10:51:02Z</time>
      </trkpt>
      <trkpt lat="46.11958" lon="4.5416">
        <ele>638.2</ele>
        <time>2020-10-19T10:51:03Z</time>
      </trkpt>
      <trkpt lat="46.11958" lon="4.5416">
        <ele>637.4</ele>
        <time>2020-10-19T10:51:04Z</time>
      </trkpt>
      <trkpt lat="46.11957" lon="4.54162">
        <ele>637.2</ele>
        <time>2020-10-19T10:51:05Z</time>
      </trkpt>
      <trkpt lat="46.11957" lon="4.54162">
        <ele>637</ele>
        <time>2020-10-19T10:51:06Z</time>
      </trkpt>
      <trkpt lat="46.11957" lon="4.54162">
        <ele>637</ele>
        <time>2020-10-19T10:51:07Z</time>
      </trkpt>
      <trkpt lat="46.11957" lon="4.54162">
        <ele>636.8</ele>
        <time>2020-10-19T10:51:08Z</time>
      </trkpt>
      <trkpt lat="46.11957" lon="4.54162">
        <ele>637</ele>
        <time>2020-10-19T10:51:09Z</time>
      </trkpt>
      <trkpt lat="46.11956" lon="4.54165">
        <ele>636.6</ele>
        <time>2020-10-19T10:51:10Z</time>
      </trkpt>
      <trkpt lat="46.11956" lon="4.54165">
        <ele>636.6</ele>
        <time>2020-10-19T10:51:11Z</time>
      </trkpt>
      <trkpt lat="46.11956" lon="4.54168">
        <ele>636.4</ele>
        <time>2020-10-19T10:51:12Z</time>
      </trkpt>
      <trkpt lat="46.11956" lon="4.54168">
        <ele>636.2</ele>
        <time>2020-10-19T10:51:13Z</time>
      </trkpt>
      <trkpt lat="46.11956" lon="4.54168">
        <ele>636</ele>
        <time>2020-10-19T10:51:14Z</time>
      </trkpt>
      <trkpt lat="46.11957" lon="4.54171">
        <ele>636</ele>
        <time>2020-10-19T10:51:15Z</time>
      </trkpt>
      <trkpt lat="46.11957" lon="4.54171">
        <ele>636</ele>
        <time>2020-10-19T10:51:16Z</time>
      </trkpt>
      <trkpt lat="46.11957" lon="4.54171">
        <ele>636.2</ele>
        <time>2020-10-19T10:51:17Z</time>
      </trkpt>
      <trkpt lat="46.11957" lon="4.54171">
        <ele>636.2</ele>
        <time>2020-10-19T10:51:18Z</time>
      </trkpt>
      <trkpt lat="46.11957" lon="4.54171">
        <ele>636.2</ele>
        <time>2020-10-19T10:51:19Z</time>
      </trkpt>
      <trkpt lat="46.11957" lon="4.54171">
        <ele>636.2</ele>
        <time>2020-10-19T10:51:20Z</time>
      </trkpt>
      <trkpt lat="46.11957" lon="4.54171">
        <ele>636.2</ele>
        <time>2020-10-19T10:51:21Z</time>
      </trkpt>
      <trkpt lat="46.11957" lon="4.54171">
        <ele>636.4</ele>
        <time>2020-10-19T10:51:22Z</time>
      </trkpt>
      <trkpt lat="46.11957" lon="4.54171">
        <ele>636.4</ele>
        <time>2020-10-19T10:51:23Z</time>
      </trkpt>
      <trkpt lat="46.11957" lon="4.54171">
        <ele>636.4</ele>
        <time>2020-10-19T10:51:24Z</time>
      </trkpt>
      <trkpt lat="46.11957" lon="4.54171">
        <ele>636.6</ele>
        <time>2020-10-19T10:51:25Z</time>
      </trkpt>
      <trkpt lat="46.11957" lon="4.54171">
        <ele>636.8</ele>
        <time>2020-10-19T10:51:26Z</time>
      </trkpt>
      <trkpt lat="46.11957" lon="4.54171">
        <ele>636.8</ele>
        <time>2020-10-19T10:51:27Z</time>
      </trkpt>
      <trkpt lat="46.11957" lon="4.54171">
        <ele>637</ele>
        <time>2020-10-19T10:51:28Z</time>
      </trkpt>
      <trkpt lat="46.11957" lon="4.54171">
        <ele>637</ele>
        <time>2020-10-19T10:51:29Z</time>
      </trkpt>
      <trkpt lat="46.11957" lon="4.54171">
        <ele>637</ele>
        <time>2020-10-19T10:51:30Z</time>
      </trkpt>
      <trkpt lat="46.11957" lon="4.54171">
        <ele>637</ele>
        <time>2020-10-19T10:51:31Z</time>
      </trkpt>
      <trkpt lat="46.11957" lon="4.54171">
        <ele>637</ele>
        <time>2020-10-19T10:51:32Z</time>
      </trkpt>
      <trkpt lat="46.11957" lon="4.54171">
        <ele>636.8</ele>
        <time>2020-10-19T10:51:33Z</time>
      </trkpt>
      <trkpt lat="46.11957" lon="4.54171">
        <ele>636.8</ele>
        <time>2020-10-19T10:51:34Z</time>
      </trkpt>
      <trkpt lat="46.11957" lon="4.54171">
        <ele>636.8</ele>
        <time>2020-10-19T10:51:35Z</time>
      </trkpt>
      <trkpt lat="46.11957" lon="4.54171">
        <ele>636.6</ele>
        <time>2020-10-19T10:51:36Z</time>
      </trkpt>
      <trkpt lat="46.11957" lon="4.54171">
        <ele>636.4</ele>
        <time>2020-10-19T10:51:37Z</time>
      </trkpt>
      <trkpt lat="46.11957" lon="4.54171">
        <ele>636.2</ele>
        <time>2020-10-19T10:51:38Z</time>
      </trkpt>
      <trkpt lat="46.11957" lon="4.54171">
        <ele>636.2</ele>
        <time>2020-10-19T10:51:39Z</time>
      </trkpt>
      <trkpt lat="46.11957" lon="4.54171">
        <ele>636</ele>
        <time>2020-10-19T10:51:40Z</time>
      </trkpt>
      <trkpt lat="46.11958" lon="4.54173">
        <ele>635.6</ele>
        <time>2020-10-19T10:51:41Z</time>
      </trkpt>
      <trkpt lat="46.1196" lon="4.54176">
        <ele>635.6</ele>
        <time>2020-10-19T10:51:42Z</time>
      </trkpt>
      <trkpt lat="46.11961" lon="4.54179">
        <ele>635.4</ele>
        <time>2020-10-19T10:51:43Z</time>
      </trkpt>
      <trkpt lat="46.11962" lon="4.54182">
        <ele>635</ele>
        <time>2020-10-19T10:51:44Z</time>
      </trkpt>
      <trkpt lat="46.11962" lon="4.54185">
        <ele>635</ele>
        <time>2020-10-19T10:51:45Z</time>
      </trkpt>
      <trkpt lat="46.11963" lon="4.54189">
        <ele>634.6</ele>
        <time>2020-10-19T10:51:46Z</time>
      </trkpt>
      <trkpt lat="46.11965" lon="4.54192">
        <ele>634</ele>
        <time>2020-10-19T10:51:47Z</time>
      </trkpt>
      <trkpt lat="46.11966" lon="4.54195">
        <ele>633.8</ele>
        <time>2020-10-19T10:51:48Z</time>
      </trkpt>
      <trkpt lat="46.11967" lon="4.54199">
        <ele>633.2</ele>
        <time>2020-10-19T10:51:49Z</time>
      </trkpt>
      <trkpt lat="46.11968" lon="4.54202">
        <ele>632.6</ele>
        <time>2020-10-19T10:51:50Z</time>
      </trkpt>
      <trkpt lat="46.11969" lon="4.54206">
        <ele>632.6</ele>
        <time>2020-10-19T10:51:51Z</time>
      </trkpt>
      <trkpt lat="46.11969" lon="4.54209">
        <ele>632.2</ele>
        <time>2020-10-19T10:51:52Z</time>
      </trkpt>
      <trkpt lat="46.1197" lon="4.54212">
        <ele>631.6</ele>
        <time>2020-10-19T10:51:53Z</time>
      </trkpt>
      <trkpt lat="46.1197" lon="4.54216">
        <ele>631.2</ele>
        <time>2020-10-19T10:51:54Z</time>
      </trkpt>
      <trkpt lat="46.1197" lon="4.54216">
        <ele>630.8</ele>
        <time>2020-10-19T10:51:55Z</time>
      </trkpt>
      <trkpt lat="46.1197" lon="4.5422">
        <ele>630.6</ele>
        <time>2020-10-19T10:51:56Z</time>
      </trkpt>
      <trkpt lat="46.1197" lon="4.5422">
        <ele>630.2</ele>
        <time>2020-10-19T10:51:57Z</time>
      </trkpt>
      <trkpt lat="46.11968" lon="4.54221">
        <ele>630.2</ele>
        <time>2020-10-19T10:51:58Z</time>
      </trkpt>
      <trkpt lat="46.11968" lon="4.54221">
        <ele>630</ele>
        <time>2020-10-19T10:51:59Z</time>
      </trkpt>
      <trkpt lat="46.11968" lon="4.54221">
        <ele>630</ele>
        <time>2020-10-19T10:52:00Z</time>
      </trkpt>
      <trkpt lat="46.11968" lon="4.54221">
        <ele>630</ele>
        <time>2020-10-19T10:52:01Z</time>
      </trkpt>
      <trkpt lat="46.11968" lon="4.54221">
        <ele>630</ele>
        <time>2020-10-19T10:52:02Z</time>
      </trkpt>
      <trkpt lat="46.11967" lon="4.54218">
        <ele>630</ele>
        <time>2020-10-19T10:52:03Z</time>
      </trkpt>
      <trkpt lat="46.11967" lon="4.54218">
        <ele>629.8</ele>
        <time>2020-10-19T10:52:04Z</time>
      </trkpt>
      <trkpt lat="46.11967" lon="4.54218">
        <ele>630</ele>
        <time>2020-10-19T10:52:05Z</time>
      </trkpt>
      <trkpt lat="46.11967" lon="4.54218">
        <ele>630.2</ele>
        <time>2020-10-19T10:52:06Z</time>
      </trkpt>
      <trkpt lat="46.11967" lon="4.54218">
        <ele>630</ele>
        <time>2020-10-19T10:52:07Z</time>
      </trkpt>
      <trkpt lat="46.11967" lon="4.54218">
        <ele>630</ele>
        <time>2020-10-19T10:52:08Z</time>
      </trkpt>
      <trkpt lat="46.11967" lon="4.54218">
        <ele>630</ele>
        <time>2020-10-19T10:52:09Z</time>
      </trkpt>
      <trkpt lat="46.11967" lon="4.54218">
        <ele>629.8</ele>
        <time>2020-10-19T10:52:10Z</time>
      </trkpt>
      <trkpt lat="46.11967" lon="4.54218">
        <ele>630</ele>
        <time>2020-10-19T10:52:11Z</time>
      </trkpt>
      <trkpt lat="46.11967" lon="4.54218">
        <ele>630</ele>
        <time>2020-10-19T10:52:12Z</time>
      </trkpt>
      <trkpt lat="46.11967" lon="4.54218">
        <ele>630.2</ele>
        <time>2020-10-19T10:52:13Z</time>
      </trkpt>
      <trkpt lat="46.11967" lon="4.54218">
        <ele>629.8</ele>
        <time>2020-10-19T10:52:14Z</time>
      </trkpt>
      <trkpt lat="46.11967" lon="4.54218">
        <ele>629.6</ele>
        <time>2020-10-19T10:52:15Z</time>
      </trkpt>
      <trkpt lat="46.11967" lon="4.54218">
        <ele>629.6</ele>
        <time>2020-10-19T10:52:16Z</time>
      </trkpt>
      <trkpt lat="46.11967" lon="4.54218">
        <ele>629.4</ele>
        <time>2020-10-19T10:52:17Z</time>
      </trkpt>
      <trkpt lat="46.11967" lon="4.54221">
        <ele>629.4</ele>
        <time>2020-10-19T10:52:18Z</time>
      </trkpt>
      <trkpt lat="46.11967" lon="4.54221">
        <ele>629.4</ele>
        <time>2020-10-19T10:52:19Z</time>
      </trkpt>
      <trkpt lat="46.11968" lon="4.54224">
        <ele>629.2</ele>
        <time>2020-10-19T10:52:20Z</time>
      </trkpt>
      <trkpt lat="46.11968" lon="4.54224">
        <ele>629</ele>
        <time>2020-10-19T10:52:21Z</time>
      </trkpt>
      <trkpt lat="46.11968" lon="4.54224">
        <ele>628.8</ele>
        <time>2020-10-19T10:52:22Z</time>
      </trkpt>
      <trkpt lat="46.11969" lon="4.54228">
        <ele>628.8</ele>
        <time>2020-10-19T10:52:23Z</time>
      </trkpt>
      <trkpt lat="46.11969" lon="4.54228">
        <ele>628.8</ele>
        <time>2020-10-19T10:52:24Z</time>
      </trkpt>
      <trkpt lat="46.11969" lon="4.54232">
        <ele>628.4</ele>
        <time>2020-10-19T10:52:25Z</time>
      </trkpt>
      <trkpt lat="46.11969" lon="4.54235">
        <ele>628.8</ele>
        <time>2020-10-19T10:52:26Z</time>
      </trkpt>
      <trkpt lat="46.11969" lon="4.54239">
        <ele>628.2</ele>
        <time>2020-10-19T10:52:27Z</time>
      </trkpt>
      <trkpt lat="46.11969" lon="4.54241">
        <ele>628</ele>
        <time>2020-10-19T10:52:28Z</time>
      </trkpt>
      <trkpt lat="46.1197" lon="4.54244">
        <ele>627.4</ele>
        <time>2020-10-19T10:52:29Z</time>
      </trkpt>
      <trkpt lat="46.11971" lon="4.54248">
        <ele>626.8</ele>
        <time>2020-10-19T10:52:30Z</time>
      </trkpt>
      <trkpt lat="46.11972" lon="4.54252">
        <ele>626.8</ele>
        <time>2020-10-19T10:52:31Z</time>
      </trkpt>
      <trkpt lat="46.11974" lon="4.54256">
        <ele>626</ele>
        <time>2020-10-19T10:52:32Z</time>
      </trkpt>
      <trkpt lat="46.11975" lon="4.5426">
        <ele>625.4</ele>
        <time>2020-10-19T10:52:33Z</time>
      </trkpt>
      <trkpt lat="46.11977" lon="4.54264">
        <ele>625.4</ele>
        <time>2020-10-19T10:52:34Z</time>
      </trkpt>
      <trkpt lat="46.11977" lon="4.54265">
        <ele>624.6</ele>
        <time>2020-10-19T10:52:35Z</time>
      </trkpt>
      <trkpt lat="46.11977" lon="4.54267">
        <ele>624.2</ele>
        <time>2020-10-19T10:52:36Z</time>
      </trkpt>
      <trkpt lat="46.11978" lon="4.54269">
        <ele>624</ele>
        <time>2020-10-19T10:52:37Z</time>
      </trkpt>
      <trkpt lat="46.11978" lon="4.54271">
        <ele>623.2</ele>
        <time>2020-10-19T10:52:38Z</time>
      </trkpt>
      <trkpt lat="46.1198" lon="4.54282">
        <ele>622.8</ele>
        <time>2020-10-19T10:52:39Z</time>
      </trkpt>
      <trkpt lat="46.1198" lon="4.54286">
        <ele>622.6</ele>
        <time>2020-10-19T10:52:40Z</time>
      </trkpt>
      <trkpt lat="46.11981" lon="4.54289">
        <ele>621.8</ele>
        <time>2020-10-19T10:52:41Z</time>
      </trkpt>
      <trkpt lat="46.11982" lon="4.54293">
        <ele>621.4</ele>
        <time>2020-10-19T10:52:42Z</time>
      </trkpt>
      <trkpt lat="46.11983" lon="4.54296">
        <ele>621</ele>
        <time>2020-10-19T10:52:43Z</time>
      </trkpt>
      <trkpt lat="46.11984" lon="4.54299">
        <ele>620</ele>
        <time>2020-10-19T10:52:44Z</time>
      </trkpt>
      <trkpt lat="46.11985" lon="4.54303">
        <ele>619.8</ele>
        <time>2020-10-19T10:52:45Z</time>
      </trkpt>
      <trkpt lat="46.11986" lon="4.54306">
        <ele>619</ele>
        <time>2020-10-19T10:52:46Z</time>
      </trkpt>
      <trkpt lat="46.11986" lon="4.54308">
        <ele>618.4</ele>
        <time>2020-10-19T10:52:47Z</time>
      </trkpt>
      <trkpt lat="46.11987" lon="4.54309">
        <ele>618.2</ele>
        <time>2020-10-19T10:52:48Z</time>
      </trkpt>
      <trkpt lat="46.11988" lon="4.54311">
        <ele>617.4</ele>
        <time>2020-10-19T10:52:49Z</time>
      </trkpt>
      <trkpt lat="46.11989" lon="4.54313">
        <ele>617.2</ele>
        <time>2020-10-19T10:52:50Z</time>
      </trkpt>
      <trkpt lat="46.11992" lon="4.54322">
        <ele>616.2</ele>
        <time>2020-10-19T10:52:51Z</time>
      </trkpt>
      <trkpt lat="46.11993" lon="4.54324">
        <ele>615.4</ele>
        <time>2020-10-19T10:52:52Z</time>
      </trkpt>
      <trkpt lat="46.11994" lon="4.54325">
        <ele>615.2</ele>
        <time>2020-10-19T10:52:53Z</time>
      </trkpt>
      <trkpt lat="46.11994" lon="4.54327">
        <ele>614.4</ele>
        <time>2020-10-19T10:52:54Z</time>
      </trkpt>
      <trkpt lat="46.11998" lon="4.54335">
        <ele>613.8</ele>
        <time>2020-10-19T10:52:55Z</time>
      </trkpt>
      <trkpt lat="46.11999" lon="4.54337">
        <ele>613.8</ele>
        <time>2020-10-19T10:52:56Z</time>
      </trkpt>
      <trkpt lat="46.12" lon="4.54339">
        <ele>613</ele>
        <time>2020-10-19T10:52:57Z</time>
      </trkpt>
      <trkpt lat="46.12001" lon="4.5434">
        <ele>612.6</ele>
        <time>2020-10-19T10:52:58Z</time>
      </trkpt>
      <trkpt lat="46.12005" lon="4.54348">
        <ele>612</ele>
        <time>2020-10-19T10:52:59Z</time>
      </trkpt>
      <trkpt lat="46.12006" lon="4.54349">
        <ele>611.2</ele>
        <time>2020-10-19T10:53:00Z</time>
      </trkpt>
      <trkpt lat="46.12007" lon="4.54351">
        <ele>610.4</ele>
        <time>2020-10-19T10:53:01Z</time>
      </trkpt>
      <trkpt lat="46.12008" lon="4.54352">
        <ele>609.8</ele>
        <time>2020-10-19T10:53:02Z</time>
      </trkpt>
      <trkpt lat="46.12014" lon="4.54359">
        <ele>609.8</ele>
        <time>2020-10-19T10:53:03Z</time>
      </trkpt>
      <trkpt lat="46.12017" lon="4.54361">
        <ele>609</ele>
        <time>2020-10-19T10:53:04Z</time>
      </trkpt>
      <trkpt lat="46.12019" lon="4.54362">
        <ele>608.4</ele>
        <time>2020-10-19T10:53:05Z</time>
      </trkpt>
      <trkpt lat="46.12021" lon="4.54362">
        <ele>608.2</ele>
        <time>2020-10-19T10:53:06Z</time>
      </trkpt>
      <trkpt lat="46.12024" lon="4.54363">
        <ele>607.6</ele>
        <time>2020-10-19T10:53:07Z</time>
      </trkpt>
      <trkpt lat="46.12026" lon="4.54364">
        <ele>607.2</ele>
        <time>2020-10-19T10:53:08Z</time>
      </trkpt>
      <trkpt lat="46.12028" lon="4.54363">
        <ele>607</ele>
        <time>2020-10-19T10:53:09Z</time>
      </trkpt>
      <trkpt lat="46.1203" lon="4.54363">
        <ele>606.2</ele>
        <time>2020-10-19T10:53:10Z</time>
      </trkpt>
      <trkpt lat="46.12032" lon="4.54363">
        <ele>605.8</ele>
        <time>2020-10-19T10:53:11Z</time>
      </trkpt>
      <trkpt lat="46.12034" lon="4.54363">
        <ele>605</ele>
        <time>2020-10-19T10:53:12Z</time>
      </trkpt>
      <trkpt lat="46.12036" lon="4.54362">
        <ele>604</ele>
        <time>2020-10-19T10:53:13Z</time>
      </trkpt>
      <trkpt lat="46.12037" lon="4.54362">
        <ele>603.8</ele>
        <time>2020-10-19T10:53:14Z</time>
      </trkpt>
      <trkpt lat="46.12038" lon="4.54362">
        <ele>603.2</ele>
        <time>2020-10-19T10:53:15Z</time>
      </trkpt>
      <trkpt lat="46.12039" lon="4.54362">
        <ele>602.6</ele>
        <time>2020-10-19T10:53:16Z</time>
      </trkpt>
      <trkpt lat="46.1204" lon="4.54362">
        <ele>602.6</ele>
        <time>2020-10-19T10:53:17Z</time>
      </trkpt>
      <trkpt lat="46.12041" lon="4.54362">
        <ele>601.8</ele>
        <time>2020-10-19T10:53:18Z</time>
      </trkpt>
      <trkpt lat="46.12048" lon="4.54361">
        <ele>601.4</ele>
        <time>2020-10-19T10:53:19Z</time>
      </trkpt>
      <trkpt lat="46.1205" lon="4.54361">
        <ele>600.8</ele>
        <time>2020-10-19T10:53:20Z</time>
      </trkpt>
      <trkpt lat="46.12052" lon="4.54361">
        <ele>600.4</ele>
        <time>2020-10-19T10:53:21Z</time>
      </trkpt>
      <trkpt lat="46.12053" lon="4.54361">
        <ele>600.2</ele>
        <time>2020-10-19T10:53:22Z</time>
      </trkpt>
      <trkpt lat="46.1206" lon="4.54361">
        <ele>599.4</ele>
        <time>2020-10-19T10:53:23Z</time>
      </trkpt>
      <trkpt lat="46.1206" lon="4.54361">
        <ele>598.8</ele>
        <time>2020-10-19T10:53:24Z</time>
      </trkpt>
      <trkpt lat="46.12062" lon="4.54362">
        <ele>598.4</ele>
        <time>2020-10-19T10:53:25Z</time>
      </trkpt>
      <trkpt lat="46.12065" lon="4.54361">
        <ele>597.8</ele>
        <time>2020-10-19T10:53:26Z</time>
      </trkpt>
      <trkpt lat="46.12067" lon="4.54361">
        <ele>597.6</ele>
        <time>2020-10-19T10:53:27Z</time>
      </trkpt>
      <trkpt lat="46.12069" lon="4.5436">
        <ele>596.8</ele>
        <time>2020-10-19T10:53:28Z</time>
      </trkpt>
      <trkpt lat="46.12071" lon="4.5436">
        <ele>596</ele>
        <time>2020-10-19T10:53:29Z</time>
      </trkpt>
      <trkpt lat="46.12074" lon="4.5436">
        <ele>596.2</ele>
        <time>2020-10-19T10:53:30Z</time>
      </trkpt>
      <trkpt lat="46.12076" lon="4.54359">
        <ele>595.6</ele>
        <time>2020-10-19T10:53:31Z</time>
      </trkpt>
      <trkpt lat="46.12077" lon="4.54359">
        <ele>594.8</ele>
        <time>2020-10-19T10:53:32Z</time>
      </trkpt>
      <trkpt lat="46.12078" lon="4.54359">
        <ele>594.8</ele>
        <time>2020-10-19T10:53:33Z</time>
      </trkpt>
      <trkpt lat="46.1208" lon="4.54358">
        <ele>594.4</ele>
        <time>2020-10-19T10:53:34Z</time>
      </trkpt>
      <trkpt lat="46.12081" lon="4.54358">
        <ele>593.8</ele>
        <time>2020-10-19T10:53:35Z</time>
      </trkpt>
      <trkpt lat="46.12087" lon="4.54356">
        <ele>593.6</ele>
        <time>2020-10-19T10:53:36Z</time>
      </trkpt>
      <trkpt lat="46.12089" lon="4.54356">
        <ele>593.2</ele>
        <time>2020-10-19T10:53:37Z</time>
      </trkpt>
      <trkpt lat="46.1209" lon="4.54356">
        <ele>592.8</ele>
        <time>2020-10-19T10:53:38Z</time>
      </trkpt>
      <trkpt lat="46.12091" lon="4.54356">
        <ele>592</ele>
        <time>2020-10-19T10:53:39Z</time>
      </trkpt>
      <trkpt lat="46.12093" lon="4.54356">
        <ele>591.6</ele>
        <time>2020-10-19T10:53:40Z</time>
      </trkpt>
      <trkpt lat="46.12094" lon="4.54356">
        <ele>591.2</ele>
        <time>2020-10-19T10:53:41Z</time>
      </trkpt>
      <trkpt lat="46.12096" lon="4.54356">
        <ele>590.6</ele>
        <time>2020-10-19T10:53:42Z</time>
      </trkpt>
      <trkpt lat="46.12097" lon="4.54357">
        <ele>590</ele>
        <time>2020-10-19T10:53:43Z</time>
      </trkpt>
      <trkpt lat="46.12098" lon="4.54358">
        <ele>589.6</ele>
        <time>2020-10-19T10:53:44Z</time>
      </trkpt>
      <trkpt lat="46.12099" lon="4.54359">
        <ele>589.2</ele>
        <time>2020-10-19T10:53:45Z</time>
      </trkpt>
      <trkpt lat="46.121" lon="4.5436">
        <ele>588.8</ele>
        <time>2020-10-19T10:53:46Z</time>
      </trkpt>
      <trkpt lat="46.121" lon="4.5436">
        <ele>588.8</ele>
        <time>2020-10-19T10:53:47Z</time>
      </trkpt>
      <trkpt lat="46.121" lon="4.54364">
        <ele>588.2</ele>
        <time>2020-10-19T10:53:48Z</time>
      </trkpt>
      <trkpt lat="46.12099" lon="4.54366">
        <ele>588</ele>
        <time>2020-10-19T10:53:49Z</time>
      </trkpt>
      <trkpt lat="46.12098" lon="4.54369">
        <ele>587.4</ele>
        <time>2020-10-19T10:53:50Z</time>
      </trkpt>
      <trkpt lat="46.12094" lon="4.54373">
        <ele>587.4</ele>
        <time>2020-10-19T10:53:51Z</time>
      </trkpt>
      <trkpt lat="46.12093" lon="4.54374">
        <ele>587</ele>
        <time>2020-10-19T10:53:52Z</time>
      </trkpt>
      <trkpt lat="46.12093" lon="4.54376">
        <ele>586.4</ele>
        <time>2020-10-19T10:53:53Z</time>
      </trkpt>
      <trkpt lat="46.12092" lon="4.54377">
        <ele>586.2</ele>
        <time>2020-10-19T10:53:54Z</time>
      </trkpt>
      <trkpt lat="46.12091" lon="4.54379">
        <ele>585.4</ele>
        <time>2020-10-19T10:53:55Z</time>
      </trkpt>
      <trkpt lat="46.12091" lon="4.54381">
        <ele>585</ele>
        <time>2020-10-19T10:53:56Z</time>
      </trkpt>
      <trkpt lat="46.1209" lon="4.54382">
        <ele>584.4</ele>
        <time>2020-10-19T10:53:57Z</time>
      </trkpt>
      <trkpt lat="46.12087" lon="4.5439">
        <ele>583.6</ele>
        <time>2020-10-19T10:53:58Z</time>
      </trkpt>
      <trkpt lat="46.12086" lon="4.54393">
        <ele>583</ele>
        <time>2020-10-19T10:53:59Z</time>
      </trkpt>
      <trkpt lat="46.12084" lon="4.54396">
        <ele>582.4</ele>
        <time>2020-10-19T10:54:00Z</time>
      </trkpt>
      <trkpt lat="46.12083" lon="4.54398">
        <ele>582</ele>
        <time>2020-10-19T10:54:01Z</time>
      </trkpt>
      <trkpt lat="46.12082" lon="4.54401">
        <ele>581.4</ele>
        <time>2020-10-19T10:54:02Z</time>
      </trkpt>
      <trkpt lat="46.12081" lon="4.54404">
        <ele>580.8</ele>
        <time>2020-10-19T10:54:03Z</time>
      </trkpt>
      <trkpt lat="46.1208" lon="4.54407">
        <ele>580</ele>
        <time>2020-10-19T10:54:04Z</time>
      </trkpt>
      <trkpt lat="46.12078" lon="4.54411">
        <ele>579.2</ele>
        <time>2020-10-19T10:54:05Z</time>
      </trkpt>
      <trkpt lat="46.12077" lon="4.54414">
        <ele>578.6</ele>
        <time>2020-10-19T10:54:06Z</time>
      </trkpt>
      <trkpt lat="46.12075" lon="4.54418">
        <ele>577.8</ele>
        <time>2020-10-19T10:54:07Z</time>
      </trkpt>
      <trkpt lat="46.12073" lon="4.54421">
        <ele>577.2</ele>
        <time>2020-10-19T10:54:08Z</time>
      </trkpt>
      <trkpt lat="46.12072" lon="4.54425">
        <ele>576.4</ele>
        <time>2020-10-19T10:54:09Z</time>
      </trkpt>
      <trkpt lat="46.12071" lon="4.54428">
        <ele>576</ele>
        <time>2020-10-19T10:54:10Z</time>
      </trkpt>
      <trkpt lat="46.12069" lon="4.54431">
        <ele>575.2</ele>
        <time>2020-10-19T10:54:11Z</time>
      </trkpt>
      <trkpt lat="46.12068" lon="4.54435">
        <ele>574.6</ele>
        <time>2020-10-19T10:54:12Z</time>
      </trkpt>
      <trkpt lat="46.12066" lon="4.54438">
        <ele>574</ele>
        <time>2020-10-19T10:54:13Z</time>
      </trkpt>
      <trkpt lat="46.12064" lon="4.54441">
        <ele>573.2</ele>
        <time>2020-10-19T10:54:14Z</time>
      </trkpt>
      <trkpt lat="46.12063" lon="4.54444">
        <ele>572.6</ele>
        <time>2020-10-19T10:54:15Z</time>
      </trkpt>
      <trkpt lat="46.12061" lon="4.54447">
        <ele>571.6</ele>
        <time>2020-10-19T10:54:16Z</time>
      </trkpt>
      <trkpt lat="46.1206" lon="4.54451">
        <ele>571.2</ele>
        <time>2020-10-19T10:54:17Z</time>
      </trkpt>
      <trkpt lat="46.12058" lon="4.54455">
        <ele>570.2</ele>
        <time>2020-10-19T10:54:18Z</time>
      </trkpt>
      <trkpt lat="46.12056" lon="4.54459">
        <ele>569.8</ele>
        <time>2020-10-19T10:54:19Z</time>
      </trkpt>
      <trkpt lat="46.12053" lon="4.54463">
        <ele>569</ele>
        <time>2020-10-19T10:54:20Z</time>
      </trkpt>
      <trkpt lat="46.12051" lon="4.54467">
        <ele>567.8</ele>
        <time>2020-10-19T10:54:21Z</time>
      </trkpt>
      <trkpt lat="46.12049" lon="4.54471">
        <ele>567.8</ele>
        <time>2020-10-19T10:54:22Z</time>
      </trkpt>
      <trkpt lat="46.12047" lon="4.54474">
        <ele>566.8</ele>
        <time>2020-10-19T10:54:23Z</time>
      </trkpt>
      <trkpt lat="46.12045" lon="4.54478">
        <ele>566</ele>
        <time>2020-10-19T10:54:24Z</time>
      </trkpt>
      <trkpt lat="46.12042" lon="4.54481">
        <ele>566</ele>
        <time>2020-10-19T10:54:25Z</time>
      </trkpt>
      <trkpt lat="46.1204" lon="4.54484">
        <ele>565.4</ele>
        <time>2020-10-19T10:54:26Z</time>
      </trkpt>
      <trkpt lat="46.12038" lon="4.54487">
        <ele>565</ele>
        <time>2020-10-19T10:54:27Z</time>
      </trkpt>
      <trkpt lat="46.12036" lon="4.54491">
        <ele>564.8</ele>
        <time>2020-10-19T10:54:28Z</time>
      </trkpt>
      <trkpt lat="46.12034" lon="4.54494">
        <ele>564.2</ele>
        <time>2020-10-19T10:54:29Z</time>
      </trkpt>
      <trkpt lat="46.12032" lon="4.54497">
        <ele>563.8</ele>
        <time>2020-10-19T10:54:30Z</time>
      </trkpt>
      <trkpt lat="46.12031" lon="4.545">
        <ele>563.6</ele>
        <time>2020-10-19T10:54:31Z</time>
      </trkpt>
      <trkpt lat="46.12029" lon="4.54503">
        <ele>563.2</ele>
        <time>2020-10-19T10:54:32Z</time>
      </trkpt>
      <trkpt lat="46.12028" lon="4.54507">
        <ele>562.6</ele>
        <time>2020-10-19T10:54:33Z</time>
      </trkpt>
      <trkpt lat="46.12025" lon="4.5451">
        <ele>562.4</ele>
        <time>2020-10-19T10:54:34Z</time>
      </trkpt>
      <trkpt lat="46.12023" lon="4.54513">
        <ele>562</ele>
        <time>2020-10-19T10:54:35Z</time>
      </trkpt>
      <trkpt lat="46.12021" lon="4.54516">
        <ele>561.6</ele>
        <time>2020-10-19T10:54:36Z</time>
      </trkpt>
      <trkpt lat="46.1202" lon="4.54519">
        <ele>561.8</ele>
        <time>2020-10-19T10:54:37Z</time>
      </trkpt>
      <trkpt lat="46.12017" lon="4.54522">
        <ele>561.4</ele>
        <time>2020-10-19T10:54:38Z</time>
      </trkpt>
      <trkpt lat="46.12016" lon="4.54524">
        <ele>561</ele>
        <time>2020-10-19T10:54:39Z</time>
      </trkpt>
      <trkpt lat="46.12014" lon="4.54526">
        <ele>561.4</ele>
        <time>2020-10-19T10:54:40Z</time>
      </trkpt>
      <trkpt lat="46.12012" lon="4.54529">
        <ele>561.2</ele>
        <time>2020-10-19T10:54:41Z</time>
      </trkpt>
      <trkpt lat="46.1201" lon="4.54531">
        <ele>561</ele>
        <time>2020-10-19T10:54:42Z</time>
      </trkpt>
      <trkpt lat="46.12009" lon="4.54534">
        <ele>561</ele>
        <time>2020-10-19T10:54:43Z</time>
      </trkpt>
      <trkpt lat="46.12007" lon="4.54536">
        <ele>560.8</ele>
        <time>2020-10-19T10:54:44Z</time>
      </trkpt>
      <trkpt lat="46.12005" lon="4.54539">
        <ele>560.6</ele>
        <time>2020-10-19T10:54:45Z</time>
      </trkpt>
      <trkpt lat="46.12004" lon="4.54542">
        <ele>560.6</ele>
        <time>2020-10-19T10:54:46Z</time>
      </trkpt>
      <trkpt lat="46.12002" lon="4.54544">
        <ele>560.6</ele>
        <time>2020-10-19T10:54:47Z</time>
      </trkpt>
      <trkpt lat="46.12" lon="4.54547">
        <ele>560.2</ele>
        <time>2020-10-19T10:54:48Z</time>
      </trkpt>
      <trkpt lat="46.11998" lon="4.5455">
        <ele>560.2</ele>
        <time>2020-10-19T10:54:49Z</time>
      </trkpt>
      <trkpt lat="46.11996" lon="4.54554">
        <ele>560.2</ele>
        <time>2020-10-19T10:54:50Z</time>
      </trkpt>
      <trkpt lat="46.11995" lon="4.54558">
        <ele>559.8</ele>
        <time>2020-10-19T10:54:51Z</time>
      </trkpt>
      <trkpt lat="46.11995" lon="4.54562">
        <ele>559.8</ele>
        <time>2020-10-19T10:54:52Z</time>
      </trkpt>
      <trkpt lat="46.11994" lon="4.54564">
        <ele>559.6</ele>
        <time>2020-10-19T10:54:53Z</time>
      </trkpt>
      <trkpt lat="46.11994" lon="4.54568">
        <ele>559.2</ele>
        <time>2020-10-19T10:54:54Z</time>
      </trkpt>
      <trkpt lat="46.11994" lon="4.54571">
        <ele>559</ele>
        <time>2020-10-19T10:54:55Z</time>
      </trkpt>
      <trkpt lat="46.11995" lon="4.54574">
        <ele>559</ele>
        <time>2020-10-19T10:54:56Z</time>
      </trkpt>
      <trkpt lat="46.11995" lon="4.54577">
        <ele>558.4</ele>
        <time>2020-10-19T10:54:57Z</time>
      </trkpt>
      <trkpt lat="46.11996" lon="4.5458">
        <ele>558.2</ele>
        <time>2020-10-19T10:54:58Z</time>
      </trkpt>
      <trkpt lat="46.11996" lon="4.54584">
        <ele>558.2</ele>
        <time>2020-10-19T10:54:59Z</time>
      </trkpt>
      <trkpt lat="46.11997" lon="4.54586">
        <ele>557.8</ele>
        <time>2020-10-19T10:55:00Z</time>
      </trkpt>
      <trkpt lat="46.11998" lon="4.54589">
        <ele>557.6</ele>
        <time>2020-10-19T10:55:01Z</time>
      </trkpt>
      <trkpt lat="46.11998" lon="4.54589">
        <ele>557.8</ele>
        <time>2020-10-19T10:55:02Z</time>
      </trkpt>
      <trkpt lat="46.11998" lon="4.54594">
        <ele>557.6</ele>
        <time>2020-10-19T10:55:03Z</time>
      </trkpt>
      <trkpt lat="46.11999" lon="4.54597">
        <ele>557.4</ele>
        <time>2020-10-19T10:55:04Z</time>
      </trkpt>
      <trkpt lat="46.11998" lon="4.54599">
        <ele>557.8</ele>
        <time>2020-10-19T10:55:05Z</time>
      </trkpt>
      <trkpt lat="46.11998" lon="4.546">
        <ele>557.8</ele>
        <time>2020-10-19T10:55:06Z</time>
      </trkpt>
      <trkpt lat="46.11998" lon="4.54602">
        <ele>557.6</ele>
        <time>2020-10-19T10:55:07Z</time>
      </trkpt>
      <trkpt lat="46.11998" lon="4.54603">
        <ele>558.2</ele>
        <time>2020-10-19T10:55:08Z</time>
      </trkpt>
      <trkpt lat="46.11998" lon="4.54605">
        <ele>558</ele>
        <time>2020-10-19T10:55:09Z</time>
      </trkpt>
      <trkpt lat="46.11997" lon="4.54615">
        <ele>558.2</ele>
        <time>2020-10-19T10:55:10Z</time>
      </trkpt>
      <trkpt lat="46.11997" lon="4.54618">
        <ele>558.4</ele>
        <time>2020-10-19T10:55:11Z</time>
      </trkpt>
      <trkpt lat="46.11996" lon="4.5462">
        <ele>558.2</ele>
        <time>2020-10-19T10:55:12Z</time>
      </trkpt>
      <trkpt lat="46.11996" lon="4.54623">
        <ele>558</ele>
        <time>2020-10-19T10:55:13Z</time>
      </trkpt>
      <trkpt lat="46.11995" lon="4.54632">
        <ele>558.2</ele>
        <time>2020-10-19T10:55:14Z</time>
      </trkpt>
      <trkpt lat="46.11995" lon="4.54636">
        <ele>558</ele>
        <time>2020-10-19T10:55:15Z</time>
      </trkpt>
      <trkpt lat="46.11994" lon="4.5464">
        <ele>557.6</ele>
        <time>2020-10-19T10:55:16Z</time>
      </trkpt>
      <trkpt lat="46.11994" lon="4.54644">
        <ele>557.8</ele>
        <time>2020-10-19T10:55:17Z</time>
      </trkpt>
      <trkpt lat="46.11993" lon="4.54648">
        <ele>557.6</ele>
        <time>2020-10-19T10:55:18Z</time>
      </trkpt>
      <trkpt lat="46.11993" lon="4.54651">
        <ele>557.2</ele>
        <time>2020-10-19T10:55:19Z</time>
      </trkpt>
      <trkpt lat="46.11993" lon="4.54651">
        <ele>557.2</ele>
        <time>2020-10-19T10:55:20Z</time>
      </trkpt>
      <trkpt lat="46.11994" lon="4.54655">
        <ele>557</ele>
        <time>2020-10-19T10:55:21Z</time>
      </trkpt>
      <trkpt lat="46.11994" lon="4.54655">
        <ele>557</ele>
        <time>2020-10-19T10:55:22Z</time>
      </trkpt>
      <trkpt lat="46.11995" lon="4.54659">
        <ele>557</ele>
        <time>2020-10-19T10:55:23Z</time>
      </trkpt>
      <trkpt lat="46.11996" lon="4.54662">
        <ele>556.8</ele>
        <time>2020-10-19T10:55:24Z</time>
      </trkpt>
      <trkpt lat="46.11997" lon="4.54665">
        <ele>557</ele>
        <time>2020-10-19T10:55:25Z</time>
      </trkpt>
      <trkpt lat="46.11998" lon="4.54668">
        <ele>556.8</ele>
        <time>2020-10-19T10:55:26Z</time>
      </trkpt>
      <trkpt lat="46.11999" lon="4.5467">
        <ele>556.6</ele>
        <time>2020-10-19T10:55:27Z</time>
      </trkpt>
      <trkpt lat="46.12" lon="4.54673">
        <ele>556.8</ele>
        <time>2020-10-19T10:55:28Z</time>
      </trkpt>
      <trkpt lat="46.12001" lon="4.54676">
        <ele>556.8</ele>
        <time>2020-10-19T10:55:29Z</time>
      </trkpt>
      <trkpt lat="46.12001" lon="4.5468">
        <ele>556.6</ele>
        <time>2020-10-19T10:55:30Z</time>
      </trkpt>
      <trkpt lat="46.12002" lon="4.54683">
        <ele>556.8</ele>
        <time>2020-10-19T10:55:31Z</time>
      </trkpt>
      <trkpt lat="46.12003" lon="4.54687">
        <ele>556.6</ele>
        <time>2020-10-19T10:55:32Z</time>
      </trkpt>
      <trkpt lat="46.12004" lon="4.54691">
        <ele>556.2</ele>
        <time>2020-10-19T10:55:33Z</time>
      </trkpt>
      <trkpt lat="46.12005" lon="4.54694">
        <ele>556.4</ele>
        <time>2020-10-19T10:55:34Z</time>
      </trkpt>
      <trkpt lat="46.12006" lon="4.54698">
        <ele>556</ele>
        <time>2020-10-19T10:55:35Z</time>
      </trkpt>
      <trkpt lat="46.12007" lon="4.54701">
        <ele>556</ele>
        <time>2020-10-19T10:55:36Z</time>
      </trkpt>
      <trkpt lat="46.12008" lon="4.54704">
        <ele>556.4</ele>
        <time>2020-10-19T10:55:37Z</time>
      </trkpt>
      <trkpt lat="46.12009" lon="4.54706">
        <ele>556.4</ele>
        <time>2020-10-19T10:55:38Z</time>
      </trkpt>
      <trkpt lat="46.1201" lon="4.54709">
        <ele>556.2</ele>
        <time>2020-10-19T10:55:39Z</time>
      </trkpt>
      <trkpt lat="46.12012" lon="4.54711">
        <ele>556.4</ele>
        <time>2020-10-19T10:55:40Z</time>
      </trkpt>
      <trkpt lat="46.12013" lon="4.54713">
        <ele>556.4</ele>
        <time>2020-10-19T10:55:41Z</time>
      </trkpt>
      <trkpt lat="46.12014" lon="4.54716">
        <ele>556.2</ele>
        <time>2020-10-19T10:55:42Z</time>
      </trkpt>
      <trkpt lat="46.12015" lon="4.54718">
        <ele>556.6</ele>
        <time>2020-10-19T10:55:43Z</time>
      </trkpt>
      <trkpt lat="46.12016" lon="4.54721">
        <ele>556.6</ele>
        <time>2020-10-19T10:55:44Z</time>
      </trkpt>
      <trkpt lat="46.12017" lon="4.54724">
        <ele>556.2</ele>
        <time>2020-10-19T10:55:45Z</time>
      </trkpt>
      <trkpt lat="46.12019" lon="4.54726">
        <ele>556.6</ele>
        <time>2020-10-19T10:55:46Z</time>
      </trkpt>
      <trkpt lat="46.1202" lon="4.54729">
        <ele>556.8</ele>
        <time>2020-10-19T10:55:47Z</time>
      </trkpt>
      <trkpt lat="46.12022" lon="4.54732">
        <ele>556.4</ele>
        <time>2020-10-19T10:55:48Z</time>
      </trkpt>
      <trkpt lat="46.12023" lon="4.54735">
        <ele>556.4</ele>
        <time>2020-10-19T10:55:49Z</time>
      </trkpt>
      <trkpt lat="46.12024" lon="4.54738">
        <ele>556.4</ele>
        <time>2020-10-19T10:55:50Z</time>
      </trkpt>
      <trkpt lat="46.12026" lon="4.54741">
        <ele>556</ele>
        <time>2020-10-19T10:55:51Z</time>
      </trkpt>
      <trkpt lat="46.12027" lon="4.54744">
        <ele>555.6</ele>
        <time>2020-10-19T10:55:52Z</time>
      </trkpt>
      <trkpt lat="46.12029" lon="4.54746">
        <ele>555.6</ele>
        <time>2020-10-19T10:55:53Z</time>
      </trkpt>
      <trkpt lat="46.1203" lon="4.54749">
        <ele>555.2</ele>
        <time>2020-10-19T10:55:54Z</time>
      </trkpt>
      <trkpt lat="46.12032" lon="4.54752">
        <ele>554.6</ele>
        <time>2020-10-19T10:55:55Z</time>
      </trkpt>
      <trkpt lat="46.12034" lon="4.54755">
        <ele>555</ele>
        <time>2020-10-19T10:55:56Z</time>
      </trkpt>
      <trkpt lat="46.12036" lon="4.54758">
        <ele>554.8</ele>
        <time>2020-10-19T10:55:57Z</time>
      </trkpt>
      <trkpt lat="46.12038" lon="4.54761">
        <ele>554.2</ele>
        <time>2020-10-19T10:55:58Z</time>
      </trkpt>
      <trkpt lat="46.1204" lon="4.54764">
        <ele>554.4</ele>
        <time>2020-10-19T10:55:59Z</time>
      </trkpt>
      <trkpt lat="46.12042" lon="4.54767">
        <ele>554.2</ele>
        <time>2020-10-19T10:56:00Z</time>
      </trkpt>
      <trkpt lat="46.12043" lon="4.54771">
        <ele>553.6</ele>
        <time>2020-10-19T10:56:01Z</time>
      </trkpt>
      <trkpt lat="46.12044" lon="4.54774">
        <ele>554</ele>
        <time>2020-10-19T10:56:02Z</time>
      </trkpt>
      <trkpt lat="46.12045" lon="4.54778">
        <ele>553.8</ele>
        <time>2020-10-19T10:56:03Z</time>
      </trkpt>
      <trkpt lat="46.12045" lon="4.54782">
        <ele>553.4</ele>
        <time>2020-10-19T10:56:04Z</time>
      </trkpt>
      <trkpt lat="46.12046" lon="4.54785">
        <ele>553.4</ele>
        <time>2020-10-19T10:56:05Z</time>
      </trkpt>
      <trkpt lat="46.12046" lon="4.54788">
        <ele>553.4</ele>
        <time>2020-10-19T10:56:06Z</time>
      </trkpt>
      <trkpt lat="46.12047" lon="4.54791">
        <ele>552.6</ele>
        <time>2020-10-19T10:56:07Z</time>
      </trkpt>
      <trkpt lat="46.12048" lon="4.54794">
        <ele>552.6</ele>
        <time>2020-10-19T10:56:08Z</time>
      </trkpt>
      <trkpt lat="46.12049" lon="4.54796">
        <ele>552.2</ele>
        <time>2020-10-19T10:56:09Z</time>
      </trkpt>
      <trkpt lat="46.1205" lon="4.54799">
        <ele>551.8</ele>
        <time>2020-10-19T10:56:10Z</time>
      </trkpt>
      <trkpt lat="46.12051" lon="4.54803">
        <ele>551.6</ele>
        <time>2020-10-19T10:56:11Z</time>
      </trkpt>
      <trkpt lat="46.12052" lon="4.54806">
        <ele>550.8</ele>
        <time>2020-10-19T10:56:12Z</time>
      </trkpt>
      <trkpt lat="46.12053" lon="4.54809">
        <ele>550.6</ele>
        <time>2020-10-19T10:56:13Z</time>
      </trkpt>
      <trkpt lat="46.12055" lon="4.54811">
        <ele>550</ele>
        <time>2020-10-19T10:56:14Z</time>
      </trkpt>
      <trkpt lat="46.12055" lon="4.54813">
        <ele>549.4</ele>
        <time>2020-10-19T10:56:15Z</time>
      </trkpt>
      <trkpt lat="46.12055" lon="4.54815">
        <ele>549</ele>
        <time>2020-10-19T10:56:16Z</time>
      </trkpt>
      <trkpt lat="46.12055" lon="4.54817">
        <ele>548.4</ele>
        <time>2020-10-19T10:56:17Z</time>
      </trkpt>
      <trkpt lat="46.12055" lon="4.54819">
        <ele>547.8</ele>
        <time>2020-10-19T10:56:18Z</time>
      </trkpt>
      <trkpt lat="46.12056" lon="4.54821">
        <ele>547.4</ele>
        <time>2020-10-19T10:56:19Z</time>
      </trkpt>
      <trkpt lat="46.12057" lon="4.54831">
        <ele>547</ele>
        <time>2020-10-19T10:56:20Z</time>
      </trkpt>
      <trkpt lat="46.12057" lon="4.54835">
        <ele>546</ele>
        <time>2020-10-19T10:56:21Z</time>
      </trkpt>
      <trkpt lat="46.12056" lon="4.54839">
        <ele>545.2</ele>
        <time>2020-10-19T10:56:22Z</time>
      </trkpt>
      <trkpt lat="46.12056" lon="4.54842">
        <ele>544.8</ele>
        <time>2020-10-19T10:56:23Z</time>
      </trkpt>
      <trkpt lat="46.12056" lon="4.54846">
        <ele>544.4</ele>
        <time>2020-10-19T10:56:24Z</time>
      </trkpt>
      <trkpt lat="46.12057" lon="4.54849">
        <ele>544</ele>
        <time>2020-10-19T10:56:25Z</time>
      </trkpt>
      <trkpt lat="46.12057" lon="4.54853">
        <ele>543.4</ele>
        <time>2020-10-19T10:56:26Z</time>
      </trkpt>
      <trkpt lat="46.12058" lon="4.54857">
        <ele>542.8</ele>
        <time>2020-10-19T10:56:27Z</time>
      </trkpt>
      <trkpt lat="46.12058" lon="4.5486">
        <ele>542.4</ele>
        <time>2020-10-19T10:56:28Z</time>
      </trkpt>
      <trkpt lat="46.12059" lon="4.54863">
        <ele>541.8</ele>
        <time>2020-10-19T10:56:29Z</time>
      </trkpt>
      <trkpt lat="46.12059" lon="4.54866">
        <ele>541</ele>
        <time>2020-10-19T10:56:30Z</time>
      </trkpt>
      <trkpt lat="46.12059" lon="4.5487">
        <ele>540.8</ele>
        <time>2020-10-19T10:56:31Z</time>
      </trkpt>
      <trkpt lat="46.1206" lon="4.54874">
        <ele>540</ele>
        <time>2020-10-19T10:56:32Z</time>
      </trkpt>
      <trkpt lat="46.12059" lon="4.54878">
        <ele>539.6</ele>
        <time>2020-10-19T10:56:33Z</time>
      </trkpt>
      <trkpt lat="46.12059" lon="4.54883">
        <ele>539.4</ele>
        <time>2020-10-19T10:56:34Z</time>
      </trkpt>
      <trkpt lat="46.12058" lon="4.54887">
        <ele>538.6</ele>
        <time>2020-10-19T10:56:35Z</time>
      </trkpt>
      <trkpt lat="46.12058" lon="4.5489">
        <ele>538.2</ele>
        <time>2020-10-19T10:56:36Z</time>
      </trkpt>
      <trkpt lat="46.12057" lon="4.54894">
        <ele>537.8</ele>
        <time>2020-10-19T10:56:37Z</time>
      </trkpt>
      <trkpt lat="46.12057" lon="4.54897">
        <ele>537.4</ele>
        <time>2020-10-19T10:56:38Z</time>
      </trkpt>
      <trkpt lat="46.12057" lon="4.54897">
        <ele>537.2</ele>
        <time>2020-10-19T10:56:39Z</time>
      </trkpt>
      <trkpt lat="46.12057" lon="4.54897">
        <ele>537</ele>
        <time>2020-10-19T10:56:40Z</time>
      </trkpt>
      <trkpt lat="46.12057" lon="4.549">
        <ele>537</ele>
        <time>2020-10-19T10:56:41Z</time>
      </trkpt>
      <trkpt lat="46.12057" lon="4.549">
        <ele>536.8</ele>
        <time>2020-10-19T10:56:42Z</time>
      </trkpt>
      <trkpt lat="46.12055" lon="4.54903">
        <ele>536.4</ele>
        <time>2020-10-19T10:56:43Z</time>
      </trkpt>
      <trkpt lat="46.12055" lon="4.54903">
        <ele>536.2</ele>
        <time>2020-10-19T10:56:44Z</time>
      </trkpt>
      <trkpt lat="46.12056" lon="4.54906">
        <ele>536</ele>
        <time>2020-10-19T10:56:45Z</time>
      </trkpt>
      <trkpt lat="46.12056" lon="4.54906">
        <ele>535.8</ele>
        <time>2020-10-19T10:56:46Z</time>
      </trkpt>
      <trkpt lat="46.12056" lon="4.54906">
        <ele>535.6</ele>
        <time>2020-10-19T10:56:47Z</time>
      </trkpt>
      <trkpt lat="46.12056" lon="4.54906">
        <ele>535.4</ele>
        <time>2020-10-19T10:56:48Z</time>
      </trkpt>
      <trkpt lat="46.12056" lon="4.54906">
        <ele>535.2</ele>
        <time>2020-10-19T10:56:49Z</time>
      </trkpt>
      <trkpt lat="46.12056" lon="4.54906">
        <ele>535.2</ele>
        <time>2020-10-19T10:56:50Z</time>
      </trkpt>
      <trkpt lat="46.12055" lon="4.54909">
        <ele>535.2</ele>
        <time>2020-10-19T10:56:51Z</time>
      </trkpt>
      <trkpt lat="46.12055" lon="4.54909">
        <ele>535.2</ele>
        <time>2020-10-19T10:56:52Z</time>
      </trkpt>
      <trkpt lat="46.12055" lon="4.54913">
        <ele>535.2</ele>
        <time>2020-10-19T10:56:53Z</time>
      </trkpt>
      <trkpt lat="46.12055" lon="4.54913">
        <ele>535.2</ele>
        <time>2020-10-19T10:56:54Z</time>
      </trkpt>
      <trkpt lat="46.12056" lon="4.54916">
        <ele>535.2</ele>
        <time>2020-10-19T10:56:55Z</time>
      </trkpt>
      <trkpt lat="46.12056" lon="4.54916">
        <ele>535</ele>
        <time>2020-10-19T10:56:56Z</time>
      </trkpt>
      <trkpt lat="46.12057" lon="4.54919">
        <ele>535</ele>
        <time>2020-10-19T10:56:57Z</time>
      </trkpt>
      <trkpt lat="46.12057" lon="4.54919">
        <ele>534.4</ele>
        <time>2020-10-19T10:56:58Z</time>
      </trkpt>
      <trkpt lat="46.12058" lon="4.54923">
        <ele>534.2</ele>
        <time>2020-10-19T10:56:59Z</time>
      </trkpt>
      <trkpt lat="46.12059" lon="4.54925">
        <ele>534.2</ele>
        <time>2020-10-19T10:57:00Z</time>
      </trkpt>
      <trkpt lat="46.1206" lon="4.54928">
        <ele>533.8</ele>
        <time>2020-10-19T10:57:01Z</time>
      </trkpt>
      <trkpt lat="46.12061" lon="4.5493">
        <ele>533.6</ele>
        <time>2020-10-19T10:57:02Z</time>
      </trkpt>
      <trkpt lat="46.12062" lon="4.54932">
        <ele>533.6</ele>
        <time>2020-10-19T10:57:03Z</time>
      </trkpt>
      <trkpt lat="46.12062" lon="4.54932">
        <ele>533.8</ele>
        <time>2020-10-19T10:57:04Z</time>
      </trkpt>
      <trkpt lat="46.12063" lon="4.54937">
        <ele>533.6</ele>
        <time>2020-10-19T10:57:05Z</time>
      </trkpt>
      <trkpt lat="46.12063" lon="4.54937">
        <ele>533.4</ele>
        <time>2020-10-19T10:57:06Z</time>
      </trkpt>
      <trkpt lat="46.12063" lon="4.54941">
        <ele>533.2</ele>
        <time>2020-10-19T10:57:07Z</time>
      </trkpt>
      <trkpt lat="46.12063" lon="4.54941">
        <ele>532.8</ele>
        <time>2020-10-19T10:57:08Z</time>
      </trkpt>
      <trkpt lat="46.12062" lon="4.54946">
        <ele>532.6</ele>
        <time>2020-10-19T10:57:09Z</time>
      </trkpt>
      <trkpt lat="46.12062" lon="4.54946">
        <ele>532.6</ele>
        <time>2020-10-19T10:57:10Z</time>
      </trkpt>
      <trkpt lat="46.12062" lon="4.5495">
        <ele>532.4</ele>
        <time>2020-10-19T10:57:11Z</time>
      </trkpt>
      <trkpt lat="46.12062" lon="4.5495">
        <ele>532.6</ele>
        <time>2020-10-19T10:57:12Z</time>
      </trkpt>
      <trkpt lat="46.1206" lon="4.54953">
        <ele>532.6</ele>
        <time>2020-10-19T10:57:13Z</time>
      </trkpt>
      <trkpt lat="46.1206" lon="4.54953">
        <ele>532.6</ele>
        <time>2020-10-19T10:57:14Z</time>
      </trkpt>
      <trkpt lat="46.1206" lon="4.54953">
        <ele>532.6</ele>
        <time>2020-10-19T10:57:15Z</time>
      </trkpt>
      <trkpt lat="46.1206" lon="4.54953">
        <ele>532.6</ele>
        <time>2020-10-19T10:57:16Z</time>
      </trkpt>
      <trkpt lat="46.1206" lon="4.54953">
        <ele>532.6</ele>
        <time>2020-10-19T10:57:17Z</time>
      </trkpt>
      <trkpt lat="46.1206" lon="4.54953">
        <ele>532.6</ele>
        <time>2020-10-19T10:57:18Z</time>
      </trkpt>
      <trkpt lat="46.1206" lon="4.54953">
        <ele>532.6</ele>
        <time>2020-10-19T10:57:19Z</time>
      </trkpt>
      <trkpt lat="46.1206" lon="4.54953">
        <ele>532.8</ele>
        <time>2020-10-19T10:57:20Z</time>
      </trkpt>
      <trkpt lat="46.1206" lon="4.54953">
        <ele>532.6</ele>
        <time>2020-10-19T10:57:21Z</time>
      </trkpt>
      <trkpt lat="46.1206" lon="4.54953">
        <ele>533</ele>
        <time>2020-10-19T10:57:22Z</time>
      </trkpt>
      <trkpt lat="46.1206" lon="4.54953">
        <ele>532.8</ele>
        <time>2020-10-19T10:57:23Z</time>
      </trkpt>
      <trkpt lat="46.1206" lon="4.54953">
        <ele>532.8</ele>
        <time>2020-10-19T10:57:24Z</time>
      </trkpt>
      <trkpt lat="46.1206" lon="4.54953">
        <ele>532.8</ele>
        <time>2020-10-19T10:57:25Z</time>
      </trkpt>
      <trkpt lat="46.1206" lon="4.54953">
        <ele>532.8</ele>
        <time>2020-10-19T10:57:26Z</time>
      </trkpt>
      <trkpt lat="46.1206" lon="4.54953">
        <ele>532.8</ele>
        <time>2020-10-19T10:57:27Z</time>
      </trkpt>
      <trkpt lat="46.1206" lon="4.54953">
        <ele>533</ele>
        <time>2020-10-19T10:57:28Z</time>
      </trkpt>
      <trkpt lat="46.1206" lon="4.54953">
        <ele>532.8</ele>
        <time>2020-10-19T10:57:29Z</time>
      </trkpt>
      <trkpt lat="46.1206" lon="4.54953">
        <ele>532.4</ele>
        <time>2020-10-19T10:57:30Z</time>
      </trkpt>
      <trkpt lat="46.1206" lon="4.54953">
        <ele>532.2</ele>
        <time>2020-10-19T10:57:31Z</time>
      </trkpt>
      <trkpt lat="46.1206" lon="4.54953">
        <ele>532.2</ele>
        <time>2020-10-19T10:57:32Z</time>
      </trkpt>
      <trkpt lat="46.1206" lon="4.54953">
        <ele>532</ele>
        <time>2020-10-19T10:57:33Z</time>
      </trkpt>
      <trkpt lat="46.1206" lon="4.54953">
        <ele>532</ele>
        <time>2020-10-19T10:57:34Z</time>
      </trkpt>
      <trkpt lat="46.1206" lon="4.54953">
        <ele>532</ele>
        <time>2020-10-19T10:57:35Z</time>
      </trkpt>
      <trkpt lat="46.1206" lon="4.54953">
        <ele>532</ele>
        <time>2020-10-19T10:57:36Z</time>
      </trkpt>
      <trkpt lat="46.1206" lon="4.54953">
        <ele>532</ele>
        <time>2020-10-19T10:57:37Z</time>
      </trkpt>
      <trkpt lat="46.1206" lon="4.54953">
        <ele>531.8</ele>
        <time>2020-10-19T10:57:38Z</time>
      </trkpt>
      <trkpt lat="46.1206" lon="4.54953">
        <ele>531.8</ele>
        <time>2020-10-19T10:57:39Z</time>
      </trkpt>
      <trkpt lat="46.1206" lon="4.54953">
        <ele>531.8</ele>
        <time>2020-10-19T10:57:40Z</time>
      </trkpt>
      <trkpt lat="46.1206" lon="4.54953">
        <ele>531.8</ele>
        <time>2020-10-19T10:57:41Z</time>
      </trkpt>
      <trkpt lat="46.12059" lon="4.54955">
        <ele>531.6</ele>
        <time>2020-10-19T10:57:42Z</time>
      </trkpt>
      <trkpt lat="46.12059" lon="4.54955">
        <ele>531.6</ele>
        <time>2020-10-19T10:57:43Z</time>
      </trkpt>
      <trkpt lat="46.1206" lon="4.54958">
        <ele>531.6</ele>
        <time>2020-10-19T10:57:44Z</time>
      </trkpt>
      <trkpt lat="46.1206" lon="4.54958">
        <ele>531.6</ele>
        <time>2020-10-19T10:57:45Z</time>
      </trkpt>
      <trkpt lat="46.12061" lon="4.54961">
        <ele>531.6</ele>
        <time>2020-10-19T10:57:46Z</time>
      </trkpt>
      <trkpt lat="46.12061" lon="4.54961">
        <ele>531.6</ele>
        <time>2020-10-19T10:57:47Z</time>
      </trkpt>
      <trkpt lat="46.12062" lon="4.54963">
        <ele>531.4</ele>
        <time>2020-10-19T10:57:48Z</time>
      </trkpt>
      <trkpt lat="46.12062" lon="4.54963">
        <ele>531.2</ele>
        <time>2020-10-19T10:57:49Z</time>
      </trkpt>
      <trkpt lat="46.12064" lon="4.54966">
        <ele>531.2</ele>
        <time>2020-10-19T10:57:50Z</time>
      </trkpt>
      <trkpt lat="46.12064" lon="4.54966">
        <ele>531.2</ele>
        <time>2020-10-19T10:57:51Z</time>
      </trkpt>
      <trkpt lat="46.12065" lon="4.5497">
        <ele>531</ele>
        <time>2020-10-19T10:57:52Z</time>
      </trkpt>
      <trkpt lat="46.12065" lon="4.5497">
        <ele>531</ele>
        <time>2020-10-19T10:57:53Z</time>
      </trkpt>
      <trkpt lat="46.12067" lon="4.54974">
        <ele>531.2</ele>
        <time>2020-10-19T10:57:54Z</time>
      </trkpt>
      <trkpt lat="46.12067" lon="4.54974">
        <ele>531.2</ele>
        <time>2020-10-19T10:57:55Z</time>
      </trkpt>
      <trkpt lat="46.12069" lon="4.54977">
        <ele>531.2</ele>
        <time>2020-10-19T10:57:56Z</time>
      </trkpt>
      <trkpt lat="46.12069" lon="4.54977">
        <ele>531.2</ele>
        <time>2020-10-19T10:57:57Z</time>
      </trkpt>
      <trkpt lat="46.12071" lon="4.54981">
        <ele>531.2</ele>
        <time>2020-10-19T10:57:58Z</time>
      </trkpt>
      <trkpt lat="46.12071" lon="4.54981">
        <ele>531.2</ele>
        <time>2020-10-19T10:57:59Z</time>
      </trkpt>
      <trkpt lat="46.12073" lon="4.54984">
        <ele>531.2</ele>
        <time>2020-10-19T10:58:00Z</time>
      </trkpt>
      <trkpt lat="46.12073" lon="4.54984">
        <ele>531</ele>
        <time>2020-10-19T10:58:01Z</time>
      </trkpt>
      <trkpt lat="46.12075" lon="4.54987">
        <ele>531</ele>
        <time>2020-10-19T10:58:02Z</time>
      </trkpt>
      <trkpt lat="46.12075" lon="4.54987">
        <ele>531.2</ele>
        <time>2020-10-19T10:58:03Z</time>
      </trkpt>
      <trkpt lat="46.12076" lon="4.54989">
        <ele>531.2</ele>
        <time>2020-10-19T10:58:04Z</time>
      </trkpt>
      <trkpt lat="46.12076" lon="4.54989">
        <ele>531.2</ele>
        <time>2020-10-19T10:58:05Z</time>
      </trkpt>
      <trkpt lat="46.12078" lon="4.54992">
        <ele>531</ele>
        <time>2020-10-19T10:58:06Z</time>
      </trkpt>
      <trkpt lat="46.12078" lon="4.54992">
        <ele>530.8</ele>
        <time>2020-10-19T10:58:07Z</time>
      </trkpt>
      <trkpt lat="46.12081" lon="4.54994">
        <ele>530.6</ele>
        <time>2020-10-19T10:58:08Z</time>
      </trkpt>
      <trkpt lat="46.12081" lon="4.54994">
        <ele>530.6</ele>
        <time>2020-10-19T10:58:09Z</time>
      </trkpt>
      <trkpt lat="46.12083" lon="4.54996">
        <ele>530.6</ele>
        <time>2020-10-19T10:58:10Z</time>
      </trkpt>
      <trkpt lat="46.12083" lon="4.54996">
        <ele>530.4</ele>
        <time>2020-10-19T10:58:11Z</time>
      </trkpt>
      <trkpt lat="46.12086" lon="4.54997">
        <ele>530.6</ele>
        <time>2020-10-19T10:58:12Z</time>
      </trkpt>
      <trkpt lat="46.12086" lon="4.54997">
        <ele>530.6</ele>
        <time>2020-10-19T10:58:13Z</time>
      </trkpt>
      <trkpt lat="46.12088" lon="4.54999">
        <ele>530.8</ele>
        <time>2020-10-19T10:58:14Z</time>
      </trkpt>
      <trkpt lat="46.12088" lon="4.54999">
        <ele>530.8</ele>
        <time>2020-10-19T10:58:15Z</time>
      </trkpt>
      <trkpt lat="46.12091" lon="4.55002">
        <ele>530.8</ele>
        <time>2020-10-19T10:58:16Z</time>
      </trkpt>
      <trkpt lat="46.12091" lon="4.55002">
        <ele>530.8</ele>
        <time>2020-10-19T10:58:17Z</time>
      </trkpt>
      <trkpt lat="46.12093" lon="4.55004">
        <ele>530.4</ele>
        <time>2020-10-19T10:58:18Z</time>
      </trkpt>
      <trkpt lat="46.12093" lon="4.55004">
        <ele>530.4</ele>
        <time>2020-10-19T10:58:19Z</time>
      </trkpt>
      <trkpt lat="46.12095" lon="4.55006">
        <ele>530.2</ele>
        <time>2020-10-19T10:58:20Z</time>
      </trkpt>
      <trkpt lat="46.12095" lon="4.55006">
        <ele>530</ele>
        <time>2020-10-19T10:58:21Z</time>
      </trkpt>
      <trkpt lat="46.12097" lon="4.55008">
        <ele>529.8</ele>
        <time>2020-10-19T10:58:22Z</time>
      </trkpt>
      <trkpt lat="46.12097" lon="4.55008">
        <ele>529.8</ele>
        <time>2020-10-19T10:58:23Z</time>
      </trkpt>
      <trkpt lat="46.121" lon="4.55011">
        <ele>529.8</ele>
        <time>2020-10-19T10:58:24Z</time>
      </trkpt>
      <trkpt lat="46.121" lon="4.55011">
        <ele>530</ele>
        <time>2020-10-19T10:58:25Z</time>
      </trkpt>
      <trkpt lat="46.12103" lon="4.55013">
        <ele>530</ele>
        <time>2020-10-19T10:58:26Z</time>
      </trkpt>
      <trkpt lat="46.12103" lon="4.55013">
        <ele>530.2</ele>
        <time>2020-10-19T10:58:27Z</time>
      </trkpt>
      <trkpt lat="46.12105" lon="4.55015">
        <ele>530.2</ele>
        <time>2020-10-19T10:58:28Z</time>
      </trkpt>
      <trkpt lat="46.12105" lon="4.55015">
        <ele>530.2</ele>
        <time>2020-10-19T10:58:29Z</time>
      </trkpt>
      <trkpt lat="46.12107" lon="4.55019">
        <ele>530.2</ele>
        <time>2020-10-19T10:58:30Z</time>
      </trkpt>
      <trkpt lat="46.12107" lon="4.55019">
        <ele>530.2</ele>
        <time>2020-10-19T10:58:31Z</time>
      </trkpt>
      <trkpt lat="46.1211" lon="4.55021">
        <ele>530.2</ele>
        <time>2020-10-19T10:58:32Z</time>
      </trkpt>
      <trkpt lat="46.1211" lon="4.55021">
        <ele>530</ele>
        <time>2020-10-19T10:58:33Z</time>
      </trkpt>
      <trkpt lat="46.12112" lon="4.55023">
        <ele>529.8</ele>
        <time>2020-10-19T10:58:34Z</time>
      </trkpt>
      <trkpt lat="46.12112" lon="4.55023">
        <ele>529.8</ele>
        <time>2020-10-19T10:58:35Z</time>
      </trkpt>
      <trkpt lat="46.12115" lon="4.55025">
        <ele>529.8</ele>
        <time>2020-10-19T10:58:36Z</time>
      </trkpt>
      <trkpt lat="46.12115" lon="4.55025">
        <ele>529.4</ele>
        <time>2020-10-19T10:58:37Z</time>
      </trkpt>
      <trkpt lat="46.12117" lon="4.55026">
        <ele>529.2</ele>
        <time>2020-10-19T10:58:38Z</time>
      </trkpt>
      <trkpt lat="46.12117" lon="4.55026">
        <ele>529</ele>
        <time>2020-10-19T10:58:39Z</time>
      </trkpt>
      <trkpt lat="46.1212" lon="4.55026">
        <ele>528.6</ele>
        <time>2020-10-19T10:58:40Z</time>
      </trkpt>
      <trkpt lat="46.1212" lon="4.55026">
        <ele>528.2</ele>
        <time>2020-10-19T10:58:41Z</time>
      </trkpt>
      <trkpt lat="46.12122" lon="4.55026">
        <ele>528</ele>
        <time>2020-10-19T10:58:42Z</time>
      </trkpt>
      <trkpt lat="46.12122" lon="4.55026">
        <ele>527.8</ele>
        <time>2020-10-19T10:58:43Z</time>
      </trkpt>
      <trkpt lat="46.12126" lon="4.55026">
        <ele>527.8</ele>
        <time>2020-10-19T10:58:44Z</time>
      </trkpt>
      <trkpt lat="46.12126" lon="4.55026">
        <ele>527.6</ele>
        <time>2020-10-19T10:58:45Z</time>
      </trkpt>
      <trkpt lat="46.12128" lon="4.55028">
        <ele>527.4</ele>
        <time>2020-10-19T10:58:46Z</time>
      </trkpt>
      <trkpt lat="46.12128" lon="4.55028">
        <ele>527.2</ele>
        <time>2020-10-19T10:58:47Z</time>
      </trkpt>
      <trkpt lat="46.12131" lon="4.55028">
        <ele>527</ele>
        <time>2020-10-19T10:58:48Z</time>
      </trkpt>
      <trkpt lat="46.12131" lon="4.55028">
        <ele>527</ele>
        <time>2020-10-19T10:58:49Z</time>
      </trkpt>
      <trkpt lat="46.12133" lon="4.55029">
        <ele>527</ele>
        <time>2020-10-19T10:58:50Z</time>
      </trkpt>
      <trkpt lat="46.12133" lon="4.55029">
        <ele>527</ele>
        <time>2020-10-19T10:58:51Z</time>
      </trkpt>
      <trkpt lat="46.12135" lon="4.55031">
        <ele>527</ele>
        <time>2020-10-19T10:58:52Z</time>
      </trkpt>
      <trkpt lat="46.12135" lon="4.55031">
        <ele>526.8</ele>
        <time>2020-10-19T10:58:53Z</time>
      </trkpt>
      <trkpt lat="46.12138" lon="4.55033">
        <ele>526.8</ele>
        <time>2020-10-19T10:58:54Z</time>
      </trkpt>
      <trkpt lat="46.12138" lon="4.55033">
        <ele>526.6</ele>
        <time>2020-10-19T10:58:55Z</time>
      </trkpt>
      <trkpt lat="46.12141" lon="4.55035">
        <ele>526.4</ele>
        <time>2020-10-19T10:58:56Z</time>
      </trkpt>
      <trkpt lat="46.12141" lon="4.55035">
        <ele>526.4</ele>
        <time>2020-10-19T10:58:57Z</time>
      </trkpt>
      <trkpt lat="46.12145" lon="4.55037">
        <ele>526.6</ele>
        <time>2020-10-19T10:58:58Z</time>
      </trkpt>
      <trkpt lat="46.12147" lon="4.55038">
        <ele>526.4</ele>
        <time>2020-10-19T10:58:59Z</time>
      </trkpt>
      <trkpt lat="46.12147" lon="4.55038">
        <ele>526.2</ele>
        <time>2020-10-19T10:59:00Z</time>
      </trkpt>
      <trkpt lat="46.12149" lon="4.5504">
        <ele>526.2</ele>
        <time>2020-10-19T10:59:01Z</time>
      </trkpt>
      <trkpt lat="46.12149" lon="4.5504">
        <ele>526</ele>
        <time>2020-10-19T10:59:02Z</time>
      </trkpt>
      <trkpt lat="46.12151" lon="4.55039">
        <ele>526</ele>
        <time>2020-10-19T10:59:03Z</time>
      </trkpt>
      <trkpt lat="46.12151" lon="4.55039">
        <ele>526</ele>
        <time>2020-10-19T10:59:04Z</time>
      </trkpt>
      <trkpt lat="46.12155" lon="4.55041">
        <ele>526</ele>
        <time>2020-10-19T10:59:05Z</time>
      </trkpt>
      <trkpt lat="46.12157" lon="4.55042">
        <ele>526.2</ele>
        <time>2020-10-19T10:59:06Z</time>
      </trkpt>
      <trkpt lat="46.12157" lon="4.55042">
        <ele>526.4</ele>
        <time>2020-10-19T10:59:07Z</time>
      </trkpt>
      <trkpt lat="46.1216" lon="4.55044">
        <ele>526.4</ele>
        <time>2020-10-19T10:59:08Z</time>
      </trkpt>
      <trkpt lat="46.1216" lon="4.55044">
        <ele>526.2</ele>
        <time>2020-10-19T10:59:09Z</time>
      </trkpt>
      <trkpt lat="46.12163" lon="4.55045">
        <ele>526</ele>
        <time>2020-10-19T10:59:10Z</time>
      </trkpt>
      <trkpt lat="46.12163" lon="4.55045">
        <ele>525.8</ele>
        <time>2020-10-19T10:59:11Z</time>
      </trkpt>
      <trkpt lat="46.12166" lon="4.55046">
        <ele>525.6</ele>
        <time>2020-10-19T10:59:12Z</time>
      </trkpt>
      <trkpt lat="46.12167" lon="4.55047">
        <ele>525.4</ele>
        <time>2020-10-19T10:59:13Z</time>
      </trkpt>
      <trkpt lat="46.12169" lon="4.55048">
        <ele>525.4</ele>
        <time>2020-10-19T10:59:14Z</time>
      </trkpt>
      <trkpt lat="46.12171" lon="4.55049">
        <ele>525.4</ele>
        <time>2020-10-19T10:59:15Z</time>
      </trkpt>
      <trkpt lat="46.12171" lon="4.55049">
        <ele>525</ele>
        <time>2020-10-19T10:59:16Z</time>
      </trkpt>
      <trkpt lat="46.12174" lon="4.55051">
        <ele>525</ele>
        <time>2020-10-19T10:59:17Z</time>
      </trkpt>
      <trkpt lat="46.12175" lon="4.55052">
        <ele>525</ele>
        <time>2020-10-19T10:59:18Z</time>
      </trkpt>
      <trkpt lat="46.12177" lon="4.55054">
        <ele>524.8</ele>
        <time>2020-10-19T10:59:19Z</time>
      </trkpt>
      <trkpt lat="46.12178" lon="4.55055">
        <ele>524.8</ele>
        <time>2020-10-19T10:59:20Z</time>
      </trkpt>
      <trkpt lat="46.1218" lon="4.55056">
        <ele>524.8</ele>
        <time>2020-10-19T10:59:21Z</time>
      </trkpt>
      <trkpt lat="46.12181" lon="4.55057">
        <ele>524.6</ele>
        <time>2020-10-19T10:59:22Z</time>
      </trkpt>
      <trkpt lat="46.12182" lon="4.55059">
        <ele>524.8</ele>
        <time>2020-10-19T10:59:23Z</time>
      </trkpt>
      <trkpt lat="46.12183" lon="4.5506">
        <ele>524.8</ele>
        <time>2020-10-19T10:59:24Z</time>
      </trkpt>
      <trkpt lat="46.12184" lon="4.55062">
        <ele>524.6</ele>
        <time>2020-10-19T10:59:25Z</time>
      </trkpt>
      <trkpt lat="46.12185" lon="4.55063">
        <ele>524.6</ele>
        <time>2020-10-19T10:59:26Z</time>
      </trkpt>
      <trkpt lat="46.12185" lon="4.55065">
        <ele>524.6</ele>
        <time>2020-10-19T10:59:27Z</time>
      </trkpt>
      <trkpt lat="46.12185" lon="4.55065">
        <ele>524.4</ele>
        <time>2020-10-19T10:59:28Z</time>
      </trkpt>
      <trkpt lat="46.12185" lon="4.55065">
        <ele>524.6</ele>
        <time>2020-10-19T10:59:29Z</time>
      </trkpt>
      <trkpt lat="46.12186" lon="4.55067">
        <ele>524.6</ele>
        <time>2020-10-19T10:59:30Z</time>
      </trkpt>
      <trkpt lat="46.12186" lon="4.55067">
        <ele>524.6</ele>
        <time>2020-10-19T10:59:31Z</time>
      </trkpt>
      <trkpt lat="46.12188" lon="4.55069">
        <ele>524.6</ele>
        <time>2020-10-19T10:59:32Z</time>
      </trkpt>
      <trkpt lat="46.12188" lon="4.55069">
        <ele>524.8</ele>
        <time>2020-10-19T10:59:33Z</time>
      </trkpt>
      <trkpt lat="46.1219" lon="4.55072">
        <ele>524.8</ele>
        <time>2020-10-19T10:59:34Z</time>
      </trkpt>
      <trkpt lat="46.1219" lon="4.55072">
        <ele>525</ele>
        <time>2020-10-19T10:59:35Z</time>
      </trkpt>
      <trkpt lat="46.12192" lon="4.55074">
        <ele>525</ele>
        <time>2020-10-19T10:59:36Z</time>
      </trkpt>
      <trkpt lat="46.12192" lon="4.55074">
        <ele>524.8</ele>
        <time>2020-10-19T10:59:37Z</time>
      </trkpt>
      <trkpt lat="46.12194" lon="4.55075">
        <ele>525</ele>
        <time>2020-10-19T10:59:38Z</time>
      </trkpt>
      <trkpt lat="46.12194" lon="4.55075">
        <ele>524.8</ele>
        <time>2020-10-19T10:59:39Z</time>
      </trkpt>
      <trkpt lat="46.12196" lon="4.55077">
        <ele>524.8</ele>
        <time>2020-10-19T10:59:40Z</time>
      </trkpt>
      <trkpt lat="46.12196" lon="4.55077">
        <ele>524.8</ele>
        <time>2020-10-19T10:59:41Z</time>
      </trkpt>
      <trkpt lat="46.12199" lon="4.5508">
        <ele>525</ele>
        <time>2020-10-19T10:59:42Z</time>
      </trkpt>
      <trkpt lat="46.12199" lon="4.5508">
        <ele>525</ele>
        <time>2020-10-19T10:59:43Z</time>
      </trkpt>
      <trkpt lat="46.12201" lon="4.55082">
        <ele>525.2</ele>
        <time>2020-10-19T10:59:44Z</time>
      </trkpt>
      <trkpt lat="46.12201" lon="4.55082">
        <ele>525.2</ele>
        <time>2020-10-19T10:59:45Z</time>
      </trkpt>
      <trkpt lat="46.12204" lon="4.55083">
        <ele>525.2</ele>
        <time>2020-10-19T10:59:46Z</time>
      </trkpt>
      <trkpt lat="46.12205" lon="4.55085">
        <ele>525.2</ele>
        <time>2020-10-19T10:59:47Z</time>
      </trkpt>
      <trkpt lat="46.12206" lon="4.55086">
        <ele>525.2</ele>
        <time>2020-10-19T10:59:48Z</time>
      </trkpt>
      <trkpt lat="46.12207" lon="4.55087">
        <ele>525</ele>
        <time>2020-10-19T10:59:49Z</time>
      </trkpt>
      <trkpt lat="46.12208" lon="4.55088">
        <ele>524.8</ele>
        <time>2020-10-19T10:59:50Z</time>
      </trkpt>
      <trkpt lat="46.1221" lon="4.5509">
        <ele>525</ele>
        <time>2020-10-19T10:59:51Z</time>
      </trkpt>
      <trkpt lat="46.12211" lon="4.55091">
        <ele>524.8</ele>
        <time>2020-10-19T10:59:52Z</time>
      </trkpt>
      <trkpt lat="46.12212" lon="4.55092">
        <ele>524.8</ele>
        <time>2020-10-19T10:59:53Z</time>
      </trkpt>
      <trkpt lat="46.12213" lon="4.55094">
        <ele>525</ele>
        <time>2020-10-19T10:59:54Z</time>
      </trkpt>
      <trkpt lat="46.12215" lon="4.55096">
        <ele>525</ele>
        <time>2020-10-19T10:59:55Z</time>
      </trkpt>
      <trkpt lat="46.12216" lon="4.55098">
        <ele>525.2</ele>
        <time>2020-10-19T10:59:56Z</time>
      </trkpt>
      <trkpt lat="46.12218" lon="4.551">
        <ele>525.4</ele>
        <time>2020-10-19T10:59:57Z</time>
      </trkpt>
      <trkpt lat="46.12219" lon="4.55102">
        <ele>525.2</ele>
        <time>2020-10-19T10:59:58Z</time>
      </trkpt>
      <trkpt lat="46.12219" lon="4.55102">
        <ele>525.4</ele>
        <time>2020-10-19T10:59:59Z</time>
      </trkpt>
      <trkpt lat="46.1222" lon="4.55107">
        <ele>525.4</ele>
        <time>2020-10-19T11:00:00Z</time>
      </trkpt>
      <trkpt lat="46.1222" lon="4.55107">
        <ele>525.4</ele>
        <time>2020-10-19T11:00:01Z</time>
      </trkpt>
      <trkpt lat="46.12219" lon="4.55111">
        <ele>525.2</ele>
        <time>2020-10-19T11:00:02Z</time>
      </trkpt>
      <trkpt lat="46.12217" lon="4.55114">
        <ele>525.2</ele>
        <time>2020-10-19T11:00:03Z</time>
      </trkpt>
      <trkpt lat="46.12216" lon="4.55116">
        <ele>525.2</ele>
        <time>2020-10-19T11:00:04Z</time>
      </trkpt>
      <trkpt lat="46.12216" lon="4.55116">
        <ele>525.2</ele>
        <time>2020-10-19T11:00:05Z</time>
      </trkpt>
      <trkpt lat="46.12214" lon="4.55119">
        <ele>525.2</ele>
        <time>2020-10-19T11:00:06Z</time>
      </trkpt>
      <trkpt lat="46.12214" lon="4.55119">
        <ele>525.2</ele>
        <time>2020-10-19T11:00:07Z</time>
      </trkpt>
      <trkpt lat="46.12212" lon="4.55123">
        <ele>525.2</ele>
        <time>2020-10-19T11:00:08Z</time>
      </trkpt>
      <trkpt lat="46.1221" lon="4.55124">
        <ele>525.4</ele>
        <time>2020-10-19T11:00:09Z</time>
      </trkpt>
      <trkpt lat="46.1221" lon="4.55124">
        <ele>525.4</ele>
        <time>2020-10-19T11:00:10Z</time>
      </trkpt>
      <trkpt lat="46.12208" lon="4.55126">
        <ele>525.4</ele>
        <time>2020-10-19T11:00:11Z</time>
      </trkpt>
      <trkpt lat="46.12208" lon="4.55126">
        <ele>525.4</ele>
        <time>2020-10-19T11:00:12Z</time>
      </trkpt>
      <trkpt lat="46.12205" lon="4.55129">
        <ele>525.4</ele>
        <time>2020-10-19T11:00:13Z</time>
      </trkpt>
      <trkpt lat="46.12203" lon="4.5513">
        <ele>525.4</ele>
        <time>2020-10-19T11:00:14Z</time>
      </trkpt>
      <trkpt lat="46.12203" lon="4.5513">
        <ele>525.2</ele>
        <time>2020-10-19T11:00:15Z</time>
      </trkpt>
      <trkpt lat="46.122" lon="4.55133">
        <ele>525</ele>
        <time>2020-10-19T11:00:16Z</time>
      </trkpt>
      <trkpt lat="46.122" lon="4.55133">
        <ele>524.8</ele>
        <time>2020-10-19T11:00:17Z</time>
      </trkpt>
      <trkpt lat="46.12198" lon="4.55135">
        <ele>524.6</ele>
        <time>2020-10-19T11:00:18Z</time>
      </trkpt>
      <trkpt lat="46.12196" lon="4.55137">
        <ele>524.4</ele>
        <time>2020-10-19T11:00:19Z</time>
      </trkpt>
      <trkpt lat="46.12194" lon="4.55137">
        <ele>524.4</ele>
        <time>2020-10-19T11:00:20Z</time>
      </trkpt>
      <trkpt lat="46.12192" lon="4.55138">
        <ele>524.6</ele>
        <time>2020-10-19T11:00:21Z</time>
      </trkpt>
      <trkpt lat="46.12191" lon="4.5514">
        <ele>524.6</ele>
        <time>2020-10-19T11:00:22Z</time>
      </trkpt>
      <trkpt lat="46.12189" lon="4.55142">
        <ele>524.8</ele>
        <time>2020-10-19T11:00:23Z</time>
      </trkpt>
      <trkpt lat="46.12187" lon="4.55144">
        <ele>525</ele>
        <time>2020-10-19T11:00:24Z</time>
      </trkpt>
      <trkpt lat="46.12185" lon="4.55146">
        <ele>525.2</ele>
        <time>2020-10-19T11:00:25Z</time>
      </trkpt>
      <trkpt lat="46.12184" lon="4.55148">
        <ele>525</ele>
        <time>2020-10-19T11:00:26Z</time>
      </trkpt>
      <trkpt lat="46.12182" lon="4.5515">
        <ele>524.8</ele>
        <time>2020-10-19T11:00:27Z</time>
      </trkpt>
      <trkpt lat="46.12179" lon="4.55152">
        <ele>525</ele>
        <time>2020-10-19T11:00:28Z</time>
      </trkpt>
      <trkpt lat="46.12177" lon="4.55154">
        <ele>525</ele>
        <time>2020-10-19T11:00:29Z</time>
      </trkpt>
      <trkpt lat="46.12175" lon="4.55156">
        <ele>524.8</ele>
        <time>2020-10-19T11:00:30Z</time>
      </trkpt>
      <trkpt lat="46.12173" lon="4.55157">
        <ele>525.2</ele>
        <time>2020-10-19T11:00:31Z</time>
      </trkpt>
      <trkpt lat="46.12171" lon="4.55159">
        <ele>525.2</ele>
        <time>2020-10-19T11:00:32Z</time>
      </trkpt>
      <trkpt lat="46.1217" lon="4.55161">
        <ele>524.6</ele>
        <time>2020-10-19T11:00:33Z</time>
      </trkpt>
      <trkpt lat="46.12168" lon="4.55162">
        <ele>524.8</ele>
        <time>2020-10-19T11:00:34Z</time>
      </trkpt>
      <trkpt lat="46.12166" lon="4.55164">
        <ele>524.8</ele>
        <time>2020-10-19T11:00:35Z</time>
      </trkpt>
      <trkpt lat="46.12164" lon="4.55166">
        <ele>524.2</ele>
        <time>2020-10-19T11:00:36Z</time>
      </trkpt>
      <trkpt lat="46.12162" lon="4.55167">
        <ele>524.2</ele>
        <time>2020-10-19T11:00:37Z</time>
      </trkpt>
      <trkpt lat="46.1216" lon="4.55169">
        <ele>524.2</ele>
        <time>2020-10-19T11:00:38Z</time>
      </trkpt>
      <trkpt lat="46.12159" lon="4.55171">
        <ele>523.8</ele>
        <time>2020-10-19T11:00:39Z</time>
      </trkpt>
      <trkpt lat="46.12157" lon="4.55173">
        <ele>523.4</ele>
        <time>2020-10-19T11:00:40Z</time>
      </trkpt>
      <trkpt lat="46.12156" lon="4.55175">
        <ele>523.6</ele>
        <time>2020-10-19T11:00:41Z</time>
      </trkpt>
      <trkpt lat="46.12154" lon="4.55177">
        <ele>523.2</ele>
        <time>2020-10-19T11:00:42Z</time>
      </trkpt>
      <trkpt lat="46.12152" lon="4.55179">
        <ele>523</ele>
        <time>2020-10-19T11:00:43Z</time>
      </trkpt>
      <trkpt lat="46.1215" lon="4.55181">
        <ele>523</ele>
        <time>2020-10-19T11:00:44Z</time>
      </trkpt>
      <trkpt lat="46.12149" lon="4.55183">
        <ele>522.8</ele>
        <time>2020-10-19T11:00:45Z</time>
      </trkpt>
      <trkpt lat="46.12147" lon="4.55185">
        <ele>522.6</ele>
        <time>2020-10-19T11:00:46Z</time>
      </trkpt>
      <trkpt lat="46.12145" lon="4.55187">
        <ele>522.8</ele>
        <time>2020-10-19T11:00:47Z</time>
      </trkpt>
      <trkpt lat="46.12144" lon="4.55189">
        <ele>522.4</ele>
        <time>2020-10-19T11:00:48Z</time>
      </trkpt>
      <trkpt lat="46.12143" lon="4.55192">
        <ele>522.4</ele>
        <time>2020-10-19T11:00:49Z</time>
      </trkpt>
      <trkpt lat="46.12141" lon="4.55194">
        <ele>522.4</ele>
        <time>2020-10-19T11:00:50Z</time>
      </trkpt>
      <trkpt lat="46.12139" lon="4.55197">
        <ele>522</ele>
        <time>2020-10-19T11:00:51Z</time>
      </trkpt>
      <trkpt lat="46.12138" lon="4.552">
        <ele>521.6</ele>
        <time>2020-10-19T11:00:52Z</time>
      </trkpt>
      <trkpt lat="46.12136" lon="4.55203">
        <ele>521.8</ele>
        <time>2020-10-19T11:00:53Z</time>
      </trkpt>
      <trkpt lat="46.12134" lon="4.55205">
        <ele>521.8</ele>
        <time>2020-10-19T11:00:54Z</time>
      </trkpt>
      <trkpt lat="46.12133" lon="4.55208">
        <ele>521.6</ele>
        <time>2020-10-19T11:00:55Z</time>
      </trkpt>
      <trkpt lat="46.12131" lon="4.55212">
        <ele>521.6</ele>
        <time>2020-10-19T11:00:56Z</time>
      </trkpt>
      <trkpt lat="46.1213" lon="4.55214">
        <ele>521.8</ele>
        <time>2020-10-19T11:00:57Z</time>
      </trkpt>
      <trkpt lat="46.12128" lon="4.55217">
        <ele>521.6</ele>
        <time>2020-10-19T11:00:58Z</time>
      </trkpt>
      <trkpt lat="46.12127" lon="4.5522">
        <ele>521.4</ele>
        <time>2020-10-19T11:00:59Z</time>
      </trkpt>
      <trkpt lat="46.12125" lon="4.55222">
        <ele>521.4</ele>
        <time>2020-10-19T11:01:00Z</time>
      </trkpt>
      <trkpt lat="46.12124" lon="4.55226">
        <ele>521.4</ele>
        <time>2020-10-19T11:01:01Z</time>
      </trkpt>
      <trkpt lat="46.12122" lon="4.55229">
        <ele>521</ele>
        <time>2020-10-19T11:01:02Z</time>
      </trkpt>
      <trkpt lat="46.12121" lon="4.55232">
        <ele>521</ele>
        <time>2020-10-19T11:01:03Z</time>
      </trkpt>
      <trkpt lat="46.1212" lon="4.55235">
        <ele>521</ele>
        <time>2020-10-19T11:01:04Z</time>
      </trkpt>
      <trkpt lat="46.12119" lon="4.55239">
        <ele>520.4</ele>
        <time>2020-10-19T11:01:05Z</time>
      </trkpt>
      <trkpt lat="46.12118" lon="4.55242">
        <ele>521</ele>
        <time>2020-10-19T11:01:06Z</time>
      </trkpt>
      <trkpt lat="46.12118" lon="4.55246">
        <ele>520.8</ele>
        <time>2020-10-19T11:01:07Z</time>
      </trkpt>
      <trkpt lat="46.12117" lon="4.55249">
        <ele>520.4</ele>
        <time>2020-10-19T11:01:08Z</time>
      </trkpt>
      <trkpt lat="46.12117" lon="4.55253">
        <ele>520.8</ele>
        <time>2020-10-19T11:01:09Z</time>
      </trkpt>
      <trkpt lat="46.12116" lon="4.55256">
        <ele>520.8</ele>
        <time>2020-10-19T11:01:10Z</time>
      </trkpt>
      <trkpt lat="46.12115" lon="4.5526">
        <ele>520.4</ele>
        <time>2020-10-19T11:01:11Z</time>
      </trkpt>
      <trkpt lat="46.12114" lon="4.55264">
        <ele>520.6</ele>
        <time>2020-10-19T11:01:12Z</time>
      </trkpt>
      <trkpt lat="46.12113" lon="4.55268">
        <ele>520.6</ele>
        <time>2020-10-19T11:01:13Z</time>
      </trkpt>
      <trkpt lat="46.12112" lon="4.55271">
        <ele>520.4</ele>
        <time>2020-10-19T11:01:14Z</time>
      </trkpt>
      <trkpt lat="46.12111" lon="4.55275">
        <ele>520.2</ele>
        <time>2020-10-19T11:01:15Z</time>
      </trkpt>
      <trkpt lat="46.1211" lon="4.55279">
        <ele>520.2</ele>
        <time>2020-10-19T11:01:16Z</time>
      </trkpt>
      <trkpt lat="46.12109" lon="4.55282">
        <ele>519.8</ele>
        <time>2020-10-19T11:01:17Z</time>
      </trkpt>
      <trkpt lat="46.12108" lon="4.55286">
        <ele>519.6</ele>
        <time>2020-10-19T11:01:18Z</time>
      </trkpt>
      <trkpt lat="46.12107" lon="4.55289">
        <ele>519.6</ele>
        <time>2020-10-19T11:01:19Z</time>
      </trkpt>
      <trkpt lat="46.12106" lon="4.55293">
        <ele>519.4</ele>
        <time>2020-10-19T11:01:20Z</time>
      </trkpt>
      <trkpt lat="46.12106" lon="4.55296">
        <ele>519.2</ele>
        <time>2020-10-19T11:01:21Z</time>
      </trkpt>
      <trkpt lat="46.12105" lon="4.55299">
        <ele>519.4</ele>
        <time>2020-10-19T11:01:22Z</time>
      </trkpt>
      <trkpt lat="46.12104" lon="4.55302">
        <ele>519</ele>
        <time>2020-10-19T11:01:23Z</time>
      </trkpt>
      <trkpt lat="46.12104" lon="4.55306">
        <ele>518.8</ele>
        <time>2020-10-19T11:01:24Z</time>
      </trkpt>
      <trkpt lat="46.12103" lon="4.5531">
        <ele>519.2</ele>
        <time>2020-10-19T11:01:25Z</time>
      </trkpt>
      <trkpt lat="46.12102" lon="4.55314">
        <ele>519.2</ele>
        <time>2020-10-19T11:01:26Z</time>
      </trkpt>
      <trkpt lat="46.12102" lon="4.55317">
        <ele>518.6</ele>
        <time>2020-10-19T11:01:27Z</time>
      </trkpt>
      <trkpt lat="46.12101" lon="4.55321">
        <ele>518.8</ele>
        <time>2020-10-19T11:01:28Z</time>
      </trkpt>
      <trkpt lat="46.12101" lon="4.55324">
        <ele>518.4</ele>
        <time>2020-10-19T11:01:29Z</time>
      </trkpt>
      <trkpt lat="46.12101" lon="4.55328">
        <ele>517.8</ele>
        <time>2020-10-19T11:01:30Z</time>
      </trkpt>
      <trkpt lat="46.12101" lon="4.55331">
        <ele>517.8</ele>
        <time>2020-10-19T11:01:31Z</time>
      </trkpt>
      <trkpt lat="46.121" lon="4.55335">
        <ele>517.2</ele>
        <time>2020-10-19T11:01:32Z</time>
      </trkpt>
      <trkpt lat="46.121" lon="4.55339">
        <ele>516.8</ele>
        <time>2020-10-19T11:01:33Z</time>
      </trkpt>
      <trkpt lat="46.121" lon="4.55343">
        <ele>516.6</ele>
        <time>2020-10-19T11:01:34Z</time>
      </trkpt>
      <trkpt lat="46.12099" lon="4.55347">
        <ele>516.8</ele>
        <time>2020-10-19T11:01:35Z</time>
      </trkpt>
      <trkpt lat="46.12099" lon="4.5535">
        <ele>516.6</ele>
        <time>2020-10-19T11:01:36Z</time>
      </trkpt>
      <trkpt lat="46.12098" lon="4.55353">
        <ele>516.4</ele>
        <time>2020-10-19T11:01:37Z</time>
      </trkpt>
      <trkpt lat="46.12098" lon="4.55356">
        <ele>516.4</ele>
        <time>2020-10-19T11:01:38Z</time>
      </trkpt>
      <trkpt lat="46.12099" lon="4.5536">
        <ele>516</ele>
        <time>2020-10-19T11:01:39Z</time>
      </trkpt>
      <trkpt lat="46.12099" lon="4.55363">
        <ele>515.6</ele>
        <time>2020-10-19T11:01:40Z</time>
      </trkpt>
      <trkpt lat="46.12099" lon="4.55367">
        <ele>515.8</ele>
        <time>2020-10-19T11:01:41Z</time>
      </trkpt>
      <trkpt lat="46.12099" lon="4.55371">
        <ele>515.4</ele>
        <time>2020-10-19T11:01:42Z</time>
      </trkpt>
      <trkpt lat="46.12099" lon="4.55375">
        <ele>514.8</ele>
        <time>2020-10-19T11:01:43Z</time>
      </trkpt>
      <trkpt lat="46.12099" lon="4.55379">
        <ele>515.4</ele>
        <time>2020-10-19T11:01:44Z</time>
      </trkpt>
      <trkpt lat="46.12099" lon="4.55382">
        <ele>515</ele>
        <time>2020-10-19T11:01:45Z</time>
      </trkpt>
      <trkpt lat="46.12099" lon="4.55387">
        <ele>514.6</ele>
        <time>2020-10-19T11:01:46Z</time>
      </trkpt>
      <trkpt lat="46.12099" lon="4.55392">
        <ele>514.8</ele>
        <time>2020-10-19T11:01:47Z</time>
      </trkpt>
      <trkpt lat="46.121" lon="4.55396">
        <ele>514.4</ele>
        <time>2020-10-19T11:01:48Z</time>
      </trkpt>
      <trkpt lat="46.121" lon="4.554">
        <ele>513.8</ele>
        <time>2020-10-19T11:01:49Z</time>
      </trkpt>
      <trkpt lat="46.12099" lon="4.55405">
        <ele>513.8</ele>
        <time>2020-10-19T11:01:50Z</time>
      </trkpt>
      <trkpt lat="46.12099" lon="4.55408">
        <ele>514</ele>
        <time>2020-10-19T11:01:51Z</time>
      </trkpt>
      <trkpt lat="46.12098" lon="4.55413">
        <ele>513.2</ele>
        <time>2020-10-19T11:01:52Z</time>
      </trkpt>
      <trkpt lat="46.12098" lon="4.55417">
        <ele>513.2</ele>
        <time>2020-10-19T11:01:53Z</time>
      </trkpt>
      <trkpt lat="46.12097" lon="4.55421">
        <ele>513</ele>
        <time>2020-10-19T11:01:54Z</time>
      </trkpt>
      <trkpt lat="46.12097" lon="4.55426">
        <ele>512.4</ele>
        <time>2020-10-19T11:01:55Z</time>
      </trkpt>
      <trkpt lat="46.12097" lon="4.55431">
        <ele>512</ele>
        <time>2020-10-19T11:01:56Z</time>
      </trkpt>
      <trkpt lat="46.12096" lon="4.55435">
        <ele>512</ele>
        <time>2020-10-19T11:01:57Z</time>
      </trkpt>
      <trkpt lat="46.12096" lon="4.55439">
        <ele>511.6</ele>
        <time>2020-10-19T11:01:58Z</time>
      </trkpt>
      <trkpt lat="46.12095" lon="4.55443">
        <ele>511</ele>
        <time>2020-10-19T11:01:59Z</time>
      </trkpt>
      <trkpt lat="46.12095" lon="4.55448">
        <ele>511.2</ele>
        <time>2020-10-19T11:02:00Z</time>
      </trkpt>
      <trkpt lat="46.12095" lon="4.55452">
        <ele>510.6</ele>
        <time>2020-10-19T11:02:01Z</time>
      </trkpt>
      <trkpt lat="46.12094" lon="4.55457">
        <ele>509.8</ele>
        <time>2020-10-19T11:02:02Z</time>
      </trkpt>
      <trkpt lat="46.12093" lon="4.55461">
        <ele>509.8</ele>
        <time>2020-10-19T11:02:03Z</time>
      </trkpt>
      <trkpt lat="46.12092" lon="4.55465">
        <ele>509.6</ele>
        <time>2020-10-19T11:02:04Z</time>
      </trkpt>
      <trkpt lat="46.12092" lon="4.5547">
        <ele>508.8</ele>
        <time>2020-10-19T11:02:05Z</time>
      </trkpt>
      <trkpt lat="46.12091" lon="4.55474">
        <ele>508.8</ele>
        <time>2020-10-19T11:02:06Z</time>
      </trkpt>
      <trkpt lat="46.12091" lon="4.55478">
        <ele>508.2</ele>
        <time>2020-10-19T11:02:07Z</time>
      </trkpt>
      <trkpt lat="46.1209" lon="4.55483">
        <ele>507.6</ele>
        <time>2020-10-19T11:02:08Z</time>
      </trkpt>
      <trkpt lat="46.12089" lon="4.55487">
        <ele>507.4</ele>
        <time>2020-10-19T11:02:09Z</time>
      </trkpt>
      <trkpt lat="46.12089" lon="4.55492">
        <ele>507.6</ele>
        <time>2020-10-19T11:02:10Z</time>
      </trkpt>
      <trkpt lat="46.12088" lon="4.55496">
        <ele>506.8</ele>
        <time>2020-10-19T11:02:11Z</time>
      </trkpt>
      <trkpt lat="46.12087" lon="4.55501">
        <ele>506.6</ele>
        <time>2020-10-19T11:02:12Z</time>
      </trkpt>
      <trkpt lat="46.12086" lon="4.55505">
        <ele>506.4</ele>
        <time>2020-10-19T11:02:13Z</time>
      </trkpt>
      <trkpt lat="46.12086" lon="4.55509">
        <ele>506</ele>
        <time>2020-10-19T11:02:14Z</time>
      </trkpt>
      <trkpt lat="46.12085" lon="4.55513">
        <ele>505.4</ele>
        <time>2020-10-19T11:02:15Z</time>
      </trkpt>
      <trkpt lat="46.12084" lon="4.55517">
        <ele>505.6</ele>
        <time>2020-10-19T11:02:16Z</time>
      </trkpt>
      <trkpt lat="46.12083" lon="4.55521">
        <ele>505.2</ele>
        <time>2020-10-19T11:02:17Z</time>
      </trkpt>
      <trkpt lat="46.12083" lon="4.55525">
        <ele>504.4</ele>
        <time>2020-10-19T11:02:18Z</time>
      </trkpt>
      <trkpt lat="46.12082" lon="4.5553">
        <ele>504.4</ele>
        <time>2020-10-19T11:02:19Z</time>
      </trkpt>
      <trkpt lat="46.12081" lon="4.55534">
        <ele>504</ele>
        <time>2020-10-19T11:02:20Z</time>
      </trkpt>
      <trkpt lat="46.12081" lon="4.55538">
        <ele>503.4</ele>
        <time>2020-10-19T11:02:21Z</time>
      </trkpt>
      <trkpt lat="46.1208" lon="4.55542">
        <ele>503.2</ele>
        <time>2020-10-19T11:02:22Z</time>
      </trkpt>
      <trkpt lat="46.12079" lon="4.55546">
        <ele>502.8</ele>
        <time>2020-10-19T11:02:23Z</time>
      </trkpt>
      <trkpt lat="46.12078" lon="4.5555">
        <ele>502.2</ele>
        <time>2020-10-19T11:02:24Z</time>
      </trkpt>
      <trkpt lat="46.12078" lon="4.55554">
        <ele>502</ele>
        <time>2020-10-19T11:02:25Z</time>
      </trkpt>
      <trkpt lat="46.12077" lon="4.55558">
        <ele>502</ele>
        <time>2020-10-19T11:02:26Z</time>
      </trkpt>
      <trkpt lat="46.12076" lon="4.55561">
        <ele>501.4</ele>
        <time>2020-10-19T11:02:27Z</time>
      </trkpt>
      <trkpt lat="46.12076" lon="4.55565">
        <ele>501.4</ele>
        <time>2020-10-19T11:02:28Z</time>
      </trkpt>
      <trkpt lat="46.12076" lon="4.55569">
        <ele>501.4</ele>
        <time>2020-10-19T11:02:29Z</time>
      </trkpt>
      <trkpt lat="46.12075" lon="4.55573">
        <ele>501</ele>
        <time>2020-10-19T11:02:30Z</time>
      </trkpt>
      <trkpt lat="46.12074" lon="4.55577">
        <ele>500.8</ele>
        <time>2020-10-19T11:02:31Z</time>
      </trkpt>
      <trkpt lat="46.12074" lon="4.55581">
        <ele>500.8</ele>
        <time>2020-10-19T11:02:32Z</time>
      </trkpt>
      <trkpt lat="46.12073" lon="4.55585">
        <ele>500.2</ele>
        <time>2020-10-19T11:02:33Z</time>
      </trkpt>
      <trkpt lat="46.12072" lon="4.55588">
        <ele>499.8</ele>
        <time>2020-10-19T11:02:34Z</time>
      </trkpt>
      <trkpt lat="46.12072" lon="4.55588">
        <ele>499.6</ele>
        <time>2020-10-19T11:02:35Z</time>
      </trkpt>
      <trkpt lat="46.12072" lon="4.55593">
        <ele>499.4</ele>
        <time>2020-10-19T11:02:36Z</time>
      </trkpt>
      <trkpt lat="46.12072" lon="4.55593">
        <ele>499.4</ele>
        <time>2020-10-19T11:02:37Z</time>
      </trkpt>
      <trkpt lat="46.12071" lon="4.55597">
        <ele>499.2</ele>
        <time>2020-10-19T11:02:38Z</time>
      </trkpt>
      <trkpt lat="46.12071" lon="4.55597">
        <ele>499</ele>
        <time>2020-10-19T11:02:39Z</time>
      </trkpt>
      <trkpt lat="46.1207" lon="4.55601">
        <ele>499</ele>
        <time>2020-10-19T11:02:40Z</time>
      </trkpt>
      <trkpt lat="46.1207" lon="4.55601">
        <ele>498.8</ele>
        <time>2020-10-19T11:02:41Z</time>
      </trkpt>
      <trkpt lat="46.12069" lon="4.55606">
        <ele>498.8</ele>
        <time>2020-10-19T11:02:42Z</time>
      </trkpt>
      <trkpt lat="46.12068" lon="4.55608">
        <ele>498.8</ele>
        <time>2020-10-19T11:02:43Z</time>
      </trkpt>
      <trkpt lat="46.12068" lon="4.55608">
        <ele>498.6</ele>
        <time>2020-10-19T11:02:44Z</time>
      </trkpt>
      <trkpt lat="46.12067" lon="4.55613">
        <ele>498.6</ele>
        <time>2020-10-19T11:02:45Z</time>
      </trkpt>
      <trkpt lat="46.12067" lon="4.55613">
        <ele>498.4</ele>
        <time>2020-10-19T11:02:46Z</time>
      </trkpt>
      <trkpt lat="46.12067" lon="4.55616">
        <ele>498</ele>
        <time>2020-10-19T11:02:47Z</time>
      </trkpt>
      <trkpt lat="46.12067" lon="4.55616">
        <ele>497.6</ele>
        <time>2020-10-19T11:02:48Z</time>
      </trkpt>
      <trkpt lat="46.12067" lon="4.5562">
        <ele>497.4</ele>
        <time>2020-10-19T11:02:49Z</time>
      </trkpt>
      <trkpt lat="46.12067" lon="4.5562">
        <ele>497.2</ele>
        <time>2020-10-19T11:02:50Z</time>
      </trkpt>
      <trkpt lat="46.12067" lon="4.55624">
        <ele>496.8</ele>
        <time>2020-10-19T11:02:51Z</time>
      </trkpt>
      <trkpt lat="46.12067" lon="4.55624">
        <ele>496.8</ele>
        <time>2020-10-19T11:02:52Z</time>
      </trkpt>
      <trkpt lat="46.12067" lon="4.55628">
        <ele>496.4</ele>
        <time>2020-10-19T11:02:53Z</time>
      </trkpt>
      <trkpt lat="46.12067" lon="4.55628">
        <ele>496.2</ele>
        <time>2020-10-19T11:02:54Z</time>
      </trkpt>
      <trkpt lat="46.12067" lon="4.55632">
        <ele>496.4</ele>
        <time>2020-10-19T11:02:55Z</time>
      </trkpt>
      <trkpt lat="46.12067" lon="4.55632">
        <ele>496.4</ele>
        <time>2020-10-19T11:02:56Z</time>
      </trkpt>
      <trkpt lat="46.12068" lon="4.55636">
        <ele>496.2</ele>
        <time>2020-10-19T11:02:57Z</time>
      </trkpt>
      <trkpt lat="46.12068" lon="4.55636">
        <ele>496</ele>
        <time>2020-10-19T11:02:58Z</time>
      </trkpt>
      <trkpt lat="46.12068" lon="4.5564">
        <ele>495.8</ele>
        <time>2020-10-19T11:02:59Z</time>
      </trkpt>
      <trkpt lat="46.12068" lon="4.5564">
        <ele>495.6</ele>
        <time>2020-10-19T11:03:00Z</time>
      </trkpt>
      <trkpt lat="46.12068" lon="4.55644">
        <ele>495.6</ele>
        <time>2020-10-19T11:03:01Z</time>
      </trkpt>
      <trkpt lat="46.12068" lon="4.55644">
        <ele>495.4</ele>
        <time>2020-10-19T11:03:02Z</time>
      </trkpt>
      <trkpt lat="46.12068" lon="4.55648">
        <ele>495.4</ele>
        <time>2020-10-19T11:03:03Z</time>
      </trkpt>
      <trkpt lat="46.12068" lon="4.55648">
        <ele>495.4</ele>
        <time>2020-10-19T11:03:04Z</time>
      </trkpt>
      <trkpt lat="46.12068" lon="4.55653">
        <ele>495.2</ele>
        <time>2020-10-19T11:03:05Z</time>
      </trkpt>
      <trkpt lat="46.12068" lon="4.55653">
        <ele>495.2</ele>
        <time>2020-10-19T11:03:06Z</time>
      </trkpt>
      <trkpt lat="46.12068" lon="4.55656">
        <ele>495.2</ele>
        <time>2020-10-19T11:03:07Z</time>
      </trkpt>
      <trkpt lat="46.12068" lon="4.55656">
        <ele>495</ele>
        <time>2020-10-19T11:03:08Z</time>
      </trkpt>
      <trkpt lat="46.12069" lon="4.55659">
        <ele>494.8</ele>
        <time>2020-10-19T11:03:09Z</time>
      </trkpt>
      <trkpt lat="46.12069" lon="4.55659">
        <ele>494.6</ele>
        <time>2020-10-19T11:03:10Z</time>
      </trkpt>
      <trkpt lat="46.12069" lon="4.55659">
        <ele>494.2</ele>
        <time>2020-10-19T11:03:11Z</time>
      </trkpt>
      <trkpt lat="46.12069" lon="4.55659">
        <ele>494.2</ele>
        <time>2020-10-19T11:03:12Z</time>
      </trkpt>
      <trkpt lat="46.12069" lon="4.55659">
        <ele>494</ele>
        <time>2020-10-19T11:03:13Z</time>
      </trkpt>
      <trkpt lat="46.12069" lon="4.55659">
        <ele>494</ele>
        <time>2020-10-19T11:03:14Z</time>
      </trkpt>
      <trkpt lat="46.12069" lon="4.55659">
        <ele>494</ele>
        <time>2020-10-19T11:03:15Z</time>
      </trkpt>
      <trkpt lat="46.12069" lon="4.55659">
        <ele>494</ele>
        <time>2020-10-19T11:03:16Z</time>
      </trkpt>
      <trkpt lat="46.12069" lon="4.55659">
        <ele>493.8</ele>
        <time>2020-10-19T11:03:17Z</time>
      </trkpt>
      <trkpt lat="46.12069" lon="4.55659">
        <ele>493.8</ele>
        <time>2020-10-19T11:03:18Z</time>
      </trkpt>
      <trkpt lat="46.12069" lon="4.55659">
        <ele>493.6</ele>
        <time>2020-10-19T11:03:19Z</time>
      </trkpt>
      <trkpt lat="46.12069" lon="4.55659">
        <ele>493.6</ele>
        <time>2020-10-19T11:03:20Z</time>
      </trkpt>
      <trkpt lat="46.12069" lon="4.55659">
        <ele>493.6</ele>
        <time>2020-10-19T11:03:21Z</time>
      </trkpt>
      <trkpt lat="46.12069" lon="4.55659">
        <ele>493.4</ele>
        <time>2020-10-19T11:03:22Z</time>
      </trkpt>
      <trkpt lat="46.12069" lon="4.55659">
        <ele>493.4</ele>
        <time>2020-10-19T11:03:23Z</time>
      </trkpt>
      <trkpt lat="46.12069" lon="4.55659">
        <ele>493.4</ele>
        <time>2020-10-19T11:03:24Z</time>
      </trkpt>
      <trkpt lat="46.12069" lon="4.55659">
        <ele>493.4</ele>
        <time>2020-10-19T11:03:25Z</time>
      </trkpt>
      <trkpt lat="46.12069" lon="4.55659">
        <ele>493.4</ele>
        <time>2020-10-19T11:03:26Z</time>
      </trkpt>
      <trkpt lat="46.12069" lon="4.55659">
        <ele>493.4</ele>
        <time>2020-10-19T11:03:27Z</time>
      </trkpt>
      <trkpt lat="46.12069" lon="4.55659">
        <ele>493.4</ele>
        <time>2020-10-19T11:03:28Z</time>
      </trkpt>
      <trkpt lat="46.12068" lon="4.55662">
        <ele>493.4</ele>
        <time>2020-10-19T11:03:29Z</time>
      </trkpt>
      <trkpt lat="46.12068" lon="4.55662">
        <ele>493.4</ele>
        <time>2020-10-19T11:03:30Z</time>
      </trkpt>
      <trkpt lat="46.12067" lon="4.55666">
        <ele>493.6</ele>
        <time>2020-10-19T11:03:31Z</time>
      </trkpt>
      <trkpt lat="46.12067" lon="4.55666">
        <ele>493.6</ele>
        <time>2020-10-19T11:03:32Z</time>
      </trkpt>
      <trkpt lat="46.12067" lon="4.55669">
        <ele>493.6</ele>
        <time>2020-10-19T11:03:33Z</time>
      </trkpt>
      <trkpt lat="46.12067" lon="4.55669">
        <ele>493.6</ele>
        <time>2020-10-19T11:03:34Z</time>
      </trkpt>
      <trkpt lat="46.12067" lon="4.55669">
        <ele>493.6</ele>
        <time>2020-10-19T11:03:35Z</time>
      </trkpt>
      <trkpt lat="46.12067" lon="4.55669">
        <ele>493.4</ele>
        <time>2020-10-19T11:03:36Z</time>
      </trkpt>
      <trkpt lat="46.12067" lon="4.55669">
        <ele>493.4</ele>
        <time>2020-10-19T11:03:37Z</time>
      </trkpt>
      <trkpt lat="46.12067" lon="4.55669">
        <ele>493</ele>
        <time>2020-10-19T11:03:38Z</time>
      </trkpt>
      <trkpt lat="46.12067" lon="4.55669">
        <ele>492.8</ele>
        <time>2020-10-19T11:03:39Z</time>
      </trkpt>
      <trkpt lat="46.12067" lon="4.55669">
        <ele>492.6</ele>
        <time>2020-10-19T11:03:40Z</time>
      </trkpt>
      <trkpt lat="46.12067" lon="4.55669">
        <ele>492.4</ele>
        <time>2020-10-19T11:03:41Z</time>
      </trkpt>
      <trkpt lat="46.12067" lon="4.55669">
        <ele>492</ele>
        <time>2020-10-19T11:03:42Z</time>
      </trkpt>
      <trkpt lat="46.12067" lon="4.55669">
        <ele>491.8</ele>
        <time>2020-10-19T11:03:43Z</time>
      </trkpt>
      <trkpt lat="46.12067" lon="4.55669">
        <ele>491.8</ele>
        <time>2020-10-19T11:03:44Z</time>
      </trkpt>
      <trkpt lat="46.12067" lon="4.55669">
        <ele>491.8</ele>
        <time>2020-10-19T11:03:45Z</time>
      </trkpt>
      <trkpt lat="46.12067" lon="4.55669">
        <ele>491.8</ele>
        <time>2020-10-19T11:03:46Z</time>
      </trkpt>
      <trkpt lat="46.12067" lon="4.55669">
        <ele>491.6</ele>
        <time>2020-10-19T11:03:47Z</time>
      </trkpt>
      <trkpt lat="46.12067" lon="4.55669">
        <ele>491.6</ele>
        <time>2020-10-19T11:03:48Z</time>
      </trkpt>
      <trkpt lat="46.12067" lon="4.55669">
        <ele>491.4</ele>
        <time>2020-10-19T11:03:49Z</time>
      </trkpt>
      <trkpt lat="46.12067" lon="4.55669">
        <ele>491.2</ele>
        <time>2020-10-19T11:03:50Z</time>
      </trkpt>
      <trkpt lat="46.12067" lon="4.55669">
        <ele>491</ele>
        <time>2020-10-19T11:03:51Z</time>
      </trkpt>
      <trkpt lat="46.12067" lon="4.55669">
        <ele>490.8</ele>
        <time>2020-10-19T11:03:52Z</time>
      </trkpt>
      <trkpt lat="46.12067" lon="4.55669">
        <ele>490.6</ele>
        <time>2020-10-19T11:03:53Z</time>
      </trkpt>
      <trkpt lat="46.12067" lon="4.55669">
        <ele>490.8</ele>
        <time>2020-10-19T11:03:54Z</time>
      </trkpt>
      <trkpt lat="46.12066" lon="4.5567">
        <ele>491</ele>
        <time>2020-10-19T11:03:55Z</time>
      </trkpt>
      <trkpt lat="46.12066" lon="4.5567">
        <ele>491.2</ele>
        <time>2020-10-19T11:03:56Z</time>
      </trkpt>
      <trkpt lat="46.12066" lon="4.5567">
        <ele>491.6</ele>
        <time>2020-10-19T11:03:57Z</time>
      </trkpt>
      <trkpt lat="46.12066" lon="4.5567">
        <ele>492</ele>
        <time>2020-10-19T11:03:58Z</time>
      </trkpt>
      <trkpt lat="46.12066" lon="4.5567">
        <ele>492.2</ele>
        <time>2020-10-19T11:03:59Z</time>
      </trkpt>
      <trkpt lat="46.12066" lon="4.5567">
        <ele>492.2</ele>
        <time>2020-10-19T11:04:00Z</time>
      </trkpt>
      <trkpt lat="46.12066" lon="4.5567">
        <ele>492.4</ele>
        <time>2020-10-19T11:04:01Z</time>
      </trkpt>
      <trkpt lat="46.12066" lon="4.5567">
        <ele>492.6</ele>
        <time>2020-10-19T11:04:02Z</time>
      </trkpt>
      <trkpt lat="46.12066" lon="4.5567">
        <ele>492.6</ele>
        <time>2020-10-19T11:04:03Z</time>
      </trkpt>
      <trkpt lat="46.12066" lon="4.5567">
        <ele>492.6</ele>
        <time>2020-10-19T11:04:04Z</time>
      </trkpt>
      <trkpt lat="46.12068" lon="4.55673">
        <ele>492.6</ele>
        <time>2020-10-19T11:04:05Z</time>
      </trkpt>
      <trkpt lat="46.12068" lon="4.55673">
        <ele>492.4</ele>
        <time>2020-10-19T11:04:06Z</time>
      </trkpt>
      <trkpt lat="46.12068" lon="4.55673">
        <ele>492.2</ele>
        <time>2020-10-19T11:04:07Z</time>
      </trkpt>
      <trkpt lat="46.1207" lon="4.55676">
        <ele>492</ele>
        <time>2020-10-19T11:04:08Z</time>
      </trkpt>
      <trkpt lat="46.1207" lon="4.55676">
        <ele>492</ele>
        <time>2020-10-19T11:04:09Z</time>
      </trkpt>
      <trkpt lat="46.12071" lon="4.55677">
        <ele>491.8</ele>
        <time>2020-10-19T11:04:10Z</time>
      </trkpt>
      <trkpt lat="46.12071" lon="4.55677">
        <ele>491.8</ele>
        <time>2020-10-19T11:04:11Z</time>
      </trkpt>
      <trkpt lat="46.12073" lon="4.55678">
        <ele>491.8</ele>
        <time>2020-10-19T11:04:12Z</time>
      </trkpt>
      <trkpt lat="46.12073" lon="4.55678">
        <ele>491.6</ele>
        <time>2020-10-19T11:04:13Z</time>
      </trkpt>
      <trkpt lat="46.12073" lon="4.55678">
        <ele>491.2</ele>
        <time>2020-10-19T11:04:14Z</time>
      </trkpt>
      <trkpt lat="46.12075" lon="4.55681">
        <ele>491</ele>
        <time>2020-10-19T11:04:15Z</time>
      </trkpt>
      <trkpt lat="46.12075" lon="4.55681">
        <ele>490.6</ele>
        <time>2020-10-19T11:04:16Z</time>
      </trkpt>
      <trkpt lat="46.12076" lon="4.55684">
        <ele>490.4</ele>
        <time>2020-10-19T11:04:17Z</time>
      </trkpt>
      <trkpt lat="46.12076" lon="4.55684">
        <ele>489.8</ele>
        <time>2020-10-19T11:04:18Z</time>
      </trkpt>
      <trkpt lat="46.12078" lon="4.55685">
        <ele>489.8</ele>
        <time>2020-10-19T11:04:19Z</time>
      </trkpt>
      <trkpt lat="46.12078" lon="4.55685">
        <ele>489.6</ele>
        <time>2020-10-19T11:04:20Z</time>
      </trkpt>
      <trkpt lat="46.12081" lon="4.55687">
        <ele>489.6</ele>
        <time>2020-10-19T11:04:21Z</time>
      </trkpt>
      <trkpt lat="46.12081" lon="4.55687">
        <ele>489.4</ele>
        <time>2020-10-19T11:04:22Z</time>
      </trkpt>
      <trkpt lat="46.12084" lon="4.55688">
        <ele>489.2</ele>
        <time>2020-10-19T11:04:23Z</time>
      </trkpt>
      <trkpt lat="46.12084" lon="4.55688">
        <ele>489.4</ele>
        <time>2020-10-19T11:04:24Z</time>
      </trkpt>
      <trkpt lat="46.12087" lon="4.5569">
        <ele>489.8</ele>
        <time>2020-10-19T11:04:25Z</time>
      </trkpt>
      <trkpt lat="46.12087" lon="4.5569">
        <ele>489.6</ele>
        <time>2020-10-19T11:04:26Z</time>
      </trkpt>
      <trkpt lat="46.12089" lon="4.55691">
        <ele>489.2</ele>
        <time>2020-10-19T11:04:27Z</time>
      </trkpt>
      <trkpt lat="46.12091" lon="4.55691">
        <ele>489.2</ele>
        <time>2020-10-19T11:04:28Z</time>
      </trkpt>
      <trkpt lat="46.12091" lon="4.55691">
        <ele>489.2</ele>
        <time>2020-10-19T11:04:29Z</time>
      </trkpt>
      <trkpt lat="46.12091" lon="4.55691">
        <ele>489</ele>
        <time>2020-10-19T11:04:30Z</time>
      </trkpt>
      <trkpt lat="46.12091" lon="4.55691">
        <ele>489</ele>
        <time>2020-10-19T11:04:31Z</time>
      </trkpt>
      <trkpt lat="46.1209" lon="4.55693">
        <ele>488.8</ele>
        <time>2020-10-19T11:04:32Z</time>
      </trkpt>
      <trkpt lat="46.1209" lon="4.55693">
        <ele>489</ele>
        <time>2020-10-19T11:04:33Z</time>
      </trkpt>
      <trkpt lat="46.1209" lon="4.55693">
        <ele>489</ele>
        <time>2020-10-19T11:04:34Z</time>
      </trkpt>
      <trkpt lat="46.1209" lon="4.55693">
        <ele>489.2</ele>
        <time>2020-10-19T11:04:35Z</time>
      </trkpt>
      <trkpt lat="46.1209" lon="4.55693">
        <ele>489.6</ele>
        <time>2020-10-19T11:04:36Z</time>
      </trkpt>
      <trkpt lat="46.1209" lon="4.55693">
        <ele>490</ele>
        <time>2020-10-19T11:04:37Z</time>
      </trkpt>
      <trkpt lat="46.1209" lon="4.55693">
        <ele>490.2</ele>
        <time>2020-10-19T11:04:38Z</time>
      </trkpt>
      <trkpt lat="46.1209" lon="4.55693">
        <ele>490.4</ele>
        <time>2020-10-19T11:04:39Z</time>
      </trkpt>
      <trkpt lat="46.1209" lon="4.55693">
        <ele>490.6</ele>
        <time>2020-10-19T11:04:40Z</time>
      </trkpt>
      <trkpt lat="46.1209" lon="4.55693">
        <ele>490.4</ele>
        <time>2020-10-19T11:04:41Z</time>
      </trkpt>
      <trkpt lat="46.1209" lon="4.55693">
        <ele>490.6</ele>
        <time>2020-10-19T11:04:42Z</time>
      </trkpt>
      <trkpt lat="46.1209" lon="4.55693">
        <ele>490.4</ele>
        <time>2020-10-19T11:04:43Z</time>
      </trkpt>
      <trkpt lat="46.1209" lon="4.55693">
        <ele>490.4</ele>
        <time>2020-10-19T11:04:44Z</time>
      </trkpt>
      <trkpt lat="46.1209" lon="4.55693">
        <ele>490.4</ele>
        <time>2020-10-19T11:04:45Z</time>
      </trkpt>
      <trkpt lat="46.1209" lon="4.55693">
        <ele>490.4</ele>
        <time>2020-10-19T11:04:46Z</time>
      </trkpt>
      <trkpt lat="46.1209" lon="4.55693">
        <ele>490.2</ele>
        <time>2020-10-19T11:04:47Z</time>
      </trkpt>
      <trkpt lat="46.12091" lon="4.55695">
        <ele>490.4</ele>
        <time>2020-10-19T11:04:48Z</time>
      </trkpt>
      <trkpt lat="46.12091" lon="4.55695">
        <ele>490.2</ele>
        <time>2020-10-19T11:04:49Z</time>
      </trkpt>
      <trkpt lat="46.12093" lon="4.55697">
        <ele>490</ele>
        <time>2020-10-19T11:04:50Z</time>
      </trkpt>
      <trkpt lat="46.12093" lon="4.55697">
        <ele>489.8</ele>
        <time>2020-10-19T11:04:51Z</time>
      </trkpt>
      <trkpt lat="46.12093" lon="4.55697">
        <ele>489.8</ele>
        <time>2020-10-19T11:04:52Z</time>
      </trkpt>
      <trkpt lat="46.12093" lon="4.55697">
        <ele>489.8</ele>
        <time>2020-10-19T11:04:53Z</time>
      </trkpt>
      <trkpt lat="46.12093" lon="4.55697">
        <ele>489.8</ele>
        <time>2020-10-19T11:04:54Z</time>
      </trkpt>
      <trkpt lat="46.12094" lon="4.55698">
        <ele>489.8</ele>
        <time>2020-10-19T11:04:55Z</time>
      </trkpt>
      <trkpt lat="46.12094" lon="4.55698">
        <ele>490</ele>
        <time>2020-10-19T11:04:56Z</time>
      </trkpt>
      <trkpt lat="46.12094" lon="4.55698">
        <ele>489.8</ele>
        <time>2020-10-19T11:04:57Z</time>
      </trkpt>
      <trkpt lat="46.12094" lon="4.55698">
        <ele>489.6</ele>
        <time>2020-10-19T11:04:58Z</time>
      </trkpt>
      <trkpt lat="46.12094" lon="4.55701">
        <ele>489.6</ele>
        <time>2020-10-19T11:04:59Z</time>
      </trkpt>
      <trkpt lat="46.12094" lon="4.55701">
        <ele>489.6</ele>
        <time>2020-10-19T11:05:00Z</time>
      </trkpt>
      <trkpt lat="46.12091" lon="4.55701">
        <ele>489.6</ele>
        <time>2020-10-19T11:05:01Z</time>
      </trkpt>
      <trkpt lat="46.12091" lon="4.55701">
        <ele>489.6</ele>
        <time>2020-10-19T11:05:02Z</time>
      </trkpt>
      <trkpt lat="46.12089" lon="4.55699">
        <ele>489.4</ele>
        <time>2020-10-19T11:05:03Z</time>
      </trkpt>
      <trkpt lat="46.12089" lon="4.55699">
        <ele>489</ele>
        <time>2020-10-19T11:05:04Z</time>
      </trkpt>
      <trkpt lat="46.12089" lon="4.55699">
        <ele>488.8</ele>
        <time>2020-10-19T11:05:05Z</time>
      </trkpt>
      <trkpt lat="46.12089" lon="4.55699">
        <ele>488.6</ele>
        <time>2020-10-19T11:05:06Z</time>
      </trkpt>
      <trkpt lat="46.12089" lon="4.55699">
        <ele>488.4</ele>
        <time>2020-10-19T11:05:07Z</time>
      </trkpt>
      <trkpt lat="46.12089" lon="4.55699">
        <ele>488.4</ele>
        <time>2020-10-19T11:05:08Z</time>
      </trkpt>
      <trkpt lat="46.12089" lon="4.55699">
        <ele>488.4</ele>
        <time>2020-10-19T11:05:09Z</time>
      </trkpt>
      <trkpt lat="46.12089" lon="4.55699">
        <ele>488.2</ele>
        <time>2020-10-19T11:05:10Z</time>
      </trkpt>
      <trkpt lat="46.12089" lon="4.55699">
        <ele>488</ele>
        <time>2020-10-19T11:05:11Z</time>
      </trkpt>
      <trkpt lat="46.12089" lon="4.55699">
        <ele>488</ele>
        <time>2020-10-19T11:05:12Z</time>
      </trkpt>
      <trkpt lat="46.12089" lon="4.55699">
        <ele>488.2</ele>
        <time>2020-10-19T11:05:13Z</time>
      </trkpt>
      <trkpt lat="46.12089" lon="4.55699">
        <ele>488.2</ele>
        <time>2020-10-19T11:05:14Z</time>
      </trkpt>
      <trkpt lat="46.12089" lon="4.55699">
        <ele>488.4</ele>
        <time>2020-10-19T11:05:15Z</time>
      </trkpt>
      <trkpt lat="46.12089" lon="4.55699">
        <ele>488.2</ele>
        <time>2020-10-19T11:05:16Z</time>
      </trkpt>
      <trkpt lat="46.12089" lon="4.55699">
        <ele>488.2</ele>
        <time>2020-10-19T11:05:17Z</time>
      </trkpt>
      <trkpt lat="46.12089" lon="4.55699">
        <ele>488.2</ele>
        <time>2020-10-19T11:05:18Z</time>
      </trkpt>
      <trkpt lat="46.12089" lon="4.55699">
        <ele>488.2</ele>
        <time>2020-10-19T11:05:19Z</time>
      </trkpt>
      <trkpt lat="46.12089" lon="4.55699">
        <ele>488.2</ele>
        <time>2020-10-19T11:05:20Z</time>
      </trkpt>
      <trkpt lat="46.12089" lon="4.55699">
        <ele>488</ele>
        <time>2020-10-19T11:05:21Z</time>
      </trkpt>
      <trkpt lat="46.12089" lon="4.55699">
        <ele>487.8</ele>
        <time>2020-10-19T11:05:22Z</time>
      </trkpt>
      <trkpt lat="46.12089" lon="4.55699">
        <ele>487.6</ele>
        <time>2020-10-19T11:05:23Z</time>
      </trkpt>
      <trkpt lat="46.12089" lon="4.55699">
        <ele>487.6</ele>
        <time>2020-10-19T11:05:24Z</time>
      </trkpt>
      <trkpt lat="46.12089" lon="4.55699">
        <ele>487.6</ele>
        <time>2020-10-19T11:05:25Z</time>
      </trkpt>
      <trkpt lat="46.12089" lon="4.55699">
        <ele>487.6</ele>
        <time>2020-10-19T11:05:26Z</time>
      </trkpt>
      <trkpt lat="46.12089" lon="4.55699">
        <ele>487.4</ele>
        <time>2020-10-19T11:05:27Z</time>
      </trkpt>
      <trkpt lat="46.12089" lon="4.55699">
        <ele>487.2</ele>
        <time>2020-10-19T11:05:28Z</time>
      </trkpt>
      <trkpt lat="46.12089" lon="4.55699">
        <ele>487.4</ele>
        <time>2020-10-19T11:05:29Z</time>
      </trkpt>
      <trkpt lat="46.12089" lon="4.55699">
        <ele>487.4</ele>
        <time>2020-10-19T11:05:30Z</time>
      </trkpt>
      <trkpt lat="46.12089" lon="4.55699">
        <ele>487.2</ele>
        <time>2020-10-19T11:05:31Z</time>
      </trkpt>
      <trkpt lat="46.12089" lon="4.55699">
        <ele>487.2</ele>
        <time>2020-10-19T11:05:32Z</time>
      </trkpt>
      <trkpt lat="46.12089" lon="4.55699">
        <ele>487.4</ele>
        <time>2020-10-19T11:05:33Z</time>
      </trkpt>
      <trkpt lat="46.12089" lon="4.55699">
        <ele>487.4</ele>
        <time>2020-10-19T11:05:34Z</time>
      </trkpt>
      <trkpt lat="46.12089" lon="4.55699">
        <ele>487.4</ele>
        <time>2020-10-19T11:05:35Z</time>
      </trkpt>
      <trkpt lat="46.12089" lon="4.55699">
        <ele>487.4</ele>
        <time>2020-10-19T11:05:36Z</time>
      </trkpt>
      <trkpt lat="46.12089" lon="4.55699">
        <ele>487.4</ele>
        <time>2020-10-19T11:05:37Z</time>
      </trkpt>
      <trkpt lat="46.12089" lon="4.55699">
        <ele>487.4</ele>
        <time>2020-10-19T11:05:38Z</time>
      </trkpt>
      <trkpt lat="46.12089" lon="4.55699">
        <ele>487.6</ele>
        <time>2020-10-19T11:05:39Z</time>
      </trkpt>
      <trkpt lat="46.12089" lon="4.55699">
        <ele>487.8</ele>
        <time>2020-10-19T11:05:40Z</time>
      </trkpt>
      <trkpt lat="46.12089" lon="4.55699">
        <ele>488</ele>
        <time>2020-10-19T11:05:41Z</time>
      </trkpt>
      <trkpt lat="46.12089" lon="4.55699">
        <ele>488.4</ele>
        <time>2020-10-19T11:05:42Z</time>
      </trkpt>
      <trkpt lat="46.12091" lon="4.55701">
        <ele>488.2</ele>
        <time>2020-10-19T11:05:43Z</time>
      </trkpt>
      <trkpt lat="46.12091" lon="4.55701">
        <ele>488.2</ele>
        <time>2020-10-19T11:05:44Z</time>
      </trkpt>
      <trkpt lat="46.12091" lon="4.55701">
        <ele>488</ele>
        <time>2020-10-19T11:05:45Z</time>
      </trkpt>
      <trkpt lat="46.12093" lon="4.55703">
        <ele>488.2</ele>
        <time>2020-10-19T11:05:46Z</time>
      </trkpt>
      <trkpt lat="46.12093" lon="4.55703">
        <ele>488.2</ele>
        <time>2020-10-19T11:05:47Z</time>
      </trkpt>
      <trkpt lat="46.12095" lon="4.55703">
        <ele>488.4</ele>
        <time>2020-10-19T11:05:48Z</time>
      </trkpt>
      <trkpt lat="46.12095" lon="4.55703">
        <ele>488.4</ele>
        <time>2020-10-19T11:05:49Z</time>
      </trkpt>
      <trkpt lat="46.12095" lon="4.55703">
        <ele>488.4</ele>
        <time>2020-10-19T11:05:50Z</time>
      </trkpt>
      <trkpt lat="46.12097" lon="4.55704">
        <ele>488.4</ele>
        <time>2020-10-19T11:05:51Z</time>
      </trkpt>
      <trkpt lat="46.12097" lon="4.55704">
        <ele>488.4</ele>
        <time>2020-10-19T11:05:52Z</time>
      </trkpt>
      <trkpt lat="46.12099" lon="4.55707">
        <ele>488.4</ele>
        <time>2020-10-19T11:05:53Z</time>
      </trkpt>
      <trkpt lat="46.12099" lon="4.55707">
        <ele>488.2</ele>
        <time>2020-10-19T11:05:54Z</time>
      </trkpt>
      <trkpt lat="46.12101" lon="4.5571">
        <ele>488</ele>
        <time>2020-10-19T11:05:55Z</time>
      </trkpt>
      <trkpt lat="46.12101" lon="4.5571">
        <ele>487.8</ele>
        <time>2020-10-19T11:05:56Z</time>
      </trkpt>
      <trkpt lat="46.12101" lon="4.55714">
        <ele>487.6</ele>
        <time>2020-10-19T11:05:57Z</time>
      </trkpt>
      <trkpt lat="46.12101" lon="4.55714">
        <ele>487.6</ele>
        <time>2020-10-19T11:05:58Z</time>
      </trkpt>
      <trkpt lat="46.12101" lon="4.55714">
        <ele>487.8</ele>
        <time>2020-10-19T11:05:59Z</time>
      </trkpt>
      <trkpt lat="46.12101" lon="4.55714">
        <ele>487.8</ele>
        <time>2020-10-19T11:06:00Z</time>
      </trkpt>
      <trkpt lat="46.12101" lon="4.55714">
        <ele>488</ele>
        <time>2020-10-19T11:06:01Z</time>
      </trkpt>
      <trkpt lat="46.12101" lon="4.55714">
        <ele>488</ele>
        <time>2020-10-19T11:06:02Z</time>
      </trkpt>
      <trkpt lat="46.12101" lon="4.55714">
        <ele>488.2</ele>
        <time>2020-10-19T11:06:03Z</time>
      </trkpt>
      <trkpt lat="46.12101" lon="4.55714">
        <ele>488</ele>
        <time>2020-10-19T11:06:04Z</time>
      </trkpt>
      <trkpt lat="46.12101" lon="4.55714">
        <ele>488.2</ele>
        <time>2020-10-19T11:06:05Z</time>
      </trkpt>
      <trkpt lat="46.12101" lon="4.55714">
        <ele>488</ele>
        <time>2020-10-19T11:06:06Z</time>
      </trkpt>
      <trkpt lat="46.12101" lon="4.55714">
        <ele>487.8</ele>
        <time>2020-10-19T11:06:07Z</time>
      </trkpt>
      <trkpt lat="46.12101" lon="4.55714">
        <ele>487.6</ele>
        <time>2020-10-19T11:06:08Z</time>
      </trkpt>
      <trkpt lat="46.12101" lon="4.55714">
        <ele>487.4</ele>
        <time>2020-10-19T11:06:09Z</time>
      </trkpt>
      <trkpt lat="46.12103" lon="4.55716">
        <ele>486.8</ele>
        <time>2020-10-19T11:06:10Z</time>
      </trkpt>
      <trkpt lat="46.12103" lon="4.55716">
        <ele>486.4</ele>
        <time>2020-10-19T11:06:11Z</time>
      </trkpt>
      <trkpt lat="46.12105" lon="4.5572">
        <ele>486.2</ele>
        <time>2020-10-19T11:06:12Z</time>
      </trkpt>
      <trkpt lat="46.12105" lon="4.5572">
        <ele>486</ele>
        <time>2020-10-19T11:06:13Z</time>
      </trkpt>
      <trkpt lat="46.12106" lon="4.55724">
        <ele>485.6</ele>
        <time>2020-10-19T11:06:14Z</time>
      </trkpt>
      <trkpt lat="46.12106" lon="4.55724">
        <ele>485.4</ele>
        <time>2020-10-19T11:06:15Z</time>
      </trkpt>
      <trkpt lat="46.12106" lon="4.55724">
        <ele>485.2</ele>
        <time>2020-10-19T11:06:16Z</time>
      </trkpt>
      <trkpt lat="46.12105" lon="4.55727">
        <ele>485.2</ele>
        <time>2020-10-19T11:06:17Z</time>
      </trkpt>
      <trkpt lat="46.12105" lon="4.55727">
        <ele>484.8</ele>
        <time>2020-10-19T11:06:18Z</time>
      </trkpt>
      <trkpt lat="46.12103" lon="4.5573">
        <ele>484.6</ele>
        <time>2020-10-19T11:06:19Z</time>
      </trkpt>
      <trkpt lat="46.12103" lon="4.5573">
        <ele>484.4</ele>
        <time>2020-10-19T11:06:20Z</time>
      </trkpt>
      <trkpt lat="46.12102" lon="4.55732">
        <ele>484.2</ele>
        <time>2020-10-19T11:06:21Z</time>
      </trkpt>
      <trkpt lat="46.12102" lon="4.55732">
        <ele>484</ele>
        <time>2020-10-19T11:06:22Z</time>
      </trkpt>
      <trkpt lat="46.12102" lon="4.55732">
        <ele>483.8</ele>
        <time>2020-10-19T11:06:23Z</time>
      </trkpt>
      <trkpt lat="46.12101" lon="4.55737">
        <ele>483.6</ele>
        <time>2020-10-19T11:06:24Z</time>
      </trkpt>
      <trkpt lat="46.121" lon="4.5574">
        <ele>483.4</ele>
        <time>2020-10-19T11:06:25Z</time>
      </trkpt>
      <trkpt lat="46.12098" lon="4.55743">
        <ele>483.2</ele>
        <time>2020-10-19T11:06:26Z</time>
      </trkpt>
      <trkpt lat="46.12097" lon="4.55746">
        <ele>482.6</ele>
        <time>2020-10-19T11:06:27Z</time>
      </trkpt>
      <trkpt lat="46.12095" lon="4.55749">
        <ele>482.8</ele>
        <time>2020-10-19T11:06:28Z</time>
      </trkpt>
      <trkpt lat="46.12093" lon="4.55752">
        <ele>482.4</ele>
        <time>2020-10-19T11:06:29Z</time>
      </trkpt>
      <trkpt lat="46.12092" lon="4.55756">
        <ele>482.2</ele>
        <time>2020-10-19T11:06:30Z</time>
      </trkpt>
      <trkpt lat="46.1209" lon="4.55759">
        <ele>482</ele>
        <time>2020-10-19T11:06:31Z</time>
      </trkpt>
      <trkpt lat="46.12089" lon="4.55762">
        <ele>481.8</ele>
        <time>2020-10-19T11:06:32Z</time>
      </trkpt>
      <trkpt lat="46.12087" lon="4.55765">
        <ele>481.6</ele>
        <time>2020-10-19T11:06:33Z</time>
      </trkpt>
      <trkpt lat="46.12086" lon="4.55768">
        <ele>481.6</ele>
        <time>2020-10-19T11:06:34Z</time>
      </trkpt>
      <trkpt lat="46.12085" lon="4.55771">
        <ele>481.4</ele>
        <time>2020-10-19T11:06:35Z</time>
      </trkpt>
      <trkpt lat="46.12083" lon="4.55774">
        <ele>481.2</ele>
        <time>2020-10-19T11:06:36Z</time>
      </trkpt>
      <trkpt lat="46.12082" lon="4.55777">
        <ele>481.2</ele>
        <time>2020-10-19T11:06:37Z</time>
      </trkpt>
      <trkpt lat="46.12081" lon="4.5578">
        <ele>481.2</ele>
        <time>2020-10-19T11:06:38Z</time>
      </trkpt>
      <trkpt lat="46.12079" lon="4.55783">
        <ele>480.6</ele>
        <time>2020-10-19T11:06:39Z</time>
      </trkpt>
      <trkpt lat="46.12078" lon="4.55786">
        <ele>480.4</ele>
        <time>2020-10-19T11:06:40Z</time>
      </trkpt>
      <trkpt lat="46.12076" lon="4.55788">
        <ele>480.4</ele>
        <time>2020-10-19T11:06:41Z</time>
      </trkpt>
      <trkpt lat="46.12074" lon="4.5579">
        <ele>480.2</ele>
        <time>2020-10-19T11:06:42Z</time>
      </trkpt>
      <trkpt lat="46.12072" lon="4.55792">
        <ele>480</ele>
        <time>2020-10-19T11:06:43Z</time>
      </trkpt>
      <trkpt lat="46.12069" lon="4.55793">
        <ele>480.2</ele>
        <time>2020-10-19T11:06:44Z</time>
      </trkpt>
      <trkpt lat="46.12067" lon="4.55794">
        <ele>479.8</ele>
        <time>2020-10-19T11:06:45Z</time>
      </trkpt>
      <trkpt lat="46.12064" lon="4.55794">
        <ele>479.8</ele>
        <time>2020-10-19T11:06:46Z</time>
      </trkpt>
      <trkpt lat="46.12061" lon="4.55794">
        <ele>479.8</ele>
        <time>2020-10-19T11:06:47Z</time>
      </trkpt>
      <trkpt lat="46.12059" lon="4.55794">
        <ele>479.8</ele>
        <time>2020-10-19T11:06:48Z</time>
      </trkpt>
      <trkpt lat="46.12056" lon="4.55795">
        <ele>479.6</ele>
        <time>2020-10-19T11:06:49Z</time>
      </trkpt>
      <trkpt lat="46.12054" lon="4.55795">
        <ele>479.8</ele>
        <time>2020-10-19T11:06:50Z</time>
      </trkpt>
      <trkpt lat="46.12052" lon="4.55796">
        <ele>479.8</ele>
        <time>2020-10-19T11:06:51Z</time>
      </trkpt>
      <trkpt lat="46.12049" lon="4.55796">
        <ele>479.6</ele>
        <time>2020-10-19T11:06:52Z</time>
      </trkpt>
      <trkpt lat="46.12047" lon="4.55797">
        <ele>479.8</ele>
        <time>2020-10-19T11:06:53Z</time>
      </trkpt>
      <trkpt lat="46.12044" lon="4.55798">
        <ele>479.6</ele>
        <time>2020-10-19T11:06:54Z</time>
      </trkpt>
      <trkpt lat="46.12041" lon="4.55798">
        <ele>479.4</ele>
        <time>2020-10-19T11:06:55Z</time>
      </trkpt>
      <trkpt lat="46.12038" lon="4.55799">
        <ele>479.4</ele>
        <time>2020-10-19T11:06:56Z</time>
      </trkpt>
      <trkpt lat="46.12036" lon="4.558">
        <ele>479.4</ele>
        <time>2020-10-19T11:06:57Z</time>
      </trkpt>
      <trkpt lat="46.12033" lon="4.55801">
        <ele>479.2</ele>
        <time>2020-10-19T11:06:58Z</time>
      </trkpt>
      <trkpt lat="46.12031" lon="4.55802">
        <ele>479.2</ele>
        <time>2020-10-19T11:06:59Z</time>
      </trkpt>
      <trkpt lat="46.12028" lon="4.55802">
        <ele>479.2</ele>
        <time>2020-10-19T11:07:00Z</time>
      </trkpt>
      <trkpt lat="46.12026" lon="4.55803">
        <ele>478.8</ele>
        <time>2020-10-19T11:07:01Z</time>
      </trkpt>
      <trkpt lat="46.12024" lon="4.55804">
        <ele>478.4</ele>
        <time>2020-10-19T11:07:02Z</time>
      </trkpt>
      <trkpt lat="46.12022" lon="4.55805">
        <ele>478.8</ele>
        <time>2020-10-19T11:07:03Z</time>
      </trkpt>
      <trkpt lat="46.12019" lon="4.55806">
        <ele>478.6</ele>
        <time>2020-10-19T11:07:04Z</time>
      </trkpt>
      <trkpt lat="46.12017" lon="4.55807">
        <ele>478.4</ele>
        <time>2020-10-19T11:07:05Z</time>
      </trkpt>
      <trkpt lat="46.12014" lon="4.55809">
        <ele>478.6</ele>
        <time>2020-10-19T11:07:06Z</time>
      </trkpt>
      <trkpt lat="46.12013" lon="4.55811">
        <ele>478.2</ele>
        <time>2020-10-19T11:07:07Z</time>
      </trkpt>
      <trkpt lat="46.1201" lon="4.55813">
        <ele>477.8</ele>
        <time>2020-10-19T11:07:08Z</time>
      </trkpt>
      <trkpt lat="46.12008" lon="4.55815">
        <ele>477.8</ele>
        <time>2020-10-19T11:07:09Z</time>
      </trkpt>
      <trkpt lat="46.12006" lon="4.55817">
        <ele>477.4</ele>
        <time>2020-10-19T11:07:10Z</time>
      </trkpt>
      <trkpt lat="46.12004" lon="4.55819">
        <ele>477.2</ele>
        <time>2020-10-19T11:07:11Z</time>
      </trkpt>
      <trkpt lat="46.12002" lon="4.55821">
        <ele>477.2</ele>
        <time>2020-10-19T11:07:12Z</time>
      </trkpt>
      <trkpt lat="46.12" lon="4.55824">
        <ele>477</ele>
        <time>2020-10-19T11:07:13Z</time>
      </trkpt>
      <trkpt lat="46.11998" lon="4.55826">
        <ele>476.4</ele>
        <time>2020-10-19T11:07:14Z</time>
      </trkpt>
      <trkpt lat="46.11996" lon="4.55828">
        <ele>476.2</ele>
        <time>2020-10-19T11:07:15Z</time>
      </trkpt>
      <trkpt lat="46.11994" lon="4.55831">
        <ele>475.8</ele>
        <time>2020-10-19T11:07:16Z</time>
      </trkpt>
      <trkpt lat="46.11993" lon="4.55833">
        <ele>475.4</ele>
        <time>2020-10-19T11:07:17Z</time>
      </trkpt>
      <trkpt lat="46.11991" lon="4.55835">
        <ele>475.4</ele>
        <time>2020-10-19T11:07:18Z</time>
      </trkpt>
      <trkpt lat="46.1199" lon="4.55838">
        <ele>476</ele>
        <time>2020-10-19T11:07:19Z</time>
      </trkpt>
      <trkpt lat="46.11989" lon="4.55841">
        <ele>475.2</ele>
        <time>2020-10-19T11:07:20Z</time>
      </trkpt>
      <trkpt lat="46.11987" lon="4.55844">
        <ele>475.2</ele>
        <time>2020-10-19T11:07:21Z</time>
      </trkpt>
      <trkpt lat="46.11985" lon="4.55846">
        <ele>475.2</ele>
        <time>2020-10-19T11:07:22Z</time>
      </trkpt>
      <trkpt lat="46.11984" lon="4.55848">
        <ele>474.4</ele>
        <time>2020-10-19T11:07:23Z</time>
      </trkpt>
      <trkpt lat="46.11982" lon="4.55851">
        <ele>474</ele>
        <time>2020-10-19T11:07:24Z</time>
      </trkpt>
      <trkpt lat="46.11981" lon="4.55854">
        <ele>473.8</ele>
        <time>2020-10-19T11:07:25Z</time>
      </trkpt>
      <trkpt lat="46.11979" lon="4.55857">
        <ele>473.4</ele>
        <time>2020-10-19T11:07:26Z</time>
      </trkpt>
      <trkpt lat="46.11978" lon="4.5586">
        <ele>472.8</ele>
        <time>2020-10-19T11:07:27Z</time>
      </trkpt>
      <trkpt lat="46.11976" lon="4.55864">
        <ele>473</ele>
        <time>2020-10-19T11:07:28Z</time>
      </trkpt>
      <trkpt lat="46.11974" lon="4.55867">
        <ele>472.6</ele>
        <time>2020-10-19T11:07:29Z</time>
      </trkpt>
      <trkpt lat="46.11973" lon="4.5587">
        <ele>472</ele>
        <time>2020-10-19T11:07:30Z</time>
      </trkpt>
      <trkpt lat="46.1197" lon="4.55874">
        <ele>472</ele>
        <time>2020-10-19T11:07:31Z</time>
      </trkpt>
      <trkpt lat="46.11969" lon="4.55878">
        <ele>471.8</ele>
        <time>2020-10-19T11:07:32Z</time>
      </trkpt>
      <trkpt lat="46.11967" lon="4.55881">
        <ele>471</ele>
        <time>2020-10-19T11:07:33Z</time>
      </trkpt>
      <trkpt lat="46.11966" lon="4.55884">
        <ele>471.2</ele>
        <time>2020-10-19T11:07:34Z</time>
      </trkpt>
      <trkpt lat="46.11964" lon="4.55888">
        <ele>471</ele>
        <time>2020-10-19T11:07:35Z</time>
      </trkpt>
      <trkpt lat="46.11963" lon="4.55891">
        <ele>470.4</ele>
        <time>2020-10-19T11:07:36Z</time>
      </trkpt>
      <trkpt lat="46.11961" lon="4.55895">
        <ele>470.4</ele>
        <time>2020-10-19T11:07:37Z</time>
      </trkpt>
      <trkpt lat="46.1196" lon="4.55898">
        <ele>470.2</ele>
        <time>2020-10-19T11:07:38Z</time>
      </trkpt>
      <trkpt lat="46.11959" lon="4.55901">
        <ele>469.8</ele>
        <time>2020-10-19T11:07:39Z</time>
      </trkpt>
      <trkpt lat="46.11958" lon="4.55905">
        <ele>469.8</ele>
        <time>2020-10-19T11:07:40Z</time>
      </trkpt>
      <trkpt lat="46.11957" lon="4.55909">
        <ele>470</ele>
        <time>2020-10-19T11:07:41Z</time>
      </trkpt>
      <trkpt lat="46.11957" lon="4.55912">
        <ele>469.4</ele>
        <time>2020-10-19T11:07:42Z</time>
      </trkpt>
      <trkpt lat="46.11956" lon="4.55916">
        <ele>469.4</ele>
        <time>2020-10-19T11:07:43Z</time>
      </trkpt>
      <trkpt lat="46.11955" lon="4.5592">
        <ele>469.4</ele>
        <time>2020-10-19T11:07:44Z</time>
      </trkpt>
      <trkpt lat="46.11955" lon="4.55923">
        <ele>469</ele>
        <time>2020-10-19T11:07:45Z</time>
      </trkpt>
      <trkpt lat="46.11954" lon="4.55927">
        <ele>469</ele>
        <time>2020-10-19T11:07:46Z</time>
      </trkpt>
      <trkpt lat="46.11953" lon="4.55931">
        <ele>469.2</ele>
        <time>2020-10-19T11:07:47Z</time>
      </trkpt>
      <trkpt lat="46.11952" lon="4.55934">
        <ele>468.8</ele>
        <time>2020-10-19T11:07:48Z</time>
      </trkpt>
      <trkpt lat="46.11951" lon="4.55938">
        <ele>468.8</ele>
        <time>2020-10-19T11:07:49Z</time>
      </trkpt>
      <trkpt lat="46.1195" lon="4.55942">
        <ele>468.6</ele>
        <time>2020-10-19T11:07:50Z</time>
      </trkpt>
      <trkpt lat="46.1195" lon="4.55946">
        <ele>468.2</ele>
        <time>2020-10-19T11:07:51Z</time>
      </trkpt>
      <trkpt lat="46.11949" lon="4.5595">
        <ele>468.2</ele>
        <time>2020-10-19T11:07:52Z</time>
      </trkpt>
      <trkpt lat="46.11949" lon="4.55954">
        <ele>468.2</ele>
        <time>2020-10-19T11:07:53Z</time>
      </trkpt>
      <trkpt lat="46.11948" lon="4.55958">
        <ele>467.8</ele>
        <time>2020-10-19T11:07:54Z</time>
      </trkpt>
      <trkpt lat="46.11947" lon="4.55962">
        <ele>467.4</ele>
        <time>2020-10-19T11:07:55Z</time>
      </trkpt>
      <trkpt lat="46.11947" lon="4.55965">
        <ele>467.6</ele>
        <time>2020-10-19T11:07:56Z</time>
      </trkpt>
      <trkpt lat="46.11946" lon="4.55969">
        <ele>467.4</ele>
        <time>2020-10-19T11:07:57Z</time>
      </trkpt>
      <trkpt lat="46.11946" lon="4.55973">
        <ele>467</ele>
        <time>2020-10-19T11:07:58Z</time>
      </trkpt>
      <trkpt lat="46.11945" lon="4.55976">
        <ele>467.4</ele>
        <time>2020-10-19T11:07:59Z</time>
      </trkpt>
      <trkpt lat="46.11946" lon="4.5598">
        <ele>467</ele>
        <time>2020-10-19T11:08:00Z</time>
      </trkpt>
      <trkpt lat="46.11945" lon="4.55983">
        <ele>466.8</ele>
        <time>2020-10-19T11:08:01Z</time>
      </trkpt>
      <trkpt lat="46.11945" lon="4.55983">
        <ele>466.8</ele>
        <time>2020-10-19T11:08:02Z</time>
      </trkpt>
      <trkpt lat="46.11945" lon="4.55987">
        <ele>467</ele>
        <time>2020-10-19T11:08:03Z</time>
      </trkpt>
      <trkpt lat="46.11945" lon="4.55987">
        <ele>466.8</ele>
        <time>2020-10-19T11:08:04Z</time>
      </trkpt>
      <trkpt lat="46.11945" lon="4.55991">
        <ele>466.2</ele>
        <time>2020-10-19T11:08:05Z</time>
      </trkpt>
      <trkpt lat="46.11945" lon="4.55991">
        <ele>466.2</ele>
        <time>2020-10-19T11:08:06Z</time>
      </trkpt>
      <trkpt lat="46.11945" lon="4.55994">
        <ele>466.4</ele>
        <time>2020-10-19T11:08:07Z</time>
      </trkpt>
      <trkpt lat="46.11945" lon="4.55994">
        <ele>465.8</ele>
        <time>2020-10-19T11:08:08Z</time>
      </trkpt>
      <trkpt lat="46.11946" lon="4.55998">
        <ele>465.8</ele>
        <time>2020-10-19T11:08:09Z</time>
      </trkpt>
      <trkpt lat="46.11946" lon="4.55998">
        <ele>465.6</ele>
        <time>2020-10-19T11:08:10Z</time>
      </trkpt>
      <trkpt lat="46.11947" lon="4.56001">
        <ele>465.6</ele>
        <time>2020-10-19T11:08:11Z</time>
      </trkpt>
      <trkpt lat="46.11947" lon="4.56001">
        <ele>465.6</ele>
        <time>2020-10-19T11:08:12Z</time>
      </trkpt>
      <trkpt lat="46.11947" lon="4.56004">
        <ele>465.4</ele>
        <time>2020-10-19T11:08:13Z</time>
      </trkpt>
      <trkpt lat="46.11947" lon="4.56004">
        <ele>465.2</ele>
        <time>2020-10-19T11:08:14Z</time>
      </trkpt>
      <trkpt lat="46.11946" lon="4.56008">
        <ele>465.2</ele>
        <time>2020-10-19T11:08:15Z</time>
      </trkpt>
      <trkpt lat="46.11946" lon="4.56008">
        <ele>465.2</ele>
        <time>2020-10-19T11:08:16Z</time>
      </trkpt>
      <trkpt lat="46.11946" lon="4.56012">
        <ele>465.2</ele>
        <time>2020-10-19T11:08:17Z</time>
      </trkpt>
      <trkpt lat="46.11946" lon="4.56012">
        <ele>465</ele>
        <time>2020-10-19T11:08:18Z</time>
      </trkpt>
      <trkpt lat="46.11945" lon="4.56016">
        <ele>465</ele>
        <time>2020-10-19T11:08:19Z</time>
      </trkpt>
      <trkpt lat="46.11945" lon="4.56016">
        <ele>464.8</ele>
        <time>2020-10-19T11:08:20Z</time>
      </trkpt>
      <trkpt lat="46.11945" lon="4.56019">
        <ele>464.6</ele>
        <time>2020-10-19T11:08:21Z</time>
      </trkpt>
      <trkpt lat="46.11945" lon="4.56019">
        <ele>464.6</ele>
        <time>2020-10-19T11:08:22Z</time>
      </trkpt>
      <trkpt lat="46.11944" lon="4.56022">
        <ele>464.4</ele>
        <time>2020-10-19T11:08:23Z</time>
      </trkpt>
      <trkpt lat="46.11944" lon="4.56022">
        <ele>464.4</ele>
        <time>2020-10-19T11:08:24Z</time>
      </trkpt>
      <trkpt lat="46.11943" lon="4.56025">
        <ele>464.2</ele>
        <time>2020-10-19T11:08:25Z</time>
      </trkpt>
      <trkpt lat="46.11943" lon="4.56025">
        <ele>464.2</ele>
        <time>2020-10-19T11:08:26Z</time>
      </trkpt>
      <trkpt lat="46.11941" lon="4.56028">
        <ele>464</ele>
        <time>2020-10-19T11:08:27Z</time>
      </trkpt>
      <trkpt lat="46.11941" lon="4.56031">
        <ele>463.8</ele>
        <time>2020-10-19T11:08:28Z</time>
      </trkpt>
      <trkpt lat="46.11941" lon="4.56034">
        <ele>463.6</ele>
        <time>2020-10-19T11:08:29Z</time>
      </trkpt>
      <trkpt lat="46.1194" lon="4.56037">
        <ele>463.6</ele>
        <time>2020-10-19T11:08:30Z</time>
      </trkpt>
      <trkpt lat="46.1194" lon="4.56037">
        <ele>463.6</ele>
        <time>2020-10-19T11:08:31Z</time>
      </trkpt>
      <trkpt lat="46.1194" lon="4.56042">
        <ele>463.4</ele>
        <time>2020-10-19T11:08:32Z</time>
      </trkpt>
      <trkpt lat="46.1194" lon="4.56042">
        <ele>463.2</ele>
        <time>2020-10-19T11:08:33Z</time>
      </trkpt>
      <trkpt lat="46.11939" lon="4.56046">
        <ele>463</ele>
        <time>2020-10-19T11:08:34Z</time>
      </trkpt>
      <trkpt lat="46.11939" lon="4.56046">
        <ele>462.8</ele>
        <time>2020-10-19T11:08:35Z</time>
      </trkpt>
      <trkpt lat="46.11938" lon="4.5605">
        <ele>462.8</ele>
        <time>2020-10-19T11:08:36Z</time>
      </trkpt>
      <trkpt lat="46.11938" lon="4.5605">
        <ele>462.6</ele>
        <time>2020-10-19T11:08:37Z</time>
      </trkpt>
      <trkpt lat="46.11937" lon="4.56054">
        <ele>462.4</ele>
        <time>2020-10-19T11:08:38Z</time>
      </trkpt>
      <trkpt lat="46.11937" lon="4.56054">
        <ele>462.2</ele>
        <time>2020-10-19T11:08:39Z</time>
      </trkpt>
      <trkpt lat="46.11937" lon="4.56054">
        <ele>462.2</ele>
        <time>2020-10-19T11:08:40Z</time>
      </trkpt>
      <trkpt lat="46.11937" lon="4.56054">
        <ele>462.4</ele>
        <time>2020-10-19T11:08:41Z</time>
      </trkpt>
      <trkpt lat="46.11937" lon="4.56054">
        <ele>462.2</ele>
        <time>2020-10-19T11:08:42Z</time>
      </trkpt>
      <trkpt lat="46.11937" lon="4.56054">
        <ele>462.2</ele>
        <time>2020-10-19T11:08:43Z</time>
      </trkpt>
      <trkpt lat="46.11937" lon="4.56054">
        <ele>462.4</ele>
        <time>2020-10-19T11:08:44Z</time>
      </trkpt>
      <trkpt lat="46.11937" lon="4.56054">
        <ele>462.2</ele>
        <time>2020-10-19T11:08:45Z</time>
      </trkpt>
      <trkpt lat="46.11937" lon="4.56054">
        <ele>462.2</ele>
        <time>2020-10-19T11:08:46Z</time>
      </trkpt>
      <trkpt lat="46.11937" lon="4.56054">
        <ele>462.4</ele>
        <time>2020-10-19T11:08:47Z</time>
      </trkpt>
      <trkpt lat="46.11937" lon="4.56054">
        <ele>462.2</ele>
        <time>2020-10-19T11:08:48Z</time>
      </trkpt>
      <trkpt lat="46.11937" lon="4.56054">
        <ele>462</ele>
        <time>2020-10-19T11:08:49Z</time>
      </trkpt>
      <trkpt lat="46.11937" lon="4.56054">
        <ele>462.2</ele>
        <time>2020-10-19T11:08:50Z</time>
      </trkpt>
      <trkpt lat="46.11937" lon="4.56054">
        <ele>462</ele>
        <time>2020-10-19T11:08:51Z</time>
      </trkpt>
      <trkpt lat="46.11937" lon="4.56054">
        <ele>462.2</ele>
        <time>2020-10-19T11:08:52Z</time>
      </trkpt>
      <trkpt lat="46.11937" lon="4.56054">
        <ele>462.2</ele>
        <time>2020-10-19T11:08:53Z</time>
      </trkpt>
      <trkpt lat="46.11937" lon="4.56054">
        <ele>462.4</ele>
        <time>2020-10-19T11:08:54Z</time>
      </trkpt>
      <trkpt lat="46.11937" lon="4.56054">
        <ele>462.2</ele>
        <time>2020-10-19T11:08:55Z</time>
      </trkpt>
      <trkpt lat="46.11937" lon="4.56054">
        <ele>462.4</ele>
        <time>2020-10-19T11:08:56Z</time>
      </trkpt>
      <trkpt lat="46.11937" lon="4.56054">
        <ele>462.2</ele>
        <time>2020-10-19T11:08:57Z</time>
      </trkpt>
      <trkpt lat="46.11937" lon="4.56054">
        <ele>462.2</ele>
        <time>2020-10-19T11:08:58Z</time>
      </trkpt>
      <trkpt lat="46.11937" lon="4.56054">
        <ele>462.2</ele>
        <time>2020-10-19T11:08:59Z</time>
      </trkpt>
      <trkpt lat="46.11936" lon="4.56057">
        <ele>462</ele>
        <time>2020-10-19T11:09:00Z</time>
      </trkpt>
      <trkpt lat="46.11936" lon="4.56057">
        <ele>462</ele>
        <time>2020-10-19T11:09:01Z</time>
      </trkpt>
      <trkpt lat="46.11936" lon="4.56061">
        <ele>462</ele>
        <time>2020-10-19T11:09:02Z</time>
      </trkpt>
      <trkpt lat="46.11936" lon="4.56061">
        <ele>461.6</ele>
        <time>2020-10-19T11:09:03Z</time>
      </trkpt>
      <trkpt lat="46.11935" lon="4.56065">
        <ele>461.6</ele>
        <time>2020-10-19T11:09:04Z</time>
      </trkpt>
      <trkpt lat="46.11935" lon="4.56065">
        <ele>461.4</ele>
        <time>2020-10-19T11:09:05Z</time>
      </trkpt>
      <trkpt lat="46.11934" lon="4.5607">
        <ele>461.4</ele>
        <time>2020-10-19T11:09:06Z</time>
      </trkpt>
      <trkpt lat="46.11934" lon="4.5607">
        <ele>461.2</ele>
        <time>2020-10-19T11:09:07Z</time>
      </trkpt>
      <trkpt lat="46.11934" lon="4.56075">
        <ele>460.8</ele>
        <time>2020-10-19T11:09:08Z</time>
      </trkpt>
      <trkpt lat="46.11934" lon="4.56075">
        <ele>460.4</ele>
        <time>2020-10-19T11:09:09Z</time>
      </trkpt>
      <trkpt lat="46.11933" lon="4.56078">
        <ele>460.6</ele>
        <time>2020-10-19T11:09:10Z</time>
      </trkpt>
      <trkpt lat="46.11933" lon="4.56078">
        <ele>460.2</ele>
        <time>2020-10-19T11:09:11Z</time>
      </trkpt>
      <trkpt lat="46.11932" lon="4.56082">
        <ele>460</ele>
        <time>2020-10-19T11:09:12Z</time>
      </trkpt>
      <trkpt lat="46.11932" lon="4.56082">
        <ele>460</ele>
        <time>2020-10-19T11:09:13Z</time>
      </trkpt>
      <trkpt lat="46.11931" lon="4.56086">
        <ele>459.8</ele>
        <time>2020-10-19T11:09:14Z</time>
      </trkpt>
      <trkpt lat="46.1193" lon="4.56089">
        <ele>459.8</ele>
        <time>2020-10-19T11:09:15Z</time>
      </trkpt>
      <trkpt lat="46.1193" lon="4.56089">
        <ele>459.8</ele>
        <time>2020-10-19T11:09:16Z</time>
      </trkpt>
      <trkpt lat="46.1193" lon="4.56093">
        <ele>460.2</ele>
        <time>2020-10-19T11:09:17Z</time>
      </trkpt>
      <trkpt lat="46.1193" lon="4.56093">
        <ele>460</ele>
        <time>2020-10-19T11:09:18Z</time>
      </trkpt>
      <trkpt lat="46.11928" lon="4.56098">
        <ele>460</ele>
        <time>2020-10-19T11:09:19Z</time>
      </trkpt>
      <trkpt lat="46.11928" lon="4.56098">
        <ele>459.8</ele>
        <time>2020-10-19T11:09:20Z</time>
      </trkpt>
      <trkpt lat="46.11927" lon="4.56102">
        <ele>459.8</ele>
        <time>2020-10-19T11:09:21Z</time>
      </trkpt>
      <trkpt lat="46.11927" lon="4.56102">
        <ele>460</ele>
        <time>2020-10-19T11:09:22Z</time>
      </trkpt>
      <trkpt lat="46.11926" lon="4.56106">
        <ele>459.8</ele>
        <time>2020-10-19T11:09:23Z</time>
      </trkpt>
      <trkpt lat="46.11926" lon="4.56106">
        <ele>459.4</ele>
        <time>2020-10-19T11:09:24Z</time>
      </trkpt>
      <trkpt lat="46.11926" lon="4.5611">
        <ele>459.4</ele>
        <time>2020-10-19T11:09:25Z</time>
      </trkpt>
      <trkpt lat="46.11926" lon="4.5611">
        <ele>459.2</ele>
        <time>2020-10-19T11:09:26Z</time>
      </trkpt>
      <trkpt lat="46.11924" lon="4.56115">
        <ele>459</ele>
        <time>2020-10-19T11:09:27Z</time>
      </trkpt>
      <trkpt lat="46.11924" lon="4.56115">
        <ele>458.8</ele>
        <time>2020-10-19T11:09:28Z</time>
      </trkpt>
      <trkpt lat="46.11924" lon="4.56119">
        <ele>458.6</ele>
        <time>2020-10-19T11:09:29Z</time>
      </trkpt>
      <trkpt lat="46.11924" lon="4.56119">
        <ele>458.4</ele>
        <time>2020-10-19T11:09:30Z</time>
      </trkpt>
      <trkpt lat="46.11923" lon="4.56124">
        <ele>458</ele>
        <time>2020-10-19T11:09:31Z</time>
      </trkpt>
      <trkpt lat="46.11922" lon="4.56127">
        <ele>457.6</ele>
        <time>2020-10-19T11:09:32Z</time>
      </trkpt>
      <trkpt lat="46.11922" lon="4.56127">
        <ele>457.4</ele>
        <time>2020-10-19T11:09:33Z</time>
      </trkpt>
      <trkpt lat="46.11922" lon="4.56131">
        <ele>457.2</ele>
        <time>2020-10-19T11:09:34Z</time>
      </trkpt>
      <trkpt lat="46.11922" lon="4.56131">
        <ele>457</ele>
        <time>2020-10-19T11:09:35Z</time>
      </trkpt>
      <trkpt lat="46.1192" lon="4.56135">
        <ele>456.8</ele>
        <time>2020-10-19T11:09:36Z</time>
      </trkpt>
      <trkpt lat="46.1192" lon="4.56135">
        <ele>456.4</ele>
        <time>2020-10-19T11:09:37Z</time>
      </trkpt>
      <trkpt lat="46.1192" lon="4.56139">
        <ele>456</ele>
        <time>2020-10-19T11:09:38Z</time>
      </trkpt>
      <trkpt lat="46.11919" lon="4.56142">
        <ele>455.8</ele>
        <time>2020-10-19T11:09:39Z</time>
      </trkpt>
      <trkpt lat="46.11918" lon="4.56144">
        <ele>456</ele>
        <time>2020-10-19T11:09:40Z</time>
      </trkpt>
      <trkpt lat="46.11918" lon="4.56144">
        <ele>456.2</ele>
        <time>2020-10-19T11:09:41Z</time>
      </trkpt>
      <trkpt lat="46.11918" lon="4.56149">
        <ele>455.8</ele>
        <time>2020-10-19T11:09:42Z</time>
      </trkpt>
      <trkpt lat="46.11918" lon="4.56152">
        <ele>456</ele>
        <time>2020-10-19T11:09:43Z</time>
      </trkpt>
      <trkpt lat="46.11917" lon="4.56154">
        <ele>456</ele>
        <time>2020-10-19T11:09:44Z</time>
      </trkpt>
      <trkpt lat="46.11917" lon="4.56154">
        <ele>456</ele>
        <time>2020-10-19T11:09:45Z</time>
      </trkpt>
      <trkpt lat="46.11917" lon="4.56159">
        <ele>455.8</ele>
        <time>2020-10-19T11:09:46Z</time>
      </trkpt>
      <trkpt lat="46.11917" lon="4.56159">
        <ele>455.6</ele>
        <time>2020-10-19T11:09:47Z</time>
      </trkpt>
      <trkpt lat="46.11916" lon="4.56164">
        <ele>455.6</ele>
        <time>2020-10-19T11:09:48Z</time>
      </trkpt>
      <trkpt lat="46.11916" lon="4.56164">
        <ele>455.4</ele>
        <time>2020-10-19T11:09:49Z</time>
      </trkpt>
      <trkpt lat="46.11916" lon="4.56168">
        <ele>455.2</ele>
        <time>2020-10-19T11:09:50Z</time>
      </trkpt>
      <trkpt lat="46.11916" lon="4.56168">
        <ele>454.8</ele>
        <time>2020-10-19T11:09:51Z</time>
      </trkpt>
      <trkpt lat="46.11915" lon="4.56173">
        <ele>454.6</ele>
        <time>2020-10-19T11:09:52Z</time>
      </trkpt>
      <trkpt lat="46.11914" lon="4.56175">
        <ele>454.4</ele>
        <time>2020-10-19T11:09:53Z</time>
      </trkpt>
      <trkpt lat="46.11914" lon="4.56175">
        <ele>454.6</ele>
        <time>2020-10-19T11:09:54Z</time>
      </trkpt>
      <trkpt lat="46.11914" lon="4.56179">
        <ele>454.4</ele>
        <time>2020-10-19T11:09:55Z</time>
      </trkpt>
      <trkpt lat="46.11914" lon="4.56179">
        <ele>454.2</ele>
        <time>2020-10-19T11:09:56Z</time>
      </trkpt>
      <trkpt lat="46.11914" lon="4.56183">
        <ele>454</ele>
        <time>2020-10-19T11:09:57Z</time>
      </trkpt>
      <trkpt lat="46.11914" lon="4.56183">
        <ele>453.8</ele>
        <time>2020-10-19T11:09:58Z</time>
      </trkpt>
      <trkpt lat="46.11913" lon="4.56187">
        <ele>453.8</ele>
        <time>2020-10-19T11:09:59Z</time>
      </trkpt>
      <trkpt lat="46.11913" lon="4.56192">
        <ele>454</ele>
        <time>2020-10-19T11:10:01Z</time>
      </trkpt>
      <trkpt lat="46.11913" lon="4.56192">
        <ele>453.8</ele>
        <time>2020-10-19T11:10:02Z</time>
      </trkpt>
      <trkpt lat="46.11912" lon="4.56197">
        <ele>453.6</ele>
        <time>2020-10-19T11:10:03Z</time>
      </trkpt>
      <trkpt lat="46.11912" lon="4.56197">
        <ele>453.2</ele>
        <time>2020-10-19T11:10:04Z</time>
      </trkpt>
      <trkpt lat="46.11911" lon="4.56201">
        <ele>452.8</ele>
        <time>2020-10-19T11:10:05Z</time>
      </trkpt>
      <trkpt lat="46.11911" lon="4.56201">
        <ele>452.8</ele>
        <time>2020-10-19T11:10:06Z</time>
      </trkpt>
      <trkpt lat="46.11911" lon="4.56205">
        <ele>452.6</ele>
        <time>2020-10-19T11:10:07Z</time>
      </trkpt>
      <trkpt lat="46.11911" lon="4.56205">
        <ele>452.8</ele>
        <time>2020-10-19T11:10:08Z</time>
      </trkpt>
      <trkpt lat="46.1191" lon="4.5621">
        <ele>452.6</ele>
        <time>2020-10-19T11:10:09Z</time>
      </trkpt>
      <trkpt lat="46.1191" lon="4.5621">
        <ele>452</ele>
        <time>2020-10-19T11:10:10Z</time>
      </trkpt>
      <trkpt lat="46.11908" lon="4.56214">
        <ele>452</ele>
        <time>2020-10-19T11:10:11Z</time>
      </trkpt>
      <trkpt lat="46.11908" lon="4.56214">
        <ele>451.8</ele>
        <time>2020-10-19T11:10:12Z</time>
      </trkpt>
      <trkpt lat="46.11907" lon="4.56218">
        <ele>451.6</ele>
        <time>2020-10-19T11:10:13Z</time>
      </trkpt>
      <trkpt lat="46.11907" lon="4.56218">
        <ele>451.4</ele>
        <time>2020-10-19T11:10:14Z</time>
      </trkpt>
      <trkpt lat="46.11907" lon="4.56222">
        <ele>451.2</ele>
        <time>2020-10-19T11:10:15Z</time>
      </trkpt>
      <trkpt lat="46.11907" lon="4.56222">
        <ele>451</ele>
        <time>2020-10-19T11:10:16Z</time>
      </trkpt>
      <trkpt lat="46.11906" lon="4.56226">
        <ele>451</ele>
        <time>2020-10-19T11:10:17Z</time>
      </trkpt>
      <trkpt lat="46.11906" lon="4.56226">
        <ele>451</ele>
        <time>2020-10-19T11:10:18Z</time>
      </trkpt>
      <trkpt lat="46.11905" lon="4.56229">
        <ele>451</ele>
        <time>2020-10-19T11:10:19Z</time>
      </trkpt>
      <trkpt lat="46.11905" lon="4.56229">
        <ele>451</ele>
        <time>2020-10-19T11:10:20Z</time>
      </trkpt>
      <trkpt lat="46.11903" lon="4.56233">
        <ele>450.8</ele>
        <time>2020-10-19T11:10:21Z</time>
      </trkpt>
      <trkpt lat="46.11903" lon="4.56233">
        <ele>450.8</ele>
        <time>2020-10-19T11:10:22Z</time>
      </trkpt>
      <trkpt lat="46.11903" lon="4.56236">
        <ele>451</ele>
        <time>2020-10-19T11:10:23Z</time>
      </trkpt>
      <trkpt lat="46.11903" lon="4.56236">
        <ele>450.8</ele>
        <time>2020-10-19T11:10:24Z</time>
      </trkpt>
      <trkpt lat="46.11903" lon="4.56241">
        <ele>450.6</ele>
        <time>2020-10-19T11:10:25Z</time>
      </trkpt>
      <trkpt lat="46.11902" lon="4.56243">
        <ele>450.2</ele>
        <time>2020-10-19T11:10:26Z</time>
      </trkpt>
      <trkpt lat="46.11902" lon="4.56243">
        <ele>450</ele>
        <time>2020-10-19T11:10:27Z</time>
      </trkpt>
      <trkpt lat="46.11902" lon="4.56248">
        <ele>449.8</ele>
        <time>2020-10-19T11:10:28Z</time>
      </trkpt>
      <trkpt lat="46.11902" lon="4.56248">
        <ele>450</ele>
        <time>2020-10-19T11:10:29Z</time>
      </trkpt>
      <trkpt lat="46.11902" lon="4.56252">
        <ele>450</ele>
        <time>2020-10-19T11:10:30Z</time>
      </trkpt>
      <trkpt lat="46.11902" lon="4.56252">
        <ele>449.8</ele>
        <time>2020-10-19T11:10:31Z</time>
      </trkpt>
      <trkpt lat="46.11901" lon="4.56256">
        <ele>449.8</ele>
        <time>2020-10-19T11:10:32Z</time>
      </trkpt>
      <trkpt lat="46.11901" lon="4.56256">
        <ele>449.6</ele>
        <time>2020-10-19T11:10:33Z</time>
      </trkpt>
      <trkpt lat="46.119" lon="4.5626">
        <ele>449.4</ele>
        <time>2020-10-19T11:10:34Z</time>
      </trkpt>
      <trkpt lat="46.11899" lon="4.56263">
        <ele>449.4</ele>
        <time>2020-10-19T11:10:35Z</time>
      </trkpt>
      <trkpt lat="46.11898" lon="4.56266">
        <ele>449</ele>
        <time>2020-10-19T11:10:36Z</time>
      </trkpt>
      <trkpt lat="46.11898" lon="4.56268">
        <ele>448.8</ele>
        <time>2020-10-19T11:10:37Z</time>
      </trkpt>
      <trkpt lat="46.11897" lon="4.56271">
        <ele>448.6</ele>
        <time>2020-10-19T11:10:38Z</time>
      </trkpt>
      <trkpt lat="46.11896" lon="4.56275">
        <ele>448.4</ele>
        <time>2020-10-19T11:10:39Z</time>
      </trkpt>
      <trkpt lat="46.11895" lon="4.56278">
        <ele>447.8</ele>
        <time>2020-10-19T11:10:40Z</time>
      </trkpt>
      <trkpt lat="46.11895" lon="4.5628">
        <ele>447.4</ele>
        <time>2020-10-19T11:10:41Z</time>
      </trkpt>
      <trkpt lat="46.11894" lon="4.56284">
        <ele>446.6</ele>
        <time>2020-10-19T11:10:42Z</time>
      </trkpt>
      <trkpt lat="46.11893" lon="4.56287">
        <ele>446.2</ele>
        <time>2020-10-19T11:10:43Z</time>
      </trkpt>
      <trkpt lat="46.11893" lon="4.5629">
        <ele>445.4</ele>
        <time>2020-10-19T11:10:44Z</time>
      </trkpt>
      <trkpt lat="46.11891" lon="4.56293">
        <ele>445</ele>
        <time>2020-10-19T11:10:45Z</time>
      </trkpt>
      <trkpt lat="46.11889" lon="4.56295">
        <ele>444.4</ele>
        <time>2020-10-19T11:10:46Z</time>
      </trkpt>
      <trkpt lat="46.11888" lon="4.56297">
        <ele>443.6</ele>
        <time>2020-10-19T11:10:47Z</time>
      </trkpt>
      <trkpt lat="46.11885" lon="4.56298">
        <ele>442.8</ele>
        <time>2020-10-19T11:10:48Z</time>
      </trkpt>
      <trkpt lat="46.11883" lon="4.56299">
        <ele>442.2</ele>
        <time>2020-10-19T11:10:49Z</time>
      </trkpt>
      <trkpt lat="46.11881" lon="4.56299">
        <ele>441.4</ele>
        <time>2020-10-19T11:10:50Z</time>
      </trkpt>
      <trkpt lat="46.11879" lon="4.56299">
        <ele>441.2</ele>
        <time>2020-10-19T11:10:51Z</time>
      </trkpt>
      <trkpt lat="46.11879" lon="4.56299">
        <ele>440.6</ele>
        <time>2020-10-19T11:10:52Z</time>
      </trkpt>
      <trkpt lat="46.11876" lon="4.56299">
        <ele>440</ele>
        <time>2020-10-19T11:10:53Z</time>
      </trkpt>
      <trkpt lat="46.11876" lon="4.56299">
        <ele>439.8</ele>
        <time>2020-10-19T11:10:54Z</time>
      </trkpt>
      <trkpt lat="46.11873" lon="4.563">
        <ele>439.4</ele>
        <time>2020-10-19T11:10:55Z</time>
      </trkpt>
      <trkpt lat="46.11873" lon="4.563">
        <ele>439</ele>
        <time>2020-10-19T11:10:56Z</time>
      </trkpt>
      <trkpt lat="46.11872" lon="4.56302">
        <ele>438.6</ele>
        <time>2020-10-19T11:10:57Z</time>
      </trkpt>
      <trkpt lat="46.11872" lon="4.56302">
        <ele>438.2</ele>
        <time>2020-10-19T11:10:58Z</time>
      </trkpt>
      <trkpt lat="46.11872" lon="4.56302">
        <ele>438</ele>
        <time>2020-10-19T11:10:59Z</time>
      </trkpt>
      <trkpt lat="46.11872" lon="4.56302">
        <ele>437.6</ele>
        <time>2020-10-19T11:11:00Z</time>
      </trkpt>
      <trkpt lat="46.11872" lon="4.56302">
        <ele>437.4</ele>
        <time>2020-10-19T11:11:01Z</time>
      </trkpt>
      <trkpt lat="46.11872" lon="4.56302">
        <ele>437.4</ele>
        <time>2020-10-19T11:11:02Z</time>
      </trkpt>
      <trkpt lat="46.11873" lon="4.563">
        <ele>437.2</ele>
        <time>2020-10-19T11:11:03Z</time>
      </trkpt>
      <trkpt lat="46.11873" lon="4.563">
        <ele>436.8</ele>
        <time>2020-10-19T11:11:04Z</time>
      </trkpt>
      <trkpt lat="46.11877" lon="4.56301">
        <ele>436.8</ele>
        <time>2020-10-19T11:11:05Z</time>
      </trkpt>
      <trkpt lat="46.11878" lon="4.56303">
        <ele>436.6</ele>
        <time>2020-10-19T11:11:06Z</time>
      </trkpt>
      <trkpt lat="46.11878" lon="4.56303">
        <ele>436.6</ele>
        <time>2020-10-19T11:11:07Z</time>
      </trkpt>
      <trkpt lat="46.11879" lon="4.56307">
        <ele>436.6</ele>
        <time>2020-10-19T11:11:08Z</time>
      </trkpt>
      <trkpt lat="46.11879" lon="4.56307">
        <ele>436.4</ele>
        <time>2020-10-19T11:11:09Z</time>
      </trkpt>
      <trkpt lat="46.11881" lon="4.56309">
        <ele>436.2</ele>
        <time>2020-10-19T11:11:10Z</time>
      </trkpt>
      <trkpt lat="46.11883" lon="4.5631">
        <ele>436.4</ele>
        <time>2020-10-19T11:11:11Z</time>
      </trkpt>
      <trkpt lat="46.11885" lon="4.5631">
        <ele>437</ele>
        <time>2020-10-19T11:11:12Z</time>
      </trkpt>
      <trkpt lat="46.11887" lon="4.5631">
        <ele>437.2</ele>
        <time>2020-10-19T11:11:13Z</time>
      </trkpt>
      <trkpt lat="46.11887" lon="4.5631">
        <ele>437.2</ele>
        <time>2020-10-19T11:11:14Z</time>
      </trkpt>
      <trkpt lat="46.11891" lon="4.5631">
        <ele>437</ele>
        <time>2020-10-19T11:11:15Z</time>
      </trkpt>
      <trkpt lat="46.11891" lon="4.5631">
        <ele>436.6</ele>
        <time>2020-10-19T11:11:16Z</time>
      </trkpt>
      <trkpt lat="46.11893" lon="4.56312">
        <ele>436</ele>
        <time>2020-10-19T11:11:17Z</time>
      </trkpt>
      <trkpt lat="46.11893" lon="4.56312">
        <ele>436</ele>
        <time>2020-10-19T11:11:18Z</time>
      </trkpt>
      <trkpt lat="46.11895" lon="4.56314">
        <ele>436</ele>
        <time>2020-10-19T11:11:19Z</time>
      </trkpt>
      <trkpt lat="46.11895" lon="4.56314">
        <ele>435.8</ele>
        <time>2020-10-19T11:11:20Z</time>
      </trkpt>
      <trkpt lat="46.11897" lon="4.56318">
        <ele>436</ele>
        <time>2020-10-19T11:11:21Z</time>
      </trkpt>
      <trkpt lat="46.11897" lon="4.56318">
        <ele>435.8</ele>
        <time>2020-10-19T11:11:22Z</time>
      </trkpt>
      <trkpt lat="46.11899" lon="4.56321">
        <ele>435.8</ele>
        <time>2020-10-19T11:11:23Z</time>
      </trkpt>
      <trkpt lat="46.119" lon="4.56323">
        <ele>435.8</ele>
        <time>2020-10-19T11:11:24Z</time>
      </trkpt>
      <trkpt lat="46.11902" lon="4.56325">
        <ele>435.8</ele>
        <time>2020-10-19T11:11:25Z</time>
      </trkpt>
      <trkpt lat="46.11902" lon="4.56325">
        <ele>435.8</ele>
        <time>2020-10-19T11:11:26Z</time>
      </trkpt>
      <trkpt lat="46.11904" lon="4.56328">
        <ele>435.8</ele>
        <time>2020-10-19T11:11:27Z</time>
      </trkpt>
      <trkpt lat="46.11906" lon="4.5633">
        <ele>435.8</ele>
        <time>2020-10-19T11:11:28Z</time>
      </trkpt>
      <trkpt lat="46.11906" lon="4.5633">
        <ele>435.6</ele>
        <time>2020-10-19T11:11:29Z</time>
      </trkpt>
      <trkpt lat="46.11908" lon="4.56334">
        <ele>435.6</ele>
        <time>2020-10-19T11:11:30Z</time>
      </trkpt>
      <trkpt lat="46.11908" lon="4.56334">
        <ele>435.4</ele>
        <time>2020-10-19T11:11:31Z</time>
      </trkpt>
      <trkpt lat="46.1191" lon="4.56338">
        <ele>435.2</ele>
        <time>2020-10-19T11:11:32Z</time>
      </trkpt>
      <trkpt lat="46.11911" lon="4.5634">
        <ele>435.6</ele>
        <time>2020-10-19T11:11:33Z</time>
      </trkpt>
      <trkpt lat="46.11911" lon="4.5634">
        <ele>435.6</ele>
        <time>2020-10-19T11:11:34Z</time>
      </trkpt>
      <trkpt lat="46.11913" lon="4.56344">
        <ele>435.6</ele>
        <time>2020-10-19T11:11:35Z</time>
      </trkpt>
      <trkpt lat="46.11913" lon="4.56344">
        <ele>435.6</ele>
        <time>2020-10-19T11:11:36Z</time>
      </trkpt>
      <trkpt lat="46.11915" lon="4.56348">
        <ele>435.6</ele>
        <time>2020-10-19T11:11:37Z</time>
      </trkpt>
      <trkpt lat="46.11915" lon="4.56348">
        <ele>435.6</ele>
        <time>2020-10-19T11:11:38Z</time>
      </trkpt>
      <trkpt lat="46.11916" lon="4.56352">
        <ele>435.6</ele>
        <time>2020-10-19T11:11:39Z</time>
      </trkpt>
      <trkpt lat="46.11916" lon="4.56352">
        <ele>435.6</ele>
        <time>2020-10-19T11:11:40Z</time>
      </trkpt>
      <trkpt lat="46.11917" lon="4.56356">
        <ele>435.8</ele>
        <time>2020-10-19T11:11:41Z</time>
      </trkpt>
      <trkpt lat="46.11917" lon="4.56356">
        <ele>436</ele>
        <time>2020-10-19T11:11:42Z</time>
      </trkpt>
      <trkpt lat="46.11916" lon="4.56361">
        <ele>435.8</ele>
        <time>2020-10-19T11:11:43Z</time>
      </trkpt>
      <trkpt lat="46.11916" lon="4.56361">
        <ele>436</ele>
        <time>2020-10-19T11:11:44Z</time>
      </trkpt>
      <trkpt lat="46.11916" lon="4.56365">
        <ele>435.8</ele>
        <time>2020-10-19T11:11:45Z</time>
      </trkpt>
      <trkpt lat="46.11916" lon="4.56365">
        <ele>435.4</ele>
        <time>2020-10-19T11:11:46Z</time>
      </trkpt>
      <trkpt lat="46.11915" lon="4.56367">
        <ele>435.4</ele>
        <time>2020-10-19T11:11:47Z</time>
      </trkpt>
      <trkpt lat="46.11915" lon="4.56367">
        <ele>435.2</ele>
        <time>2020-10-19T11:11:48Z</time>
      </trkpt>
      <trkpt lat="46.11915" lon="4.56367">
        <ele>435</ele>
        <time>2020-10-19T11:11:49Z</time>
      </trkpt>
      <trkpt lat="46.11915" lon="4.56367">
        <ele>435</ele>
        <time>2020-10-19T11:11:50Z</time>
      </trkpt>
      <trkpt lat="46.11915" lon="4.56367">
        <ele>434.8</ele>
        <time>2020-10-19T11:11:51Z</time>
      </trkpt>
      <trkpt lat="46.11913" lon="4.5637">
        <ele>434.8</ele>
        <time>2020-10-19T11:11:52Z</time>
      </trkpt>
      <trkpt lat="46.11913" lon="4.5637">
        <ele>434.6</ele>
        <time>2020-10-19T11:11:53Z</time>
      </trkpt>
      <trkpt lat="46.11911" lon="4.56372">
        <ele>434.6</ele>
        <time>2020-10-19T11:11:54Z</time>
      </trkpt>
      <trkpt lat="46.11911" lon="4.56372">
        <ele>434.6</ele>
        <time>2020-10-19T11:11:55Z</time>
      </trkpt>
      <trkpt lat="46.11908" lon="4.56375">
        <ele>434.8</ele>
        <time>2020-10-19T11:11:56Z</time>
      </trkpt>
      <trkpt lat="46.11908" lon="4.56375">
        <ele>434.8</ele>
        <time>2020-10-19T11:11:57Z</time>
      </trkpt>
      <trkpt lat="46.11905" lon="4.56378">
        <ele>434.8</ele>
        <time>2020-10-19T11:11:58Z</time>
      </trkpt>
      <trkpt lat="46.11904" lon="4.56379">
        <ele>435.2</ele>
        <time>2020-10-19T11:11:59Z</time>
      </trkpt>
      <trkpt lat="46.11902" lon="4.56381">
        <ele>435.2</ele>
        <time>2020-10-19T11:12:00Z</time>
      </trkpt>
      <trkpt lat="46.119" lon="4.56382">
        <ele>435.4</ele>
        <time>2020-10-19T11:12:01Z</time>
      </trkpt>
      <trkpt lat="46.11898" lon="4.56384">
        <ele>435.4</ele>
        <time>2020-10-19T11:12:02Z</time>
      </trkpt>
      <trkpt lat="46.11898" lon="4.56384">
        <ele>435.2</ele>
        <time>2020-10-19T11:12:03Z</time>
      </trkpt>
      <trkpt lat="46.11895" lon="4.56387">
        <ele>435</ele>
        <time>2020-10-19T11:12:04Z</time>
      </trkpt>
      <trkpt lat="46.11895" lon="4.56387">
        <ele>435</ele>
        <time>2020-10-19T11:12:05Z</time>
      </trkpt>
      <trkpt lat="46.11893" lon="4.56389">
        <ele>434.8</ele>
        <time>2020-10-19T11:12:06Z</time>
      </trkpt>
      <trkpt lat="46.11893" lon="4.56389">
        <ele>434.6</ele>
        <time>2020-10-19T11:12:07Z</time>
      </trkpt>
      <trkpt lat="46.1189" lon="4.56391">
        <ele>434.4</ele>
        <time>2020-10-19T11:12:08Z</time>
      </trkpt>
      <trkpt lat="46.11888" lon="4.56391">
        <ele>434.2</ele>
        <time>2020-10-19T11:12:09Z</time>
      </trkpt>
      <trkpt lat="46.11888" lon="4.56391">
        <ele>434.2</ele>
        <time>2020-10-19T11:12:10Z</time>
      </trkpt>
      <trkpt lat="46.11885" lon="4.56393">
        <ele>434</ele>
        <time>2020-10-19T11:12:11Z</time>
      </trkpt>
      <trkpt lat="46.11883" lon="4.56395">
        <ele>433.8</ele>
        <time>2020-10-19T11:12:12Z</time>
      </trkpt>
      <trkpt lat="46.11881" lon="4.56396">
        <ele>433.6</ele>
        <time>2020-10-19T11:12:13Z</time>
      </trkpt>
      <trkpt lat="46.11881" lon="4.56396">
        <ele>433.6</ele>
        <time>2020-10-19T11:12:14Z</time>
      </trkpt>
      <trkpt lat="46.11879" lon="4.56398">
        <ele>433.6</ele>
        <time>2020-10-19T11:12:15Z</time>
      </trkpt>
      <trkpt lat="46.11879" lon="4.56398">
        <ele>433.6</ele>
        <time>2020-10-19T11:12:16Z</time>
      </trkpt>
      <trkpt lat="46.11876" lon="4.564">
        <ele>433.6</ele>
        <time>2020-10-19T11:12:17Z</time>
      </trkpt>
      <trkpt lat="46.11876" lon="4.564">
        <ele>433.4</ele>
        <time>2020-10-19T11:12:18Z</time>
      </trkpt>
      <trkpt lat="46.11873" lon="4.56403">
        <ele>433.4</ele>
        <time>2020-10-19T11:12:19Z</time>
      </trkpt>
      <trkpt lat="46.11871" lon="4.56405">
        <ele>433.4</ele>
        <time>2020-10-19T11:12:20Z</time>
      </trkpt>
      <trkpt lat="46.1187" lon="4.56406">
        <ele>433.4</ele>
        <time>2020-10-19T11:12:21Z</time>
      </trkpt>
      <trkpt lat="46.1187" lon="4.56406">
        <ele>433.2</ele>
        <time>2020-10-19T11:12:22Z</time>
      </trkpt>
      <trkpt lat="46.11867" lon="4.56408">
        <ele>433</ele>
        <time>2020-10-19T11:12:23Z</time>
      </trkpt>
      <trkpt lat="46.11867" lon="4.56408">
        <ele>433.2</ele>
        <time>2020-10-19T11:12:24Z</time>
      </trkpt>
      <trkpt lat="46.11865" lon="4.5641">
        <ele>433.2</ele>
        <time>2020-10-19T11:12:25Z</time>
      </trkpt>
      <trkpt lat="46.11865" lon="4.5641">
        <ele>433.2</ele>
        <time>2020-10-19T11:12:26Z</time>
      </trkpt>
      <trkpt lat="46.11862" lon="4.56413">
        <ele>433</ele>
        <time>2020-10-19T11:12:27Z</time>
      </trkpt>
      <trkpt lat="46.11862" lon="4.56413">
        <ele>432.8</ele>
        <time>2020-10-19T11:12:28Z</time>
      </trkpt>
      <trkpt lat="46.1186" lon="4.56415">
        <ele>433</ele>
        <time>2020-10-19T11:12:29Z</time>
      </trkpt>
      <trkpt lat="46.1186" lon="4.56415">
        <ele>433.2</ele>
        <time>2020-10-19T11:12:30Z</time>
      </trkpt>
      <trkpt lat="46.11857" lon="4.56417">
        <ele>433.4</ele>
        <time>2020-10-19T11:12:31Z</time>
      </trkpt>
      <trkpt lat="46.11857" lon="4.56417">
        <ele>433.2</ele>
        <time>2020-10-19T11:12:32Z</time>
      </trkpt>
      <trkpt lat="46.11854" lon="4.5642">
        <ele>433.2</ele>
        <time>2020-10-19T11:12:33Z</time>
      </trkpt>
      <trkpt lat="46.11854" lon="4.5642">
        <ele>433</ele>
        <time>2020-10-19T11:12:34Z</time>
      </trkpt>
      <trkpt lat="46.11852" lon="4.56421">
        <ele>433</ele>
        <time>2020-10-19T11:12:35Z</time>
      </trkpt>
      <trkpt lat="46.11852" lon="4.56421">
        <ele>433.2</ele>
        <time>2020-10-19T11:12:36Z</time>
      </trkpt>
      <trkpt lat="46.1185" lon="4.56424">
        <ele>433.2</ele>
        <time>2020-10-19T11:12:37Z</time>
      </trkpt>
      <trkpt lat="46.11849" lon="4.56426">
        <ele>432.8</ele>
        <time>2020-10-19T11:12:38Z</time>
      </trkpt>
      <trkpt lat="46.11847" lon="4.56428">
        <ele>432.8</ele>
        <time>2020-10-19T11:12:39Z</time>
      </trkpt>
      <trkpt lat="46.11847" lon="4.56428">
        <ele>432.6</ele>
        <time>2020-10-19T11:12:40Z</time>
      </trkpt>
      <trkpt lat="46.11845" lon="4.5643">
        <ele>432.6</ele>
        <time>2020-10-19T11:12:41Z</time>
      </trkpt>
      <trkpt lat="46.11845" lon="4.5643">
        <ele>432.6</ele>
        <time>2020-10-19T11:12:42Z</time>
      </trkpt>
      <trkpt lat="46.11842" lon="4.56434">
        <ele>432.4</ele>
        <time>2020-10-19T11:12:43Z</time>
      </trkpt>
      <trkpt lat="46.1184" lon="4.56435">
        <ele>432.2</ele>
        <time>2020-10-19T11:12:44Z</time>
      </trkpt>
      <trkpt lat="46.1184" lon="4.56435">
        <ele>432</ele>
        <time>2020-10-19T11:12:45Z</time>
      </trkpt>
      <trkpt lat="46.11839" lon="4.56437">
        <ele>432.2</ele>
        <time>2020-10-19T11:12:46Z</time>
      </trkpt>
      <trkpt lat="46.11839" lon="4.56437">
        <ele>432.6</ele>
        <time>2020-10-19T11:12:47Z</time>
      </trkpt>
      <trkpt lat="46.11839" lon="4.56437">
        <ele>432.6</ele>
        <time>2020-10-19T11:12:48Z</time>
      </trkpt>
      <trkpt lat="46.11836" lon="4.56439">
        <ele>432.6</ele>
        <time>2020-10-19T11:12:49Z</time>
      </trkpt>
      <trkpt lat="46.11836" lon="4.56439">
        <ele>432.4</ele>
        <time>2020-10-19T11:12:50Z</time>
      </trkpt>
      <trkpt lat="46.11834" lon="4.56442">
        <ele>432.2</ele>
        <time>2020-10-19T11:12:51Z</time>
      </trkpt>
      <trkpt lat="46.11834" lon="4.56442">
        <ele>432.4</ele>
        <time>2020-10-19T11:12:52Z</time>
      </trkpt>
      <trkpt lat="46.11832" lon="4.56445">
        <ele>432.2</ele>
        <time>2020-10-19T11:12:53Z</time>
      </trkpt>
      <trkpt lat="46.11832" lon="4.56445">
        <ele>431.8</ele>
        <time>2020-10-19T11:12:54Z</time>
      </trkpt>
      <trkpt lat="46.1183" lon="4.56449">
        <ele>431.6</ele>
        <time>2020-10-19T11:12:55Z</time>
      </trkpt>
      <trkpt lat="46.1183" lon="4.56449">
        <ele>431.2</ele>
        <time>2020-10-19T11:12:56Z</time>
      </trkpt>
      <trkpt lat="46.11828" lon="4.56453">
        <ele>431</ele>
        <time>2020-10-19T11:12:57Z</time>
      </trkpt>
      <trkpt lat="46.11828" lon="4.56453">
        <ele>430.8</ele>
        <time>2020-10-19T11:12:58Z</time>
      </trkpt>
      <trkpt lat="46.11826" lon="4.56456">
        <ele>430.6</ele>
        <time>2020-10-19T11:12:59Z</time>
      </trkpt>
      <trkpt lat="46.11826" lon="4.56456">
        <ele>430.6</ele>
        <time>2020-10-19T11:13:00Z</time>
      </trkpt>
      <trkpt lat="46.11825" lon="4.56459">
        <ele>430.4</ele>
        <time>2020-10-19T11:13:01Z</time>
      </trkpt>
      <trkpt lat="46.11825" lon="4.56459">
        <ele>430.2</ele>
        <time>2020-10-19T11:13:02Z</time>
      </trkpt>
      <trkpt lat="46.11823" lon="4.56463">
        <ele>430.2</ele>
        <time>2020-10-19T11:13:03Z</time>
      </trkpt>
      <trkpt lat="46.11823" lon="4.56463">
        <ele>430</ele>
        <time>2020-10-19T11:13:04Z</time>
      </trkpt>
      <trkpt lat="46.11821" lon="4.56467">
        <ele>430</ele>
        <time>2020-10-19T11:13:05Z</time>
      </trkpt>
      <trkpt lat="46.11821" lon="4.56467">
        <ele>429.8</ele>
        <time>2020-10-19T11:13:06Z</time>
      </trkpt>
      <trkpt lat="46.1182" lon="4.56471">
        <ele>429.8</ele>
        <time>2020-10-19T11:13:07Z</time>
      </trkpt>
      <trkpt lat="46.1182" lon="4.56471">
        <ele>430</ele>
        <time>2020-10-19T11:13:08Z</time>
      </trkpt>
      <trkpt lat="46.11819" lon="4.56475">
        <ele>430</ele>
        <time>2020-10-19T11:13:09Z</time>
      </trkpt>
      <trkpt lat="46.11819" lon="4.56475">
        <ele>429.8</ele>
        <time>2020-10-19T11:13:10Z</time>
      </trkpt>
      <trkpt lat="46.11817" lon="4.56479">
        <ele>429.6</ele>
        <time>2020-10-19T11:13:11Z</time>
      </trkpt>
      <trkpt lat="46.11816" lon="4.56481">
        <ele>429.4</ele>
        <time>2020-10-19T11:13:12Z</time>
      </trkpt>
      <trkpt lat="46.11816" lon="4.56481">
        <ele>429.2</ele>
        <time>2020-10-19T11:13:13Z</time>
      </trkpt>
      <trkpt lat="46.11814" lon="4.56484">
        <ele>429.2</ele>
        <time>2020-10-19T11:13:14Z</time>
      </trkpt>
      <trkpt lat="46.11814" lon="4.56484">
        <ele>429</ele>
        <time>2020-10-19T11:13:15Z</time>
      </trkpt>
      <trkpt lat="46.11812" lon="4.56488">
        <ele>428.8</ele>
        <time>2020-10-19T11:13:16Z</time>
      </trkpt>
      <trkpt lat="46.11811" lon="4.5649">
        <ele>428.6</ele>
        <time>2020-10-19T11:13:17Z</time>
      </trkpt>
      <trkpt lat="46.1181" lon="4.56492">
        <ele>428.4</ele>
        <time>2020-10-19T11:13:18Z</time>
      </trkpt>
      <trkpt lat="46.11808" lon="4.56494">
        <ele>428.4</ele>
        <time>2020-10-19T11:13:19Z</time>
      </trkpt>
      <trkpt lat="46.11808" lon="4.56494">
        <ele>428.4</ele>
        <time>2020-10-19T11:13:20Z</time>
      </trkpt>
      <trkpt lat="46.11806" lon="4.56498">
        <ele>428.2</ele>
        <time>2020-10-19T11:13:21Z</time>
      </trkpt>
      <trkpt lat="46.11806" lon="4.56498">
        <ele>428.2</ele>
        <time>2020-10-19T11:13:22Z</time>
      </trkpt>
      <trkpt lat="46.11803" lon="4.56501">
        <ele>428</ele>
        <time>2020-10-19T11:13:23Z</time>
      </trkpt>
      <trkpt lat="46.11803" lon="4.56501">
        <ele>428</ele>
        <time>2020-10-19T11:13:24Z</time>
      </trkpt>
      <trkpt lat="46.118" lon="4.56504">
        <ele>428</ele>
        <time>2020-10-19T11:13:25Z</time>
      </trkpt>
      <trkpt lat="46.118" lon="4.56504">
        <ele>428</ele>
        <time>2020-10-19T11:13:26Z</time>
      </trkpt>
      <trkpt lat="46.11798" lon="4.56507">
        <ele>428</ele>
        <time>2020-10-19T11:13:27Z</time>
      </trkpt>
      <trkpt lat="46.11798" lon="4.56507">
        <ele>428</ele>
        <time>2020-10-19T11:13:28Z</time>
      </trkpt>
      <trkpt lat="46.11796" lon="4.5651">
        <ele>427.8</ele>
        <time>2020-10-19T11:13:29Z</time>
      </trkpt>
      <trkpt lat="46.11796" lon="4.5651">
        <ele>428</ele>
        <time>2020-10-19T11:13:30Z</time>
      </trkpt>
      <trkpt lat="46.11793" lon="4.56513">
        <ele>428.2</ele>
        <time>2020-10-19T11:13:31Z</time>
      </trkpt>
      <trkpt lat="46.11793" lon="4.56513">
        <ele>428</ele>
        <time>2020-10-19T11:13:32Z</time>
      </trkpt>
      <trkpt lat="46.11791" lon="4.56516">
        <ele>427.8</ele>
        <time>2020-10-19T11:13:33Z</time>
      </trkpt>
      <trkpt lat="46.11791" lon="4.56516">
        <ele>427.6</ele>
        <time>2020-10-19T11:13:34Z</time>
      </trkpt>
      <trkpt lat="46.11789" lon="4.56519">
        <ele>427.4</ele>
        <time>2020-10-19T11:13:35Z</time>
      </trkpt>
      <trkpt lat="46.11787" lon="4.56521">
        <ele>427.4</ele>
        <time>2020-10-19T11:13:36Z</time>
      </trkpt>
      <trkpt lat="46.11787" lon="4.56521">
        <ele>427</ele>
        <time>2020-10-19T11:13:37Z</time>
      </trkpt>
      <trkpt lat="46.11785" lon="4.56523">
        <ele>427</ele>
        <time>2020-10-19T11:13:38Z</time>
      </trkpt>
      <trkpt lat="46.11785" lon="4.56523">
        <ele>427</ele>
        <time>2020-10-19T11:13:39Z</time>
      </trkpt>
      <trkpt lat="46.11782" lon="4.56525">
        <ele>426.8</ele>
        <time>2020-10-19T11:13:40Z</time>
      </trkpt>
      <trkpt lat="46.11782" lon="4.56525">
        <ele>427</ele>
        <time>2020-10-19T11:13:41Z</time>
      </trkpt>
      <trkpt lat="46.1178" lon="4.56527">
        <ele>427</ele>
        <time>2020-10-19T11:13:42Z</time>
      </trkpt>
      <trkpt lat="46.1178" lon="4.56527">
        <ele>427</ele>
        <time>2020-10-19T11:13:43Z</time>
      </trkpt>
      <trkpt lat="46.11778" lon="4.5653">
        <ele>427</ele>
        <time>2020-10-19T11:13:44Z</time>
      </trkpt>
      <trkpt lat="46.11778" lon="4.5653">
        <ele>427</ele>
        <time>2020-10-19T11:13:45Z</time>
      </trkpt>
      <trkpt lat="46.11775" lon="4.56532">
        <ele>427</ele>
        <time>2020-10-19T11:13:46Z</time>
      </trkpt>
      <trkpt lat="46.11775" lon="4.56532">
        <ele>427.2</ele>
        <time>2020-10-19T11:13:47Z</time>
      </trkpt>
      <trkpt lat="46.11772" lon="4.56534">
        <ele>427.4</ele>
        <time>2020-10-19T11:13:48Z</time>
      </trkpt>
      <trkpt lat="46.11772" lon="4.56534">
        <ele>427.4</ele>
        <time>2020-10-19T11:13:49Z</time>
      </trkpt>
      <trkpt lat="46.1177" lon="4.56536">
        <ele>427.4</ele>
        <time>2020-10-19T11:13:50Z</time>
      </trkpt>
      <trkpt lat="46.1177" lon="4.56536">
        <ele>427.2</ele>
        <time>2020-10-19T11:13:51Z</time>
      </trkpt>
      <trkpt lat="46.11768" lon="4.56538">
        <ele>427</ele>
        <time>2020-10-19T11:13:52Z</time>
      </trkpt>
      <trkpt lat="46.11768" lon="4.56538">
        <ele>426.6</ele>
        <time>2020-10-19T11:13:53Z</time>
      </trkpt>
      <trkpt lat="46.11765" lon="4.5654">
        <ele>426.4</ele>
        <time>2020-10-19T11:13:54Z</time>
      </trkpt>
      <trkpt lat="46.11765" lon="4.5654">
        <ele>426.2</ele>
        <time>2020-10-19T11:13:55Z</time>
      </trkpt>
      <trkpt lat="46.11762" lon="4.56542">
        <ele>426</ele>
        <time>2020-10-19T11:13:56Z</time>
      </trkpt>
      <trkpt lat="46.11761" lon="4.56544">
        <ele>426</ele>
        <time>2020-10-19T11:13:57Z</time>
      </trkpt>
      <trkpt lat="46.11761" lon="4.56544">
        <ele>426</ele>
        <time>2020-10-19T11:13:58Z</time>
      </trkpt>
      <trkpt lat="46.11758" lon="4.56547">
        <ele>425.8</ele>
        <time>2020-10-19T11:13:59Z</time>
      </trkpt>
      <trkpt lat="46.11758" lon="4.56547">
        <ele>425.6</ele>
        <time>2020-10-19T11:14:00Z</time>
      </trkpt>
      <trkpt lat="46.11755" lon="4.56549">
        <ele>425.4</ele>
        <time>2020-10-19T11:14:01Z</time>
      </trkpt>
      <trkpt lat="46.11755" lon="4.56549">
        <ele>425.4</ele>
        <time>2020-10-19T11:14:02Z</time>
      </trkpt>
      <trkpt lat="46.11753" lon="4.5655">
        <ele>425.6</ele>
        <time>2020-10-19T11:14:03Z</time>
      </trkpt>
      <trkpt lat="46.11753" lon="4.5655">
        <ele>425.4</ele>
        <time>2020-10-19T11:14:04Z</time>
      </trkpt>
      <trkpt lat="46.11751" lon="4.56552">
        <ele>425.4</ele>
        <time>2020-10-19T11:14:05Z</time>
      </trkpt>
      <trkpt lat="46.11751" lon="4.56552">
        <ele>425.2</ele>
        <time>2020-10-19T11:14:06Z</time>
      </trkpt>
      <trkpt lat="46.11749" lon="4.56555">
        <ele>425</ele>
        <time>2020-10-19T11:14:07Z</time>
      </trkpt>
      <trkpt lat="46.11749" lon="4.56555">
        <ele>425.2</ele>
        <time>2020-10-19T11:14:08Z</time>
      </trkpt>
      <trkpt lat="46.11747" lon="4.56558">
        <ele>425</ele>
        <time>2020-10-19T11:14:09Z</time>
      </trkpt>
      <trkpt lat="46.11747" lon="4.56558">
        <ele>424.8</ele>
        <time>2020-10-19T11:14:10Z</time>
      </trkpt>
      <trkpt lat="46.11744" lon="4.56561">
        <ele>424.8</ele>
        <time>2020-10-19T11:14:11Z</time>
      </trkpt>
      <trkpt lat="46.11744" lon="4.56561">
        <ele>424.8</ele>
        <time>2020-10-19T11:14:12Z</time>
      </trkpt>
      <trkpt lat="46.11742" lon="4.56565">
        <ele>424.8</ele>
        <time>2020-10-19T11:14:13Z</time>
      </trkpt>
      <trkpt lat="46.11742" lon="4.56565">
        <ele>425</ele>
        <time>2020-10-19T11:14:14Z</time>
      </trkpt>
      <trkpt lat="46.1174" lon="4.56568">
        <ele>425</ele>
        <time>2020-10-19T11:14:15Z</time>
      </trkpt>
      <trkpt lat="46.1174" lon="4.56568">
        <ele>425</ele>
        <time>2020-10-19T11:14:16Z</time>
      </trkpt>
      <trkpt lat="46.11737" lon="4.5657">
        <ele>424.8</ele>
        <time>2020-10-19T11:14:17Z</time>
      </trkpt>
      <trkpt lat="46.11737" lon="4.5657">
        <ele>424.6</ele>
        <time>2020-10-19T11:14:18Z</time>
      </trkpt>
      <trkpt lat="46.11734" lon="4.56571">
        <ele>424.6</ele>
        <time>2020-10-19T11:14:19Z</time>
      </trkpt>
      <trkpt lat="46.11734" lon="4.56571">
        <ele>424.6</ele>
        <time>2020-10-19T11:14:20Z</time>
      </trkpt>
      <trkpt lat="46.11732" lon="4.56571">
        <ele>424.4</ele>
        <time>2020-10-19T11:14:21Z</time>
      </trkpt>
      <trkpt lat="46.11732" lon="4.56571">
        <ele>424.2</ele>
        <time>2020-10-19T11:14:22Z</time>
      </trkpt>
      <trkpt lat="46.11732" lon="4.56571">
        <ele>424.2</ele>
        <time>2020-10-19T11:14:23Z</time>
      </trkpt>
      <trkpt lat="46.11729" lon="4.56571">
        <ele>424</ele>
        <time>2020-10-19T11:14:24Z</time>
      </trkpt>
      <trkpt lat="46.11729" lon="4.56571">
        <ele>423.8</ele>
        <time>2020-10-19T11:14:25Z</time>
      </trkpt>
      <trkpt lat="46.11727" lon="4.56571">
        <ele>423.6</ele>
        <time>2020-10-19T11:14:26Z</time>
      </trkpt>
      <trkpt lat="46.11727" lon="4.56571">
        <ele>423.2</ele>
        <time>2020-10-19T11:14:27Z</time>
      </trkpt>
      <trkpt lat="46.11724" lon="4.56572">
        <ele>423</ele>
        <time>2020-10-19T11:14:28Z</time>
      </trkpt>
      <trkpt lat="46.11724" lon="4.56572">
        <ele>422.8</ele>
        <time>2020-10-19T11:14:29Z</time>
      </trkpt>
      <trkpt lat="46.11724" lon="4.56572">
        <ele>422.8</ele>
        <time>2020-10-19T11:14:30Z</time>
      </trkpt>
      <trkpt lat="46.11722" lon="4.56572">
        <ele>422.4</ele>
        <time>2020-10-19T11:14:31Z</time>
      </trkpt>
      <trkpt lat="46.11722" lon="4.56572">
        <ele>422.2</ele>
        <time>2020-10-19T11:14:32Z</time>
      </trkpt>
      <trkpt lat="46.11722" lon="4.56575">
        <ele>422</ele>
        <time>2020-10-19T11:14:33Z</time>
      </trkpt>
      <trkpt lat="46.11722" lon="4.56575">
        <ele>422</ele>
        <time>2020-10-19T11:14:34Z</time>
      </trkpt>
      <trkpt lat="46.11719" lon="4.56578">
        <ele>422</ele>
        <time>2020-10-19T11:14:35Z</time>
      </trkpt>
      <trkpt lat="46.11719" lon="4.56578">
        <ele>422</ele>
        <time>2020-10-19T11:14:36Z</time>
      </trkpt>
      <trkpt lat="46.11716" lon="4.56581">
        <ele>421.4</ele>
        <time>2020-10-19T11:14:37Z</time>
      </trkpt>
      <trkpt lat="46.11714" lon="4.56582">
        <ele>420.8</ele>
        <time>2020-10-19T11:14:38Z</time>
      </trkpt>
      <trkpt lat="46.11712" lon="4.56583">
        <ele>420.8</ele>
        <time>2020-10-19T11:14:39Z</time>
      </trkpt>
      <trkpt lat="46.1171" lon="4.56585">
        <ele>420.4</ele>
        <time>2020-10-19T11:14:40Z</time>
      </trkpt>
      <trkpt lat="46.11708" lon="4.56587">
        <ele>419.8</ele>
        <time>2020-10-19T11:14:41Z</time>
      </trkpt>
      <trkpt lat="46.11705" lon="4.56588">
        <ele>419.6</ele>
        <time>2020-10-19T11:14:42Z</time>
      </trkpt>
      <trkpt lat="46.11702" lon="4.5659">
        <ele>419.6</ele>
        <time>2020-10-19T11:14:43Z</time>
      </trkpt>
      <trkpt lat="46.117" lon="4.56591">
        <ele>419</ele>
        <time>2020-10-19T11:14:44Z</time>
      </trkpt>
      <trkpt lat="46.11698" lon="4.56592">
        <ele>418.6</ele>
        <time>2020-10-19T11:14:45Z</time>
      </trkpt>
      <trkpt lat="46.11696" lon="4.56593">
        <ele>418</ele>
        <time>2020-10-19T11:14:46Z</time>
      </trkpt>
      <trkpt lat="46.11696" lon="4.56593">
        <ele>417.8</ele>
        <time>2020-10-19T11:14:47Z</time>
      </trkpt>
      <trkpt lat="46.11692" lon="4.56595">
        <ele>417.6</ele>
        <time>2020-10-19T11:14:48Z</time>
      </trkpt>
      <trkpt lat="46.1169" lon="4.56596">
        <ele>417.2</ele>
        <time>2020-10-19T11:14:49Z</time>
      </trkpt>
      <trkpt lat="46.1169" lon="4.56596">
        <ele>417</ele>
        <time>2020-10-19T11:14:50Z</time>
      </trkpt>
      <trkpt lat="46.11688" lon="4.56598">
        <ele>416.8</ele>
        <time>2020-10-19T11:14:51Z</time>
      </trkpt>
      <trkpt lat="46.11688" lon="4.56598">
        <ele>416.6</ele>
        <time>2020-10-19T11:14:52Z</time>
      </trkpt>
      <trkpt lat="46.11685" lon="4.56601">
        <ele>416.4</ele>
        <time>2020-10-19T11:14:53Z</time>
      </trkpt>
      <trkpt lat="46.11685" lon="4.56601">
        <ele>416.2</ele>
        <time>2020-10-19T11:14:54Z</time>
      </trkpt>
      <trkpt lat="46.11683" lon="4.56603">
        <ele>416.2</ele>
        <time>2020-10-19T11:14:55Z</time>
      </trkpt>
      <trkpt lat="46.11681" lon="4.56605">
        <ele>416</ele>
        <time>2020-10-19T11:14:56Z</time>
      </trkpt>
      <trkpt lat="46.1168" lon="4.56607">
        <ele>416</ele>
        <time>2020-10-19T11:14:57Z</time>
      </trkpt>
      <trkpt lat="46.11678" lon="4.56609">
        <ele>415.8</ele>
        <time>2020-10-19T11:14:58Z</time>
      </trkpt>
      <trkpt lat="46.11676" lon="4.56611">
        <ele>415.8</ele>
        <time>2020-10-19T11:14:59Z</time>
      </trkpt>
      <trkpt lat="46.11674" lon="4.56613">
        <ele>415.8</ele>
        <time>2020-10-19T11:15:00Z</time>
      </trkpt>
      <trkpt lat="46.11672" lon="4.56615">
        <ele>415.6</ele>
        <time>2020-10-19T11:15:01Z</time>
      </trkpt>
      <trkpt lat="46.1167" lon="4.56617">
        <ele>415.4</ele>
        <time>2020-10-19T11:15:02Z</time>
      </trkpt>
      <trkpt lat="46.11668" lon="4.56618">
        <ele>415.2</ele>
        <time>2020-10-19T11:15:03Z</time>
      </trkpt>
      <trkpt lat="46.11665" lon="4.5662">
        <ele>415</ele>
        <time>2020-10-19T11:15:04Z</time>
      </trkpt>
      <trkpt lat="46.11663" lon="4.56622">
        <ele>414.4</ele>
        <time>2020-10-19T11:15:05Z</time>
      </trkpt>
      <trkpt lat="46.11661" lon="4.56623">
        <ele>414.6</ele>
        <time>2020-10-19T11:15:06Z</time>
      </trkpt>
      <trkpt lat="46.11659" lon="4.56625">
        <ele>414.4</ele>
        <time>2020-10-19T11:15:07Z</time>
      </trkpt>
      <trkpt lat="46.11659" lon="4.56625">
        <ele>414.2</ele>
        <time>2020-10-19T11:15:08Z</time>
      </trkpt>
      <trkpt lat="46.11656" lon="4.56627">
        <ele>413.8</ele>
        <time>2020-10-19T11:15:09Z</time>
      </trkpt>
      <trkpt lat="46.11656" lon="4.56627">
        <ele>413.6</ele>
        <time>2020-10-19T11:15:10Z</time>
      </trkpt>
      <trkpt lat="46.11654" lon="4.56628">
        <ele>413.2</ele>
        <time>2020-10-19T11:15:11Z</time>
      </trkpt>
      <trkpt lat="46.11654" lon="4.56628">
        <ele>413.2</ele>
        <time>2020-10-19T11:15:12Z</time>
      </trkpt>
      <trkpt lat="46.11651" lon="4.56629">
        <ele>413</ele>
        <time>2020-10-19T11:15:13Z</time>
      </trkpt>
      <trkpt lat="46.11651" lon="4.56629">
        <ele>413.2</ele>
        <time>2020-10-19T11:15:14Z</time>
      </trkpt>
      <trkpt lat="46.11649" lon="4.56629">
        <ele>412.8</ele>
        <time>2020-10-19T11:15:15Z</time>
      </trkpt>
      <trkpt lat="46.11649" lon="4.56629">
        <ele>412.8</ele>
        <time>2020-10-19T11:15:16Z</time>
      </trkpt>
      <trkpt lat="46.11649" lon="4.56629">
        <ele>412.6</ele>
        <time>2020-10-19T11:15:17Z</time>
      </trkpt>
      <trkpt lat="46.11649" lon="4.56629">
        <ele>412.8</ele>
        <time>2020-10-19T11:15:18Z</time>
      </trkpt>
      <trkpt lat="46.11649" lon="4.56629">
        <ele>412.8</ele>
        <time>2020-10-19T11:15:19Z</time>
      </trkpt>
      <trkpt lat="46.11649" lon="4.56629">
        <ele>412.6</ele>
        <time>2020-10-19T11:15:20Z</time>
      </trkpt>
      <trkpt lat="46.11648" lon="4.56632">
        <ele>412.6</ele>
        <time>2020-10-19T11:15:21Z</time>
      </trkpt>
      <trkpt lat="46.11646" lon="4.56634">
        <ele>412.4</ele>
        <time>2020-10-19T11:15:22Z</time>
      </trkpt>
      <trkpt lat="46.11645" lon="4.56635">
        <ele>412.8</ele>
        <time>2020-10-19T11:15:23Z</time>
      </trkpt>
      <trkpt lat="46.11643" lon="4.56637">
        <ele>412.4</ele>
        <time>2020-10-19T11:15:24Z</time>
      </trkpt>
      <trkpt lat="46.1164" lon="4.56639">
        <ele>412</ele>
        <time>2020-10-19T11:15:25Z</time>
      </trkpt>
      <trkpt lat="46.11638" lon="4.5664">
        <ele>412</ele>
        <time>2020-10-19T11:15:26Z</time>
      </trkpt>
      <trkpt lat="46.11636" lon="4.56642">
        <ele>411.6</ele>
        <time>2020-10-19T11:15:27Z</time>
      </trkpt>
      <trkpt lat="46.11633" lon="4.56644">
        <ele>411.2</ele>
        <time>2020-10-19T11:15:28Z</time>
      </trkpt>
      <trkpt lat="46.11631" lon="4.56647">
        <ele>411.2</ele>
        <time>2020-10-19T11:15:29Z</time>
      </trkpt>
      <trkpt lat="46.11629" lon="4.56649">
        <ele>411.4</ele>
        <time>2020-10-19T11:15:30Z</time>
      </trkpt>
      <trkpt lat="46.11627" lon="4.56651">
        <ele>411</ele>
        <time>2020-10-19T11:15:31Z</time>
      </trkpt>
      <trkpt lat="46.11627" lon="4.56651">
        <ele>410.4</ele>
        <time>2020-10-19T11:15:32Z</time>
      </trkpt>
      <trkpt lat="46.11624" lon="4.56652">
        <ele>410.2</ele>
        <time>2020-10-19T11:15:33Z</time>
      </trkpt>
      <trkpt lat="46.11624" lon="4.56652">
        <ele>410</ele>
        <time>2020-10-19T11:15:34Z</time>
      </trkpt>
      <trkpt lat="46.11622" lon="4.56653">
        <ele>409.8</ele>
        <time>2020-10-19T11:15:35Z</time>
      </trkpt>
      <trkpt lat="46.11622" lon="4.56653">
        <ele>409.8</ele>
        <time>2020-10-19T11:15:36Z</time>
      </trkpt>
      <trkpt lat="46.11622" lon="4.56653">
        <ele>409.4</ele>
        <time>2020-10-19T11:15:37Z</time>
      </trkpt>
      <trkpt lat="46.11622" lon="4.56653">
        <ele>409.6</ele>
        <time>2020-10-19T11:15:38Z</time>
      </trkpt>
      <trkpt lat="46.11622" lon="4.56653">
        <ele>409.8</ele>
        <time>2020-10-19T11:15:39Z</time>
      </trkpt>
      <trkpt lat="46.11622" lon="4.56653">
        <ele>410</ele>
        <time>2020-10-19T11:15:40Z</time>
      </trkpt>
      <trkpt lat="46.11622" lon="4.56653">
        <ele>410</ele>
        <time>2020-10-19T11:15:41Z</time>
      </trkpt>
      <trkpt lat="46.11622" lon="4.56653">
        <ele>410.2</ele>
        <time>2020-10-19T11:15:42Z</time>
      </trkpt>
      <trkpt lat="46.11622" lon="4.56653">
        <ele>410.4</ele>
        <time>2020-10-19T11:15:43Z</time>
      </trkpt>
      <trkpt lat="46.11622" lon="4.56653">
        <ele>410.4</ele>
        <time>2020-10-19T11:15:44Z</time>
      </trkpt>
      <trkpt lat="46.11622" lon="4.56653">
        <ele>410.4</ele>
        <time>2020-10-19T11:15:45Z</time>
      </trkpt>
      <trkpt lat="46.11622" lon="4.56653">
        <ele>410</ele>
        <time>2020-10-19T11:15:46Z</time>
      </trkpt>
      <trkpt lat="46.11622" lon="4.56653">
        <ele>409.6</ele>
        <time>2020-10-19T11:15:47Z</time>
      </trkpt>
      <trkpt lat="46.11622" lon="4.56653">
        <ele>409.6</ele>
        <time>2020-10-19T11:15:48Z</time>
      </trkpt>
      <trkpt lat="46.11622" lon="4.56653">
        <ele>409.4</ele>
        <time>2020-10-19T11:15:49Z</time>
      </trkpt>
      <trkpt lat="46.11622" lon="4.56653">
        <ele>409.2</ele>
        <time>2020-10-19T11:15:50Z</time>
      </trkpt>
      <trkpt lat="46.11622" lon="4.56653">
        <ele>409</ele>
        <time>2020-10-19T11:15:51Z</time>
      </trkpt>
      <trkpt lat="46.11622" lon="4.56653">
        <ele>409</ele>
        <time>2020-10-19T11:15:52Z</time>
      </trkpt>
      <trkpt lat="46.11622" lon="4.56653">
        <ele>409.2</ele>
        <time>2020-10-19T11:15:53Z</time>
      </trkpt>
      <trkpt lat="46.11622" lon="4.56653">
        <ele>409.4</ele>
        <time>2020-10-19T11:15:54Z</time>
      </trkpt>
      <trkpt lat="46.1162" lon="4.56655">
        <ele>409.4</ele>
        <time>2020-10-19T11:15:55Z</time>
      </trkpt>
      <trkpt lat="46.11619" lon="4.56657">
        <ele>409.6</ele>
        <time>2020-10-19T11:15:56Z</time>
      </trkpt>
      <trkpt lat="46.11617" lon="4.56659">
        <ele>409.2</ele>
        <time>2020-10-19T11:15:57Z</time>
      </trkpt>
      <trkpt lat="46.11615" lon="4.56662">
        <ele>409.4</ele>
        <time>2020-10-19T11:15:58Z</time>
      </trkpt>
      <trkpt lat="46.11613" lon="4.56664">
        <ele>409.6</ele>
        <time>2020-10-19T11:15:59Z</time>
      </trkpt>
      <trkpt lat="46.11612" lon="4.56666">
        <ele>409</ele>
        <time>2020-10-19T11:16:00Z</time>
      </trkpt>
      <trkpt lat="46.11609" lon="4.56669">
        <ele>408.4</ele>
        <time>2020-10-19T11:16:01Z</time>
      </trkpt>
      <trkpt lat="46.11607" lon="4.56672">
        <ele>408.6</ele>
        <time>2020-10-19T11:16:02Z</time>
      </trkpt>
      <trkpt lat="46.11605" lon="4.56674">
        <ele>408.2</ele>
        <time>2020-10-19T11:16:03Z</time>
      </trkpt>
      <trkpt lat="46.11603" lon="4.56677">
        <ele>407.8</ele>
        <time>2020-10-19T11:16:04Z</time>
      </trkpt>
      <trkpt lat="46.116" lon="4.56679">
        <ele>407.6</ele>
        <time>2020-10-19T11:16:05Z</time>
      </trkpt>
      <trkpt lat="46.11598" lon="4.56682">
        <ele>407.2</ele>
        <time>2020-10-19T11:16:06Z</time>
      </trkpt>
      <trkpt lat="46.11596" lon="4.56685">
        <ele>406.6</ele>
        <time>2020-10-19T11:16:07Z</time>
      </trkpt>
      <trkpt lat="46.11595" lon="4.56687">
        <ele>406.4</ele>
        <time>2020-10-19T11:16:08Z</time>
      </trkpt>
      <trkpt lat="46.11593" lon="4.5669">
        <ele>405.8</ele>
        <time>2020-10-19T11:16:09Z</time>
      </trkpt>
      <trkpt lat="46.11591" lon="4.56693">
        <ele>405.4</ele>
        <time>2020-10-19T11:16:10Z</time>
      </trkpt>
      <trkpt lat="46.1159" lon="4.56696">
        <ele>405.4</ele>
        <time>2020-10-19T11:16:11Z</time>
      </trkpt>
      <trkpt lat="46.11588" lon="4.56699">
        <ele>405</ele>
        <time>2020-10-19T11:16:12Z</time>
      </trkpt>
      <trkpt lat="46.11586" lon="4.56701">
        <ele>404.6</ele>
        <time>2020-10-19T11:16:13Z</time>
      </trkpt>
      <trkpt lat="46.11583" lon="4.56702">
        <ele>403.8</ele>
        <time>2020-10-19T11:16:14Z</time>
      </trkpt>
      <trkpt lat="46.11581" lon="4.56703">
        <ele>403.2</ele>
        <time>2020-10-19T11:16:15Z</time>
      </trkpt>
      <trkpt lat="46.11579" lon="4.56703">
        <ele>402.8</ele>
        <time>2020-10-19T11:16:16Z</time>
      </trkpt>
      <trkpt lat="46.11576" lon="4.56702">
        <ele>402.4</ele>
        <time>2020-10-19T11:16:17Z</time>
      </trkpt>
      <trkpt lat="46.11574" lon="4.56699">
        <ele>402.2</ele>
        <time>2020-10-19T11:16:18Z</time>
      </trkpt>
      <trkpt lat="46.11571" lon="4.56696">
        <ele>401.4</ele>
        <time>2020-10-19T11:16:19Z</time>
      </trkpt>
      <trkpt lat="46.11569" lon="4.56693">
        <ele>400.8</ele>
        <time>2020-10-19T11:16:20Z</time>
      </trkpt>
      <trkpt lat="46.11568" lon="4.5669">
        <ele>400.6</ele>
        <time>2020-10-19T11:16:21Z</time>
      </trkpt>
      <trkpt lat="46.11568" lon="4.5669">
        <ele>400</ele>
        <time>2020-10-19T11:16:22Z</time>
      </trkpt>
      <trkpt lat="46.11567" lon="4.56685">
        <ele>399.4</ele>
        <time>2020-10-19T11:16:23Z</time>
      </trkpt>
      <trkpt lat="46.11567" lon="4.56685">
        <ele>399</ele>
        <time>2020-10-19T11:16:24Z</time>
      </trkpt>
      <trkpt lat="46.11565" lon="4.56682">
        <ele>398.4</ele>
        <time>2020-10-19T11:16:25Z</time>
      </trkpt>
      <trkpt lat="46.11565" lon="4.56682">
        <ele>398</ele>
        <time>2020-10-19T11:16:26Z</time>
      </trkpt>
      <trkpt lat="46.11563" lon="4.56678">
        <ele>397.6</ele>
        <time>2020-10-19T11:16:27Z</time>
      </trkpt>
      <trkpt lat="46.11563" lon="4.56678">
        <ele>397.2</ele>
        <time>2020-10-19T11:16:28Z</time>
      </trkpt>
      <trkpt lat="46.11561" lon="4.56675">
        <ele>396.8</ele>
        <time>2020-10-19T11:16:29Z</time>
      </trkpt>
      <trkpt lat="46.11561" lon="4.56675">
        <ele>396.4</ele>
        <time>2020-10-19T11:16:30Z</time>
      </trkpt>
      <trkpt lat="46.11558" lon="4.56673">
        <ele>396</ele>
        <time>2020-10-19T11:16:31Z</time>
      </trkpt>
      <trkpt lat="46.11558" lon="4.56673">
        <ele>395.8</ele>
        <time>2020-10-19T11:16:32Z</time>
      </trkpt>
      <trkpt lat="46.11556" lon="4.56674">
        <ele>395.6</ele>
        <time>2020-10-19T11:16:33Z</time>
      </trkpt>
      <trkpt lat="46.11556" lon="4.56674">
        <ele>395.4</ele>
        <time>2020-10-19T11:16:34Z</time>
      </trkpt>
      <trkpt lat="46.11554" lon="4.56676">
        <ele>395.4</ele>
        <time>2020-10-19T11:16:35Z</time>
      </trkpt>
      <trkpt lat="46.11554" lon="4.56676">
        <ele>395.2</ele>
        <time>2020-10-19T11:16:36Z</time>
      </trkpt>
      <trkpt lat="46.11551" lon="4.56677">
        <ele>395</ele>
        <time>2020-10-19T11:16:37Z</time>
      </trkpt>
      <trkpt lat="46.11551" lon="4.56677">
        <ele>394.8</ele>
        <time>2020-10-19T11:16:38Z</time>
      </trkpt>
      <trkpt lat="46.11549" lon="4.56679">
        <ele>395</ele>
        <time>2020-10-19T11:16:39Z</time>
      </trkpt>
      <trkpt lat="46.11549" lon="4.56679">
        <ele>395</ele>
        <time>2020-10-19T11:16:40Z</time>
      </trkpt>
      <trkpt lat="46.11548" lon="4.56681">
        <ele>394.8</ele>
        <time>2020-10-19T11:16:41Z</time>
      </trkpt>
      <trkpt lat="46.11548" lon="4.56681">
        <ele>394.6</ele>
        <time>2020-10-19T11:16:42Z</time>
      </trkpt>
      <trkpt lat="46.11546" lon="4.56684">
        <ele>394.4</ele>
        <time>2020-10-19T11:16:43Z</time>
      </trkpt>
      <trkpt lat="46.11546" lon="4.56684">
        <ele>394.2</ele>
        <time>2020-10-19T11:16:44Z</time>
      </trkpt>
      <trkpt lat="46.11545" lon="4.56687">
        <ele>394</ele>
        <time>2020-10-19T11:16:45Z</time>
      </trkpt>
      <trkpt lat="46.11545" lon="4.56687">
        <ele>394</ele>
        <time>2020-10-19T11:16:46Z</time>
      </trkpt>
      <trkpt lat="46.11543" lon="4.5669">
        <ele>393.6</ele>
        <time>2020-10-19T11:16:47Z</time>
      </trkpt>
      <trkpt lat="46.11541" lon="4.56692">
        <ele>393.6</ele>
        <time>2020-10-19T11:16:48Z</time>
      </trkpt>
      <trkpt lat="46.1154" lon="4.56694">
        <ele>393.4</ele>
        <time>2020-10-19T11:16:49Z</time>
      </trkpt>
      <trkpt lat="46.1154" lon="4.56694">
        <ele>393.4</ele>
        <time>2020-10-19T11:16:50Z</time>
      </trkpt>
      <trkpt lat="46.11537" lon="4.56698">
        <ele>393.2</ele>
        <time>2020-10-19T11:16:51Z</time>
      </trkpt>
      <trkpt lat="46.11537" lon="4.56698">
        <ele>393.2</ele>
        <time>2020-10-19T11:16:52Z</time>
      </trkpt>
      <trkpt lat="46.11535" lon="4.56701">
        <ele>393</ele>
        <time>2020-10-19T11:16:53Z</time>
      </trkpt>
      <trkpt lat="46.11535" lon="4.56701">
        <ele>392.8</ele>
        <time>2020-10-19T11:16:54Z</time>
      </trkpt>
      <trkpt lat="46.11533" lon="4.56706">
        <ele>392.4</ele>
        <time>2020-10-19T11:16:55Z</time>
      </trkpt>
      <trkpt lat="46.11532" lon="4.56708">
        <ele>392.6</ele>
        <time>2020-10-19T11:16:56Z</time>
      </trkpt>
      <trkpt lat="46.11531" lon="4.56711">
        <ele>392.2</ele>
        <time>2020-10-19T11:16:57Z</time>
      </trkpt>
      <trkpt lat="46.1153" lon="4.56713">
        <ele>392</ele>
        <time>2020-10-19T11:16:58Z</time>
      </trkpt>
      <trkpt lat="46.11528" lon="4.56715">
        <ele>392.4</ele>
        <time>2020-10-19T11:16:59Z</time>
      </trkpt>
      <trkpt lat="46.11526" lon="4.56718">
        <ele>392</ele>
        <time>2020-10-19T11:17:00Z</time>
      </trkpt>
      <trkpt lat="46.11525" lon="4.5672">
        <ele>391.8</ele>
        <time>2020-10-19T11:17:01Z</time>
      </trkpt>
      <trkpt lat="46.11523" lon="4.56723">
        <ele>392.2</ele>
        <time>2020-10-19T11:17:02Z</time>
      </trkpt>
      <trkpt lat="46.11522" lon="4.56725">
        <ele>391.8</ele>
        <time>2020-10-19T11:17:03Z</time>
      </trkpt>
      <trkpt lat="46.1152" lon="4.56728">
        <ele>391.6</ele>
        <time>2020-10-19T11:17:04Z</time>
      </trkpt>
      <trkpt lat="46.11518" lon="4.56731">
        <ele>391.6</ele>
        <time>2020-10-19T11:17:05Z</time>
      </trkpt>
      <trkpt lat="46.11516" lon="4.56733">
        <ele>391.2</ele>
        <time>2020-10-19T11:17:06Z</time>
      </trkpt>
      <trkpt lat="46.11515" lon="4.56736">
        <ele>390.8</ele>
        <time>2020-10-19T11:17:07Z</time>
      </trkpt>
      <trkpt lat="46.11513" lon="4.56739">
        <ele>391</ele>
        <time>2020-10-19T11:17:08Z</time>
      </trkpt>
      <trkpt lat="46.11512" lon="4.56741">
        <ele>390.8</ele>
        <time>2020-10-19T11:17:09Z</time>
      </trkpt>
      <trkpt lat="46.1151" lon="4.56744">
        <ele>390.4</ele>
        <time>2020-10-19T11:17:10Z</time>
      </trkpt>
      <trkpt lat="46.11508" lon="4.56747">
        <ele>390.6</ele>
        <time>2020-10-19T11:17:11Z</time>
      </trkpt>
      <trkpt lat="46.11507" lon="4.56749">
        <ele>390.4</ele>
        <time>2020-10-19T11:17:12Z</time>
      </trkpt>
      <trkpt lat="46.11505" lon="4.56752">
        <ele>390.2</ele>
        <time>2020-10-19T11:17:13Z</time>
      </trkpt>
      <trkpt lat="46.11504" lon="4.56755">
        <ele>390.4</ele>
        <time>2020-10-19T11:17:14Z</time>
      </trkpt>
      <trkpt lat="46.11502" lon="4.56758">
        <ele>390.2</ele>
        <time>2020-10-19T11:17:15Z</time>
      </trkpt>
      <trkpt lat="46.115" lon="4.56761">
        <ele>390</ele>
        <time>2020-10-19T11:17:16Z</time>
      </trkpt>
      <trkpt lat="46.11499" lon="4.56763">
        <ele>390.2</ele>
        <time>2020-10-19T11:17:17Z</time>
      </trkpt>
      <trkpt lat="46.11498" lon="4.56766">
        <ele>390</ele>
        <time>2020-10-19T11:17:18Z</time>
      </trkpt>
      <trkpt lat="46.11497" lon="4.56769">
        <ele>390</ele>
        <time>2020-10-19T11:17:19Z</time>
      </trkpt>
      <trkpt lat="46.11495" lon="4.56771">
        <ele>389.8</ele>
        <time>2020-10-19T11:17:20Z</time>
      </trkpt>
      <trkpt lat="46.11494" lon="4.56774">
        <ele>390</ele>
        <time>2020-10-19T11:17:21Z</time>
      </trkpt>
      <trkpt lat="46.11492" lon="4.56777">
        <ele>390</ele>
        <time>2020-10-19T11:17:22Z</time>
      </trkpt>
      <trkpt lat="46.11491" lon="4.5678">
        <ele>390</ele>
        <time>2020-10-19T11:17:23Z</time>
      </trkpt>
      <trkpt lat="46.11489" lon="4.56783">
        <ele>390</ele>
        <time>2020-10-19T11:17:24Z</time>
      </trkpt>
      <trkpt lat="46.11488" lon="4.56786">
        <ele>389.8</ele>
        <time>2020-10-19T11:17:25Z</time>
      </trkpt>
      <trkpt lat="46.11487" lon="4.5679">
        <ele>389.8</ele>
        <time>2020-10-19T11:17:26Z</time>
      </trkpt>
      <trkpt lat="46.11486" lon="4.56793">
        <ele>390</ele>
        <time>2020-10-19T11:17:27Z</time>
      </trkpt>
      <trkpt lat="46.11486" lon="4.56797">
        <ele>389.8</ele>
        <time>2020-10-19T11:17:28Z</time>
      </trkpt>
      <trkpt lat="46.11485" lon="4.568">
        <ele>389.6</ele>
        <time>2020-10-19T11:17:29Z</time>
      </trkpt>
      <trkpt lat="46.11485" lon="4.56804">
        <ele>389.6</ele>
        <time>2020-10-19T11:17:30Z</time>
      </trkpt>
      <trkpt lat="46.11484" lon="4.56808">
        <ele>389.4</ele>
        <time>2020-10-19T11:17:31Z</time>
      </trkpt>
      <trkpt lat="46.11484" lon="4.56811">
        <ele>388.8</ele>
        <time>2020-10-19T11:17:32Z</time>
      </trkpt>
      <trkpt lat="46.11483" lon="4.56814">
        <ele>389.2</ele>
        <time>2020-10-19T11:17:33Z</time>
      </trkpt>
      <trkpt lat="46.11483" lon="4.56818">
        <ele>389</ele>
        <time>2020-10-19T11:17:34Z</time>
      </trkpt>
      <trkpt lat="46.11482" lon="4.56822">
        <ele>388.4</ele>
        <time>2020-10-19T11:17:35Z</time>
      </trkpt>
      <trkpt lat="46.11482" lon="4.56825">
        <ele>389</ele>
        <time>2020-10-19T11:17:36Z</time>
      </trkpt>
      <trkpt lat="46.11481" lon="4.56829">
        <ele>388.8</ele>
        <time>2020-10-19T11:17:37Z</time>
      </trkpt>
      <trkpt lat="46.1148" lon="4.56833">
        <ele>388.6</ele>
        <time>2020-10-19T11:17:38Z</time>
      </trkpt>
      <trkpt lat="46.1148" lon="4.56837">
        <ele>389</ele>
        <time>2020-10-19T11:17:39Z</time>
      </trkpt>
      <trkpt lat="46.11479" lon="4.5684">
        <ele>388.8</ele>
        <time>2020-10-19T11:17:40Z</time>
      </trkpt>
      <trkpt lat="46.11479" lon="4.56844">
        <ele>388.4</ele>
        <time>2020-10-19T11:17:41Z</time>
      </trkpt>
      <trkpt lat="46.11478" lon="4.56847">
        <ele>388.8</ele>
        <time>2020-10-19T11:17:42Z</time>
      </trkpt>
      <trkpt lat="46.11478" lon="4.5685">
        <ele>388.8</ele>
        <time>2020-10-19T11:17:43Z</time>
      </trkpt>
      <trkpt lat="46.11477" lon="4.56853">
        <ele>388.6</ele>
        <time>2020-10-19T11:17:44Z</time>
      </trkpt>
      <trkpt lat="46.11476" lon="4.56857">
        <ele>388.6</ele>
        <time>2020-10-19T11:17:45Z</time>
      </trkpt>
      <trkpt lat="46.11475" lon="4.56861">
        <ele>388.8</ele>
        <time>2020-10-19T11:17:46Z</time>
      </trkpt>
      <trkpt lat="46.11474" lon="4.56864">
        <ele>388.8</ele>
        <time>2020-10-19T11:17:47Z</time>
      </trkpt>
      <trkpt lat="46.11474" lon="4.56868">
        <ele>388.6</ele>
        <time>2020-10-19T11:17:48Z</time>
      </trkpt>
      <trkpt lat="46.11473" lon="4.56871">
        <ele>388.4</ele>
        <time>2020-10-19T11:17:49Z</time>
      </trkpt>
      <trkpt lat="46.11472" lon="4.56875">
        <ele>388.2</ele>
        <time>2020-10-19T11:17:50Z</time>
      </trkpt>
      <trkpt lat="46.11471" lon="4.56878">
        <ele>388.2</ele>
        <time>2020-10-19T11:17:51Z</time>
      </trkpt>
      <trkpt lat="46.11471" lon="4.56881">
        <ele>388.2</ele>
        <time>2020-10-19T11:17:52Z</time>
      </trkpt>
      <trkpt lat="46.11469" lon="4.56885">
        <ele>388</ele>
        <time>2020-10-19T11:17:53Z</time>
      </trkpt>
      <trkpt lat="46.11468" lon="4.56889">
        <ele>388</ele>
        <time>2020-10-19T11:17:54Z</time>
      </trkpt>
      <trkpt lat="46.11466" lon="4.56892">
        <ele>388.2</ele>
        <time>2020-10-19T11:17:55Z</time>
      </trkpt>
      <trkpt lat="46.11465" lon="4.56895">
        <ele>387.8</ele>
        <time>2020-10-19T11:17:56Z</time>
      </trkpt>
      <trkpt lat="46.11464" lon="4.56899">
        <ele>387.8</ele>
        <time>2020-10-19T11:17:57Z</time>
      </trkpt>
      <trkpt lat="46.11463" lon="4.56902">
        <ele>387.8</ele>
        <time>2020-10-19T11:17:58Z</time>
      </trkpt>
      <trkpt lat="46.11462" lon="4.56905">
        <ele>387.6</ele>
        <time>2020-10-19T11:17:59Z</time>
      </trkpt>
      <trkpt lat="46.1146" lon="4.56908">
        <ele>387.6</ele>
        <time>2020-10-19T11:18:00Z</time>
      </trkpt>
      <trkpt lat="46.11458" lon="4.56911">
        <ele>387.6</ele>
        <time>2020-10-19T11:18:01Z</time>
      </trkpt>
      <trkpt lat="46.11456" lon="4.56914">
        <ele>387.4</ele>
        <time>2020-10-19T11:18:02Z</time>
      </trkpt>
      <trkpt lat="46.11455" lon="4.56918">
        <ele>387.2</ele>
        <time>2020-10-19T11:18:03Z</time>
      </trkpt>
      <trkpt lat="46.11454" lon="4.56921">
        <ele>387.6</ele>
        <time>2020-10-19T11:18:04Z</time>
      </trkpt>
      <trkpt lat="46.11452" lon="4.56924">
        <ele>387.2</ele>
        <time>2020-10-19T11:18:05Z</time>
      </trkpt>
      <trkpt lat="46.11452" lon="4.56927">
        <ele>387</ele>
        <time>2020-10-19T11:18:06Z</time>
      </trkpt>
      <trkpt lat="46.1145" lon="4.5693">
        <ele>387.4</ele>
        <time>2020-10-19T11:18:07Z</time>
      </trkpt>
      <trkpt lat="46.11449" lon="4.56932">
        <ele>387</ele>
        <time>2020-10-19T11:18:08Z</time>
      </trkpt>
      <trkpt lat="46.11448" lon="4.56935">
        <ele>386.6</ele>
        <time>2020-10-19T11:18:09Z</time>
      </trkpt>
      <trkpt lat="46.11446" lon="4.56938">
        <ele>386.6</ele>
        <time>2020-10-19T11:18:10Z</time>
      </trkpt>
      <trkpt lat="46.11445" lon="4.56941">
        <ele>387</ele>
        <time>2020-10-19T11:18:11Z</time>
      </trkpt>
      <trkpt lat="46.11443" lon="4.56944">
        <ele>386.4</ele>
        <time>2020-10-19T11:18:12Z</time>
      </trkpt>
      <trkpt lat="46.11441" lon="4.56947">
        <ele>386</ele>
        <time>2020-10-19T11:18:13Z</time>
      </trkpt>
      <trkpt lat="46.1144" lon="4.5695">
        <ele>386</ele>
        <time>2020-10-19T11:18:14Z</time>
      </trkpt>
      <trkpt lat="46.11438" lon="4.56953">
        <ele>385.4</ele>
        <time>2020-10-19T11:18:15Z</time>
      </trkpt>
      <trkpt lat="46.11437" lon="4.56956">
        <ele>385.2</ele>
        <time>2020-10-19T11:18:16Z</time>
      </trkpt>
      <trkpt lat="46.11435" lon="4.56959">
        <ele>385.2</ele>
        <time>2020-10-19T11:18:17Z</time>
      </trkpt>
      <trkpt lat="46.11433" lon="4.56961">
        <ele>384.6</ele>
        <time>2020-10-19T11:18:18Z</time>
      </trkpt>
      <trkpt lat="46.11431" lon="4.56963">
        <ele>384.2</ele>
        <time>2020-10-19T11:18:19Z</time>
      </trkpt>
      <trkpt lat="46.11429" lon="4.56965">
        <ele>384.2</ele>
        <time>2020-10-19T11:18:20Z</time>
      </trkpt>
      <trkpt lat="46.11426" lon="4.56968">
        <ele>384</ele>
        <time>2020-10-19T11:18:21Z</time>
      </trkpt>
      <trkpt lat="46.11424" lon="4.5697">
        <ele>383.2</ele>
        <time>2020-10-19T11:18:22Z</time>
      </trkpt>
      <trkpt lat="46.11422" lon="4.56972">
        <ele>383.4</ele>
        <time>2020-10-19T11:18:23Z</time>
      </trkpt>
      <trkpt lat="46.1142" lon="4.56973">
        <ele>383.2</ele>
        <time>2020-10-19T11:18:24Z</time>
      </trkpt>
      <trkpt lat="46.11417" lon="4.56973">
        <ele>382.8</ele>
        <time>2020-10-19T11:18:25Z</time>
      </trkpt>
      <trkpt lat="46.11415" lon="4.56974">
        <ele>382.6</ele>
        <time>2020-10-19T11:18:26Z</time>
      </trkpt>
      <trkpt lat="46.11412" lon="4.56975">
        <ele>382.6</ele>
        <time>2020-10-19T11:18:27Z</time>
      </trkpt>
      <trkpt lat="46.1141" lon="4.56975">
        <ele>382.2</ele>
        <time>2020-10-19T11:18:28Z</time>
      </trkpt>
      <trkpt lat="46.11408" lon="4.56976">
        <ele>381.8</ele>
        <time>2020-10-19T11:18:29Z</time>
      </trkpt>
      <trkpt lat="46.11406" lon="4.56977">
        <ele>381.8</ele>
        <time>2020-10-19T11:18:30Z</time>
      </trkpt>
      <trkpt lat="46.11403" lon="4.56977">
        <ele>381.6</ele>
        <time>2020-10-19T11:18:31Z</time>
      </trkpt>
      <trkpt lat="46.11401" lon="4.56978">
        <ele>381</ele>
        <time>2020-10-19T11:18:32Z</time>
      </trkpt>
      <trkpt lat="46.11398" lon="4.56978">
        <ele>381</ele>
        <time>2020-10-19T11:18:33Z</time>
      </trkpt>
      <trkpt lat="46.11395" lon="4.5698">
        <ele>381</ele>
        <time>2020-10-19T11:18:34Z</time>
      </trkpt>
      <trkpt lat="46.11392" lon="4.56981">
        <ele>380.6</ele>
        <time>2020-10-19T11:18:35Z</time>
      </trkpt>
      <trkpt lat="46.11388" lon="4.56982">
        <ele>380.6</ele>
        <time>2020-10-19T11:18:36Z</time>
      </trkpt>
      <trkpt lat="46.11385" lon="4.56983">
        <ele>380.6</ele>
        <time>2020-10-19T11:18:37Z</time>
      </trkpt>
      <trkpt lat="46.11383" lon="4.56983">
        <ele>380.2</ele>
        <time>2020-10-19T11:18:38Z</time>
      </trkpt>
      <trkpt lat="46.11381" lon="4.56983">
        <ele>379.8</ele>
        <time>2020-10-19T11:18:39Z</time>
      </trkpt>
      <trkpt lat="46.11381" lon="4.56983">
        <ele>379.6</ele>
        <time>2020-10-19T11:18:40Z</time>
      </trkpt>
      <trkpt lat="46.11377" lon="4.56983">
        <ele>379.6</ele>
        <time>2020-10-19T11:18:41Z</time>
      </trkpt>
      <trkpt lat="46.11377" lon="4.56983">
        <ele>379.6</ele>
        <time>2020-10-19T11:18:42Z</time>
      </trkpt>
      <trkpt lat="46.11375" lon="4.56982">
        <ele>379.2</ele>
        <time>2020-10-19T11:18:43Z</time>
      </trkpt>
    </trkseg>
  </trk>
</gpx>